<?xml version='1.0' encoding='UTF-8'?><gpx version="1.1" creator="JPX - https://github.com/jenetics/jpx" xmlns="http://www.topografix.com/GPX/1/1"><trk><trkseg><trkpt lat="45.6202517" lon="9.04975"><ele>207.99999999999997</ele><time>2026-04-18T05:36:46.444Z</time></trkpt><trkpt lat="45.6201867" lon="9.0497283"><ele>208.0</ele><time>2026-04-18T05:36:48.445Z</time></trkpt><trkpt lat="45.620105" lon="9.0497067"><ele>208.0</ele><time>2026-04-18T05:36:50.445Z</time></trkpt><trkpt lat="45.62001" lon="9.0496867"><ele>208.0</ele><time>2026-04-18T05:36:52.444Z</time></trkpt><trkpt lat="45.61991" lon="9.0496833"><ele>207.99999999999997</ele><time>2026-04-18T05:36:54.444Z</time></trkpt><trkpt lat="45.61981" lon="9.049675"><ele>208.0</ele><time>2026-04-18T05:36:56.445Z</time></trkpt><trkpt lat="45.6196783" lon="9.0496317"><ele>208.0</ele><time>2026-04-18T05:36:58.445Z</time></trkpt><trkpt lat="45.6196133" lon="9.0496117"><ele>208.0</ele><time>2026-04-18T05:36:59.444Z</time></trkpt><trkpt lat="45.6195067" lon="9.0495883"><ele>208.0</ele><time>2026-04-18T05:37:01.444Z</time></trkpt><trkpt lat="45.6194167" lon="9.049555"><ele>208.0</ele><time>2026-04-18T05:37:03.442Z</time></trkpt><trkpt lat="45.6193167" lon="9.04949"><ele>208.0</ele><time>2026-04-18T05:37:05.444Z</time></trkpt><trkpt lat="45.6192283" lon="9.04947"><ele>208.16666666666666</ele><time>2026-04-18T05:37:07.443Z</time></trkpt><trkpt lat="45.6191583" lon="9.04946"><ele>208.33333333333331</ele><time>2026-04-18T05:37:09.443Z</time></trkpt><trkpt lat="45.619095" lon="9.0494583"><ele>208.5</ele><time>2026-04-18T05:37:11.443Z</time></trkpt><trkpt lat="45.61902" lon="9.049395"><ele>208.66666666666669</ele><time>2026-04-18T05:37:14.444Z</time></trkpt><trkpt lat="45.6190067" lon="9.0492633"><ele>208.83333333333334</ele><time>2026-04-18T05:37:17.445Z</time></trkpt><trkpt lat="45.619015" lon="9.0491433"><ele>209.0</ele><time>2026-04-18T05:37:19.443Z</time></trkpt><trkpt lat="45.6190367" lon="9.049015"><ele>209.0</ele><time>2026-04-18T05:37:21.443Z</time></trkpt><trkpt lat="45.6190617" lon="9.04885"><ele>209.0</ele><time>2026-04-18T05:37:23.444Z</time></trkpt><trkpt lat="45.61907" lon="9.0487033"><ele>209.0</ele><time>2026-04-18T05:37:25.443Z</time></trkpt><trkpt lat="45.6190933" lon="9.0485617"><ele>209.0</ele><time>2026-04-18T05:37:27.444Z</time></trkpt><trkpt lat="45.61912" lon="9.0484117"><ele>209.0</ele><time>2026-04-18T05:37:29.445Z</time></trkpt><trkpt lat="45.6191417" lon="9.0482533"><ele>209.2</ele><time>2026-04-18T05:37:31.443Z</time></trkpt><trkpt lat="45.6191583" lon="9.0480983"><ele>209.39999999999998</ele><time>2026-04-18T05:37:33.444Z</time></trkpt><trkpt lat="45.6191717" lon="9.0479467"><ele>209.6</ele><time>2026-04-18T05:37:35.446Z</time></trkpt><trkpt lat="45.6191833" lon="9.0477833"><ele>209.8</ele><time>2026-04-18T05:37:37.443Z</time></trkpt><trkpt lat="45.6192" lon="9.04762"><ele>210.0</ele><time>2026-04-18T05:37:39.446Z</time></trkpt><trkpt lat="45.6192017" lon="9.0474617"><ele>210.0</ele><time>2026-04-18T05:37:41.444Z</time></trkpt><trkpt lat="45.619205" lon="9.0473"><ele>210.0</ele><time>2026-04-18T05:37:43.443Z</time></trkpt><trkpt lat="45.6192067" lon="9.0471383"><ele>210.0</ele><time>2026-04-18T05:37:45.444Z</time></trkpt><trkpt lat="45.6192033" lon="9.0469683"><ele>210.0</ele><time>2026-04-18T05:37:47.444Z</time></trkpt><trkpt lat="45.6192233" lon="9.0468067"><ele>210.0</ele><time>2026-04-18T05:37:49.444Z</time></trkpt><trkpt lat="45.619255" lon="9.0466467"><ele>210.0</ele><time>2026-04-18T05:37:51.443Z</time></trkpt><trkpt lat="45.61927" lon="9.0464983"><ele>210.0</ele><time>2026-04-18T05:37:53.445Z</time></trkpt><trkpt lat="45.619295" lon="9.0463683"><ele>210.0</ele><time>2026-04-18T05:37:55.444Z</time></trkpt><trkpt lat="45.6193117" lon="9.04628"><ele>210.0</ele><time>2026-04-18T05:37:57.444Z</time></trkpt><trkpt lat="45.6192983" lon="9.0461817"><ele>210.0</ele><time>2026-04-18T05:38:07.443Z</time></trkpt><trkpt lat="45.61921" lon="9.046165"><ele>209.8</ele><time>2026-04-18T05:38:10.444Z</time></trkpt><trkpt lat="45.6191167" lon="9.046145"><ele>209.6</ele><time>2026-04-18T05:38:12.444Z</time></trkpt><trkpt lat="45.6190183" lon="9.0461317"><ele>209.39999999999998</ele><time>2026-04-18T05:38:14.445Z</time></trkpt><trkpt lat="45.6189233" lon="9.0461233"><ele>209.2</ele><time>2026-04-18T05:38:16.445Z</time></trkpt><trkpt lat="45.6188183" lon="9.0461133"><ele>209.0</ele><time>2026-04-18T05:38:18.444Z</time></trkpt><trkpt lat="45.6187233" lon="9.0460967"><ele>208.39999999999998</ele><time>2026-04-18T05:38:20.445Z</time></trkpt><trkpt lat="45.6186217" lon="9.046075"><ele>207.8</ele><time>2026-04-18T05:38:22.443Z</time></trkpt><trkpt lat="45.6185083" lon="9.0460633"><ele>207.2</ele><time>2026-04-18T05:38:24.444Z</time></trkpt><trkpt lat="45.6183833" lon="9.04606"><ele>206.60000000000002</ele><time>2026-04-18T05:38:26.445Z</time></trkpt><trkpt lat="45.6183167" lon="9.0460567"><ele>206.0</ele><time>2026-04-18T05:38:27.444Z</time></trkpt><trkpt lat="45.6182533" lon="9.046055"><ele>206.00000000000003</ele><time>2026-04-18T05:38:28.443Z</time></trkpt><trkpt lat="45.618185" lon="9.0460533"><ele>206.0</ele><time>2026-04-18T05:38:29.445Z</time></trkpt><trkpt lat="45.61812" lon="9.0460533"><ele>206.0</ele><time>2026-04-18T05:38:30.443Z</time></trkpt><trkpt lat="45.6180117" lon="9.0460617"><ele>206.0</ele><time>2026-04-18T05:38:32.444Z</time></trkpt><trkpt lat="45.6179433" lon="9.04606"><ele>206.00000000000003</ele><time>2026-04-18T05:38:33.444Z</time></trkpt><trkpt lat="45.617865" lon="9.0460617"><ele>206.0</ele><time>2026-04-18T05:38:34.445Z</time></trkpt><trkpt lat="45.6177917" lon="9.04606"><ele>206.50000000000003</ele><time>2026-04-18T05:38:35.445Z</time></trkpt><trkpt lat="45.617715" lon="9.046055"><ele>207.0</ele><time>2026-04-18T05:38:36.444Z</time></trkpt><trkpt lat="45.61764" lon="9.0460467"><ele>207.5</ele><time>2026-04-18T05:38:37.443Z</time></trkpt><trkpt lat="45.6175733" lon="9.0460367"><ele>208.0</ele><time>2026-04-18T05:38:38.445Z</time></trkpt><trkpt lat="45.6175067" lon="9.0460333"><ele>208.50000000000003</ele><time>2026-04-18T05:38:39.443Z</time></trkpt><trkpt lat="45.6174383" lon="9.0460317"><ele>209.0</ele><time>2026-04-18T05:38:40.445Z</time></trkpt><trkpt lat="45.6173183" lon="9.0460167"><ele>209.00000000000003</ele><time>2026-04-18T05:38:42.444Z</time></trkpt><trkpt lat="45.61725" lon="9.04602"><ele>209.0</ele><time>2026-04-18T05:38:43.444Z</time></trkpt><trkpt lat="45.6171817" lon="9.04602"><ele>209.0</ele><time>2026-04-18T05:38:44.445Z</time></trkpt><trkpt lat="45.6170567" lon="9.04603"><ele>209.0</ele><time>2026-04-18T05:38:46.444Z</time></trkpt><trkpt lat="45.6169917" lon="9.0460417"><ele>209.00000000000003</ele><time>2026-04-18T05:38:47.444Z</time></trkpt><trkpt lat="45.6169283" lon="9.0460567"><ele>209.0</ele><time>2026-04-18T05:38:48.444Z</time></trkpt><trkpt lat="45.6168117" lon="9.0460717"><ele>210.39999999999998</ele><time>2026-04-18T05:38:50.445Z</time></trkpt><trkpt lat="45.6167117" lon="9.0460683"><ele>211.8</ele><time>2026-04-18T05:38:52.445Z</time></trkpt><trkpt lat="45.6166467" lon="9.0460767"><ele>213.20000000000002</ele><time>2026-04-18T05:38:53.444Z</time></trkpt><trkpt lat="45.6165283" lon="9.04612"><ele>214.60000000000002</ele><time>2026-04-18T05:38:55.443Z</time></trkpt><trkpt lat="45.6164067" lon="9.0461433"><ele>216.0</ele><time>2026-04-18T05:38:57.443Z</time></trkpt><trkpt lat="45.6163383" lon="9.0461433"><ele>216.0</ele><time>2026-04-18T05:38:58.444Z</time></trkpt><trkpt lat="45.6162733" lon="9.04616"><ele>216.0</ele><time>2026-04-18T05:38:59.444Z</time></trkpt><trkpt lat="45.616155" lon="9.0461517"><ele>216.0</ele><time>2026-04-18T05:39:01.444Z</time></trkpt><trkpt lat="45.6160867" lon="9.046175"><ele>216.0</ele><time>2026-04-18T05:39:02.445Z</time></trkpt><trkpt lat="45.6159617" lon="9.04621"><ele>216.0</ele><time>2026-04-18T05:39:04.446Z</time></trkpt><trkpt lat="45.615895" lon="9.04622"><ele>216.0</ele><time>2026-04-18T05:39:05.443Z</time></trkpt><trkpt lat="45.61583" lon="9.046225"><ele>213.5</ele><time>2026-04-18T05:39:06.444Z</time></trkpt><trkpt lat="45.6156983" lon="9.0462433"><ele>211.0</ele><time>2026-04-18T05:39:08.444Z</time></trkpt><trkpt lat="45.615605" lon="9.0462983"><ele>208.5</ele><time>2026-04-18T05:39:10.444Z</time></trkpt><trkpt lat="45.615535" lon="9.0464333"><ele>206.0</ele><time>2026-04-18T05:39:12.445Z</time></trkpt><trkpt lat="45.6154917" lon="9.0465967"><ele>205.83333333333334</ele><time>2026-04-18T05:39:14.445Z</time></trkpt><trkpt lat="45.6154717" lon="9.0467633"><ele>205.66666666666669</ele><time>2026-04-18T05:39:16.445Z</time></trkpt><trkpt lat="45.615455" lon="9.0468533"><ele>205.5</ele><time>2026-04-18T05:39:17.445Z</time></trkpt><trkpt lat="45.6154217" lon="9.0469317"><ele>205.33333333333331</ele><time>2026-04-18T05:39:18.445Z</time></trkpt><trkpt lat="45.6153583" lon="9.047085"><ele>205.16666666666666</ele><time>2026-04-18T05:39:20.444Z</time></trkpt><trkpt lat="45.61533" lon="9.0471667"><ele>205.0</ele><time>2026-04-18T05:39:21.444Z</time></trkpt><trkpt lat="45.6153017" lon="9.047335"><ele>205.2</ele><time>2026-04-18T05:39:23.443Z</time></trkpt><trkpt lat="45.6152767" lon="9.04751"><ele>205.4</ele><time>2026-04-18T05:39:25.444Z</time></trkpt><trkpt lat="45.6152283" lon="9.0476717"><ele>205.60000000000002</ele><time>2026-04-18T05:39:27.444Z</time></trkpt><trkpt lat="45.615155" lon="9.0478133"><ele>205.8</ele><time>2026-04-18T05:39:29.445Z</time></trkpt><trkpt lat="45.615115" lon="9.0478833"><ele>206.0</ele><time>2026-04-18T05:39:30.443Z</time></trkpt><trkpt lat="45.6150317" lon="9.0480183"><ele>206.0</ele><time>2026-04-18T05:39:32.444Z</time></trkpt><trkpt lat="45.6149467" lon="9.04815"><ele>206.0</ele><time>2026-04-18T05:39:34.444Z</time></trkpt><trkpt lat="45.614895" lon="9.048205"><ele>206.0</ele><time>2026-04-18T05:39:35.445Z</time></trkpt><trkpt lat="45.6147983" lon="9.0483183"><ele>206.0</ele><time>2026-04-18T05:39:37.444Z</time></trkpt><trkpt lat="45.6147483" lon="9.0483767"><ele>206.0</ele><time>2026-04-18T05:39:38.446Z</time></trkpt><trkpt lat="45.6146533" lon="9.04849"><ele>206.00000000000003</ele><time>2026-04-18T05:39:40.445Z</time></trkpt><trkpt lat="45.6145567" lon="9.0486083"><ele>206.0</ele><time>2026-04-18T05:39:42.443Z</time></trkpt><trkpt lat="45.614505" lon="9.0486667"><ele>206.0</ele><time>2026-04-18T05:39:43.444Z</time></trkpt><trkpt lat="45.6144533" lon="9.0487233"><ele>206.0</ele><time>2026-04-18T05:39:44.446Z</time></trkpt><trkpt lat="45.6144017" lon="9.0487817"><ele>206.00000000000003</ele><time>2026-04-18T05:39:45.443Z</time></trkpt><trkpt lat="45.6143067" lon="9.0488883"><ele>206.0</ele><time>2026-04-18T05:39:47.445Z</time></trkpt><trkpt lat="45.6142117" lon="9.048985"><ele>205.66666666666669</ele><time>2026-04-18T05:39:49.445Z</time></trkpt><trkpt lat="45.6141183" lon="9.049105"><ele>205.33333333333334</ele><time>2026-04-18T05:39:51.444Z</time></trkpt><trkpt lat="45.6140733" lon="9.0491767"><ele>205.0</ele><time>2026-04-18T05:39:52.444Z</time></trkpt><trkpt lat="45.6140233" lon="9.0492467"><ele>204.66666666666669</ele><time>2026-04-18T05:39:53.444Z</time></trkpt><trkpt lat="45.6139683" lon="9.049295"><ele>204.33333333333334</ele><time>2026-04-18T05:39:54.444Z</time></trkpt><trkpt lat="45.6139183" lon="9.0493617"><ele>204.0</ele><time>2026-04-18T05:39:55.445Z</time></trkpt><trkpt lat="45.6138683" lon="9.0494183"><ele>204.14285714285714</ele><time>2026-04-18T05:39:56.445Z</time></trkpt><trkpt lat="45.6138167" lon="9.04948"><ele>204.28571428571428</ele><time>2026-04-18T05:39:57.444Z</time></trkpt><trkpt lat="45.6137617" lon="9.0495417"><ele>204.42857142857144</ele><time>2026-04-18T05:39:58.444Z</time></trkpt><trkpt lat="45.6137083" lon="9.0496067"><ele>204.57142857142856</ele><time>2026-04-18T05:39:59.444Z</time></trkpt><trkpt lat="45.6136583" lon="9.0496683"><ele>204.7142857142857</ele><time>2026-04-18T05:40:00.444Z</time></trkpt><trkpt lat="45.61361" lon="9.04973"><ele>204.85714285714286</ele><time>2026-04-18T05:40:01.445Z</time></trkpt><trkpt lat="45.61356" lon="9.04979"><ele>205.0</ele><time>2026-04-18T05:40:02.444Z</time></trkpt><trkpt lat="45.6135083" lon="9.0498483"><ele>205.0</ele><time>2026-04-18T05:40:03.444Z</time></trkpt><trkpt lat="45.6134583" lon="9.0499083"><ele>205.0</ele><time>2026-04-18T05:40:04.444Z</time></trkpt><trkpt lat="45.61341" lon="9.04997"><ele>205.0</ele><time>2026-04-18T05:40:05.444Z</time></trkpt><trkpt lat="45.61336" lon="9.050025"><ele>205.0</ele><time>2026-04-18T05:40:06.444Z</time></trkpt><trkpt lat="45.6133083" lon="9.0500833"><ele>205.0</ele><time>2026-04-18T05:40:07.444Z</time></trkpt><trkpt lat="45.6132583" lon="9.05014"><ele>205.0</ele><time>2026-04-18T05:40:08.444Z</time></trkpt><trkpt lat="45.6132083" lon="9.050195"><ele>205.0</ele><time>2026-04-18T05:40:09.444Z</time></trkpt><trkpt lat="45.6131033" lon="9.0502783"><ele>205.0</ele><time>2026-04-18T05:40:11.443Z</time></trkpt><trkpt lat="45.613015" lon="9.0503933"><ele>205.0</ele><time>2026-04-18T05:40:13.443Z</time></trkpt><trkpt lat="45.61296" lon="9.050525"><ele>205.0</ele><time>2026-04-18T05:40:15.444Z</time></trkpt><trkpt lat="45.61295" lon="9.0507017"><ele>205.0</ele><time>2026-04-18T05:40:17.445Z</time></trkpt><trkpt lat="45.61296" lon="9.0508783"><ele>205.0</ele><time>2026-04-18T05:40:19.445Z</time></trkpt><trkpt lat="45.612975" lon="9.0510533"><ele>205.0</ele><time>2026-04-18T05:40:21.443Z</time></trkpt><trkpt lat="45.61296" lon="9.0512283"><ele>205.0</ele><time>2026-04-18T05:40:23.445Z</time></trkpt><trkpt lat="45.61296" lon="9.0514"><ele>205.0</ele><time>2026-04-18T05:40:25.443Z</time></trkpt><trkpt lat="45.6129533" lon="9.05149"><ele>205.0</ele><time>2026-04-18T05:40:26.446Z</time></trkpt><trkpt lat="45.6129517" lon="9.05158"><ele>205.0</ele><time>2026-04-18T05:40:27.444Z</time></trkpt><trkpt lat="45.6129467" lon="9.05168"><ele>205.0</ele><time>2026-04-18T05:40:28.444Z</time></trkpt><trkpt lat="45.612935" lon="9.0518517"><ele>205.0</ele><time>2026-04-18T05:40:30.444Z</time></trkpt><trkpt lat="45.612925" lon="9.0520233"><ele>205.0</ele><time>2026-04-18T05:40:32.445Z</time></trkpt><trkpt lat="45.612925" lon="9.0521883"><ele>205.0</ele><time>2026-04-18T05:40:34.445Z</time></trkpt><trkpt lat="45.6129117" lon="9.0523533"><ele>204.8</ele><time>2026-04-18T05:40:36.444Z</time></trkpt><trkpt lat="45.612905" lon="9.0525183"><ele>204.6</ele><time>2026-04-18T05:40:38.444Z</time></trkpt><trkpt lat="45.6128983" lon="9.052685"><ele>204.39999999999998</ele><time>2026-04-18T05:40:40.444Z</time></trkpt><trkpt lat="45.61289" lon="9.052775"><ele>204.2</ele><time>2026-04-18T05:40:41.445Z</time></trkpt><trkpt lat="45.6128883" lon="9.052865"><ele>204.0</ele><time>2026-04-18T05:40:42.444Z</time></trkpt><trkpt lat="45.61288" lon="9.0530383"><ele>204.0</ele><time>2026-04-18T05:40:44.446Z</time></trkpt><trkpt lat="45.61287" lon="9.0531317"><ele>204.0</ele><time>2026-04-18T05:40:45.445Z</time></trkpt><trkpt lat="45.61288" lon="9.0532983"><ele>204.0</ele><time>2026-04-18T05:40:47.444Z</time></trkpt><trkpt lat="45.61289" lon="9.053455"><ele>204.0</ele><time>2026-04-18T05:40:49.445Z</time></trkpt><trkpt lat="45.6128867" lon="9.0536083"><ele>204.0</ele><time>2026-04-18T05:40:51.443Z</time></trkpt><trkpt lat="45.6128817" lon="9.053765"><ele>204.0</ele><time>2026-04-18T05:40:53.445Z</time></trkpt><trkpt lat="45.61288" lon="9.0539217"><ele>204.0</ele><time>2026-04-18T05:40:55.444Z</time></trkpt><trkpt lat="45.6128767" lon="9.0540833"><ele>204.0</ele><time>2026-04-18T05:40:57.444Z</time></trkpt><trkpt lat="45.6128767" lon="9.0542483"><ele>204.0</ele><time>2026-04-18T05:40:59.445Z</time></trkpt><trkpt lat="45.612875" lon="9.054415"><ele>204.0</ele><time>2026-04-18T05:41:01.445Z</time></trkpt><trkpt lat="45.6128683" lon="9.0545783"><ele>204.0</ele><time>2026-04-18T05:41:03.445Z</time></trkpt><trkpt lat="45.612875" lon="9.0547433"><ele>204.0</ele><time>2026-04-18T05:41:05.444Z</time></trkpt><trkpt lat="45.6128817" lon="9.0549067"><ele>204.0</ele><time>2026-04-18T05:41:07.445Z</time></trkpt><trkpt lat="45.61289" lon="9.0550683"><ele>204.0</ele><time>2026-04-18T05:41:09.444Z</time></trkpt><trkpt lat="45.612905" lon="9.055225"><ele>204.0</ele><time>2026-04-18T05:41:11.445Z</time></trkpt><trkpt lat="45.612915" lon="9.05537"><ele>204.0</ele><time>2026-04-18T05:41:13.444Z</time></trkpt><trkpt lat="45.61292" lon="9.0555167"><ele>204.0</ele><time>2026-04-18T05:41:15.444Z</time></trkpt><trkpt lat="45.6129133" lon="9.0556717"><ele>204.0</ele><time>2026-04-18T05:41:17.445Z</time></trkpt><trkpt lat="45.612905" lon="9.055835"><ele>204.0</ele><time>2026-04-18T05:41:19.445Z</time></trkpt><trkpt lat="45.6129083" lon="9.0559883"><ele>204.0</ele><time>2026-04-18T05:41:21.444Z</time></trkpt><trkpt lat="45.6129083" lon="9.0561433"><ele>204.0</ele><time>2026-04-18T05:41:23.444Z</time></trkpt><trkpt lat="45.6129083" lon="9.056305"><ele>204.0</ele><time>2026-04-18T05:41:25.445Z</time></trkpt><trkpt lat="45.6128867" lon="9.0564617"><ele>204.0</ele><time>2026-04-18T05:41:27.444Z</time></trkpt><trkpt lat="45.6128883" lon="9.05661"><ele>204.2</ele><time>2026-04-18T05:41:29.446Z</time></trkpt><trkpt lat="45.6128933" lon="9.056755"><ele>204.39999999999998</ele><time>2026-04-18T05:41:31.444Z</time></trkpt><trkpt lat="45.6128767" lon="9.0569133"><ele>204.6</ele><time>2026-04-18T05:41:33.443Z</time></trkpt><trkpt lat="45.6128583" lon="9.0570583"><ele>204.8</ele><time>2026-04-18T05:41:35.445Z</time></trkpt><trkpt lat="45.6128617" lon="9.0572033"><ele>205.0</ele><time>2026-04-18T05:41:37.444Z</time></trkpt><trkpt lat="45.6128667" lon="9.0573333"><ele>204.8</ele><time>2026-04-18T05:41:39.443Z</time></trkpt><trkpt lat="45.6128433" lon="9.0574667"><ele>204.6</ele><time>2026-04-18T05:41:41.444Z</time></trkpt><trkpt lat="45.6128333" lon="9.0576133"><ele>204.39999999999998</ele><time>2026-04-18T05:41:43.445Z</time></trkpt><trkpt lat="45.6128317" lon="9.057765"><ele>204.2</ele><time>2026-04-18T05:41:45.444Z</time></trkpt><trkpt lat="45.6128183" lon="9.057915"><ele>204.0</ele><time>2026-04-18T05:41:47.443Z</time></trkpt><trkpt lat="45.6128167" lon="9.0580533"><ele>204.0</ele><time>2026-04-18T05:41:49.444Z</time></trkpt><trkpt lat="45.6128267" lon="9.058205"><ele>204.0</ele><time>2026-04-18T05:41:51.444Z</time></trkpt><trkpt lat="45.6128367" lon="9.0583567"><ele>204.0</ele><time>2026-04-18T05:41:53.444Z</time></trkpt><trkpt lat="45.6128533" lon="9.05851"><ele>204.0</ele><time>2026-04-18T05:41:55.445Z</time></trkpt><trkpt lat="45.61287" lon="9.0586667"><ele>204.0</ele><time>2026-04-18T05:41:57.444Z</time></trkpt><trkpt lat="45.6128833" lon="9.05882"><ele>204.0</ele><time>2026-04-18T05:41:59.445Z</time></trkpt><trkpt lat="45.6128883" lon="9.0589717"><ele>204.0</ele><time>2026-04-18T05:42:01.445Z</time></trkpt><trkpt lat="45.61289" lon="9.059115"><ele>204.0</ele><time>2026-04-18T05:42:03.444Z</time></trkpt><trkpt lat="45.612895" lon="9.0592517"><ele>204.0</ele><time>2026-04-18T05:42:05.444Z</time></trkpt><trkpt lat="45.612895" lon="9.059395"><ele>204.0</ele><time>2026-04-18T05:42:07.445Z</time></trkpt><trkpt lat="45.6128967" lon="9.05954"><ele>204.0</ele><time>2026-04-18T05:42:09.443Z</time></trkpt><trkpt lat="45.6128817" lon="9.0596867"><ele>204.0</ele><time>2026-04-18T05:42:11.444Z</time></trkpt><trkpt lat="45.6128833" lon="9.0598367"><ele>204.0</ele><time>2026-04-18T05:42:13.445Z</time></trkpt><trkpt lat="45.6128867" lon="9.0599817"><ele>204.0</ele><time>2026-04-18T05:42:15.444Z</time></trkpt><trkpt lat="45.61291" lon="9.0601167"><ele>204.0</ele><time>2026-04-18T05:42:17.445Z</time></trkpt><trkpt lat="45.6129217" lon="9.0602533"><ele>204.0</ele><time>2026-04-18T05:42:19.445Z</time></trkpt><trkpt lat="45.61294" lon="9.0603867"><ele>204.0</ele><time>2026-04-18T05:42:21.444Z</time></trkpt><trkpt lat="45.6129683" lon="9.0605217"><ele>204.0</ele><time>2026-04-18T05:42:23.445Z</time></trkpt><trkpt lat="45.6129783" lon="9.0606433"><ele>204.0</ele><time>2026-04-18T05:42:25.446Z</time></trkpt><trkpt lat="45.612975" lon="9.0607617"><ele>204.0</ele><time>2026-04-18T05:42:27.444Z</time></trkpt><trkpt lat="45.61297" lon="9.060865"><ele>204.0</ele><time>2026-04-18T05:42:29.444Z</time></trkpt><trkpt lat="45.612965" lon="9.060985"><ele>204.16666666666666</ele><time>2026-04-18T05:42:31.445Z</time></trkpt><trkpt lat="45.6129767" lon="9.0611333"><ele>204.33333333333331</ele><time>2026-04-18T05:42:33.444Z</time></trkpt><trkpt lat="45.6130033" lon="9.061255"><ele>204.5</ele><time>2026-04-18T05:42:35.445Z</time></trkpt><trkpt lat="45.6130733" lon="9.06132"><ele>204.66666666666666</ele><time>2026-04-18T05:42:38.445Z</time></trkpt><trkpt lat="45.613145" lon="9.0613433"><ele>204.83333333333331</ele><time>2026-04-18T05:42:40.443Z</time></trkpt><trkpt lat="45.6132367" lon="9.0613733"><ele>205.0</ele><time>2026-04-18T05:42:42.444Z</time></trkpt><trkpt lat="45.61334" lon="9.0613867"><ele>204.99999999999997</ele><time>2026-04-18T05:42:44.444Z</time></trkpt><trkpt lat="45.6134333" lon="9.061385"><ele>205.0</ele><time>2026-04-18T05:42:46.444Z</time></trkpt><trkpt lat="45.613525" lon="9.06139"><ele>205.0</ele><time>2026-04-18T05:42:48.444Z</time></trkpt><trkpt lat="45.6136167" lon="9.0614133"><ele>205.0</ele><time>2026-04-18T05:42:50.446Z</time></trkpt><trkpt lat="45.6136967" lon="9.0614383"><ele>204.99999999999997</ele><time>2026-04-18T05:42:52.444Z</time></trkpt><trkpt lat="45.61375" lon="9.0615233"><ele>205.0</ele><time>2026-04-18T05:42:54.444Z</time></trkpt><trkpt lat="45.6137217" lon="9.061655"><ele>205.6</ele><time>2026-04-18T05:42:56.446Z</time></trkpt><trkpt lat="45.6137133" lon="9.06179"><ele>206.2</ele><time>2026-04-18T05:42:58.445Z</time></trkpt><trkpt lat="45.6136683" lon="9.06186"><ele>206.8</ele><time>2026-04-18T05:42:59.443Z</time></trkpt><trkpt lat="45.6136717" lon="9.0620033"><ele>207.4</ele><time>2026-04-18T05:43:01.444Z</time></trkpt><trkpt lat="45.6137517" lon="9.0620817"><ele>208.0</ele><time>2026-04-18T05:43:03.444Z</time></trkpt><trkpt lat="45.61385" lon="9.0621033"><ele>207.99999999999997</ele><time>2026-04-18T05:43:05.445Z</time></trkpt><trkpt lat="45.613935" lon="9.0621183"><ele>208.0</ele><time>2026-04-18T05:43:07.444Z</time></trkpt><trkpt lat="45.614015" lon="9.0621367"><ele>208.0</ele><time>2026-04-18T05:43:09.444Z</time></trkpt><trkpt lat="45.61409" lon="9.06216"><ele>208.0</ele><time>2026-04-18T05:43:11.445Z</time></trkpt><trkpt lat="45.6141633" lon="9.062195"><ele>207.99999999999997</ele><time>2026-04-18T05:43:13.444Z</time></trkpt><trkpt lat="45.61425" lon="9.062225"><ele>208.0</ele><time>2026-04-18T05:43:15.444Z</time></trkpt><trkpt lat="45.6143567" lon="9.062225"><ele>208.0</ele><time>2026-04-18T05:43:17.444Z</time></trkpt><trkpt lat="45.6144417" lon="9.0622283"><ele>208.0</ele><time>2026-04-18T05:43:19.445Z</time></trkpt><trkpt lat="45.614535" lon="9.0622367"><ele>208.0</ele><time>2026-04-18T05:43:21.444Z</time></trkpt><trkpt lat="45.6146233" lon="9.0622467"><ele>208.0</ele><time>2026-04-18T05:43:23.445Z</time></trkpt><trkpt lat="45.6147183" lon="9.0622533"><ele>208.0</ele><time>2026-04-18T05:43:25.445Z</time></trkpt><trkpt lat="45.61481" lon="9.06227"><ele>208.0</ele><time>2026-04-18T05:43:27.444Z</time></trkpt><trkpt lat="45.6149" lon="9.0622733"><ele>208.0</ele><time>2026-04-18T05:43:29.443Z</time></trkpt><trkpt lat="45.6150033" lon="9.0622583"><ele>208.0</ele><time>2026-04-18T05:43:31.445Z</time></trkpt><trkpt lat="45.6150983" lon="9.06227"><ele>208.0</ele><time>2026-04-18T05:43:33.443Z</time></trkpt><trkpt lat="45.6151917" lon="9.0622833"><ele>208.0</ele><time>2026-04-18T05:43:35.444Z</time></trkpt><trkpt lat="45.6152917" lon="9.062285"><ele>207.8</ele><time>2026-04-18T05:43:37.445Z</time></trkpt><trkpt lat="45.6153883" lon="9.062285"><ele>207.60000000000002</ele><time>2026-04-18T05:43:39.444Z</time></trkpt><trkpt lat="45.6154783" lon="9.0622783"><ele>207.39999999999998</ele><time>2026-04-18T05:43:41.444Z</time></trkpt><trkpt lat="45.61557" lon="9.06228"><ele>207.2</ele><time>2026-04-18T05:43:43.444Z</time></trkpt><trkpt lat="45.6156583" lon="9.062265"><ele>207.0</ele><time>2026-04-18T05:43:45.444Z</time></trkpt><trkpt lat="45.61575" lon="9.062285"><ele>207.0</ele><time>2026-04-18T05:43:47.445Z</time></trkpt><trkpt lat="45.61583" lon="9.0623183"><ele>207.0</ele><time>2026-04-18T05:43:49.445Z</time></trkpt><trkpt lat="45.61588" lon="9.0623833"><ele>207.0</ele><time>2026-04-18T05:43:51.443Z</time></trkpt><trkpt lat="45.6159117" lon="9.0624783"><ele>207.0</ele><time>2026-04-18T05:43:53.445Z</time></trkpt><trkpt lat="45.6158883" lon="9.0626033"><ele>207.0</ele><time>2026-04-18T05:43:55.444Z</time></trkpt><trkpt lat="45.615895" lon="9.062715"><ele>207.0</ele><time>2026-04-18T05:43:57.444Z</time></trkpt><trkpt lat="45.6158933" lon="9.0628267"><ele>207.33333333333334</ele><time>2026-04-18T05:43:59.444Z</time></trkpt><trkpt lat="45.6158533" lon="9.0629433"><ele>207.66666666666669</ele><time>2026-04-18T05:44:01.442Z</time></trkpt><trkpt lat="45.6158367" lon="9.0630733"><ele>208.0</ele><time>2026-04-18T05:44:03.442Z</time></trkpt><trkpt lat="45.615825" lon="9.0631783"><ele>208.33333333333334</ele><time>2026-04-18T05:44:05.444Z</time></trkpt><trkpt lat="45.6158233" lon="9.0632783"><ele>208.66666666666669</ele><time>2026-04-18T05:44:07.444Z</time></trkpt><trkpt lat="45.61583" lon="9.06338"><ele>209.0</ele><time>2026-04-18T05:44:09.443Z</time></trkpt><trkpt lat="45.615815" lon="9.063495"><ele>209.0</ele><time>2026-04-18T05:44:11.442Z</time></trkpt><trkpt lat="45.6158083" lon="9.0636233"><ele>209.0</ele><time>2026-04-18T05:44:13.443Z</time></trkpt><trkpt lat="45.6158067" lon="9.0637567"><ele>209.0</ele><time>2026-04-18T05:44:15.444Z</time></trkpt><trkpt lat="45.6158083" lon="9.063895"><ele>209.0</ele><time>2026-04-18T05:44:17.444Z</time></trkpt><trkpt lat="45.6158" lon="9.0640317"><ele>209.0</ele><time>2026-04-18T05:44:19.442Z</time></trkpt><trkpt lat="45.6157867" lon="9.0641633"><ele>209.2</ele><time>2026-04-18T05:44:21.443Z</time></trkpt><trkpt lat="45.61578" lon="9.0643"><ele>209.39999999999998</ele><time>2026-04-18T05:44:23.444Z</time></trkpt><trkpt lat="45.6157683" lon="9.0644483"><ele>209.6</ele><time>2026-04-18T05:44:25.444Z</time></trkpt><trkpt lat="45.61576" lon="9.0645983"><ele>209.8</ele><time>2026-04-18T05:44:27.443Z</time></trkpt><trkpt lat="45.615755" lon="9.064745"><ele>210.0</ele><time>2026-04-18T05:44:29.445Z</time></trkpt><trkpt lat="45.6157467" lon="9.0648967"><ele>210.0</ele><time>2026-04-18T05:44:31.443Z</time></trkpt><trkpt lat="45.6157417" lon="9.0650433"><ele>210.0</ele><time>2026-04-18T05:44:33.443Z</time></trkpt><trkpt lat="45.6157267" lon="9.0651767"><ele>210.0</ele><time>2026-04-18T05:44:35.444Z</time></trkpt><trkpt lat="45.61571" lon="9.06531"><ele>210.0</ele><time>2026-04-18T05:44:37.443Z</time></trkpt><trkpt lat="45.6156917" lon="9.0654433"><ele>210.0</ele><time>2026-04-18T05:44:39.443Z</time></trkpt><trkpt lat="45.615675" lon="9.0655733"><ele>210.0</ele><time>2026-04-18T05:44:41.444Z</time></trkpt><trkpt lat="45.6156633" lon="9.0657233"><ele>210.0</ele><time>2026-04-18T05:44:43.445Z</time></trkpt><trkpt lat="45.615655" lon="9.0658733"><ele>210.0</ele><time>2026-04-18T05:44:45.443Z</time></trkpt><trkpt lat="45.615645" lon="9.0660283"><ele>210.0</ele><time>2026-04-18T05:44:47.444Z</time></trkpt><trkpt lat="45.61564" lon="9.0661833"><ele>210.0</ele><time>2026-04-18T05:44:49.443Z</time></trkpt><trkpt lat="45.6156267" lon="9.0663417"><ele>210.2</ele><time>2026-04-18T05:44:51.443Z</time></trkpt><trkpt lat="45.615615" lon="9.0664933"><ele>210.4</ele><time>2026-04-18T05:44:53.444Z</time></trkpt><trkpt lat="45.6156167" lon="9.066585"><ele>210.60000000000002</ele><time>2026-04-18T05:44:54.444Z</time></trkpt><trkpt lat="45.6156083" lon="9.0667517"><ele>210.8</ele><time>2026-04-18T05:44:56.444Z</time></trkpt><trkpt lat="45.6156" lon="9.0669133"><ele>211.0</ele><time>2026-04-18T05:44:58.444Z</time></trkpt><trkpt lat="45.615595" lon="9.067085"><ele>211.0</ele><time>2026-04-18T05:45:00.444Z</time></trkpt><trkpt lat="45.6155917" lon="9.067175"><ele>211.0</ele><time>2026-04-18T05:45:01.444Z</time></trkpt><trkpt lat="45.6155883" lon="9.0673433"><ele>211.0</ele><time>2026-04-18T05:45:03.443Z</time></trkpt><trkpt lat="45.61558" lon="9.06751"><ele>211.0</ele><time>2026-04-18T05:45:05.443Z</time></trkpt><trkpt lat="45.6155633" lon="9.06767"><ele>211.0</ele><time>2026-04-18T05:45:07.443Z</time></trkpt><trkpt lat="45.615555" lon="9.0678267"><ele>211.0</ele><time>2026-04-18T05:45:09.442Z</time></trkpt><trkpt lat="45.6155467" lon="9.06798"><ele>211.0</ele><time>2026-04-18T05:45:11.444Z</time></trkpt><trkpt lat="45.61553" lon="9.06814"><ele>211.0</ele><time>2026-04-18T05:45:13.444Z</time></trkpt><trkpt lat="45.61552" lon="9.068295"><ele>211.0</ele><time>2026-04-18T05:45:15.444Z</time></trkpt><trkpt lat="45.61552" lon="9.0684317"><ele>211.0</ele><time>2026-04-18T05:45:17.444Z</time></trkpt><trkpt lat="45.6155067" lon="9.0685917"><ele>210.60000000000002</ele><time>2026-04-18T05:45:19.444Z</time></trkpt><trkpt lat="45.6154867" lon="9.0687567"><ele>210.2</ele><time>2026-04-18T05:45:21.442Z</time></trkpt><trkpt lat="45.6154567" lon="9.0689267"><ele>209.8</ele><time>2026-04-18T05:45:23.443Z</time></trkpt><trkpt lat="45.6154383" lon="9.069015"><ele>209.39999999999998</ele><time>2026-04-18T05:45:24.443Z</time></trkpt><trkpt lat="45.615405" lon="9.069185"><ele>209.0</ele><time>2026-04-18T05:45:26.445Z</time></trkpt><trkpt lat="45.615375" lon="9.0693567"><ele>209.0</ele><time>2026-04-18T05:45:28.444Z</time></trkpt><trkpt lat="45.615335" lon="9.06952"><ele>209.0</ele><time>2026-04-18T05:45:30.443Z</time></trkpt><trkpt lat="45.61531" lon="9.0696033"><ele>209.0</ele><time>2026-04-18T05:45:31.444Z</time></trkpt><trkpt lat="45.6152617" lon="9.0697567"><ele>209.0</ele><time>2026-04-18T05:45:33.443Z</time></trkpt><trkpt lat="45.6152017" lon="9.069905"><ele>209.0</ele><time>2026-04-18T05:45:35.444Z</time></trkpt><trkpt lat="45.6151567" lon="9.0700633"><ele>209.0</ele><time>2026-04-18T05:45:37.445Z</time></trkpt><trkpt lat="45.6150917" lon="9.07021"><ele>209.0</ele><time>2026-04-18T05:45:39.443Z</time></trkpt><trkpt lat="45.6150233" lon="9.0703483"><ele>209.0</ele><time>2026-04-18T05:45:41.444Z</time></trkpt><trkpt lat="45.614945" lon="9.0704883"><ele>209.0</ele><time>2026-04-18T05:45:43.444Z</time></trkpt><trkpt lat="45.6149017" lon="9.0705567"><ele>209.0</ele><time>2026-04-18T05:45:44.445Z</time></trkpt><trkpt lat="45.6148217" lon="9.070685"><ele>209.0</ele><time>2026-04-18T05:45:46.444Z</time></trkpt><trkpt lat="45.614735" lon="9.07081"><ele>209.0</ele><time>2026-04-18T05:45:48.443Z</time></trkpt><trkpt lat="45.6146533" lon="9.0709333"><ele>209.0</ele><time>2026-04-18T05:45:50.443Z</time></trkpt><trkpt lat="45.614575" lon="9.0710617"><ele>209.0</ele><time>2026-04-18T05:45:52.444Z</time></trkpt><trkpt lat="45.6144967" lon="9.0711917"><ele>209.0</ele><time>2026-04-18T05:45:54.443Z</time></trkpt><trkpt lat="45.6144517" lon="9.0712567"><ele>209.0</ele><time>2026-04-18T05:45:55.442Z</time></trkpt><trkpt lat="45.6143667" lon="9.071385"><ele>209.0</ele><time>2026-04-18T05:45:57.443Z</time></trkpt><trkpt lat="45.6142867" lon="9.0715033"><ele>209.0</ele><time>2026-04-18T05:45:59.444Z</time></trkpt><trkpt lat="45.614205" lon="9.0716233"><ele>209.0</ele><time>2026-04-18T05:46:01.444Z</time></trkpt><trkpt lat="45.614125" lon="9.07175"><ele>209.0</ele><time>2026-04-18T05:46:03.443Z</time></trkpt><trkpt lat="45.61405" lon="9.0718733"><ele>209.0</ele><time>2026-04-18T05:46:05.444Z</time></trkpt><trkpt lat="45.6139667" lon="9.0719983"><ele>209.0</ele><time>2026-04-18T05:46:07.444Z</time></trkpt><trkpt lat="45.6138817" lon="9.07212"><ele>209.0</ele><time>2026-04-18T05:46:09.444Z</time></trkpt><trkpt lat="45.6137967" lon="9.0722317"><ele>209.0</ele><time>2026-04-18T05:46:11.444Z</time></trkpt><trkpt lat="45.6137267" lon="9.0723533"><ele>209.0</ele><time>2026-04-18T05:46:13.444Z</time></trkpt><trkpt lat="45.61365" lon="9.072475"><ele>209.0</ele><time>2026-04-18T05:46:15.443Z</time></trkpt><trkpt lat="45.613565" lon="9.07259"><ele>209.0</ele><time>2026-04-18T05:46:17.444Z</time></trkpt><trkpt lat="45.613475" lon="9.0727067"><ele>208.79999999999998</ele><time>2026-04-18T05:46:19.444Z</time></trkpt><trkpt lat="45.6133883" lon="9.0728283"><ele>208.6</ele><time>2026-04-18T05:46:21.444Z</time></trkpt><trkpt lat="45.6133433" lon="9.0728917"><ele>208.4</ele><time>2026-04-18T05:46:22.444Z</time></trkpt><trkpt lat="45.6132967" lon="9.0729533"><ele>208.2</ele><time>2026-04-18T05:46:23.445Z</time></trkpt><trkpt lat="45.61321" lon="9.0730767"><ele>208.0</ele><time>2026-04-18T05:46:25.444Z</time></trkpt><trkpt lat="45.6131283" lon="9.0731967"><ele>208.0</ele><time>2026-04-18T05:46:27.444Z</time></trkpt><trkpt lat="45.6130483" lon="9.0733167"><ele>208.0</ele><time>2026-04-18T05:46:29.443Z</time></trkpt><trkpt lat="45.6129667" lon="9.073445"><ele>208.0</ele><time>2026-04-18T05:46:31.444Z</time></trkpt><trkpt lat="45.6128983" lon="9.0735783"><ele>208.0</ele><time>2026-04-18T05:46:33.444Z</time></trkpt><trkpt lat="45.612815" lon="9.0736967"><ele>208.0</ele><time>2026-04-18T05:46:35.444Z</time></trkpt><trkpt lat="45.6127383" lon="9.0738217"><ele>208.0</ele><time>2026-04-18T05:46:37.445Z</time></trkpt><trkpt lat="45.6126583" lon="9.073955"><ele>208.0</ele><time>2026-04-18T05:46:39.444Z</time></trkpt><trkpt lat="45.612585" lon="9.074095"><ele>208.0</ele><time>2026-04-18T05:46:41.443Z</time></trkpt><trkpt lat="45.6125467" lon="9.0741683"><ele>208.0</ele><time>2026-04-18T05:46:42.444Z</time></trkpt><trkpt lat="45.6125033" lon="9.0742383"><ele>208.0</ele><time>2026-04-18T05:46:43.445Z</time></trkpt><trkpt lat="45.6124217" lon="9.074375"><ele>208.0</ele><time>2026-04-18T05:46:45.443Z</time></trkpt><trkpt lat="45.6123383" lon="9.0745"><ele>208.0</ele><time>2026-04-18T05:46:47.444Z</time></trkpt><trkpt lat="45.61226" lon="9.0746317"><ele>208.0</ele><time>2026-04-18T05:46:49.444Z</time></trkpt><trkpt lat="45.6121783" lon="9.07476"><ele>208.0</ele><time>2026-04-18T05:46:51.444Z</time></trkpt><trkpt lat="45.6120983" lon="9.0748867"><ele>208.0</ele><time>2026-04-18T05:46:53.444Z</time></trkpt><trkpt lat="45.6120217" lon="9.075025"><ele>208.0</ele><time>2026-04-18T05:46:55.443Z</time></trkpt><trkpt lat="45.61194" lon="9.0751567"><ele>208.0</ele><time>2026-04-18T05:46:57.443Z</time></trkpt><trkpt lat="45.611855" lon="9.0752833"><ele>207.75</ele><time>2026-04-18T05:46:59.443Z</time></trkpt><trkpt lat="45.6117733" lon="9.075415"><ele>207.5</ele><time>2026-04-18T05:47:01.444Z</time></trkpt><trkpt lat="45.611695" lon="9.075545"><ele>207.25</ele><time>2026-04-18T05:47:03.444Z</time></trkpt><trkpt lat="45.611615" lon="9.07567"><ele>207.0</ele><time>2026-04-18T05:47:05.444Z</time></trkpt><trkpt lat="45.6115333" lon="9.0757983"><ele>207.00000000000003</ele><time>2026-04-18T05:47:07.444Z</time></trkpt><trkpt lat="45.61149" lon="9.0758667"><ele>207.0</ele><time>2026-04-18T05:47:08.445Z</time></trkpt><trkpt lat="45.6114467" lon="9.0759333"><ele>207.0</ele><time>2026-04-18T05:47:09.444Z</time></trkpt><trkpt lat="45.6114033" lon="9.0760017"><ele>207.0</ele><time>2026-04-18T05:47:10.445Z</time></trkpt><trkpt lat="45.6113617" lon="9.0760717"><ele>207.0</ele><time>2026-04-18T05:47:11.444Z</time></trkpt><trkpt lat="45.611315" lon="9.0761367"><ele>207.00000000000003</ele><time>2026-04-18T05:47:12.444Z</time></trkpt><trkpt lat="45.61127" lon="9.076205"><ele>207.0</ele><time>2026-04-18T05:47:13.443Z</time></trkpt><trkpt lat="45.611225" lon="9.0762733"><ele>207.00000000000003</ele><time>2026-04-18T05:47:14.445Z</time></trkpt><trkpt lat="45.61118" lon="9.076345"><ele>207.0</ele><time>2026-04-18T05:47:15.444Z</time></trkpt><trkpt lat="45.6111383" lon="9.0764133"><ele>207.0</ele><time>2026-04-18T05:47:16.443Z</time></trkpt><trkpt lat="45.6110933" lon="9.076485"><ele>207.0</ele><time>2026-04-18T05:47:17.444Z</time></trkpt><trkpt lat="45.6110483" lon="9.0765583"><ele>207.0</ele><time>2026-04-18T05:47:18.444Z</time></trkpt><trkpt lat="45.6110133" lon="9.0766383"><ele>207.00000000000003</ele><time>2026-04-18T05:47:19.444Z</time></trkpt><trkpt lat="45.6109717" lon="9.076715"><ele>207.0</ele><time>2026-04-18T05:47:20.444Z</time></trkpt><trkpt lat="45.6109333" lon="9.0767933"><ele>206.57142857142858</ele><time>2026-04-18T05:47:21.443Z</time></trkpt><trkpt lat="45.6108917" lon="9.0768667"><ele>206.14285714285714</ele><time>2026-04-18T05:47:22.444Z</time></trkpt><trkpt lat="45.61085" lon="9.0769383"><ele>205.71428571428572</ele><time>2026-04-18T05:47:23.444Z</time></trkpt><trkpt lat="45.6108117" lon="9.0770133"><ele>205.28571428571428</ele><time>2026-04-18T05:47:24.444Z</time></trkpt><trkpt lat="45.6107683" lon="9.0770817"><ele>204.85714285714286</ele><time>2026-04-18T05:47:25.444Z</time></trkpt><trkpt lat="45.610725" lon="9.0771533"><ele>204.42857142857144</ele><time>2026-04-18T05:47:26.444Z</time></trkpt><trkpt lat="45.6106817" lon="9.0772267"><ele>204.0</ele><time>2026-04-18T05:47:27.442Z</time></trkpt><trkpt lat="45.6106433" lon="9.0773083"><ele>204.0</ele><time>2026-04-18T05:47:28.445Z</time></trkpt><trkpt lat="45.6106033" lon="9.0773883"><ele>204.0</ele><time>2026-04-18T05:47:29.445Z</time></trkpt><trkpt lat="45.61056" lon="9.0774667"><ele>204.0</ele><time>2026-04-18T05:47:30.444Z</time></trkpt><trkpt lat="45.6105233" lon="9.0775483"><ele>204.0</ele><time>2026-04-18T05:47:31.444Z</time></trkpt><trkpt lat="45.61049" lon="9.07763"><ele>204.0</ele><time>2026-04-18T05:47:32.444Z</time></trkpt><trkpt lat="45.61046" lon="9.0777133"><ele>204.0</ele><time>2026-04-18T05:47:33.443Z</time></trkpt><trkpt lat="45.610435" lon="9.0777967"><ele>204.0</ele><time>2026-04-18T05:47:34.444Z</time></trkpt><trkpt lat="45.6103883" lon="9.0779617"><ele>204.28571428571428</ele><time>2026-04-18T05:47:36.446Z</time></trkpt><trkpt lat="45.6103667" lon="9.07805"><ele>204.57142857142858</ele><time>2026-04-18T05:47:37.444Z</time></trkpt><trkpt lat="45.6103467" lon="9.0781417"><ele>204.85714285714283</ele><time>2026-04-18T05:47:38.444Z</time></trkpt><trkpt lat="45.6103317" lon="9.0782383"><ele>205.14285714285714</ele><time>2026-04-18T05:47:39.444Z</time></trkpt><trkpt lat="45.6103183" lon="9.0783367"><ele>205.42857142857142</ele><time>2026-04-18T05:47:40.445Z</time></trkpt><trkpt lat="45.6103067" lon="9.0784333"><ele>205.7142857142857</ele><time>2026-04-18T05:47:41.444Z</time></trkpt><trkpt lat="45.6103" lon="9.0785283"><ele>206.0</ele><time>2026-04-18T05:47:42.445Z</time></trkpt><trkpt lat="45.6102917" lon="9.0786217"><ele>205.85714285714283</ele><time>2026-04-18T05:47:43.445Z</time></trkpt><trkpt lat="45.6102867" lon="9.07872"><ele>205.71428571428572</ele><time>2026-04-18T05:47:44.444Z</time></trkpt><trkpt lat="45.6102817" lon="9.0788183"><ele>205.57142857142856</ele><time>2026-04-18T05:47:45.444Z</time></trkpt><trkpt lat="45.61028" lon="9.0789133"><ele>205.42857142857142</ele><time>2026-04-18T05:47:46.443Z</time></trkpt><trkpt lat="45.6102733" lon="9.0790083"><ele>205.28571428571428</ele><time>2026-04-18T05:47:47.444Z</time></trkpt><trkpt lat="45.61027" lon="9.0790983"><ele>205.14285714285714</ele><time>2026-04-18T05:47:48.444Z</time></trkpt><trkpt lat="45.61027" lon="9.0791917"><ele>205.0</ele><time>2026-04-18T05:47:49.445Z</time></trkpt><trkpt lat="45.6102583" lon="9.0793467"><ele>205.0</ele><time>2026-04-18T05:47:51.444Z</time></trkpt><trkpt lat="45.610225" lon="9.0794583"><ele>205.0</ele><time>2026-04-18T05:47:53.444Z</time></trkpt><trkpt lat="45.610185" lon="9.079565"><ele>205.0</ele><time>2026-04-18T05:47:55.444Z</time></trkpt><trkpt lat="45.61012" lon="9.0796983"><ele>205.0</ele><time>2026-04-18T05:47:57.444Z</time></trkpt><trkpt lat="45.6100867" lon="9.07986"><ele>205.0</ele><time>2026-04-18T05:47:59.444Z</time></trkpt><trkpt lat="45.6100983" lon="9.0800133"><ele>204.8</ele><time>2026-04-18T05:48:01.445Z</time></trkpt><trkpt lat="45.61014" lon="9.0801683"><ele>204.6</ele><time>2026-04-18T05:48:03.442Z</time></trkpt><trkpt lat="45.6101683" lon="9.0803433"><ele>204.39999999999998</ele><time>2026-04-18T05:48:05.444Z</time></trkpt><trkpt lat="45.6101733" lon="9.08052"><ele>204.2</ele><time>2026-04-18T05:48:07.444Z</time></trkpt><trkpt lat="45.610165" lon="9.0806117"><ele>204.0</ele><time>2026-04-18T05:48:08.444Z</time></trkpt><trkpt lat="45.61017" lon="9.0807033"><ele>203.83333333333334</ele><time>2026-04-18T05:48:09.444Z</time></trkpt><trkpt lat="45.6101717" lon="9.0807967"><ele>203.66666666666669</ele><time>2026-04-18T05:48:10.445Z</time></trkpt><trkpt lat="45.6101683" lon="9.08089"><ele>203.5</ele><time>2026-04-18T05:48:11.445Z</time></trkpt><trkpt lat="45.610165" lon="9.08098"><ele>203.33333333333334</ele><time>2026-04-18T05:48:12.444Z</time></trkpt><trkpt lat="45.6101567" lon="9.08116"><ele>203.16666666666669</ele><time>2026-04-18T05:48:14.444Z</time></trkpt><trkpt lat="45.6101517" lon="9.081255"><ele>203.0</ele><time>2026-04-18T05:48:15.443Z</time></trkpt><trkpt lat="45.6101483" lon="9.0813517"><ele>203.0</ele><time>2026-04-18T05:48:16.444Z</time></trkpt><trkpt lat="45.6101417" lon="9.0814467"><ele>203.0</ele><time>2026-04-18T05:48:17.445Z</time></trkpt><trkpt lat="45.6101383" lon="9.0815467"><ele>203.0</ele><time>2026-04-18T05:48:18.443Z</time></trkpt><trkpt lat="45.6101267" lon="9.0816433"><ele>203.0</ele><time>2026-04-18T05:48:19.444Z</time></trkpt><trkpt lat="45.61012" lon="9.08174"><ele>203.0</ele><time>2026-04-18T05:48:20.444Z</time></trkpt><trkpt lat="45.6101167" lon="9.0818383"><ele>203.0</ele><time>2026-04-18T05:48:21.444Z</time></trkpt><trkpt lat="45.6101167" lon="9.0819333"><ele>203.0</ele><time>2026-04-18T05:48:22.444Z</time></trkpt><trkpt lat="45.6101117" lon="9.0820283"><ele>202.71428571428572</ele><time>2026-04-18T05:48:23.444Z</time></trkpt><trkpt lat="45.610105" lon="9.0821283"><ele>202.42857142857144</ele><time>2026-04-18T05:48:24.444Z</time></trkpt><trkpt lat="45.6100967" lon="9.0822267"><ele>202.14285714285714</ele><time>2026-04-18T05:48:25.444Z</time></trkpt><trkpt lat="45.6100883" lon="9.0823283"><ele>201.85714285714286</ele><time>2026-04-18T05:48:26.444Z</time></trkpt><trkpt lat="45.610085" lon="9.082435"><ele>201.57142857142858</ele><time>2026-04-18T05:48:27.443Z</time></trkpt><trkpt lat="45.610075" lon="9.0825383"><ele>201.28571428571428</ele><time>2026-04-18T05:48:28.444Z</time></trkpt><trkpt lat="45.6100667" lon="9.0826367"><ele>201.0</ele><time>2026-04-18T05:48:29.444Z</time></trkpt><trkpt lat="45.6100583" lon="9.0827367"><ele>201.0</ele><time>2026-04-18T05:48:30.444Z</time></trkpt><trkpt lat="45.6100483" lon="9.082835"><ele>201.0</ele><time>2026-04-18T05:48:31.443Z</time></trkpt><trkpt lat="45.6100417" lon="9.08294"><ele>201.0</ele><time>2026-04-18T05:48:32.444Z</time></trkpt><trkpt lat="45.6100333" lon="9.0830417"><ele>201.0</ele><time>2026-04-18T05:48:33.444Z</time></trkpt><trkpt lat="45.610025" lon="9.08314"><ele>201.0</ele><time>2026-04-18T05:48:34.444Z</time></trkpt><trkpt lat="45.6100183" lon="9.083245"><ele>201.0</ele><time>2026-04-18T05:48:35.445Z</time></trkpt><trkpt lat="45.6100067" lon="9.0833483"><ele>201.0</ele><time>2026-04-18T05:48:36.444Z</time></trkpt><trkpt lat="45.61" lon="9.08345"><ele>200.85714285714286</ele><time>2026-04-18T05:48:37.444Z</time></trkpt><trkpt lat="45.6099917" lon="9.0835533"><ele>200.71428571428572</ele><time>2026-04-18T05:48:38.444Z</time></trkpt><trkpt lat="45.6099867" lon="9.083655"><ele>200.57142857142858</ele><time>2026-04-18T05:48:39.444Z</time></trkpt><trkpt lat="45.6099833" lon="9.0837483"><ele>200.42857142857144</ele><time>2026-04-18T05:48:40.444Z</time></trkpt><trkpt lat="45.6099783" lon="9.0838467"><ele>200.28571428571428</ele><time>2026-04-18T05:48:41.444Z</time></trkpt><trkpt lat="45.6099733" lon="9.08395"><ele>200.14285714285717</ele><time>2026-04-18T05:48:42.444Z</time></trkpt><trkpt lat="45.60997" lon="9.0840517"><ele>200.0</ele><time>2026-04-18T05:48:43.444Z</time></trkpt><trkpt lat="45.60997" lon="9.08415"><ele>200.2857142857143</ele><time>2026-04-18T05:48:44.444Z</time></trkpt><trkpt lat="45.60997" lon="9.08425"><ele>200.57142857142858</ele><time>2026-04-18T05:48:45.444Z</time></trkpt><trkpt lat="45.6099783" lon="9.0843483"><ele>200.85714285714286</ele><time>2026-04-18T05:48:46.443Z</time></trkpt><trkpt lat="45.6099717" lon="9.084445"><ele>201.14285714285717</ele><time>2026-04-18T05:48:47.443Z</time></trkpt><trkpt lat="45.6099617" lon="9.0845417"><ele>201.42857142857142</ele><time>2026-04-18T05:48:48.443Z</time></trkpt><trkpt lat="45.6099533" lon="9.08464"><ele>201.71428571428572</ele><time>2026-04-18T05:48:49.445Z</time></trkpt><trkpt lat="45.60995" lon="9.084735"><ele>202.0</ele><time>2026-04-18T05:48:50.445Z</time></trkpt><trkpt lat="45.6099467" lon="9.084825"><ele>201.99999999999997</ele><time>2026-04-18T05:48:51.444Z</time></trkpt><trkpt lat="45.609935" lon="9.0849183"><ele>202.0</ele><time>2026-04-18T05:48:52.444Z</time></trkpt><trkpt lat="45.6099083" lon="9.085095"><ele>202.0</ele><time>2026-04-18T05:48:54.443Z</time></trkpt><trkpt lat="45.6098867" lon="9.0851833"><ele>202.0</ele><time>2026-04-18T05:48:55.444Z</time></trkpt><trkpt lat="45.6098667" lon="9.0852717"><ele>201.99999999999997</ele><time>2026-04-18T05:48:56.444Z</time></trkpt><trkpt lat="45.60985" lon="9.08536"><ele>202.0</ele><time>2026-04-18T05:48:57.444Z</time></trkpt><trkpt lat="45.6098117" lon="9.08551"><ele>202.8</ele><time>2026-04-18T05:48:59.444Z</time></trkpt><trkpt lat="45.6097783" lon="9.0856367"><ele>203.6</ele><time>2026-04-18T05:49:01.443Z</time></trkpt><trkpt lat="45.6097617" lon="9.0857883"><ele>204.4</ele><time>2026-04-18T05:49:03.443Z</time></trkpt><trkpt lat="45.60976" lon="9.0859483"><ele>205.20000000000002</ele><time>2026-04-18T05:49:05.445Z</time></trkpt><trkpt lat="45.6097767" lon="9.0861117"><ele>206.0</ele><time>2026-04-18T05:49:07.445Z</time></trkpt><trkpt lat="45.6097917" lon="9.0862833"><ele>207.0</ele><time>2026-04-18T05:49:09.444Z</time></trkpt><trkpt lat="45.609805" lon="9.0864533"><ele>208.0</ele><time>2026-04-18T05:49:11.444Z</time></trkpt><trkpt lat="45.6098183" lon="9.0866233"><ele>209.0</ele><time>2026-04-18T05:49:13.444Z</time></trkpt><trkpt lat="45.60985" lon="9.0867817"><ele>210.0</ele><time>2026-04-18T05:49:15.444Z</time></trkpt><trkpt lat="45.6098683" lon="9.08693"><ele>210.2</ele><time>2026-04-18T05:49:17.445Z</time></trkpt><trkpt lat="45.6098883" lon="9.08709"><ele>210.4</ele><time>2026-04-18T05:49:19.444Z</time></trkpt><trkpt lat="45.6099117" lon="9.0872517"><ele>210.60000000000002</ele><time>2026-04-18T05:49:21.443Z</time></trkpt><trkpt lat="45.6099367" lon="9.0874033"><ele>210.8</ele><time>2026-04-18T05:49:23.445Z</time></trkpt><trkpt lat="45.6099567" lon="9.087555"><ele>211.0</ele><time>2026-04-18T05:49:25.443Z</time></trkpt><trkpt lat="45.6099733" lon="9.0877183"><ele>211.0</ele><time>2026-04-18T05:49:27.444Z</time></trkpt><trkpt lat="45.60999" lon="9.0878783"><ele>211.0</ele><time>2026-04-18T05:49:29.445Z</time></trkpt><trkpt lat="45.6099983" lon="9.0880167"><ele>211.0</ele><time>2026-04-18T05:49:31.445Z</time></trkpt><trkpt lat="45.6099567" lon="9.0881533"><ele>211.0</ele><time>2026-04-18T05:49:33.444Z</time></trkpt><trkpt lat="45.60995" lon="9.088285"><ele>211.0</ele><time>2026-04-18T05:49:35.445Z</time></trkpt><trkpt lat="45.609975" lon="9.0883983"><ele>211.16666666666666</ele><time>2026-04-18T05:49:37.445Z</time></trkpt><trkpt lat="45.6100317" lon="9.088505"><ele>211.33333333333331</ele><time>2026-04-18T05:49:39.445Z</time></trkpt><trkpt lat="45.6100883" lon="9.08861"><ele>211.5</ele><time>2026-04-18T05:49:41.444Z</time></trkpt><trkpt lat="45.6101233" lon="9.0887217"><ele>211.66666666666669</ele><time>2026-04-18T05:49:43.445Z</time></trkpt><trkpt lat="45.61014" lon="9.0888367"><ele>211.83333333333334</ele><time>2026-04-18T05:49:45.444Z</time></trkpt><trkpt lat="45.6101467" lon="9.088945"><ele>212.0</ele><time>2026-04-18T05:49:47.445Z</time></trkpt><trkpt lat="45.61017" lon="9.08907"><ele>211.83333333333334</ele><time>2026-04-18T05:49:49.444Z</time></trkpt><trkpt lat="45.6101733" lon="9.0891917"><ele>211.66666666666669</ele><time>2026-04-18T05:49:51.445Z</time></trkpt><trkpt lat="45.6101767" lon="9.0893117"><ele>211.5</ele><time>2026-04-18T05:49:53.445Z</time></trkpt><trkpt lat="45.61019" lon="9.0894433"><ele>211.33333333333331</ele><time>2026-04-18T05:49:55.444Z</time></trkpt><trkpt lat="45.6102133" lon="9.0895733"><ele>211.16666666666666</ele><time>2026-04-18T05:49:57.445Z</time></trkpt><trkpt lat="45.61023" lon="9.0896983"><ele>211.0</ele><time>2026-04-18T05:49:59.445Z</time></trkpt><trkpt lat="45.6102317" lon="9.0897883"><ele>211.0</ele><time>2026-04-18T05:50:01.444Z</time></trkpt><trkpt lat="45.6102217" lon="9.0898883"><ele>211.0</ele><time>2026-04-18T05:50:03.445Z</time></trkpt><trkpt lat="45.6102533" lon="9.0899733"><ele>211.0</ele><time>2026-04-18T05:50:06.445Z</time></trkpt><trkpt lat="45.6102533" lon="9.0898717"><ele>211.0</ele><time>2026-04-18T05:50:11.445Z</time></trkpt><trkpt lat="45.610255" lon="9.0897767"><ele>211.0</ele><time>2026-04-18T05:50:14.444Z</time></trkpt><trkpt lat="45.61023" lon="9.0896933"><ele>211.0</ele><time>2026-04-18T05:50:17.444Z</time></trkpt><trkpt lat="45.6102367" lon="9.0898017"><ele>211.0</ele><time>2026-04-18T05:50:23.445Z</time></trkpt><trkpt lat="45.6102567" lon="9.08994"><ele>210.4</ele><time>2026-04-18T05:50:26.445Z</time></trkpt><trkpt lat="45.6102783" lon="9.0900483"><ele>209.8</ele><time>2026-04-18T05:50:28.444Z</time></trkpt><trkpt lat="45.6103083" lon="9.0901717"><ele>209.20000000000002</ele><time>2026-04-18T05:50:30.445Z</time></trkpt><trkpt lat="45.6103233" lon="9.0902883"><ele>208.60000000000002</ele><time>2026-04-18T05:50:32.446Z</time></trkpt><trkpt lat="45.6103433" lon="9.0904383"><ele>208.0</ele><time>2026-04-18T05:50:34.445Z</time></trkpt><trkpt lat="45.61038" lon="9.090585"><ele>208.0</ele><time>2026-04-18T05:50:36.444Z</time></trkpt><trkpt lat="45.6104033" lon="9.09072"><ele>208.0</ele><time>2026-04-18T05:50:38.445Z</time></trkpt><trkpt lat="45.6104183" lon="9.0908583"><ele>208.0</ele><time>2026-04-18T05:50:40.445Z</time></trkpt><trkpt lat="45.610435" lon="9.0910033"><ele>208.0</ele><time>2026-04-18T05:50:42.444Z</time></trkpt><trkpt lat="45.6104517" lon="9.091135"><ele>208.0</ele><time>2026-04-18T05:50:44.445Z</time></trkpt><trkpt lat="45.610475" lon="9.0912617"><ele>208.0</ele><time>2026-04-18T05:50:46.445Z</time></trkpt><trkpt lat="45.6105" lon="9.0914"><ele>208.0</ele><time>2026-04-18T05:50:48.445Z</time></trkpt><trkpt lat="45.6105233" lon="9.0915333"><ele>208.0</ele><time>2026-04-18T05:50:50.445Z</time></trkpt><trkpt lat="45.6105467" lon="9.0916783"><ele>208.0</ele><time>2026-04-18T05:50:52.445Z</time></trkpt><trkpt lat="45.6105817" lon="9.091825"><ele>208.0</ele><time>2026-04-18T05:50:54.445Z</time></trkpt><trkpt lat="45.6106017" lon="9.09197"><ele>208.2</ele><time>2026-04-18T05:50:56.445Z</time></trkpt><trkpt lat="45.61061" lon="9.09211"><ele>208.4</ele><time>2026-04-18T05:50:58.445Z</time></trkpt><trkpt lat="45.6105967" lon="9.092235"><ele>208.6</ele><time>2026-04-18T05:51:00.445Z</time></trkpt><trkpt lat="45.6105317" lon="9.0923317"><ele>208.79999999999998</ele><time>2026-04-18T05:51:02.445Z</time></trkpt><trkpt lat="45.610475" lon="9.0923717"><ele>209.0</ele><time>2026-04-18T05:51:03.445Z</time></trkpt><trkpt lat="45.61037" lon="9.0924417"><ele>209.00000000000003</ele><time>2026-04-18T05:51:05.445Z</time></trkpt><trkpt lat="45.610265" lon="9.0925167"><ele>209.0</ele><time>2026-04-18T05:51:07.445Z</time></trkpt><trkpt lat="45.6101483" lon="9.092575"><ele>209.0</ele><time>2026-04-18T05:51:09.444Z</time></trkpt><trkpt lat="45.610085" lon="9.0925983"><ele>209.0</ele><time>2026-04-18T05:51:10.444Z</time></trkpt><trkpt lat="45.61002" lon="9.0926217"><ele>209.00000000000003</ele><time>2026-04-18T05:51:11.445Z</time></trkpt><trkpt lat="45.60996" lon="9.0926533"><ele>209.0</ele><time>2026-04-18T05:51:12.444Z</time></trkpt><trkpt lat="45.609895" lon="9.0926817"><ele>209.00000000000003</ele><time>2026-04-18T05:51:13.445Z</time></trkpt><trkpt lat="45.6098333" lon="9.0927083"><ele>209.0</ele><time>2026-04-18T05:51:14.445Z</time></trkpt><trkpt lat="45.6097717" lon="9.0927333"><ele>209.0</ele><time>2026-04-18T05:51:15.444Z</time></trkpt><trkpt lat="45.6096517" lon="9.09276"><ele>209.0</ele><time>2026-04-18T05:51:17.445Z</time></trkpt><trkpt lat="45.6095333" lon="9.0928183"><ele>209.00000000000003</ele><time>2026-04-18T05:51:19.445Z</time></trkpt><trkpt lat="45.6094733" lon="9.0928483"><ele>209.0</ele><time>2026-04-18T05:51:20.445Z</time></trkpt><trkpt lat="45.6093533" lon="9.0928983"><ele>208.83333333333334</ele><time>2026-04-18T05:51:22.445Z</time></trkpt><trkpt lat="45.60929" lon="9.0929083"><ele>208.66666666666669</ele><time>2026-04-18T05:51:23.444Z</time></trkpt><trkpt lat="45.609225" lon="9.0929233"><ele>208.5</ele><time>2026-04-18T05:51:24.444Z</time></trkpt><trkpt lat="45.60916" lon="9.092945"><ele>208.33333333333331</ele><time>2026-04-18T05:51:25.444Z</time></trkpt><trkpt lat="45.6090967" lon="9.0929683"><ele>208.16666666666666</ele><time>2026-04-18T05:51:26.444Z</time></trkpt><trkpt lat="45.608975" lon="9.093"><ele>208.0</ele><time>2026-04-18T05:51:28.445Z</time></trkpt><trkpt lat="45.60891" lon="9.09302"><ele>208.0</ele><time>2026-04-18T05:51:29.445Z</time></trkpt><trkpt lat="45.6088483" lon="9.0930417"><ele>208.0</ele><time>2026-04-18T05:51:30.445Z</time></trkpt><trkpt lat="45.6087833" lon="9.0930683"><ele>208.0</ele><time>2026-04-18T05:51:31.444Z</time></trkpt><trkpt lat="45.6087167" lon="9.0930933"><ele>208.0</ele><time>2026-04-18T05:51:32.444Z</time></trkpt><trkpt lat="45.60865" lon="9.0931167"><ele>208.0</ele><time>2026-04-18T05:51:33.444Z</time></trkpt><trkpt lat="45.6085783" lon="9.093145"><ele>208.0</ele><time>2026-04-18T05:51:34.445Z</time></trkpt><trkpt lat="45.6085117" lon="9.0931733"><ele>208.0</ele><time>2026-04-18T05:51:35.444Z</time></trkpt><trkpt lat="45.6084417" lon="9.0931983"><ele>208.0</ele><time>2026-04-18T05:51:36.445Z</time></trkpt><trkpt lat="45.608375" lon="9.093225"><ele>208.0</ele><time>2026-04-18T05:51:37.445Z</time></trkpt><trkpt lat="45.6083033" lon="9.0932567"><ele>208.0</ele><time>2026-04-18T05:51:38.444Z</time></trkpt><trkpt lat="45.608235" lon="9.093285"><ele>208.0</ele><time>2026-04-18T05:51:39.445Z</time></trkpt><trkpt lat="45.60817" lon="9.0933183"><ele>208.0</ele><time>2026-04-18T05:51:40.445Z</time></trkpt><trkpt lat="45.608105" lon="9.0933533"><ele>208.0</ele><time>2026-04-18T05:51:41.445Z</time></trkpt><trkpt lat="45.6080433" lon="9.09338"><ele>208.0</ele><time>2026-04-18T05:51:42.444Z</time></trkpt><trkpt lat="45.6079783" lon="9.09341"><ele>207.85714285714286</ele><time>2026-04-18T05:51:43.445Z</time></trkpt><trkpt lat="45.6079117" lon="9.0934383"><ele>207.71428571428572</ele><time>2026-04-18T05:51:44.445Z</time></trkpt><trkpt lat="45.6078433" lon="9.0934667"><ele>207.57142857142858</ele><time>2026-04-18T05:51:45.445Z</time></trkpt><trkpt lat="45.6077733" lon="9.0934883"><ele>207.42857142857144</ele><time>2026-04-18T05:51:46.444Z</time></trkpt><trkpt lat="45.607705" lon="9.0935133"><ele>207.28571428571428</ele><time>2026-04-18T05:51:47.444Z</time></trkpt><trkpt lat="45.6076333" lon="9.09354"><ele>207.14285714285717</ele><time>2026-04-18T05:51:48.445Z</time></trkpt><trkpt lat="45.6075617" lon="9.0935667"><ele>207.0</ele><time>2026-04-18T05:51:49.444Z</time></trkpt><trkpt lat="45.60749" lon="9.0935917"><ele>207.00000000000003</ele><time>2026-04-18T05:51:50.444Z</time></trkpt><trkpt lat="45.6074217" lon="9.09362"><ele>207.0</ele><time>2026-04-18T05:51:51.445Z</time></trkpt><trkpt lat="45.6073533" lon="9.09365"><ele>207.0</ele><time>2026-04-18T05:51:52.444Z</time></trkpt><trkpt lat="45.6072883" lon="9.0936783"><ele>207.0</ele><time>2026-04-18T05:51:53.445Z</time></trkpt><trkpt lat="45.60722" lon="9.0937117"><ele>207.0</ele><time>2026-04-18T05:51:54.445Z</time></trkpt><trkpt lat="45.60715" lon="9.0937467"><ele>207.00000000000003</ele><time>2026-04-18T05:51:55.444Z</time></trkpt><trkpt lat="45.60708" lon="9.09378"><ele>207.0</ele><time>2026-04-18T05:51:56.444Z</time></trkpt><trkpt lat="45.607005" lon="9.09381"><ele>206.85714285714286</ele><time>2026-04-18T05:51:57.443Z</time></trkpt><trkpt lat="45.6069317" lon="9.0938383"><ele>206.71428571428572</ele><time>2026-04-18T05:51:58.443Z</time></trkpt><trkpt lat="45.6068667" lon="9.09386"><ele>206.57142857142856</ele><time>2026-04-18T05:51:59.446Z</time></trkpt><trkpt lat="45.6068017" lon="9.09389"><ele>206.42857142857144</ele><time>2026-04-18T05:52:00.444Z</time></trkpt><trkpt lat="45.6067383" lon="9.0939217"><ele>206.28571428571428</ele><time>2026-04-18T05:52:01.444Z</time></trkpt><trkpt lat="45.606675" lon="9.0939533"><ele>206.14285714285714</ele><time>2026-04-18T05:52:02.445Z</time></trkpt><trkpt lat="45.606615" lon="9.093985"><ele>206.0</ele><time>2026-04-18T05:52:03.443Z</time></trkpt><trkpt lat="45.6064967" lon="9.09403"><ele>206.0</ele><time>2026-04-18T05:52:05.443Z</time></trkpt><trkpt lat="45.6063883" lon="9.0940667"><ele>206.0</ele><time>2026-04-18T05:52:07.446Z</time></trkpt><trkpt lat="45.6062733" lon="9.0941083"><ele>206.0</ele><time>2026-04-18T05:52:09.444Z</time></trkpt><trkpt lat="45.6061583" lon="9.094145"><ele>206.0</ele><time>2026-04-18T05:52:11.445Z</time></trkpt><trkpt lat="45.6060533" lon="9.09418"><ele>206.0</ele><time>2026-04-18T05:52:13.445Z</time></trkpt><trkpt lat="45.6059633" lon="9.094205"><ele>206.0</ele><time>2026-04-18T05:52:15.443Z</time></trkpt><trkpt lat="45.6058617" lon="9.094255"><ele>206.0</ele><time>2026-04-18T05:52:17.444Z</time></trkpt><trkpt lat="45.6057683" lon="9.0943083"><ele>206.0</ele><time>2026-04-18T05:52:19.444Z</time></trkpt><trkpt lat="45.6057033" lon="9.0944"><ele>206.0</ele><time>2026-04-18T05:52:21.444Z</time></trkpt><trkpt lat="45.6056733" lon="9.0945183"><ele>206.00000000000003</ele><time>2026-04-18T05:52:23.445Z</time></trkpt><trkpt lat="45.6056333" lon="9.094635"><ele>206.0</ele><time>2026-04-18T05:52:25.444Z</time></trkpt><trkpt lat="45.6055667" lon="9.094725"><ele>206.0</ele><time>2026-04-18T05:52:27.444Z</time></trkpt><trkpt lat="45.6054833" lon="9.09479"><ele>206.0</ele><time>2026-04-18T05:52:29.445Z</time></trkpt><trkpt lat="45.6054067" lon="9.0948167"><ele>206.00000000000003</ele><time>2026-04-18T05:52:31.444Z</time></trkpt><trkpt lat="45.6053483" lon="9.0948517"><ele>206.0</ele><time>2026-04-18T05:52:33.444Z</time></trkpt><trkpt lat="45.6052633" lon="9.094885"><ele>205.4</ele><time>2026-04-18T05:52:35.445Z</time></trkpt><trkpt lat="45.6051683" lon="9.0949383"><ele>204.8</ele><time>2026-04-18T05:52:37.444Z</time></trkpt><trkpt lat="45.60507" lon="9.09496"><ele>204.20000000000002</ele><time>2026-04-18T05:52:39.444Z</time></trkpt><trkpt lat="45.60495" lon="9.0949933"><ele>203.60000000000002</ele><time>2026-04-18T05:52:41.445Z</time></trkpt><trkpt lat="45.60488" lon="9.0950017"><ele>203.0</ele><time>2026-04-18T05:52:42.444Z</time></trkpt><trkpt lat="45.6048167" lon="9.0950183"><ele>203.0</ele><time>2026-04-18T05:52:43.443Z</time></trkpt><trkpt lat="45.6047117" lon="9.0950483"><ele>203.0</ele><time>2026-04-18T05:52:45.444Z</time></trkpt><trkpt lat="45.60459" lon="9.09506"><ele>203.0</ele><time>2026-04-18T05:52:47.445Z</time></trkpt><trkpt lat="45.6044883" lon="9.0950933"><ele>203.0</ele><time>2026-04-18T05:52:49.445Z</time></trkpt><trkpt lat="45.60437" lon="9.0951317"><ele>203.60000000000002</ele><time>2026-04-18T05:52:51.444Z</time></trkpt><trkpt lat="45.6042533" lon="9.0951667"><ele>204.20000000000002</ele><time>2026-04-18T05:52:53.444Z</time></trkpt><trkpt lat="45.6041883" lon="9.0951933"><ele>204.8</ele><time>2026-04-18T05:52:54.444Z</time></trkpt><trkpt lat="45.6040917" lon="9.0952417"><ele>205.4</ele><time>2026-04-18T05:52:56.445Z</time></trkpt><trkpt lat="45.6039967" lon="9.0952883"><ele>206.0</ele><time>2026-04-18T05:52:58.445Z</time></trkpt><trkpt lat="45.6039083" lon="9.0953183"><ele>206.0</ele><time>2026-04-18T05:53:00.444Z</time></trkpt><trkpt lat="45.60383" lon="9.0953583"><ele>206.0</ele><time>2026-04-18T05:53:02.444Z</time></trkpt><trkpt lat="45.6037067" lon="9.09539"><ele>206.0</ele><time>2026-04-18T05:53:04.443Z</time></trkpt><trkpt lat="45.6036183" lon="9.0954217"><ele>206.0</ele><time>2026-04-18T05:53:06.444Z</time></trkpt><trkpt lat="45.6035083" lon="9.0954617"><ele>206.0</ele><time>2026-04-18T05:53:08.444Z</time></trkpt><trkpt lat="45.6034383" lon="9.095505"><ele>206.0</ele><time>2026-04-18T05:53:09.443Z</time></trkpt><trkpt lat="45.603375" lon="9.0955333"><ele>206.0</ele><time>2026-04-18T05:53:10.444Z</time></trkpt><trkpt lat="45.60327" lon="9.0955967"><ele>206.0</ele><time>2026-04-18T05:53:12.443Z</time></trkpt><trkpt lat="45.603155" lon="9.0956583"><ele>206.0</ele><time>2026-04-18T05:53:14.445Z</time></trkpt><trkpt lat="45.6030233" lon="9.095725"><ele>206.0</ele><time>2026-04-18T05:53:16.444Z</time></trkpt><trkpt lat="45.6029217" lon="9.0957833"><ele>205.20000000000002</ele><time>2026-04-18T05:53:18.444Z</time></trkpt><trkpt lat="45.6028183" lon="9.0958283"><ele>204.4</ele><time>2026-04-18T05:53:20.445Z</time></trkpt><trkpt lat="45.602725" lon="9.0958717"><ele>203.6</ele><time>2026-04-18T05:53:22.445Z</time></trkpt><trkpt lat="45.602635" lon="9.0959067"><ele>202.8</ele><time>2026-04-18T05:53:24.443Z</time></trkpt><trkpt lat="45.602525" lon="9.09595"><ele>202.0</ele><time>2026-04-18T05:53:26.444Z</time></trkpt><trkpt lat="45.6024383" lon="9.0959867"><ele>201.99999999999997</ele><time>2026-04-18T05:53:28.443Z</time></trkpt><trkpt lat="45.6023617" lon="9.0960383"><ele>202.0</ele><time>2026-04-18T05:53:30.443Z</time></trkpt><trkpt lat="45.6022767" lon="9.0960817"><ele>202.0</ele><time>2026-04-18T05:53:32.445Z</time></trkpt><trkpt lat="45.6022" lon="9.0961117"><ele>202.0</ele><time>2026-04-18T05:53:34.444Z</time></trkpt><trkpt lat="45.60212" lon="9.0961333"><ele>201.99999999999997</ele><time>2026-04-18T05:53:36.443Z</time></trkpt><trkpt lat="45.6020283" lon="9.096185"><ele>202.0</ele><time>2026-04-18T05:53:38.444Z</time></trkpt><trkpt lat="45.601945" lon="9.09624"><ele>202.0</ele><time>2026-04-18T05:53:40.444Z</time></trkpt><trkpt lat="45.6018467" lon="9.0962867"><ele>202.0</ele><time>2026-04-18T05:53:42.443Z</time></trkpt><trkpt lat="45.6017533" lon="9.0963367"><ele>202.0</ele><time>2026-04-18T05:53:44.444Z</time></trkpt><trkpt lat="45.6016667" lon="9.0964017"><ele>202.0</ele><time>2026-04-18T05:53:46.445Z</time></trkpt><trkpt lat="45.60154" lon="9.0964033"><ele>202.0</ele><time>2026-04-18T05:53:48.445Z</time></trkpt><trkpt lat="45.601475" lon="9.0964183"><ele>201.99999999999997</ele><time>2026-04-18T05:53:49.445Z</time></trkpt><trkpt lat="45.60137" lon="9.0964467"><ele>202.0</ele><time>2026-04-18T05:53:51.444Z</time></trkpt><trkpt lat="45.6012867" lon="9.096465"><ele>202.0</ele><time>2026-04-18T05:53:53.445Z</time></trkpt><trkpt lat="45.6012183" lon="9.09649"><ele>202.0</ele><time>2026-04-18T05:53:55.445Z</time></trkpt><trkpt lat="45.6011433" lon="9.096515"><ele>201.99999999999997</ele><time>2026-04-18T05:53:57.444Z</time></trkpt><trkpt lat="45.601055" lon="9.0965633"><ele>202.0</ele><time>2026-04-18T05:53:59.444Z</time></trkpt><trkpt lat="45.6009717" lon="9.09658"><ele>201.6</ele><time>2026-04-18T05:54:01.445Z</time></trkpt><trkpt lat="45.6008933" lon="9.0966117"><ele>201.2</ele><time>2026-04-18T05:54:03.444Z</time></trkpt><trkpt lat="45.6007933" lon="9.0966333"><ele>200.8</ele><time>2026-04-18T05:54:05.446Z</time></trkpt><trkpt lat="45.60071" lon="9.096665"><ele>200.4</ele><time>2026-04-18T05:54:07.445Z</time></trkpt><trkpt lat="45.600605" lon="9.0966933"><ele>200.0</ele><time>2026-04-18T05:54:09.444Z</time></trkpt><trkpt lat="45.6004917" lon="9.0967367"><ele>200.00000000000003</ele><time>2026-04-18T05:54:11.444Z</time></trkpt><trkpt lat="45.60043" lon="9.0967583"><ele>200.0</ele><time>2026-04-18T05:54:12.444Z</time></trkpt><trkpt lat="45.6003583" lon="9.0967867"><ele>200.0</ele><time>2026-04-18T05:54:13.446Z</time></trkpt><trkpt lat="45.6002683" lon="9.0968233"><ele>200.0</ele><time>2026-04-18T05:54:14.446Z</time></trkpt><trkpt lat="45.6001833" lon="9.09686"><ele>200.00000000000003</ele><time>2026-04-18T05:54:15.444Z</time></trkpt><trkpt lat="45.6000983" lon="9.0969033"><ele>200.0</ele><time>2026-04-18T05:54:16.445Z</time></trkpt><trkpt lat="45.6000333" lon="9.0969417"><ele>199.83333333333334</ele><time>2026-04-18T05:54:17.444Z</time></trkpt><trkpt lat="45.5999667" lon="9.096975"><ele>199.66666666666669</ele><time>2026-04-18T05:54:18.444Z</time></trkpt><trkpt lat="45.599905" lon="9.097"><ele>199.5</ele><time>2026-04-18T05:54:19.444Z</time></trkpt><trkpt lat="45.5998033" lon="9.09704"><ele>199.33333333333331</ele><time>2026-04-18T05:54:21.444Z</time></trkpt><trkpt lat="45.5997" lon="9.097075"><ele>199.16666666666666</ele><time>2026-04-18T05:54:23.444Z</time></trkpt><trkpt lat="45.5996033" lon="9.0971083"><ele>199.0</ele><time>2026-04-18T05:54:25.445Z</time></trkpt><trkpt lat="45.59951" lon="9.097145"><ele>199.2</ele><time>2026-04-18T05:54:27.445Z</time></trkpt><trkpt lat="45.5993967" lon="9.0971933"><ele>199.39999999999998</ele><time>2026-04-18T05:54:29.444Z</time></trkpt><trkpt lat="45.5993317" lon="9.0972117"><ele>199.6</ele><time>2026-04-18T05:54:30.444Z</time></trkpt><trkpt lat="45.599215" lon="9.0972267"><ele>199.8</ele><time>2026-04-18T05:54:32.445Z</time></trkpt><trkpt lat="45.5991133" lon="9.0971917"><ele>200.0</ele><time>2026-04-18T05:54:34.445Z</time></trkpt><trkpt lat="45.5990167" lon="9.0971217"><ele>200.0</ele><time>2026-04-18T05:54:36.444Z</time></trkpt><trkpt lat="45.5989133" lon="9.097055"><ele>200.0</ele><time>2026-04-18T05:54:38.444Z</time></trkpt><trkpt lat="45.5988017" lon="9.0970883"><ele>200.0</ele><time>2026-04-18T05:54:40.445Z</time></trkpt><trkpt lat="45.5987133" lon="9.0971333"><ele>200.0</ele><time>2026-04-18T05:54:42.443Z</time></trkpt><trkpt lat="45.598605" lon="9.0971783"><ele>200.0</ele><time>2026-04-18T05:54:44.444Z</time></trkpt><trkpt lat="45.598505" lon="9.0972283"><ele>199.66666666666669</ele><time>2026-04-18T05:54:46.444Z</time></trkpt><trkpt lat="45.5983833" lon="9.09726"><ele>199.33333333333334</ele><time>2026-04-18T05:54:48.444Z</time></trkpt><trkpt lat="45.5983067" lon="9.0972667"><ele>199.0</ele><time>2026-04-18T05:54:49.444Z</time></trkpt><trkpt lat="45.5982267" lon="9.097275"><ele>198.66666666666669</ele><time>2026-04-18T05:54:50.444Z</time></trkpt><trkpt lat="45.5981633" lon="9.0972733"><ele>198.33333333333334</ele><time>2026-04-18T05:54:51.444Z</time></trkpt><trkpt lat="45.5980983" lon="9.0972733"><ele>198.0</ele><time>2026-04-18T05:54:52.445Z</time></trkpt><trkpt lat="45.59803" lon="9.0972733"><ele>198.0</ele><time>2026-04-18T05:54:53.445Z</time></trkpt><trkpt lat="45.5979583" lon="9.0972717"><ele>198.0</ele><time>2026-04-18T05:54:54.446Z</time></trkpt><trkpt lat="45.597895" lon="9.0972733"><ele>198.0</ele><time>2026-04-18T05:54:55.444Z</time></trkpt><trkpt lat="45.59783" lon="9.0972717"><ele>198.0</ele><time>2026-04-18T05:54:56.444Z</time></trkpt><trkpt lat="45.597765" lon="9.097255"><ele>198.0</ele><time>2026-04-18T05:54:57.445Z</time></trkpt><trkpt lat="45.5976933" lon="9.0972217"><ele>198.0</ele><time>2026-04-18T05:54:58.445Z</time></trkpt><trkpt lat="45.597625" lon="9.097185"><ele>198.0</ele><time>2026-04-18T05:54:59.444Z</time></trkpt><trkpt lat="45.5975567" lon="9.0971483"><ele>197.60000000000002</ele><time>2026-04-18T05:55:00.445Z</time></trkpt><trkpt lat="45.5974933" lon="9.0971133"><ele>197.20000000000002</ele><time>2026-04-18T05:55:01.444Z</time></trkpt><trkpt lat="45.5974317" lon="9.097075"><ele>196.8</ele><time>2026-04-18T05:55:02.445Z</time></trkpt><trkpt lat="45.597365" lon="9.097045"><ele>196.4</ele><time>2026-04-18T05:55:03.445Z</time></trkpt><trkpt lat="45.59725" lon="9.0969867"><ele>196.0</ele><time>2026-04-18T05:55:05.445Z</time></trkpt><trkpt lat="45.5971333" lon="9.096915"><ele>196.0</ele><time>2026-04-18T05:55:07.444Z</time></trkpt><trkpt lat="45.5970217" lon="9.0968283"><ele>196.0</ele><time>2026-04-18T05:55:09.444Z</time></trkpt><trkpt lat="45.5969067" lon="9.09677"><ele>196.0</ele><time>2026-04-18T05:55:11.444Z</time></trkpt><trkpt lat="45.5968483" lon="9.0967283"><ele>196.0</ele><time>2026-04-18T05:55:12.444Z</time></trkpt><trkpt lat="45.5967817" lon="9.0966933"><ele>196.0</ele><time>2026-04-18T05:55:13.445Z</time></trkpt><trkpt lat="45.5966617" lon="9.0966283"><ele>197.0</ele><time>2026-04-18T05:55:15.445Z</time></trkpt><trkpt lat="45.5965533" lon="9.0965683"><ele>198.0</ele><time>2026-04-18T05:55:17.445Z</time></trkpt><trkpt lat="45.5964483" lon="9.0964933"><ele>199.0</ele><time>2026-04-18T05:55:19.445Z</time></trkpt><trkpt lat="45.59635" lon="9.096425"><ele>200.0</ele><time>2026-04-18T05:55:21.444Z</time></trkpt><trkpt lat="45.596245" lon="9.0963667"><ele>200.0</ele><time>2026-04-18T05:55:23.444Z</time></trkpt><trkpt lat="45.5961483" lon="9.0963017"><ele>200.0</ele><time>2026-04-18T05:55:25.445Z</time></trkpt><trkpt lat="45.59607" lon="9.0962367"><ele>200.0</ele><time>2026-04-18T05:55:27.445Z</time></trkpt><trkpt lat="45.59599" lon="9.09614"><ele>200.0</ele><time>2026-04-18T05:55:29.446Z</time></trkpt><trkpt lat="45.5959133" lon="9.0960583"><ele>200.0</ele><time>2026-04-18T05:55:31.445Z</time></trkpt><trkpt lat="45.5958633" lon="9.0959533"><ele>200.0</ele><time>2026-04-18T05:55:33.445Z</time></trkpt><trkpt lat="45.595845" lon="9.09583"><ele>200.0</ele><time>2026-04-18T05:55:35.445Z</time></trkpt><trkpt lat="45.59585" lon="9.09568"><ele>200.0</ele><time>2026-04-18T05:55:37.445Z</time></trkpt><trkpt lat="45.59586" lon="9.09549"><ele>200.0</ele><time>2026-04-18T05:55:39.444Z</time></trkpt><trkpt lat="45.5958617" lon="9.0953867"><ele>200.0</ele><time>2026-04-18T05:55:40.445Z</time></trkpt><trkpt lat="45.595865" lon="9.09529"><ele>200.50000000000003</ele><time>2026-04-18T05:55:41.445Z</time></trkpt><trkpt lat="45.5958733" lon="9.0951967"><ele>201.0</ele><time>2026-04-18T05:55:42.444Z</time></trkpt><trkpt lat="45.5958767" lon="9.0950983"><ele>201.5</ele><time>2026-04-18T05:55:43.444Z</time></trkpt><trkpt lat="45.5958917" lon="9.09493"><ele>202.0</ele><time>2026-04-18T05:55:45.445Z</time></trkpt><trkpt lat="45.59591" lon="9.0947767"><ele>202.50000000000003</ele><time>2026-04-18T05:55:47.444Z</time></trkpt><trkpt lat="45.59592" lon="9.0946867"><ele>203.0</ele><time>2026-04-18T05:55:48.445Z</time></trkpt><trkpt lat="45.5959217" lon="9.094595"><ele>203.2</ele><time>2026-04-18T05:55:49.444Z</time></trkpt><trkpt lat="45.59592" lon="9.094495"><ele>203.4</ele><time>2026-04-18T05:55:50.446Z</time></trkpt><trkpt lat="45.5959167" lon="9.0943"><ele>203.6</ele><time>2026-04-18T05:55:51.444Z</time></trkpt><trkpt lat="45.595935" lon="9.0941733"><ele>203.79999999999998</ele><time>2026-04-18T05:55:52.445Z</time></trkpt><trkpt lat="45.5959817" lon="9.0939933"><ele>204.0</ele><time>2026-04-18T05:55:54.444Z</time></trkpt><trkpt lat="45.5960017" lon="9.0938883"><ele>203.79999999999998</ele><time>2026-04-18T05:55:55.445Z</time></trkpt><trkpt lat="45.5960283" lon="9.0937867"><ele>203.6</ele><time>2026-04-18T05:55:56.445Z</time></trkpt><trkpt lat="45.5960383" lon="9.0936967"><ele>203.4</ele><time>2026-04-18T05:55:57.445Z</time></trkpt><trkpt lat="45.5960483" lon="9.0935267"><ele>203.2</ele><time>2026-04-18T05:55:59.445Z</time></trkpt><trkpt lat="45.5960667" lon="9.0933533"><ele>203.0</ele><time>2026-04-18T05:56:01.444Z</time></trkpt><trkpt lat="45.59608" lon="9.093255"><ele>203.00000000000003</ele><time>2026-04-18T05:56:02.445Z</time></trkpt><trkpt lat="45.5960783" lon="9.093165"><ele>203.0</ele><time>2026-04-18T05:56:03.445Z</time></trkpt><trkpt lat="45.5960783" lon="9.0930283"><ele>203.0</ele><time>2026-04-18T05:56:05.444Z</time></trkpt><trkpt lat="45.5960683" lon="9.092905"><ele>203.0</ele><time>2026-04-18T05:56:07.445Z</time></trkpt><trkpt lat="45.5960617" lon="9.0927883"><ele>203.00000000000003</ele><time>2026-04-18T05:56:09.445Z</time></trkpt><trkpt lat="45.5959867" lon="9.092675"><ele>203.0</ele><time>2026-04-18T05:56:11.445Z</time></trkpt><trkpt lat="45.5959117" lon="9.0926483"><ele>203.00000000000003</ele><time>2026-04-18T05:56:13.445Z</time></trkpt><trkpt lat="45.5958367" lon="9.0926683"><ele>203.0</ele><time>2026-04-18T05:56:15.443Z</time></trkpt><trkpt lat="45.595775" lon="9.09271"><ele>203.0</ele><time>2026-04-18T05:56:17.445Z</time></trkpt><trkpt lat="45.5957383" lon="9.0927833"><ele>203.0</ele><time>2026-04-18T05:56:19.444Z</time></trkpt><trkpt lat="45.59568" lon="9.0928583"><ele>203.00000000000003</ele><time>2026-04-18T05:56:21.443Z</time></trkpt><trkpt lat="45.5956033" lon="9.09294"><ele>203.0</ele><time>2026-04-18T05:56:23.445Z</time></trkpt><trkpt lat="45.59552" lon="9.0930417"><ele>203.0</ele><time>2026-04-18T05:56:25.445Z</time></trkpt><trkpt lat="45.5954417" lon="9.09314"><ele>203.0</ele><time>2026-04-18T05:56:27.444Z</time></trkpt><trkpt lat="45.5953583" lon="9.0932317"><ele>203.0</ele><time>2026-04-18T05:56:29.444Z</time></trkpt><trkpt lat="45.595275" lon="9.0933167"><ele>203.0</ele><time>2026-04-18T05:56:31.444Z</time></trkpt><trkpt lat="45.5951833" lon="9.093415"><ele>203.0</ele><time>2026-04-18T05:56:33.442Z</time></trkpt><trkpt lat="45.59512" lon="9.093455"><ele>203.5</ele><time>2026-04-18T05:56:34.443Z</time></trkpt><trkpt lat="45.59502" lon="9.0935483"><ele>204.0</ele><time>2026-04-18T05:56:36.443Z</time></trkpt><trkpt lat="45.594915" lon="9.0936483"><ele>204.5</ele><time>2026-04-18T05:56:38.443Z</time></trkpt><trkpt lat="45.594815" lon="9.0937567"><ele>205.0</ele><time>2026-04-18T05:56:40.443Z</time></trkpt><trkpt lat="45.5947183" lon="9.0938633"><ele>204.99999999999997</ele><time>2026-04-18T05:56:42.444Z</time></trkpt><trkpt lat="45.5946667" lon="9.0939217"><ele>205.0</ele><time>2026-04-18T05:56:43.444Z</time></trkpt><trkpt lat="45.5946117" lon="9.0939767"><ele>205.0</ele><time>2026-04-18T05:56:44.444Z</time></trkpt><trkpt lat="45.5945633" lon="9.0940383"><ele>205.0</ele><time>2026-04-18T05:56:45.442Z</time></trkpt><trkpt lat="45.594515" lon="9.0941"><ele>204.99999999999997</ele><time>2026-04-18T05:56:46.443Z</time></trkpt><trkpt lat="45.59441" lon="9.0941883"><ele>205.0</ele><time>2026-04-18T05:56:48.443Z</time></trkpt><trkpt lat="45.5942983" lon="9.0942467"><ele>204.8</ele><time>2026-04-18T05:56:50.443Z</time></trkpt><trkpt lat="45.5941833" lon="9.0941817"><ele>204.6</ele><time>2026-04-18T05:56:52.443Z</time></trkpt><trkpt lat="45.5941017" lon="9.0940933"><ele>204.39999999999998</ele><time>2026-04-18T05:56:54.444Z</time></trkpt><trkpt lat="45.5940167" lon="9.0939983"><ele>204.2</ele><time>2026-04-18T05:56:56.443Z</time></trkpt><trkpt lat="45.593975" lon="9.093875"><ele>204.0</ele><time>2026-04-18T05:56:58.443Z</time></trkpt><trkpt lat="45.5939467" lon="9.0937783"><ele>204.0</ele><time>2026-04-18T05:57:00.443Z</time></trkpt><trkpt lat="45.5939083" lon="9.0936667"><ele>204.0</ele><time>2026-04-18T05:57:03.443Z</time></trkpt><trkpt lat="45.5939" lon="9.093545"><ele>204.0</ele><time>2026-04-18T05:57:05.444Z</time></trkpt><trkpt lat="45.5938767" lon="9.0934267"><ele>204.0</ele><time>2026-04-18T05:57:08.444Z</time></trkpt><trkpt lat="45.5937717" lon="9.0933883"><ele>204.0</ele><time>2026-04-18T05:57:11.444Z</time></trkpt><trkpt lat="45.5936917" lon="9.0933567"><ele>203.16666666666666</ele><time>2026-04-18T05:57:13.444Z</time></trkpt><trkpt lat="45.593625" lon="9.0933383"><ele>202.33333333333331</ele><time>2026-04-18T05:57:15.444Z</time></trkpt><trkpt lat="45.59357" lon="9.09323"><ele>201.5</ele><time>2026-04-18T05:57:18.444Z</time></trkpt><trkpt lat="45.59353" lon="9.09315"><ele>200.66666666666666</ele><time>2026-04-18T05:57:20.444Z</time></trkpt><trkpt lat="45.5935283" lon="9.0930083"><ele>199.83333333333331</ele><time>2026-04-18T05:57:22.444Z</time></trkpt><trkpt lat="45.5935" lon="9.0929017"><ele>199.0</ele><time>2026-04-18T05:57:24.443Z</time></trkpt><trkpt lat="45.5934383" lon="9.09282"><ele>198.83333333333331</ele><time>2026-04-18T05:57:26.443Z</time></trkpt><trkpt lat="45.59338" lon="9.0927483"><ele>198.66666666666666</ele><time>2026-04-18T05:57:28.444Z</time></trkpt><trkpt lat="45.593335" lon="9.0926717"><ele>198.5</ele><time>2026-04-18T05:57:30.443Z</time></trkpt><trkpt lat="45.5932633" lon="9.0925983"><ele>198.33333333333331</ele><time>2026-04-18T05:57:31.443Z</time></trkpt><trkpt lat="45.593175" lon="9.0925017"><ele>198.16666666666666</ele><time>2026-04-18T05:57:33.443Z</time></trkpt><trkpt lat="45.5931217" lon="9.0924517"><ele>198.0</ele><time>2026-04-18T05:57:34.443Z</time></trkpt><trkpt lat="45.59301" lon="9.09239"><ele>197.8</ele><time>2026-04-18T05:57:36.443Z</time></trkpt><trkpt lat="45.59292" lon="9.0923217"><ele>197.60000000000002</ele><time>2026-04-18T05:57:38.443Z</time></trkpt><trkpt lat="45.59286" lon="9.0922517"><ele>197.39999999999998</ele><time>2026-04-18T05:57:40.443Z</time></trkpt><trkpt lat="45.5927717" lon="9.09223"><ele>197.2</ele><time>2026-04-18T05:57:42.443Z</time></trkpt><trkpt lat="45.5926767" lon="9.0921983"><ele>197.0</ele><time>2026-04-18T05:57:44.445Z</time></trkpt><trkpt lat="45.5925833" lon="9.0921517"><ele>196.39999999999998</ele><time>2026-04-18T05:57:46.443Z</time></trkpt><trkpt lat="45.5924767" lon="9.092115"><ele>195.79999999999998</ele><time>2026-04-18T05:57:48.442Z</time></trkpt><trkpt lat="45.5923833" lon="9.0921183"><ele>195.2</ele><time>2026-04-18T05:57:50.444Z</time></trkpt><trkpt lat="45.5922967" lon="9.0921267"><ele>194.6</ele><time>2026-04-18T05:57:52.442Z</time></trkpt><trkpt lat="45.5922167" lon="9.0921533"><ele>194.0</ele><time>2026-04-18T05:57:54.444Z</time></trkpt><trkpt lat="45.5921267" lon="9.0921933"><ele>194.0</ele><time>2026-04-18T05:57:56.444Z</time></trkpt><trkpt lat="45.592045" lon="9.092215"><ele>194.0</ele><time>2026-04-18T05:57:58.443Z</time></trkpt><trkpt lat="45.59195" lon="9.092215"><ele>194.0</ele><time>2026-04-18T05:58:00.444Z</time></trkpt><trkpt lat="45.5918517" lon="9.0922033"><ele>194.0</ele><time>2026-04-18T05:58:02.443Z</time></trkpt><trkpt lat="45.5917433" lon="9.092185"><ele>194.0</ele><time>2026-04-18T05:58:04.444Z</time></trkpt><trkpt lat="45.5916433" lon="9.0921433"><ele>194.2</ele><time>2026-04-18T05:58:06.444Z</time></trkpt><trkpt lat="45.5915233" lon="9.0921167"><ele>194.39999999999998</ele><time>2026-04-18T05:58:08.443Z</time></trkpt><trkpt lat="45.59142" lon="9.092045"><ele>194.6</ele><time>2026-04-18T05:58:10.444Z</time></trkpt><trkpt lat="45.5913633" lon="9.0919517"><ele>194.8</ele><time>2026-04-18T05:58:12.444Z</time></trkpt><trkpt lat="45.59128" lon="9.0919"><ele>195.0</ele><time>2026-04-18T05:58:14.444Z</time></trkpt><trkpt lat="45.5911833" lon="9.0919083"><ele>195.16666666666666</ele><time>2026-04-18T05:58:16.443Z</time></trkpt><trkpt lat="45.591105" lon="9.09195"><ele>195.33333333333331</ele><time>2026-04-18T05:58:18.443Z</time></trkpt><trkpt lat="45.5910433" lon="9.092015"><ele>195.5</ele><time>2026-04-18T05:58:20.444Z</time></trkpt><trkpt lat="45.5909917" lon="9.0920933"><ele>195.66666666666666</ele><time>2026-04-18T05:58:22.443Z</time></trkpt><trkpt lat="45.5909417" lon="9.0922067"><ele>195.83333333333331</ele><time>2026-04-18T05:58:25.443Z</time></trkpt><trkpt lat="45.590905" lon="9.0923283"><ele>196.0</ele><time>2026-04-18T05:58:28.443Z</time></trkpt><trkpt lat="45.5908733" lon="9.092455"><ele>195.60000000000002</ele><time>2026-04-18T05:58:30.443Z</time></trkpt><trkpt lat="45.5908067" lon="9.0925433"><ele>195.2</ele><time>2026-04-18T05:58:32.444Z</time></trkpt><trkpt lat="45.5907333" lon="9.0925567"><ele>194.8</ele><time>2026-04-18T05:58:34.444Z</time></trkpt><trkpt lat="45.5906267" lon="9.0925267"><ele>194.39999999999998</ele><time>2026-04-18T05:58:36.443Z</time></trkpt><trkpt lat="45.5905167" lon="9.0924867"><ele>194.0</ele><time>2026-04-18T05:58:38.443Z</time></trkpt><trkpt lat="45.590425" lon="9.0924583"><ele>193.79999999999998</ele><time>2026-04-18T05:58:40.442Z</time></trkpt><trkpt lat="45.59033" lon="9.09243"><ele>193.6</ele><time>2026-04-18T05:58:42.442Z</time></trkpt><trkpt lat="45.590225" lon="9.0923917"><ele>193.4</ele><time>2026-04-18T05:58:44.444Z</time></trkpt><trkpt lat="45.5901517" lon="9.0923733"><ele>193.2</ele><time>2026-04-18T05:58:45.444Z</time></trkpt><trkpt lat="45.5900417" lon="9.0923317"><ele>193.0</ele><time>2026-04-18T05:58:47.444Z</time></trkpt><trkpt lat="45.589925" lon="9.092315"><ele>193.0</ele><time>2026-04-18T05:58:49.444Z</time></trkpt><trkpt lat="45.589815" lon="9.09229"><ele>193.0</ele><time>2026-04-18T05:58:51.443Z</time></trkpt><trkpt lat="45.5897183" lon="9.092235"><ele>193.0</ele><time>2026-04-18T05:58:53.444Z</time></trkpt><trkpt lat="45.589655" lon="9.0922083"><ele>193.0</ele><time>2026-04-18T05:58:54.443Z</time></trkpt><trkpt lat="45.5895683" lon="9.0921717"><ele>193.0</ele><time>2026-04-18T05:58:56.445Z</time></trkpt><trkpt lat="45.58948" lon="9.09212"><ele>192.8</ele><time>2026-04-18T05:58:58.444Z</time></trkpt><trkpt lat="45.5894183" lon="9.092035"><ele>192.60000000000002</ele><time>2026-04-18T05:59:00.443Z</time></trkpt><trkpt lat="45.58935" lon="9.09194"><ele>192.39999999999998</ele><time>2026-04-18T05:59:02.445Z</time></trkpt><trkpt lat="45.58928" lon="9.09185"><ele>192.2</ele><time>2026-04-18T05:59:04.444Z</time></trkpt><trkpt lat="45.589175" lon="9.091815"><ele>192.0</ele><time>2026-04-18T05:59:06.443Z</time></trkpt><trkpt lat="45.5890933" lon="9.09175"><ele>192.0</ele><time>2026-04-18T05:59:08.444Z</time></trkpt><trkpt lat="45.589025" lon="9.0916967"><ele>192.0</ele><time>2026-04-18T05:59:10.444Z</time></trkpt><trkpt lat="45.5889483" lon="9.0916233"><ele>192.0</ele><time>2026-04-18T05:59:13.444Z</time></trkpt><trkpt lat="45.5888983" lon="9.0915317"><ele>192.0</ele><time>2026-04-18T05:59:15.443Z</time></trkpt><trkpt lat="45.5888733" lon="9.0914333"><ele>192.0</ele><time>2026-04-18T05:59:17.445Z</time></trkpt><trkpt lat="45.5888217" lon="9.0913817"><ele>192.0</ele><time>2026-04-18T05:59:19.443Z</time></trkpt><trkpt lat="45.588765" lon="9.0913117"><ele>192.0</ele><time>2026-04-18T05:59:22.444Z</time></trkpt><trkpt lat="45.5887083" lon="9.09123"><ele>192.0</ele><time>2026-04-18T05:59:25.445Z</time></trkpt><trkpt lat="45.58864" lon="9.0911583"><ele>192.0</ele><time>2026-04-18T05:59:28.443Z</time></trkpt><trkpt lat="45.58858" lon="9.0911"><ele>192.0</ele><time>2026-04-18T05:59:31.445Z</time></trkpt><trkpt lat="45.5885233" lon="9.0910567"><ele>192.0</ele><time>2026-04-18T05:59:34.443Z</time></trkpt><trkpt lat="45.58847" lon="9.0910083"><ele>192.0</ele><time>2026-04-18T05:59:36.442Z</time></trkpt><trkpt lat="45.588395" lon="9.090925"><ele>192.0</ele><time>2026-04-18T05:59:39.442Z</time></trkpt><trkpt lat="45.5883417" lon="9.0908733"><ele>192.0</ele><time>2026-04-18T05:59:41.445Z</time></trkpt><trkpt lat="45.5882867" lon="9.0908233"><ele>192.0</ele><time>2026-04-18T05:59:43.444Z</time></trkpt><trkpt lat="45.5882083" lon="9.0907717"><ele>192.0</ele><time>2026-04-18T05:59:45.442Z</time></trkpt><trkpt lat="45.5881167" lon="9.0907083"><ele>192.0</ele><time>2026-04-18T05:59:47.443Z</time></trkpt><trkpt lat="45.5880283" lon="9.0906333"><ele>192.0</ele><time>2026-04-18T05:59:49.445Z</time></trkpt><trkpt lat="45.587935" lon="9.0905483"><ele>191.2</ele><time>2026-04-18T05:59:51.443Z</time></trkpt><trkpt lat="45.5878283" lon="9.0904683"><ele>190.39999999999998</ele><time>2026-04-18T05:59:53.444Z</time></trkpt><trkpt lat="45.5877667" lon="9.0904383"><ele>189.60000000000002</ele><time>2026-04-18T05:59:54.443Z</time></trkpt><trkpt lat="45.5877033" lon="9.0904217"><ele>188.8</ele><time>2026-04-18T05:59:55.444Z</time></trkpt><trkpt lat="45.5875867" lon="9.0904067"><ele>188.0</ele><time>2026-04-18T05:59:57.443Z</time></trkpt><trkpt lat="45.58749" lon="9.09034"><ele>188.0</ele><time>2026-04-18T05:59:59.444Z</time></trkpt><trkpt lat="45.587395" lon="9.090265"><ele>188.0</ele><time>2026-04-18T06:00:01.444Z</time></trkpt><trkpt lat="45.5872867" lon="9.0902067"><ele>188.0</ele><time>2026-04-18T06:00:03.442Z</time></trkpt><trkpt lat="45.5872233" lon="9.0901767"><ele>188.0</ele><time>2026-04-18T06:00:04.443Z</time></trkpt><trkpt lat="45.58711" lon="9.0901483"><ele>188.0</ele><time>2026-04-18T06:00:06.443Z</time></trkpt><trkpt lat="45.5870117" lon="9.09013"><ele>187.8</ele><time>2026-04-18T06:00:08.443Z</time></trkpt><trkpt lat="45.5868983" lon="9.090105"><ele>187.60000000000002</ele><time>2026-04-18T06:00:10.443Z</time></trkpt><trkpt lat="45.586805" lon="9.0901017"><ele>187.39999999999998</ele><time>2026-04-18T06:00:12.442Z</time></trkpt><trkpt lat="45.586715" lon="9.090105"><ele>187.2</ele><time>2026-04-18T06:00:14.444Z</time></trkpt><trkpt lat="45.5866117" lon="9.0901217"><ele>187.0</ele><time>2026-04-18T06:00:16.443Z</time></trkpt><trkpt lat="45.58648" lon="9.0901517"><ele>187.0</ele><time>2026-04-18T06:00:18.443Z</time></trkpt><trkpt lat="45.5863633" lon="9.0901717"><ele>187.0</ele><time>2026-04-18T06:00:20.444Z</time></trkpt><trkpt lat="45.5862467" lon="9.0901967"><ele>187.0</ele><time>2026-04-18T06:00:22.444Z</time></trkpt><trkpt lat="45.5861383" lon="9.09022"><ele>187.0</ele><time>2026-04-18T06:00:24.442Z</time></trkpt><trkpt lat="45.586015" lon="9.0902533"><ele>187.0</ele><time>2026-04-18T06:00:26.444Z</time></trkpt><trkpt lat="45.585885" lon="9.09028"><ele>187.0</ele><time>2026-04-18T06:00:28.444Z</time></trkpt><trkpt lat="45.58577" lon="9.0903083"><ele>187.0</ele><time>2026-04-18T06:00:30.442Z</time></trkpt><trkpt lat="45.58566" lon="9.0903217"><ele>187.0</ele><time>2026-04-18T06:00:32.444Z</time></trkpt><trkpt lat="45.585555" lon="9.0903533"><ele>187.0</ele><time>2026-04-18T06:00:34.444Z</time></trkpt><trkpt lat="45.5854617" lon="9.0903767"><ele>187.0</ele><time>2026-04-18T06:00:36.444Z</time></trkpt><trkpt lat="45.58537" lon="9.09039"><ele>187.0</ele><time>2026-04-18T06:00:38.445Z</time></trkpt><trkpt lat="45.585295" lon="9.0904033"><ele>187.0</ele><time>2026-04-18T06:00:40.444Z</time></trkpt><trkpt lat="45.5852283" lon="9.0904733"><ele>187.0</ele><time>2026-04-18T06:00:43.443Z</time></trkpt><trkpt lat="45.5852217" lon="9.0906167"><ele>187.0</ele><time>2026-04-18T06:00:46.443Z</time></trkpt><trkpt lat="45.5852033" lon="9.0907383"><ele>187.16666666666669</ele><time>2026-04-18T06:00:48.444Z</time></trkpt><trkpt lat="45.5851767" lon="9.090855"><ele>187.33333333333334</ele><time>2026-04-18T06:00:50.444Z</time></trkpt><trkpt lat="45.5851483" lon="9.09098"><ele>187.5</ele><time>2026-04-18T06:00:52.446Z</time></trkpt><trkpt lat="45.5851133" lon="9.0910817"><ele>187.66666666666666</ele><time>2026-04-18T06:00:54.444Z</time></trkpt><trkpt lat="45.5850883" lon="9.0911867"><ele>187.83333333333331</ele><time>2026-04-18T06:00:56.445Z</time></trkpt><trkpt lat="45.5850583" lon="9.0913017"><ele>188.0</ele><time>2026-04-18T06:00:58.443Z</time></trkpt><trkpt lat="45.5850217" lon="9.09144"><ele>188.0</ele><time>2026-04-18T06:01:00.442Z</time></trkpt><trkpt lat="45.5849567" lon="9.091555"><ele>188.0</ele><time>2026-04-18T06:01:02.444Z</time></trkpt><trkpt lat="45.5848867" lon="9.09168"><ele>188.0</ele><time>2026-04-18T06:01:04.444Z</time></trkpt><trkpt lat="45.5848317" lon="9.0918233"><ele>188.0</ele><time>2026-04-18T06:01:06.443Z</time></trkpt><trkpt lat="45.5847667" lon="9.091975"><ele>188.2</ele><time>2026-04-18T06:01:08.445Z</time></trkpt><trkpt lat="45.584705" lon="9.0921133"><ele>188.4</ele><time>2026-04-18T06:01:10.444Z</time></trkpt><trkpt lat="45.5846417" lon="9.0922117"><ele>188.6</ele><time>2026-04-18T06:01:12.444Z</time></trkpt><trkpt lat="45.584565" lon="9.092285"><ele>188.79999999999998</ele><time>2026-04-18T06:01:14.443Z</time></trkpt><trkpt lat="45.5844667" lon="9.0923283"><ele>189.0</ele><time>2026-04-18T06:01:16.443Z</time></trkpt><trkpt lat="45.58434" lon="9.0923433"><ele>189.2</ele><time>2026-04-18T06:01:18.443Z</time></trkpt><trkpt lat="45.5842767" lon="9.09234"><ele>189.39999999999998</ele><time>2026-04-18T06:01:19.444Z</time></trkpt><trkpt lat="45.5841667" lon="9.09233"><ele>189.6</ele><time>2026-04-18T06:01:21.443Z</time></trkpt><trkpt lat="45.5840667" lon="9.092285"><ele>189.8</ele><time>2026-04-18T06:01:23.443Z</time></trkpt><trkpt lat="45.5839667" lon="9.0922617"><ele>190.0</ele><time>2026-04-18T06:01:25.444Z</time></trkpt><trkpt lat="45.5838783" lon="9.0922683"><ele>190.0</ele><time>2026-04-18T06:01:27.443Z</time></trkpt><trkpt lat="45.583785" lon="9.092315"><ele>190.0</ele><time>2026-04-18T06:01:29.442Z</time></trkpt><trkpt lat="45.5836817" lon="9.0923567"><ele>190.0</ele><time>2026-04-18T06:01:31.442Z</time></trkpt><trkpt lat="45.5836" lon="9.0923967"><ele>190.0</ele><time>2026-04-18T06:01:33.443Z</time></trkpt><trkpt lat="45.5835367" lon="9.0923717"><ele>190.0</ele><time>2026-04-18T06:01:35.445Z</time></trkpt><trkpt lat="45.5834867" lon="9.0923"><ele>190.0</ele><time>2026-04-18T06:01:37.444Z</time></trkpt><trkpt lat="45.58342" lon="9.09224"><ele>190.0</ele><time>2026-04-18T06:01:39.443Z</time></trkpt><trkpt lat="45.583315" lon="9.09218"><ele>190.0</ele><time>2026-04-18T06:01:41.443Z</time></trkpt><trkpt lat="45.583215" lon="9.0921433"><ele>190.0</ele><time>2026-04-18T06:01:43.444Z</time></trkpt><trkpt lat="45.58311" lon="9.0921167"><ele>190.0</ele><time>2026-04-18T06:01:45.442Z</time></trkpt><trkpt lat="45.5830267" lon="9.0920883"><ele>190.0</ele><time>2026-04-18T06:01:47.443Z</time></trkpt><trkpt lat="45.5829383" lon="9.092055"><ele>190.0</ele><time>2026-04-18T06:01:49.443Z</time></trkpt><trkpt lat="45.5828583" lon="9.0920233"><ele>190.0</ele><time>2026-04-18T06:01:51.442Z</time></trkpt><trkpt lat="45.5828" lon="9.0919417"><ele>190.0</ele><time>2026-04-18T06:01:54.444Z</time></trkpt><trkpt lat="45.582805" lon="9.0918367"><ele>190.0</ele><time>2026-04-18T06:01:57.444Z</time></trkpt><trkpt lat="45.582805" lon="9.0917433"><ele>190.0</ele><time>2026-04-18T06:01:59.445Z</time></trkpt><trkpt lat="45.5828283" lon="9.091585"><ele>190.0</ele><time>2026-04-18T06:02:02.445Z</time></trkpt><trkpt lat="45.5827783" lon="9.0914717"><ele>189.0</ele><time>2026-04-18T06:02:04.444Z</time></trkpt><trkpt lat="45.582765" lon="9.091345"><ele>188.0</ele><time>2026-04-18T06:02:06.444Z</time></trkpt><trkpt lat="45.582735" lon="9.0912417"><ele>187.0</ele><time>2026-04-18T06:02:08.445Z</time></trkpt><trkpt lat="45.582665" lon="9.0911833"><ele>186.0</ele><time>2026-04-18T06:02:10.444Z</time></trkpt><trkpt lat="45.5825733" lon="9.0911517"><ele>185.0</ele><time>2026-04-18T06:02:12.444Z</time></trkpt><trkpt lat="45.5824867" lon="9.0911383"><ele>184.0</ele><time>2026-04-18T06:02:14.445Z</time></trkpt><trkpt lat="45.582375" lon="9.09114"><ele>184.0</ele><time>2026-04-18T06:02:17.443Z</time></trkpt><trkpt lat="45.5823017" lon="9.0911533"><ele>184.0</ele><time>2026-04-18T06:02:19.444Z</time></trkpt><trkpt lat="45.5822283" lon="9.0911783"><ele>184.0</ele><time>2026-04-18T06:02:21.444Z</time></trkpt><trkpt lat="45.5821333" lon="9.0911983"><ele>184.0</ele><time>2026-04-18T06:02:23.444Z</time></trkpt><trkpt lat="45.58204" lon="9.0912067"><ele>184.0</ele><time>2026-04-18T06:02:25.443Z</time></trkpt><trkpt lat="45.5819417" lon="9.0912217"><ele>184.0</ele><time>2026-04-18T06:02:27.444Z</time></trkpt><trkpt lat="45.5818433" lon="9.0912117"><ele>184.33333333333334</ele><time>2026-04-18T06:02:29.444Z</time></trkpt><trkpt lat="45.581755" lon="9.0912233"><ele>184.66666666666669</ele><time>2026-04-18T06:02:31.444Z</time></trkpt><trkpt lat="45.581685" lon="9.0912633"><ele>185.0</ele><time>2026-04-18T06:02:33.444Z</time></trkpt><trkpt lat="45.581615" lon="9.0912983"><ele>185.33333333333334</ele><time>2026-04-18T06:02:35.444Z</time></trkpt><trkpt lat="45.5815483" lon="9.091335"><ele>185.66666666666666</ele><time>2026-04-18T06:02:37.444Z</time></trkpt><trkpt lat="45.5815233" lon="9.0914417"><ele>186.0</ele><time>2026-04-18T06:02:39.443Z</time></trkpt><trkpt lat="45.58153" lon="9.09158"><ele>186.57142857142858</ele><time>2026-04-18T06:02:41.446Z</time></trkpt><trkpt lat="45.58152" lon="9.09167"><ele>187.14285714285714</ele><time>2026-04-18T06:02:43.445Z</time></trkpt><trkpt lat="45.5814967" lon="9.091775"><ele>187.71428571428572</ele><time>2026-04-18T06:02:47.444Z</time></trkpt><trkpt lat="45.5814267" lon="9.0917933"><ele>188.28571428571428</ele><time>2026-04-18T06:02:54.444Z</time></trkpt><trkpt lat="45.5813617" lon="9.091825"><ele>188.85714285714286</ele><time>2026-04-18T06:02:58.444Z</time></trkpt><trkpt lat="45.5813017" lon="9.091855"><ele>189.42857142857144</ele><time>2026-04-18T06:03:01.444Z</time></trkpt><trkpt lat="45.5812267" lon="9.0918567"><ele>190.0</ele><time>2026-04-18T06:03:04.444Z</time></trkpt><trkpt lat="45.5811367" lon="9.0918567"><ele>190.0</ele><time>2026-04-18T06:03:07.444Z</time></trkpt><trkpt lat="45.581065" lon="9.091845"><ele>190.0</ele><time>2026-04-18T06:03:09.444Z</time></trkpt><trkpt lat="45.5809967" lon="9.0918283"><ele>190.0</ele><time>2026-04-18T06:03:11.444Z</time></trkpt><trkpt lat="45.58092" lon="9.091775"><ele>190.0</ele><time>2026-04-18T06:03:13.444Z</time></trkpt><trkpt lat="45.580845" lon="9.0917267"><ele>190.0</ele><time>2026-04-18T06:03:15.444Z</time></trkpt><trkpt lat="45.5807667" lon="9.09172"><ele>190.0</ele><time>2026-04-18T06:03:17.444Z</time></trkpt><trkpt lat="45.5806783" lon="9.0917333"><ele>190.0</ele><time>2026-04-18T06:03:19.444Z</time></trkpt><trkpt lat="45.5806067" lon="9.0917567"><ele>190.0</ele><time>2026-04-18T06:03:21.443Z</time></trkpt><trkpt lat="45.580515" lon="9.0917983"><ele>190.0</ele><time>2026-04-18T06:03:23.445Z</time></trkpt><trkpt lat="45.5804533" lon="9.09183"><ele>190.0</ele><time>2026-04-18T06:03:25.444Z</time></trkpt><trkpt lat="45.5803633" lon="9.0918283"><ele>190.0</ele><time>2026-04-18T06:03:27.444Z</time></trkpt><trkpt lat="45.5802933" lon="9.091925"><ele>190.0</ele><time>2026-04-18T06:03:29.445Z</time></trkpt><trkpt lat="45.5802383" lon="9.0919967"><ele>190.16666666666669</ele><time>2026-04-18T06:03:31.446Z</time></trkpt><trkpt lat="45.5802133" lon="9.0921183"><ele>190.33333333333334</ele><time>2026-04-18T06:03:33.444Z</time></trkpt><trkpt lat="45.5802117" lon="9.09224"><ele>190.5</ele><time>2026-04-18T06:03:34.444Z</time></trkpt><trkpt lat="45.580205" lon="9.0923883"><ele>190.66666666666666</ele><time>2026-04-18T06:03:35.444Z</time></trkpt><trkpt lat="45.58022" lon="9.0925067"><ele>190.83333333333331</ele><time>2026-04-18T06:03:36.443Z</time></trkpt><trkpt lat="45.5802517" lon="9.0926033"><ele>191.0</ele><time>2026-04-18T06:03:37.444Z</time></trkpt><trkpt lat="45.5802733" lon="9.0927033"><ele>191.4</ele><time>2026-04-18T06:03:38.443Z</time></trkpt><trkpt lat="45.5802717" lon="9.0928733"><ele>191.8</ele><time>2026-04-18T06:03:40.444Z</time></trkpt><trkpt lat="45.580225" lon="9.093015"><ele>192.20000000000002</ele><time>2026-04-18T06:03:42.444Z</time></trkpt><trkpt lat="45.58015" lon="9.093105"><ele>192.60000000000002</ele><time>2026-04-18T06:03:44.443Z</time></trkpt><trkpt lat="45.5800867" lon="9.09313"><ele>193.0</ele><time>2026-04-18T06:03:45.442Z</time></trkpt><trkpt lat="45.5799667" lon="9.0931417"><ele>193.0</ele><time>2026-04-18T06:03:47.443Z</time></trkpt><trkpt lat="45.5798483" lon="9.0931633"><ele>193.0</ele><time>2026-04-18T06:03:49.444Z</time></trkpt><trkpt lat="45.5797333" lon="9.09318"><ele>193.0</ele><time>2026-04-18T06:03:51.443Z</time></trkpt><trkpt lat="45.5796117" lon="9.0932133"><ele>193.0</ele><time>2026-04-18T06:03:53.445Z</time></trkpt><trkpt lat="45.5795417" lon="9.0932333"><ele>193.0</ele><time>2026-04-18T06:03:54.442Z</time></trkpt><trkpt lat="45.579425" lon="9.093285"><ele>192.8</ele><time>2026-04-18T06:03:56.443Z</time></trkpt><trkpt lat="45.579325" lon="9.0933667"><ele>192.60000000000002</ele><time>2026-04-18T06:03:58.443Z</time></trkpt><trkpt lat="45.5792683" lon="9.0934067"><ele>192.39999999999998</ele><time>2026-04-18T06:03:59.444Z</time></trkpt><trkpt lat="45.579185" lon="9.0934983"><ele>192.2</ele><time>2026-04-18T06:04:02.444Z</time></trkpt><trkpt lat="45.5791" lon="9.09364"><ele>192.0</ele><time>2026-04-18T06:04:04.444Z</time></trkpt><trkpt lat="45.5790083" lon="9.093755"><ele>192.0</ele><time>2026-04-18T06:04:06.443Z</time></trkpt><trkpt lat="45.5789717" lon="9.093875"><ele>192.0</ele><time>2026-04-18T06:04:08.444Z</time></trkpt><trkpt lat="45.5788867" lon="9.0941033"><ele>192.0</ele><time>2026-04-18T06:04:32.444Z</time></trkpt><trkpt lat="45.5788417" lon="9.09421"><ele>192.0</ele><time>2026-04-18T06:05:09.444Z</time></trkpt><trkpt lat="45.5787733" lon="9.0942733"><ele>192.0</ele><time>2026-04-18T06:05:12.444Z</time></trkpt><trkpt lat="45.5787117" lon="9.0943233"><ele>190.8</ele><time>2026-04-18T06:05:15.444Z</time></trkpt><trkpt lat="45.5786533" lon="9.0943583"><ele>189.6</ele><time>2026-04-18T06:05:17.443Z</time></trkpt><trkpt lat="45.5785883" lon="9.0944117"><ele>188.4</ele><time>2026-04-18T06:05:19.444Z</time></trkpt><trkpt lat="45.5784317" lon="9.09449"><ele>187.20000000000002</ele><time>2026-04-18T06:05:23.444Z</time></trkpt><trkpt lat="45.5783617" lon="9.0944717"><ele>186.0</ele><time>2026-04-18T06:05:25.445Z</time></trkpt><trkpt lat="45.5782817" lon="9.0944217"><ele>186.0</ele><time>2026-04-18T06:05:27.444Z</time></trkpt><trkpt lat="45.57822" lon="9.0944483"><ele>186.0</ele><time>2026-04-18T06:05:29.443Z</time></trkpt><trkpt lat="45.57813" lon="9.0944067"><ele>186.0</ele><time>2026-04-18T06:05:32.443Z</time></trkpt><trkpt lat="45.5780633" lon="9.09432"><ele>186.0</ele><time>2026-04-18T06:05:34.443Z</time></trkpt><trkpt lat="45.5780267" lon="9.0942333"><ele>186.0</ele><time>2026-04-18T06:05:36.445Z</time></trkpt><trkpt lat="45.5779917" lon="9.09413"><ele>186.0</ele><time>2026-04-18T06:05:38.445Z</time></trkpt><trkpt lat="45.5779583" lon="9.094035"><ele>185.57142857142858</ele><time>2026-04-18T06:05:40.444Z</time></trkpt><trkpt lat="45.5779233" lon="9.0939417"><ele>185.14285714285714</ele><time>2026-04-18T06:05:42.445Z</time></trkpt><trkpt lat="45.5779033" lon="9.0938383"><ele>184.71428571428572</ele><time>2026-04-18T06:05:44.444Z</time></trkpt><trkpt lat="45.5779017" lon="9.093745"><ele>184.28571428571428</ele><time>2026-04-18T06:05:46.445Z</time></trkpt><trkpt lat="45.577895" lon="9.0936533"><ele>183.85714285714286</ele><time>2026-04-18T06:05:48.445Z</time></trkpt><trkpt lat="45.577875" lon="9.0935583"><ele>183.42857142857144</ele><time>2026-04-18T06:05:50.444Z</time></trkpt><trkpt lat="45.577855" lon="9.0934617"><ele>183.0</ele><time>2026-04-18T06:05:52.444Z</time></trkpt><trkpt lat="45.5778617" lon="9.0933583"><ele>183.0</ele><time>2026-04-18T06:05:54.444Z</time></trkpt><trkpt lat="45.5778783" lon="9.0932583"><ele>183.0</ele><time>2026-04-18T06:05:56.444Z</time></trkpt><trkpt lat="45.5778883" lon="9.093155"><ele>183.0</ele><time>2026-04-18T06:05:58.446Z</time></trkpt><trkpt lat="45.5778983" lon="9.0930333"><ele>183.0</ele><time>2026-04-18T06:06:00.443Z</time></trkpt><trkpt lat="45.5779167" lon="9.0929"><ele>183.0</ele><time>2026-04-18T06:06:02.445Z</time></trkpt><trkpt lat="45.5779433" lon="9.09278"><ele>183.0</ele><time>2026-04-18T06:06:04.445Z</time></trkpt><trkpt lat="45.5779517" lon="9.0926617"><ele>183.0</ele><time>2026-04-18T06:06:06.443Z</time></trkpt><trkpt lat="45.577915" lon="9.0925467"><ele>183.0</ele><time>2026-04-18T06:06:08.443Z</time></trkpt><trkpt lat="45.5778133" lon="9.0924017"><ele>183.0</ele><time>2026-04-18T06:06:10.443Z</time></trkpt><trkpt lat="45.5777217" lon="9.0923783"><ele>183.0</ele><time>2026-04-18T06:06:12.444Z</time></trkpt><trkpt lat="45.57764" lon="9.0924467"><ele>183.0</ele><time>2026-04-18T06:06:15.444Z</time></trkpt><trkpt lat="45.5775717" lon="9.0925283"><ele>182.66666666666666</ele><time>2026-04-18T06:06:18.443Z</time></trkpt><trkpt lat="45.577525" lon="9.092605"><ele>182.33333333333334</ele><time>2026-04-18T06:06:20.444Z</time></trkpt><trkpt lat="45.577475" lon="9.0926817"><ele>182.0</ele><time>2026-04-18T06:06:22.445Z</time></trkpt><trkpt lat="45.5774217" lon="9.0927733"><ele>181.66666666666669</ele><time>2026-04-18T06:06:24.445Z</time></trkpt><trkpt lat="45.5773667" lon="9.0928617"><ele>181.33333333333334</ele><time>2026-04-18T06:06:26.444Z</time></trkpt><trkpt lat="45.577295" lon="9.09295"><ele>181.0</ele><time>2026-04-18T06:06:28.445Z</time></trkpt><trkpt lat="45.5772167" lon="9.093045"><ele>181.0</ele><time>2026-04-18T06:06:30.444Z</time></trkpt><trkpt lat="45.5771367" lon="9.0931483"><ele>181.0</ele><time>2026-04-18T06:06:32.444Z</time></trkpt><trkpt lat="45.57707" lon="9.0932433"><ele>181.0</ele><time>2026-04-18T06:06:34.444Z</time></trkpt><trkpt lat="45.577" lon="9.0933267"><ele>181.0</ele><time>2026-04-18T06:06:36.443Z</time></trkpt><trkpt lat="45.5769183" lon="9.0933983"><ele>181.0</ele><time>2026-04-18T06:06:38.445Z</time></trkpt><trkpt lat="45.576815" lon="9.0934517"><ele>180.83333333333334</ele><time>2026-04-18T06:06:40.444Z</time></trkpt><trkpt lat="45.57672" lon="9.0934883"><ele>180.66666666666669</ele><time>2026-04-18T06:06:42.443Z</time></trkpt><trkpt lat="45.576615" lon="9.0935283"><ele>180.5</ele><time>2026-04-18T06:06:44.444Z</time></trkpt><trkpt lat="45.5765417" lon="9.093565"><ele>180.33333333333334</ele><time>2026-04-18T06:06:45.444Z</time></trkpt><trkpt lat="45.57647" lon="9.0936"><ele>180.16666666666666</ele><time>2026-04-18T06:06:46.445Z</time></trkpt><trkpt lat="45.5764067" lon="9.0936317"><ele>180.0</ele><time>2026-04-18T06:06:47.446Z</time></trkpt><trkpt lat="45.576295" lon="9.09369"><ele>180.0</ele><time>2026-04-18T06:06:49.444Z</time></trkpt><trkpt lat="45.5761967" lon="9.0937467"><ele>180.0</ele><time>2026-04-18T06:06:51.444Z</time></trkpt><trkpt lat="45.5761033" lon="9.093785"><ele>180.0</ele><time>2026-04-18T06:06:53.444Z</time></trkpt><trkpt lat="45.5760017" lon="9.093775"><ele>180.0</ele><time>2026-04-18T06:06:55.443Z</time></trkpt><trkpt lat="45.5758967" lon="9.0937467"><ele>180.0</ele><time>2026-04-18T06:06:57.445Z</time></trkpt><trkpt lat="45.5757867" lon="9.09373"><ele>179.83333333333334</ele><time>2026-04-18T06:06:59.445Z</time></trkpt><trkpt lat="45.5756783" lon="9.0937117"><ele>179.66666666666666</ele><time>2026-04-18T06:07:01.445Z</time></trkpt><trkpt lat="45.57558" lon="9.0937067"><ele>179.5</ele><time>2026-04-18T06:07:03.443Z</time></trkpt><trkpt lat="45.575485" lon="9.0937133"><ele>179.33333333333331</ele><time>2026-04-18T06:07:05.445Z</time></trkpt><trkpt lat="45.575415" lon="9.09372"><ele>179.16666666666666</ele><time>2026-04-18T06:07:07.445Z</time></trkpt><trkpt lat="45.5753467" lon="9.0937283"><ele>179.0</ele><time>2026-04-18T06:07:10.445Z</time></trkpt><trkpt lat="45.5752767" lon="9.0937633"><ele>178.83333333333331</ele><time>2026-04-18T06:07:13.445Z</time></trkpt><trkpt lat="45.5752367" lon="9.0938483"><ele>178.66666666666666</ele><time>2026-04-18T06:07:16.445Z</time></trkpt><trkpt lat="45.5751767" lon="9.093935"><ele>178.5</ele><time>2026-04-18T06:07:19.444Z</time></trkpt><trkpt lat="45.575095" lon="9.0940067"><ele>178.33333333333334</ele><time>2026-04-18T06:07:22.444Z</time></trkpt><trkpt lat="45.5750367" lon="9.094045"><ele>178.16666666666669</ele><time>2026-04-18T06:07:24.444Z</time></trkpt><trkpt lat="45.5749483" lon="9.0940667"><ele>178.0</ele><time>2026-04-18T06:07:26.445Z</time></trkpt><trkpt lat="45.5748467" lon="9.0940933"><ele>178.0</ele><time>2026-04-18T06:07:28.444Z</time></trkpt><trkpt lat="45.5747433" lon="9.094095"><ele>178.0</ele><time>2026-04-18T06:07:30.443Z</time></trkpt><trkpt lat="45.5746283" lon="9.0940633"><ele>178.0</ele><time>2026-04-18T06:07:32.444Z</time></trkpt><trkpt lat="45.5745067" lon="9.094065"><ele>178.0</ele><time>2026-04-18T06:07:34.443Z</time></trkpt><trkpt lat="45.5743883" lon="9.0940783"><ele>177.99999999999997</ele><time>2026-04-18T06:07:36.442Z</time></trkpt><trkpt lat="45.57432" lon="9.0941"><ele>178.0</ele><time>2026-04-18T06:07:37.443Z</time></trkpt><trkpt lat="45.5742533" lon="9.0941083"><ele>178.0</ele><time>2026-04-18T06:07:38.443Z</time></trkpt><trkpt lat="45.5741883" lon="9.0941167"><ele>178.0</ele><time>2026-04-18T06:07:39.443Z</time></trkpt><trkpt lat="45.5741183" lon="9.09413"><ele>178.0</ele><time>2026-04-18T06:07:40.443Z</time></trkpt><trkpt lat="45.5740517" lon="9.094145"><ele>177.99999999999997</ele><time>2026-04-18T06:07:41.443Z</time></trkpt><trkpt lat="45.5739883" lon="9.0941533"><ele>178.0</ele><time>2026-04-18T06:07:42.442Z</time></trkpt><trkpt lat="45.573925" lon="9.0941683"><ele>178.0</ele><time>2026-04-18T06:07:43.444Z</time></trkpt><trkpt lat="45.5737983" lon="9.0941967"><ele>178.0</ele><time>2026-04-18T06:07:45.442Z</time></trkpt><trkpt lat="45.5737267" lon="9.0942083"><ele>178.0</ele><time>2026-04-18T06:07:46.444Z</time></trkpt><trkpt lat="45.5736033" lon="9.0941717"><ele>178.0</ele><time>2026-04-18T06:07:48.443Z</time></trkpt><trkpt lat="45.57351" lon="9.0941517"><ele>178.0</ele><time>2026-04-18T06:07:50.444Z</time></trkpt><trkpt lat="45.57343" lon="9.0941417"><ele>177.33333333333334</ele><time>2026-04-18T06:07:52.442Z</time></trkpt><trkpt lat="45.57335" lon="9.0941567"><ele>176.66666666666669</ele><time>2026-04-18T06:07:55.444Z</time></trkpt><trkpt lat="45.573255" lon="9.0941717"><ele>176.0</ele><time>2026-04-18T06:07:58.443Z</time></trkpt><trkpt lat="45.5731783" lon="9.0941617"><ele>175.33333333333334</ele><time>2026-04-18T06:08:00.443Z</time></trkpt><trkpt lat="45.5730917" lon="9.0941467"><ele>174.66666666666666</ele><time>2026-04-18T06:08:02.444Z</time></trkpt><trkpt lat="45.5730167" lon="9.0941367"><ele>174.0</ele><time>2026-04-18T06:08:04.443Z</time></trkpt><trkpt lat="45.5729433" lon="9.09412"><ele>174.0</ele><time>2026-04-18T06:08:07.444Z</time></trkpt><trkpt lat="45.5728567" lon="9.0940933"><ele>174.0</ele><time>2026-04-18T06:08:10.444Z</time></trkpt><trkpt lat="45.5727883" lon="9.0940567"><ele>174.0</ele><time>2026-04-18T06:08:12.444Z</time></trkpt><trkpt lat="45.5727117" lon="9.0939933"><ele>174.0</ele><time>2026-04-18T06:08:14.444Z</time></trkpt><trkpt lat="45.572635" lon="9.093915"><ele>174.0</ele><time>2026-04-18T06:08:16.444Z</time></trkpt><trkpt lat="45.5725417" lon="9.09383"><ele>174.0</ele><time>2026-04-18T06:08:18.443Z</time></trkpt><trkpt lat="45.57247" lon="9.093725"><ele>174.0</ele><time>2026-04-18T06:08:20.444Z</time></trkpt><trkpt lat="45.5724017" lon="9.0936033"><ele>174.0</ele><time>2026-04-18T06:08:22.443Z</time></trkpt><trkpt lat="45.5723183" lon="9.09348"><ele>174.0</ele><time>2026-04-18T06:08:24.443Z</time></trkpt><trkpt lat="45.5722467" lon="9.0933483"><ele>174.0</ele><time>2026-04-18T06:08:26.444Z</time></trkpt><trkpt lat="45.572185" lon="9.0932317"><ele>174.0</ele><time>2026-04-18T06:08:28.444Z</time></trkpt><trkpt lat="45.5721183" lon="9.0931183"><ele>174.0</ele><time>2026-04-18T06:08:30.443Z</time></trkpt><trkpt lat="45.57205" lon="9.0930133"><ele>174.0</ele><time>2026-04-18T06:08:32.445Z</time></trkpt><trkpt lat="45.5719683" lon="9.0928933"><ele>174.0</ele><time>2026-04-18T06:08:34.444Z</time></trkpt><trkpt lat="45.5718917" lon="9.0927783"><ele>174.0</ele><time>2026-04-18T06:08:36.444Z</time></trkpt><trkpt lat="45.5718267" lon="9.0926583"><ele>174.39999999999998</ele><time>2026-04-18T06:08:38.444Z</time></trkpt><trkpt lat="45.5717667" lon="9.0925333"><ele>174.8</ele><time>2026-04-18T06:08:40.444Z</time></trkpt><trkpt lat="45.5717017" lon="9.09239"><ele>175.2</ele><time>2026-04-18T06:08:42.444Z</time></trkpt><trkpt lat="45.57166" lon="9.09232"><ele>175.60000000000002</ele><time>2026-04-18T06:08:43.442Z</time></trkpt><trkpt lat="45.5715733" lon="9.0921867"><ele>176.0</ele><time>2026-04-18T06:08:45.443Z</time></trkpt><trkpt lat="45.5715267" lon="9.092125"><ele>176.0</ele><time>2026-04-18T06:08:46.443Z</time></trkpt><trkpt lat="45.5714783" lon="9.0920667"><ele>176.0</ele><time>2026-04-18T06:08:47.444Z</time></trkpt><trkpt lat="45.571395" lon="9.09195"><ele>176.0</ele><time>2026-04-18T06:08:49.444Z</time></trkpt><trkpt lat="45.5713233" lon="9.0918483"><ele>176.0</ele><time>2026-04-18T06:08:51.443Z</time></trkpt><trkpt lat="45.5712633" lon="9.0917617"><ele>176.0</ele><time>2026-04-18T06:08:53.444Z</time></trkpt><trkpt lat="45.57121" lon="9.0916767"><ele>176.0</ele><time>2026-04-18T06:08:55.443Z</time></trkpt><trkpt lat="45.57114" lon="9.091645"><ele>176.20000000000002</ele><time>2026-04-18T06:08:58.444Z</time></trkpt><trkpt lat="45.5710217" lon="9.0916133"><ele>176.4</ele><time>2026-04-18T06:09:26.444Z</time></trkpt><trkpt lat="45.5709683" lon="9.09178"><ele>176.6</ele><time>2026-04-18T06:09:44.402Z</time></trkpt><trkpt lat="45.57088" lon="9.0918583"><ele>176.8</ele><time>2026-04-18T06:09:46.464Z</time></trkpt><trkpt lat="45.5708" lon="9.091925"><ele>177.0</ele><time>2026-04-18T06:09:48.445Z</time></trkpt><trkpt lat="45.5707017" lon="9.0920183"><ele>177.0</ele><time>2026-04-18T06:09:49.444Z</time></trkpt><trkpt lat="45.57063" lon="9.0921233"><ele>177.0</ele><time>2026-04-18T06:09:51.443Z</time></trkpt><trkpt lat="45.5705867" lon="9.0921933"><ele>177.0</ele><time>2026-04-18T06:09:53.444Z</time></trkpt><trkpt lat="45.5705383" lon="9.09228"><ele>177.0</ele><time>2026-04-18T06:09:55.445Z</time></trkpt><trkpt lat="45.57048" lon="9.0923733"><ele>177.0</ele><time>2026-04-18T06:09:57.443Z</time></trkpt><trkpt lat="45.5704017" lon="9.0924733"><ele>177.0</ele><time>2026-04-18T06:09:59.445Z</time></trkpt><trkpt lat="45.5703167" lon="9.09258"><ele>176.66666666666666</ele><time>2026-04-18T06:10:01.444Z</time></trkpt><trkpt lat="45.57023" lon="9.092685"><ele>176.33333333333334</ele><time>2026-04-18T06:10:03.444Z</time></trkpt><trkpt lat="45.5701817" lon="9.0927433"><ele>176.0</ele><time>2026-04-18T06:10:04.444Z</time></trkpt><trkpt lat="45.5700833" lon="9.092865"><ele>175.66666666666669</ele><time>2026-04-18T06:10:06.444Z</time></trkpt><trkpt lat="45.57003" lon="9.0929217"><ele>175.33333333333334</ele><time>2026-04-18T06:10:07.444Z</time></trkpt><trkpt lat="45.569975" lon="9.09298"><ele>175.0</ele><time>2026-04-18T06:10:08.444Z</time></trkpt><trkpt lat="45.56992" lon="9.09304"><ele>175.0</ele><time>2026-04-18T06:10:09.444Z</time></trkpt><trkpt lat="45.5698633" lon="9.0931017"><ele>175.0</ele><time>2026-04-18T06:10:10.444Z</time></trkpt><trkpt lat="45.56981" lon="9.0931683"><ele>175.0</ele><time>2026-04-18T06:10:11.444Z</time></trkpt><trkpt lat="45.5697567" lon="9.09323"><ele>175.0</ele><time>2026-04-18T06:10:12.444Z</time></trkpt><trkpt lat="45.5697033" lon="9.0933033"><ele>175.0</ele><time>2026-04-18T06:10:13.444Z</time></trkpt><trkpt lat="45.5696483" lon="9.0933633"><ele>175.0</ele><time>2026-04-18T06:10:14.445Z</time></trkpt><trkpt lat="45.569595" lon="9.0934233"><ele>175.0</ele><time>2026-04-18T06:10:15.443Z</time></trkpt><trkpt lat="45.5695383" lon="9.0934833"><ele>174.83333333333334</ele><time>2026-04-18T06:10:16.444Z</time></trkpt><trkpt lat="45.5694883" lon="9.093545"><ele>174.66666666666669</ele><time>2026-04-18T06:10:17.445Z</time></trkpt><trkpt lat="45.5694333" lon="9.0936033"><ele>174.5</ele><time>2026-04-18T06:10:18.443Z</time></trkpt><trkpt lat="45.56938" lon="9.093665"><ele>174.33333333333334</ele><time>2026-04-18T06:10:19.444Z</time></trkpt><trkpt lat="45.56933" lon="9.0937217"><ele>174.16666666666666</ele><time>2026-04-18T06:10:20.446Z</time></trkpt><trkpt lat="45.56928" lon="9.0937783"><ele>174.0</ele><time>2026-04-18T06:10:21.443Z</time></trkpt><trkpt lat="45.5691817" lon="9.093885"><ele>174.0</ele><time>2026-04-18T06:10:23.445Z</time></trkpt><trkpt lat="45.5691267" lon="9.0939317"><ele>174.0</ele><time>2026-04-18T06:10:24.444Z</time></trkpt><trkpt lat="45.569075" lon="9.093985"><ele>174.0</ele><time>2026-04-18T06:10:25.445Z</time></trkpt><trkpt lat="45.569025" lon="9.0940467"><ele>174.0</ele><time>2026-04-18T06:10:26.444Z</time></trkpt><trkpt lat="45.5689733" lon="9.0941067"><ele>174.0</ele><time>2026-04-18T06:10:27.444Z</time></trkpt><trkpt lat="45.5689267" lon="9.0941683"><ele>174.0</ele><time>2026-04-18T06:10:28.445Z</time></trkpt><trkpt lat="45.5688783" lon="9.0942367"><ele>174.0</ele><time>2026-04-18T06:10:29.444Z</time></trkpt><trkpt lat="45.5688283" lon="9.0942983"><ele>174.0</ele><time>2026-04-18T06:10:30.445Z</time></trkpt><trkpt lat="45.5687483" lon="9.09442"><ele>174.0</ele><time>2026-04-18T06:10:32.444Z</time></trkpt><trkpt lat="45.568675" lon="9.094525"><ele>174.0</ele><time>2026-04-18T06:10:34.444Z</time></trkpt><trkpt lat="45.5686067" lon="9.0946167"><ele>174.0</ele><time>2026-04-18T06:10:36.445Z</time></trkpt><trkpt lat="45.5685417" lon="9.094705"><ele>174.0</ele><time>2026-04-18T06:10:38.444Z</time></trkpt><trkpt lat="45.5684633" lon="9.0948"><ele>174.0</ele><time>2026-04-18T06:10:40.444Z</time></trkpt><trkpt lat="45.5683783" lon="9.09488"><ele>174.0</ele><time>2026-04-18T06:10:42.443Z</time></trkpt><trkpt lat="45.56829" lon="9.0949767"><ele>174.0</ele><time>2026-04-18T06:10:44.444Z</time></trkpt><trkpt lat="45.5682033" lon="9.0950733"><ele>174.0</ele><time>2026-04-18T06:10:46.444Z</time></trkpt><trkpt lat="45.56815" lon="9.0951233"><ele>174.0</ele><time>2026-04-18T06:10:47.443Z</time></trkpt><trkpt lat="45.5680517" lon="9.0952117"><ele>174.0</ele><time>2026-04-18T06:10:49.444Z</time></trkpt><trkpt lat="45.5679583" lon="9.095305"><ele>174.0</ele><time>2026-04-18T06:10:51.444Z</time></trkpt><trkpt lat="45.5678717" lon="9.0954017"><ele>174.0</ele><time>2026-04-18T06:10:53.446Z</time></trkpt><trkpt lat="45.5677783" lon="9.0955017"><ele>174.0</ele><time>2026-04-18T06:10:55.443Z</time></trkpt><trkpt lat="45.5676867" lon="9.0955983"><ele>173.79999999999998</ele><time>2026-04-18T06:10:57.444Z</time></trkpt><trkpt lat="45.5676083" lon="9.095695"><ele>173.6</ele><time>2026-04-18T06:10:59.444Z</time></trkpt><trkpt lat="45.56752" lon="9.0957883"><ele>173.4</ele><time>2026-04-18T06:11:01.446Z</time></trkpt><trkpt lat="45.5674367" lon="9.0958817"><ele>173.2</ele><time>2026-04-18T06:11:03.444Z</time></trkpt><trkpt lat="45.5673517" lon="9.0959683"><ele>173.0</ele><time>2026-04-18T06:11:05.445Z</time></trkpt><trkpt lat="45.5672567" lon="9.096055"><ele>173.0</ele><time>2026-04-18T06:11:07.444Z</time></trkpt><trkpt lat="45.56716" lon="9.096155"><ele>173.0</ele><time>2026-04-18T06:11:09.444Z</time></trkpt><trkpt lat="45.56707" lon="9.0962583"><ele>173.0</ele><time>2026-04-18T06:11:11.446Z</time></trkpt><trkpt lat="45.5669667" lon="9.0963383"><ele>173.0</ele><time>2026-04-18T06:11:13.446Z</time></trkpt><trkpt lat="45.5668583" lon="9.0964367"><ele>173.0</ele><time>2026-04-18T06:11:15.446Z</time></trkpt><trkpt lat="45.5668" lon="9.0964933"><ele>173.0</ele><time>2026-04-18T06:11:16.444Z</time></trkpt><trkpt lat="45.566745" lon="9.096545"><ele>173.0</ele><time>2026-04-18T06:11:17.446Z</time></trkpt><trkpt lat="45.56665" lon="9.09665"><ele>173.0</ele><time>2026-04-18T06:11:19.446Z</time></trkpt><trkpt lat="45.56658" lon="9.0967817"><ele>173.0</ele><time>2026-04-18T06:11:21.446Z</time></trkpt><trkpt lat="45.5665517" lon="9.0968633"><ele>173.0</ele><time>2026-04-18T06:11:22.445Z</time></trkpt><trkpt lat="45.56652" lon="9.096945"><ele>172.83333333333331</ele><time>2026-04-18T06:11:23.445Z</time></trkpt><trkpt lat="45.56649" lon="9.09703"><ele>172.66666666666666</ele><time>2026-04-18T06:11:24.446Z</time></trkpt><trkpt lat="45.5664567" lon="9.0971133"><ele>172.5</ele><time>2026-04-18T06:11:25.445Z</time></trkpt><trkpt lat="45.5664183" lon="9.0971883"><ele>172.33333333333334</ele><time>2026-04-18T06:11:26.445Z</time></trkpt><trkpt lat="45.566375" lon="9.097255"><ele>172.16666666666669</ele><time>2026-04-18T06:11:27.445Z</time></trkpt><trkpt lat="45.56631" lon="9.0973867"><ele>172.0</ele><time>2026-04-18T06:11:29.446Z</time></trkpt><trkpt lat="45.5662417" lon="9.097535"><ele>171.8</ele><time>2026-04-18T06:11:31.445Z</time></trkpt><trkpt lat="45.5662067" lon="9.09761"><ele>171.6</ele><time>2026-04-18T06:11:32.446Z</time></trkpt><trkpt lat="45.566125" lon="9.0977167"><ele>171.4</ele><time>2026-04-18T06:11:34.445Z</time></trkpt><trkpt lat="45.5660533" lon="9.0978317"><ele>171.20000000000002</ele><time>2026-04-18T06:11:36.445Z</time></trkpt><trkpt lat="45.5660167" lon="9.0979733"><ele>171.0</ele><time>2026-04-18T06:11:38.446Z</time></trkpt><trkpt lat="45.5659533" lon="9.098095"><ele>171.0</ele><time>2026-04-18T06:11:40.448Z</time></trkpt><trkpt lat="45.5659" lon="9.0982233"><ele>171.0</ele><time>2026-04-18T06:11:42.444Z</time></trkpt><trkpt lat="45.56585" lon="9.0983333"><ele>171.0</ele><time>2026-04-18T06:11:44.446Z</time></trkpt><trkpt lat="45.5657833" lon="9.0984267"><ele>171.0</ele><time>2026-04-18T06:11:46.445Z</time></trkpt><trkpt lat="45.565695" lon="9.09849"><ele>171.0</ele><time>2026-04-18T06:11:48.445Z</time></trkpt><trkpt lat="45.5656117" lon="9.09859"><ele>171.20000000000002</ele><time>2026-04-18T06:11:50.445Z</time></trkpt><trkpt lat="45.5655183" lon="9.09866"><ele>171.4</ele><time>2026-04-18T06:11:52.445Z</time></trkpt><trkpt lat="45.5654017" lon="9.0987083"><ele>171.6</ele><time>2026-04-18T06:11:54.445Z</time></trkpt><trkpt lat="45.5653367" lon="9.0987533"><ele>171.8</ele><time>2026-04-18T06:11:55.446Z</time></trkpt><trkpt lat="45.5652783" lon="9.0988067"><ele>172.0</ele><time>2026-04-18T06:11:56.446Z</time></trkpt><trkpt lat="45.5652117" lon="9.0989083"><ele>172.0</ele><time>2026-04-18T06:11:58.445Z</time></trkpt><trkpt lat="45.56519" lon="9.0990767"><ele>172.0</ele><time>2026-04-18T06:12:00.444Z</time></trkpt><trkpt lat="45.565125" lon="9.0992083"><ele>172.0</ele><time>2026-04-18T06:12:02.444Z</time></trkpt><trkpt lat="45.5650233" lon="9.0993017"><ele>172.0</ele><time>2026-04-18T06:12:04.443Z</time></trkpt><trkpt lat="45.5649417" lon="9.0993933"><ele>172.0</ele><time>2026-04-18T06:12:06.443Z</time></trkpt><trkpt lat="45.5648433" lon="9.0994517"><ele>172.0</ele><time>2026-04-18T06:12:08.443Z</time></trkpt><trkpt lat="45.5647367" lon="9.0995167"><ele>172.0</ele><time>2026-04-18T06:12:10.444Z</time></trkpt><trkpt lat="45.5646383" lon="9.0995933"><ele>172.0</ele><time>2026-04-18T06:12:12.443Z</time></trkpt><trkpt lat="45.5645283" lon="9.0996783"><ele>171.6</ele><time>2026-04-18T06:12:14.443Z</time></trkpt><trkpt lat="45.5644683" lon="9.0997217"><ele>171.2</ele><time>2026-04-18T06:12:15.443Z</time></trkpt><trkpt lat="45.5644067" lon="9.09977"><ele>170.8</ele><time>2026-04-18T06:12:16.443Z</time></trkpt><trkpt lat="45.5643133" lon="9.099865"><ele>170.4</ele><time>2026-04-18T06:12:18.444Z</time></trkpt><trkpt lat="45.5642367" lon="9.099955"><ele>170.0</ele><time>2026-04-18T06:12:20.443Z</time></trkpt><trkpt lat="45.5641333" lon="9.1000517"><ele>170.0</ele><time>2026-04-18T06:12:22.443Z</time></trkpt><trkpt lat="45.56407" lon="9.1000967"><ele>170.0</ele><time>2026-04-18T06:12:23.443Z</time></trkpt><trkpt lat="45.564015" lon="9.1001467"><ele>170.0</ele><time>2026-04-18T06:12:24.443Z</time></trkpt><trkpt lat="45.5639367" lon="9.10027"><ele>170.0</ele><time>2026-04-18T06:12:26.444Z</time></trkpt><trkpt lat="45.5638883" lon="9.1004233"><ele>170.0</ele><time>2026-04-18T06:12:28.443Z</time></trkpt><trkpt lat="45.5638183" lon="9.1005417"><ele>170.0</ele><time>2026-04-18T06:12:30.443Z</time></trkpt><trkpt lat="45.5637367" lon="9.1006283"><ele>170.0</ele><time>2026-04-18T06:12:32.445Z</time></trkpt><trkpt lat="45.5636317" lon="9.1006567"><ele>170.0</ele><time>2026-04-18T06:12:34.444Z</time></trkpt><trkpt lat="45.56354" lon="9.1007433"><ele>170.0</ele><time>2026-04-18T06:12:36.442Z</time></trkpt><trkpt lat="45.5634733" lon="9.1008733"><ele>170.0</ele><time>2026-04-18T06:12:38.443Z</time></trkpt><trkpt lat="45.5634383" lon="9.1009517"><ele>169.6</ele><time>2026-04-18T06:12:39.442Z</time></trkpt><trkpt lat="45.563395" lon="9.1011017"><ele>169.2</ele><time>2026-04-18T06:12:41.443Z</time></trkpt><trkpt lat="45.56336" lon="9.10124"><ele>168.8</ele><time>2026-04-18T06:12:43.443Z</time></trkpt><trkpt lat="45.56333" lon="9.1013833"><ele>168.4</ele><time>2026-04-18T06:12:45.443Z</time></trkpt><trkpt lat="45.56329" lon="9.1015183"><ele>168.0</ele><time>2026-04-18T06:12:47.443Z</time></trkpt><trkpt lat="45.563245" lon="9.101655"><ele>168.0</ele><time>2026-04-18T06:12:49.443Z</time></trkpt><trkpt lat="45.5632067" lon="9.101805"><ele>168.0</ele><time>2026-04-18T06:12:51.442Z</time></trkpt><trkpt lat="45.5631633" lon="9.1019417"><ele>168.0</ele><time>2026-04-18T06:12:53.442Z</time></trkpt><trkpt lat="45.5631333" lon="9.10209"><ele>168.0</ele><time>2026-04-18T06:12:55.444Z</time></trkpt><trkpt lat="45.563095" lon="9.1022167"><ele>168.0</ele><time>2026-04-18T06:12:57.442Z</time></trkpt><trkpt lat="45.5630517" lon="9.1023"><ele>168.0</ele><time>2026-04-18T06:12:59.442Z</time></trkpt><trkpt lat="45.5629833" lon="9.1023983"><ele>168.0</ele><time>2026-04-18T06:13:02.443Z</time></trkpt><trkpt lat="45.5629383" lon="9.1024633"><ele>168.0</ele><time>2026-04-18T06:13:04.443Z</time></trkpt><trkpt lat="45.5628733" lon="9.10251"><ele>168.0</ele><time>2026-04-18T06:13:06.442Z</time></trkpt><trkpt lat="45.5628017" lon="9.102545"><ele>168.0</ele><time>2026-04-18T06:13:08.443Z</time></trkpt><trkpt lat="45.5627383" lon="9.1026217"><ele>168.0</ele><time>2026-04-18T06:13:10.442Z</time></trkpt><trkpt lat="45.56267" lon="9.10268"><ele>168.5</ele><time>2026-04-18T06:13:12.443Z</time></trkpt><trkpt lat="45.5625917" lon="9.10274"><ele>169.0</ele><time>2026-04-18T06:13:14.443Z</time></trkpt><trkpt lat="45.562525" lon="9.102805"><ele>169.5</ele><time>2026-04-18T06:13:16.443Z</time></trkpt><trkpt lat="45.56247" lon="9.1029017"><ele>170.0</ele><time>2026-04-18T06:13:18.443Z</time></trkpt><trkpt lat="45.56241" lon="9.10303"><ele>170.5</ele><time>2026-04-18T06:13:20.443Z</time></trkpt><trkpt lat="45.5623667" lon="9.1031133"><ele>171.0</ele><time>2026-04-18T06:13:22.443Z</time></trkpt><trkpt lat="45.5623133" lon="9.103175"><ele>170.83333333333334</ele><time>2026-04-18T06:13:24.443Z</time></trkpt><trkpt lat="45.5622683" lon="9.1032533"><ele>170.66666666666666</ele><time>2026-04-18T06:13:26.443Z</time></trkpt><trkpt lat="45.56222" lon="9.103345"><ele>170.5</ele><time>2026-04-18T06:13:28.442Z</time></trkpt><trkpt lat="45.5621383" lon="9.1033967"><ele>170.33333333333331</ele><time>2026-04-18T06:13:31.445Z</time></trkpt><trkpt lat="45.562085" lon="9.1034733"><ele>170.16666666666666</ele><time>2026-04-18T06:13:34.443Z</time></trkpt><trkpt lat="45.562015" lon="9.1035233"><ele>170.0</ele><time>2026-04-18T06:13:38.443Z</time></trkpt><trkpt lat="45.5619533" lon="9.1035483"><ele>169.66666666666666</ele><time>2026-04-18T06:13:40.445Z</time></trkpt><trkpt lat="45.561875" lon="9.1036267"><ele>169.33333333333331</ele><time>2026-04-18T06:13:43.442Z</time></trkpt><trkpt lat="45.5618017" lon="9.1036833"><ele>169.0</ele><time>2026-04-18T06:13:46.444Z</time></trkpt><trkpt lat="45.5617283" lon="9.103695"><ele>168.66666666666666</ele><time>2026-04-18T06:13:48.443Z</time></trkpt><trkpt lat="45.5616633" lon="9.1037583"><ele>168.33333333333334</ele><time>2026-04-18T06:13:50.443Z</time></trkpt><trkpt lat="45.561595" lon="9.1038167"><ele>168.0</ele><time>2026-04-18T06:13:52.443Z</time></trkpt><trkpt lat="45.5615417" lon="9.1038717"><ele>168.0</ele><time>2026-04-18T06:13:54.443Z</time></trkpt><trkpt lat="45.5614567" lon="9.1039517"><ele>168.0</ele><time>2026-04-18T06:13:56.443Z</time></trkpt><trkpt lat="45.5613817" lon="9.1040183"><ele>168.0</ele><time>2026-04-18T06:13:58.444Z</time></trkpt><trkpt lat="45.5612983" lon="9.1041233"><ele>168.0</ele><time>2026-04-18T06:14:01.442Z</time></trkpt><trkpt lat="45.5612367" lon="9.1041883"><ele>168.0</ele><time>2026-04-18T06:14:03.443Z</time></trkpt><trkpt lat="45.5611533" lon="9.10425"><ele>167.66666666666666</ele><time>2026-04-18T06:14:06.442Z</time></trkpt><trkpt lat="45.561125" lon="9.10434"><ele>167.33333333333334</ele><time>2026-04-18T06:14:08.444Z</time></trkpt><trkpt lat="45.5610483" lon="9.104385"><ele>167.0</ele><time>2026-04-18T06:14:11.442Z</time></trkpt><trkpt lat="45.5609867" lon="9.10444"><ele>166.66666666666669</ele><time>2026-04-18T06:14:14.442Z</time></trkpt><trkpt lat="45.5609133" lon="9.1045283"><ele>166.33333333333334</ele><time>2026-04-18T06:14:17.443Z</time></trkpt><trkpt lat="45.5608683" lon="9.1046117"><ele>166.0</ele><time>2026-04-18T06:14:19.444Z</time></trkpt><trkpt lat="45.5608083" lon="9.10469"><ele>166.0</ele><time>2026-04-18T06:14:21.443Z</time></trkpt><trkpt lat="45.5607433" lon="9.1048083"><ele>166.0</ele><time>2026-04-18T06:14:23.444Z</time></trkpt><trkpt lat="45.5606767" lon="9.1049017"><ele>166.0</ele><time>2026-04-18T06:14:25.443Z</time></trkpt><trkpt lat="45.560615" lon="9.1049917"><ele>166.0</ele><time>2026-04-18T06:14:27.442Z</time></trkpt><trkpt lat="45.5605267" lon="9.10505"><ele>166.0</ele><time>2026-04-18T06:14:29.445Z</time></trkpt><trkpt lat="45.5604333" lon="9.1051183"><ele>165.83333333333334</ele><time>2026-04-18T06:14:31.445Z</time></trkpt><trkpt lat="45.5603483" lon="9.1051783"><ele>165.66666666666669</ele><time>2026-04-18T06:14:33.443Z</time></trkpt><trkpt lat="45.5602683" lon="9.10523"><ele>165.5</ele><time>2026-04-18T06:14:35.443Z</time></trkpt><trkpt lat="45.5601767" lon="9.1052783"><ele>165.33333333333334</ele><time>2026-04-18T06:14:38.444Z</time></trkpt><trkpt lat="45.5601067" lon="9.1053233"><ele>165.16666666666666</ele><time>2026-04-18T06:14:40.444Z</time></trkpt><trkpt lat="45.5600467" lon="9.1053733"><ele>165.0</ele><time>2026-04-18T06:14:42.443Z</time></trkpt><trkpt lat="45.5599867" lon="9.10545"><ele>165.0</ele><time>2026-04-18T06:14:44.443Z</time></trkpt><trkpt lat="45.559925" lon="9.105545"><ele>165.0</ele><time>2026-04-18T06:14:46.442Z</time></trkpt><trkpt lat="45.5598783" lon="9.10569"><ele>165.0</ele><time>2026-04-18T06:14:48.443Z</time></trkpt><trkpt lat="45.5599167" lon="9.1057717"><ele>165.0</ele><time>2026-04-18T06:14:49.444Z</time></trkpt><trkpt lat="45.5599483" lon="9.1058567"><ele>165.0</ele><time>2026-04-18T06:14:50.443Z</time></trkpt><trkpt lat="45.559965" lon="9.1059767"><ele>165.0</ele><time>2026-04-18T06:14:51.442Z</time></trkpt><trkpt lat="45.5599883" lon="9.1060733"><ele>165.0</ele><time>2026-04-18T06:14:52.443Z</time></trkpt><trkpt lat="45.5600217" lon="9.106225"><ele>165.0</ele><time>2026-04-18T06:14:54.443Z</time></trkpt><trkpt lat="45.56002" lon="9.1063683"><ele>165.0</ele><time>2026-04-18T06:14:56.444Z</time></trkpt><trkpt lat="45.5600183" lon="9.10648"><ele>165.0</ele><time>2026-04-18T06:14:58.442Z</time></trkpt><trkpt lat="45.5600433" lon="9.1066017"><ele>165.0</ele><time>2026-04-18T06:15:00.443Z</time></trkpt><trkpt lat="45.5600617" lon="9.1067167"><ele>165.4</ele><time>2026-04-18T06:15:02.444Z</time></trkpt><trkpt lat="45.560085" lon="9.1068433"><ele>165.8</ele><time>2026-04-18T06:15:04.442Z</time></trkpt><trkpt lat="45.5601" lon="9.1069683"><ele>166.2</ele><time>2026-04-18T06:15:06.443Z</time></trkpt><trkpt lat="45.5601067" lon="9.107115"><ele>166.6</ele><time>2026-04-18T06:15:08.444Z</time></trkpt><trkpt lat="45.5601067" lon="9.1072733"><ele>167.0</ele><time>2026-04-18T06:15:10.448Z</time></trkpt><trkpt lat="45.5601267" lon="9.1074383"><ele>167.0</ele><time>2026-04-18T06:15:12.443Z</time></trkpt><trkpt lat="45.5601383" lon="9.1075967"><ele>167.0</ele><time>2026-04-18T06:15:14.445Z</time></trkpt><trkpt lat="45.5601383" lon="9.1077267"><ele>167.0</ele><time>2026-04-18T06:15:16.443Z</time></trkpt><trkpt lat="45.5601483" lon="9.1078767"><ele>167.0</ele><time>2026-04-18T06:15:18.444Z</time></trkpt><trkpt lat="45.5601583" lon="9.10803"><ele>167.0</ele><time>2026-04-18T06:15:20.444Z</time></trkpt><trkpt lat="45.5601583" lon="9.1081883"><ele>166.8</ele><time>2026-04-18T06:15:22.444Z</time></trkpt><trkpt lat="45.5601683" lon="9.1083417"><ele>166.6</ele><time>2026-04-18T06:15:24.443Z</time></trkpt><trkpt lat="45.5601733" lon="9.1084817"><ele>166.4</ele><time>2026-04-18T06:15:26.443Z</time></trkpt><trkpt lat="45.5601933" lon="9.108605"><ele>166.20000000000002</ele><time>2026-04-18T06:15:28.446Z</time></trkpt><trkpt lat="45.5602517" lon="9.1086983"><ele>166.0</ele><time>2026-04-18T06:15:30.444Z</time></trkpt><trkpt lat="45.5603467" lon="9.108715"><ele>166.0</ele><time>2026-04-18T06:15:32.443Z</time></trkpt><trkpt lat="45.5604117" lon="9.1086867"><ele>166.0</ele><time>2026-04-18T06:15:33.443Z</time></trkpt><trkpt lat="45.56048" lon="9.10864"><ele>166.0</ele><time>2026-04-18T06:15:34.444Z</time></trkpt><trkpt lat="45.5605783" lon="9.10862"><ele>166.0</ele><time>2026-04-18T06:15:36.444Z</time></trkpt><trkpt lat="45.560665" lon="9.1086533"><ele>166.0</ele><time>2026-04-18T06:15:38.446Z</time></trkpt><trkpt lat="45.5607333" lon="9.10874"><ele>166.0</ele><time>2026-04-18T06:15:40.444Z</time></trkpt><trkpt lat="45.5607367" lon="9.108855"><ele>166.0</ele><time>2026-04-18T06:15:42.445Z</time></trkpt><trkpt lat="45.5607133" lon="9.1089983"><ele>166.0</ele><time>2026-04-18T06:15:44.444Z</time></trkpt><trkpt lat="45.560695" lon="9.1091267"><ele>166.0</ele><time>2026-04-18T06:15:46.444Z</time></trkpt><trkpt lat="45.560685" lon="9.1092383"><ele>166.0</ele><time>2026-04-18T06:15:48.445Z</time></trkpt><trkpt lat="45.5606567" lon="9.1093467"><ele>166.0</ele><time>2026-04-18T06:15:50.444Z</time></trkpt><trkpt lat="45.5606367" lon="9.10946"><ele>166.0</ele><time>2026-04-18T06:15:52.444Z</time></trkpt><trkpt lat="45.560605" lon="9.1095483"><ele>165.8</ele><time>2026-04-18T06:15:54.442Z</time></trkpt><trkpt lat="45.5605533" lon="9.109635"><ele>165.60000000000002</ele><time>2026-04-18T06:15:57.443Z</time></trkpt><trkpt lat="45.5604867" lon="9.1097017"><ele>165.4</ele><time>2026-04-18T06:16:00.443Z</time></trkpt><trkpt lat="45.56041" lon="9.1097583"><ele>165.2</ele><time>2026-04-18T06:16:02.443Z</time></trkpt><trkpt lat="45.5603283" lon="9.1098467"><ele>165.0</ele><time>2026-04-18T06:16:04.444Z</time></trkpt><trkpt lat="45.5602383" lon="9.1099417"><ele>164.5</ele><time>2026-04-18T06:16:06.444Z</time></trkpt><trkpt lat="45.5601733" lon="9.1099983"><ele>164.0</ele><time>2026-04-18T06:16:07.444Z</time></trkpt><trkpt lat="45.5601033" lon="9.1100567"><ele>163.5</ele><time>2026-04-18T06:16:08.444Z</time></trkpt><trkpt lat="45.5600283" lon="9.11012"><ele>163.0</ele><time>2026-04-18T06:16:09.442Z</time></trkpt><trkpt lat="45.55996" lon="9.1101667"><ele>162.5</ele><time>2026-04-18T06:16:10.444Z</time></trkpt><trkpt lat="45.559895" lon="9.1102067"><ele>162.0</ele><time>2026-04-18T06:16:11.444Z</time></trkpt><trkpt lat="45.5598" lon="9.1102767"><ele>162.0</ele><time>2026-04-18T06:16:13.443Z</time></trkpt><trkpt lat="45.5597317" lon="9.11035"><ele>162.0</ele><time>2026-04-18T06:16:15.444Z</time></trkpt><trkpt lat="45.5596817" lon="9.1104483"><ele>162.0</ele><time>2026-04-18T06:16:17.443Z</time></trkpt><trkpt lat="45.5596467" lon="9.1105667"><ele>162.0</ele><time>2026-04-18T06:16:19.444Z</time></trkpt><trkpt lat="45.559595" lon="9.1106633"><ele>162.0</ele><time>2026-04-18T06:16:21.443Z</time></trkpt><trkpt lat="45.559505" lon="9.1106867"><ele>162.0</ele><time>2026-04-18T06:16:23.446Z</time></trkpt><trkpt lat="45.559395" lon="9.1106817"><ele>161.66666666666666</ele><time>2026-04-18T06:16:25.444Z</time></trkpt><trkpt lat="45.55931" lon="9.1106967"><ele>161.33333333333334</ele><time>2026-04-18T06:16:27.443Z</time></trkpt><trkpt lat="45.55922" lon="9.1107167"><ele>161.0</ele><time>2026-04-18T06:16:29.444Z</time></trkpt><trkpt lat="45.5591317" lon="9.11073"><ele>160.66666666666669</ele><time>2026-04-18T06:16:31.444Z</time></trkpt><trkpt lat="45.5590483" lon="9.11075"><ele>160.33333333333334</ele><time>2026-04-18T06:16:33.442Z</time></trkpt><trkpt lat="45.5589667" lon="9.1107817"><ele>160.0</ele><time>2026-04-18T06:16:35.444Z</time></trkpt><trkpt lat="45.5588717" lon="9.1107883"><ele>159.66666666666669</ele><time>2026-04-18T06:16:37.443Z</time></trkpt><trkpt lat="45.5587867" lon="9.1108183"><ele>159.33333333333334</ele><time>2026-04-18T06:16:40.444Z</time></trkpt><trkpt lat="45.55871" lon="9.1107417"><ele>159.0</ele><time>2026-04-18T06:16:42.444Z</time></trkpt><trkpt lat="45.5586583" lon="9.1107983"><ele>158.66666666666666</ele><time>2026-04-18T06:16:45.442Z</time></trkpt><trkpt lat="45.5586383" lon="9.1108917"><ele>158.33333333333331</ele><time>2026-04-18T06:16:48.443Z</time></trkpt><trkpt lat="45.5586167" lon="9.110985"><ele>158.0</ele><time>2026-04-18T06:16:51.442Z</time></trkpt><trkpt lat="45.5585467" lon="9.11105"><ele>158.0</ele><time>2026-04-18T06:17:04.443Z</time></trkpt><trkpt lat="45.5585033" lon="9.110965"><ele>158.0</ele><time>2026-04-18T06:17:07.445Z</time></trkpt><trkpt lat="45.5584533" lon="9.1108833"><ele>158.0</ele><time>2026-04-18T06:17:10.444Z</time></trkpt><trkpt lat="45.5583883" lon="9.1108067"><ele>158.0</ele><time>2026-04-18T06:17:13.444Z</time></trkpt><trkpt lat="45.55833" lon="9.1107433"><ele>158.0</ele><time>2026-04-18T06:17:15.444Z</time></trkpt><trkpt lat="45.5582717" lon="9.1106767"><ele>158.0</ele><time>2026-04-18T06:17:17.444Z</time></trkpt><trkpt lat="45.5581967" lon="9.1105967"><ele>158.0</ele><time>2026-04-18T06:17:19.445Z</time></trkpt><trkpt lat="45.5581267" lon="9.110515"><ele>158.0</ele><time>2026-04-18T06:17:21.444Z</time></trkpt><trkpt lat="45.5580533" lon="9.1104333"><ele>158.0</ele><time>2026-04-18T06:17:23.444Z</time></trkpt><trkpt lat="45.5579917" lon="9.11036"><ele>158.0</ele><time>2026-04-18T06:17:25.444Z</time></trkpt><trkpt lat="45.557925" lon="9.1102717"><ele>158.0</ele><time>2026-04-18T06:17:27.443Z</time></trkpt><trkpt lat="45.5578683" lon="9.1101783"><ele>158.0</ele><time>2026-04-18T06:17:29.445Z</time></trkpt><trkpt lat="45.5578133" lon="9.1100917"><ele>158.0</ele><time>2026-04-18T06:17:31.444Z</time></trkpt><trkpt lat="45.5577517" lon="9.1100033"><ele>158.0</ele><time>2026-04-18T06:17:33.443Z</time></trkpt><trkpt lat="45.5576883" lon="9.1099083"><ele>158.0</ele><time>2026-04-18T06:17:35.445Z</time></trkpt><trkpt lat="45.55762" lon="9.1098283"><ele>158.0</ele><time>2026-04-18T06:17:37.445Z</time></trkpt><trkpt lat="45.5575567" lon="9.1097417"><ele>158.0</ele><time>2026-04-18T06:17:39.443Z</time></trkpt><trkpt lat="45.5574917" lon="9.1096433"><ele>157.83333333333331</ele><time>2026-04-18T06:17:41.444Z</time></trkpt><trkpt lat="45.5574417" lon="9.1095467"><ele>157.66666666666666</ele><time>2026-04-18T06:17:43.444Z</time></trkpt><trkpt lat="45.55738" lon="9.1094567"><ele>157.5</ele><time>2026-04-18T06:17:45.444Z</time></trkpt><trkpt lat="45.5573133" lon="9.109375"><ele>157.33333333333334</ele><time>2026-04-18T06:17:47.443Z</time></trkpt><trkpt lat="45.5572567" lon="9.1092883"><ele>157.16666666666669</ele><time>2026-04-18T06:17:49.444Z</time></trkpt><trkpt lat="45.5572067" lon="9.109195"><ele>157.0</ele><time>2026-04-18T06:17:51.444Z</time></trkpt><trkpt lat="45.557155" lon="9.1091117"><ele>157.0</ele><time>2026-04-18T06:17:53.444Z</time></trkpt><trkpt lat="45.5571067" lon="9.1090217"><ele>157.0</ele><time>2026-04-18T06:17:55.443Z</time></trkpt><trkpt lat="45.557045" lon="9.10892"><ele>157.0</ele><time>2026-04-18T06:17:57.444Z</time></trkpt><trkpt lat="45.5569767" lon="9.1088183"><ele>157.0</ele><time>2026-04-18T06:17:59.446Z</time></trkpt><trkpt lat="45.5569167" lon="9.1087167"><ele>157.0</ele><time>2026-04-18T06:18:01.444Z</time></trkpt><trkpt lat="45.556855" lon="9.1086083"><ele>157.0</ele><time>2026-04-18T06:18:03.444Z</time></trkpt><trkpt lat="45.5567933" lon="9.1084917"><ele>157.0</ele><time>2026-04-18T06:18:05.445Z</time></trkpt><trkpt lat="45.5567267" lon="9.1083833"><ele>157.0</ele><time>2026-04-18T06:18:07.444Z</time></trkpt><trkpt lat="45.556655" lon="9.10829"><ele>157.0</ele><time>2026-04-18T06:18:09.443Z</time></trkpt><trkpt lat="45.556595" lon="9.108255"><ele>157.0</ele><time>2026-04-18T06:18:11.445Z</time></trkpt><trkpt lat="45.5565267" lon="9.1083067"><ele>157.0</ele><time>2026-04-18T06:18:13.445Z</time></trkpt><trkpt lat="45.5564483" lon="9.1083833"><ele>157.0</ele><time>2026-04-18T06:18:15.444Z</time></trkpt><trkpt lat="45.5563667" lon="9.10847"><ele>157.0</ele><time>2026-04-18T06:18:17.445Z</time></trkpt><trkpt lat="45.5562867" lon="9.10857"><ele>157.0</ele><time>2026-04-18T06:18:19.444Z</time></trkpt><trkpt lat="45.5562217" lon="9.1086817"><ele>157.0</ele><time>2026-04-18T06:18:21.444Z</time></trkpt><trkpt lat="45.5561583" lon="9.1087833"><ele>157.0</ele><time>2026-04-18T06:18:23.443Z</time></trkpt><trkpt lat="45.55608" lon="9.10887"><ele>157.2</ele><time>2026-04-18T06:18:25.444Z</time></trkpt><trkpt lat="45.556005" lon="9.1089667"><ele>157.39999999999998</ele><time>2026-04-18T06:18:27.443Z</time></trkpt><trkpt lat="45.5559217" lon="9.1090717"><ele>157.60000000000002</ele><time>2026-04-18T06:18:29.444Z</time></trkpt><trkpt lat="45.5558383" lon="9.10916"><ele>157.8</ele><time>2026-04-18T06:18:31.444Z</time></trkpt><trkpt lat="45.55576" lon="9.1092433"><ele>158.0</ele><time>2026-04-18T06:18:33.444Z</time></trkpt><trkpt lat="45.5556883" lon="9.1093017"><ele>158.20000000000002</ele><time>2026-04-18T06:18:35.444Z</time></trkpt><trkpt lat="45.5556167" lon="9.1093617"><ele>158.4</ele><time>2026-04-18T06:18:37.445Z</time></trkpt><trkpt lat="45.5555517" lon="9.1094183"><ele>158.60000000000002</ele><time>2026-04-18T06:18:39.444Z</time></trkpt><trkpt lat="45.5554867" lon="9.1095183"><ele>158.8</ele><time>2026-04-18T06:18:41.445Z</time></trkpt><trkpt lat="45.5554183" lon="9.1096117"><ele>159.0</ele><time>2026-04-18T06:18:43.445Z</time></trkpt><trkpt lat="45.5553383" lon="9.1097"><ele>158.83333333333334</ele><time>2026-04-18T06:18:45.445Z</time></trkpt><trkpt lat="45.5552783" lon="9.1097883"><ele>158.66666666666666</ele><time>2026-04-18T06:18:47.445Z</time></trkpt><trkpt lat="45.5552517" lon="9.10992"><ele>158.5</ele><time>2026-04-18T06:18:50.445Z</time></trkpt><trkpt lat="45.5552733" lon="9.1100467"><ele>158.33333333333331</ele><time>2026-04-18T06:18:53.444Z</time></trkpt><trkpt lat="45.5552967" lon="9.1101483"><ele>158.16666666666666</ele><time>2026-04-18T06:18:55.444Z</time></trkpt><trkpt lat="45.5552767" lon="9.1102383"><ele>158.0</ele><time>2026-04-18T06:18:57.444Z</time></trkpt><trkpt lat="45.5552483" lon="9.1103483"><ele>158.0</ele><time>2026-04-18T06:19:00.445Z</time></trkpt><trkpt lat="45.55523" lon="9.1104517"><ele>158.0</ele><time>2026-04-18T06:19:03.443Z</time></trkpt><trkpt lat="45.5551933" lon="9.1105267"><ele>158.0</ele><time>2026-04-18T06:19:06.443Z</time></trkpt><trkpt lat="45.555195" lon="9.110645"><ele>158.0</ele><time>2026-04-18T06:19:09.443Z</time></trkpt><trkpt lat="45.5551867" lon="9.110765"><ele>158.0</ele><time>2026-04-18T06:19:12.444Z</time></trkpt><trkpt lat="45.5551917" lon="9.1108883"><ele>158.0</ele><time>2026-04-18T06:19:15.443Z</time></trkpt><trkpt lat="45.5552367" lon="9.11103"><ele>158.0</ele><time>2026-04-18T06:19:17.443Z</time></trkpt><trkpt lat="45.5552833" lon="9.1111433"><ele>158.0</ele><time>2026-04-18T06:19:19.444Z</time></trkpt><trkpt lat="45.5553083" lon="9.1112417"><ele>158.0</ele><time>2026-04-18T06:19:21.444Z</time></trkpt><trkpt lat="45.5553333" lon="9.1113317"><ele>158.0</ele><time>2026-04-18T06:19:24.443Z</time></trkpt><trkpt lat="45.5554067" lon="9.111455"><ele>158.0</ele><time>2026-04-18T06:19:46.446Z</time></trkpt><trkpt lat="45.552482" lon="9.118615"><ele>154.0</ele><time>2026-04-18T06:23:33.414Z</time></trkpt><trkpt lat="45.5535833" lon="9.1198183"><ele>158.0</ele><time>2026-04-18T06:23:36.967Z</time></trkpt><trkpt lat="45.5541667" lon="9.1207867"><ele>159.0</ele><time>2026-04-18T06:24:00.606Z</time></trkpt><trkpt lat="45.55411" lon="9.1267133"><ele>159.0</ele><time>2026-04-18T06:25:56.759Z</time></trkpt><trkpt lat="45.5544583" lon="9.1268283"><ele>159.0</ele><time>2026-04-18T06:25:57.943Z</time></trkpt><trkpt lat="45.5545367" lon="9.126935"><ele>158.4</ele><time>2026-04-18T06:25:59.443Z</time></trkpt><trkpt lat="45.5545783" lon="9.1268433"><ele>157.8</ele><time>2026-04-18T06:26:02.442Z</time></trkpt><trkpt lat="45.5546633" lon="9.12677"><ele>157.2</ele><time>2026-04-18T06:26:04.444Z</time></trkpt><trkpt lat="45.5547683" lon="9.126815"><ele>156.6</ele><time>2026-04-18T06:26:10.443Z</time></trkpt><trkpt lat="45.5548433" lon="9.12685"><ele>156.0</ele><time>2026-04-18T06:26:12.443Z</time></trkpt><trkpt lat="45.5549367" lon="9.1268633"><ele>156.0</ele><time>2026-04-18T06:26:19.444Z</time></trkpt><trkpt lat="45.5550233" lon="9.1268533"><ele>156.0</ele><time>2026-04-18T06:26:27.443Z</time></trkpt><trkpt lat="45.5551367" lon="9.1268067"><ele>156.0</ele><time>2026-04-18T06:26:32.443Z</time></trkpt><trkpt lat="45.5553" lon="9.1267333"><ele>156.0</ele><time>2026-04-18T06:26:38.444Z</time></trkpt><trkpt lat="45.5553917" lon="9.1266767"><ele>156.0</ele><time>2026-04-18T06:26:41.443Z</time></trkpt><trkpt lat="45.555475" lon="9.12662"><ele>156.0</ele><time>2026-04-18T06:26:44.444Z</time></trkpt><trkpt lat="45.555595" lon="9.12659"><ele>156.0</ele><time>2026-04-18T06:27:06.443Z</time></trkpt><trkpt lat="45.5555917" lon="9.1264983"><ele>156.0</ele><time>2026-04-18T06:27:18.443Z</time></trkpt><trkpt lat="45.555655" lon="9.1264567"><ele>156.0</ele><time>2026-04-18T06:27:23.444Z</time></trkpt><trkpt lat="45.5557183" lon="9.1264567"><ele>156.0</ele><time>2026-04-18T06:27:26.443Z</time></trkpt><trkpt lat="45.5558067" lon="9.1264317"><ele>156.16666666666666</ele><time>2026-04-18T06:27:30.443Z</time></trkpt><trkpt lat="45.5558683" lon="9.1264083"><ele>156.33333333333334</ele><time>2026-04-18T06:27:33.443Z</time></trkpt><trkpt lat="45.55595" lon="9.1264017"><ele>156.5</ele><time>2026-04-18T06:27:36.442Z</time></trkpt><trkpt lat="45.556035" lon="9.1264033"><ele>156.66666666666669</ele><time>2026-04-18T06:27:39.442Z</time></trkpt><trkpt lat="45.55613" lon="9.12638"><ele>156.83333333333334</ele><time>2026-04-18T06:27:42.442Z</time></trkpt><trkpt lat="45.5562083" lon="9.126365"><ele>157.0</ele><time>2026-04-18T06:27:44.445Z</time></trkpt><trkpt lat="45.556285" lon="9.1263533"><ele>157.16666666666669</ele><time>2026-04-18T06:27:46.443Z</time></trkpt><trkpt lat="45.55637" lon="9.12633"><ele>157.33333333333334</ele><time>2026-04-18T06:27:48.442Z</time></trkpt><trkpt lat="45.556455" lon="9.126295"><ele>157.5</ele><time>2026-04-18T06:27:50.444Z</time></trkpt><trkpt lat="45.5565383" lon="9.1262667"><ele>157.66666666666666</ele><time>2026-04-18T06:27:52.443Z</time></trkpt><trkpt lat="45.5566167" lon="9.1262467"><ele>157.83333333333331</ele><time>2026-04-18T06:27:54.442Z</time></trkpt><trkpt lat="45.5567083" lon="9.126225"><ele>158.0</ele><time>2026-04-18T06:27:56.444Z</time></trkpt><trkpt lat="45.5568" lon="9.1262167"><ele>158.0</ele><time>2026-04-18T06:27:58.444Z</time></trkpt><trkpt lat="45.5568783" lon="9.126205"><ele>158.0</ele><time>2026-04-18T06:28:00.443Z</time></trkpt><trkpt lat="45.5569583" lon="9.1262017"><ele>158.0</ele><time>2026-04-18T06:28:02.444Z</time></trkpt><trkpt lat="45.5570367" lon="9.1262017"><ele>158.0</ele><time>2026-04-18T06:28:04.445Z</time></trkpt><trkpt lat="45.5571033" lon="9.1262033"><ele>158.0</ele><time>2026-04-18T06:28:06.443Z</time></trkpt><trkpt lat="45.5571783" lon="9.126215"><ele>158.0</ele><time>2026-04-18T06:28:08.444Z</time></trkpt><trkpt lat="45.5572617" lon="9.12622"><ele>158.16666666666666</ele><time>2026-04-18T06:28:10.444Z</time></trkpt><trkpt lat="45.5573433" lon="9.1262033"><ele>158.33333333333331</ele><time>2026-04-18T06:28:12.444Z</time></trkpt><trkpt lat="45.5574217" lon="9.1261833"><ele>158.5</ele><time>2026-04-18T06:28:14.445Z</time></trkpt><trkpt lat="45.557505" lon="9.1261783"><ele>158.66666666666666</ele><time>2026-04-18T06:28:16.443Z</time></trkpt><trkpt lat="45.5575883" lon="9.1261617"><ele>158.83333333333334</ele><time>2026-04-18T06:28:18.443Z</time></trkpt><trkpt lat="45.5576767" lon="9.126155"><ele>159.0</ele><time>2026-04-18T06:28:20.443Z</time></trkpt><trkpt lat="45.55777" lon="9.1261333"><ele>159.0</ele><time>2026-04-18T06:28:22.444Z</time></trkpt><trkpt lat="45.557865" lon="9.1261217"><ele>159.0</ele><time>2026-04-18T06:28:24.443Z</time></trkpt><trkpt lat="45.55798" lon="9.1261083"><ele>159.0</ele><time>2026-04-18T06:28:26.444Z</time></trkpt><trkpt lat="45.5580683" lon="9.126115"><ele>159.0</ele><time>2026-04-18T06:28:28.443Z</time></trkpt><trkpt lat="45.55814" lon="9.1261217"><ele>159.0</ele><time>2026-04-18T06:28:30.443Z</time></trkpt><trkpt lat="45.5582117" lon="9.1261217"><ele>159.0</ele><time>2026-04-18T06:28:33.443Z</time></trkpt><trkpt lat="45.558295" lon="9.12609"><ele>159.0</ele><time>2026-04-18T06:28:57.444Z</time></trkpt><trkpt lat="45.5583833" lon="9.1260983"><ele>159.0</ele><time>2026-04-18T06:29:00.443Z</time></trkpt><trkpt lat="45.5584433" lon="9.1261267"><ele>159.0</ele><time>2026-04-18T06:29:02.443Z</time></trkpt><trkpt lat="45.55851" lon="9.12615"><ele>159.0</ele><time>2026-04-18T06:29:04.443Z</time></trkpt><trkpt lat="45.5585767" lon="9.126165"><ele>159.0</ele><time>2026-04-18T06:29:06.443Z</time></trkpt><trkpt lat="45.55867" lon="9.1261783"><ele>159.0</ele><time>2026-04-18T06:29:09.444Z</time></trkpt><trkpt lat="45.558735" lon="9.12618"><ele>159.0</ele><time>2026-04-18T06:29:11.443Z</time></trkpt><trkpt lat="45.558815" lon="9.1261783"><ele>159.0</ele><time>2026-04-18T06:29:13.444Z</time></trkpt><trkpt lat="45.558895" lon="9.126175"><ele>159.0</ele><time>2026-04-18T06:29:15.443Z</time></trkpt><trkpt lat="45.559" lon="9.1261817"><ele>159.0</ele><time>2026-04-18T06:29:17.443Z</time></trkpt><trkpt lat="45.5590983" lon="9.12617"><ele>159.0</ele><time>2026-04-18T06:29:19.443Z</time></trkpt><trkpt lat="45.5591783" lon="9.1261617"><ele>159.0</ele><time>2026-04-18T06:29:21.444Z</time></trkpt><trkpt lat="45.55926" lon="9.1261617"><ele>159.0</ele><time>2026-04-18T06:29:23.444Z</time></trkpt><trkpt lat="45.559355" lon="9.1261533"><ele>159.0</ele><time>2026-04-18T06:29:25.445Z</time></trkpt><trkpt lat="45.559465" lon="9.12616"><ele>159.0</ele><time>2026-04-18T06:29:27.444Z</time></trkpt><trkpt lat="45.55956" lon="9.1261433"><ele>159.0</ele><time>2026-04-18T06:29:29.444Z</time></trkpt><trkpt lat="45.5596583" lon="9.12613"><ele>159.0</ele><time>2026-04-18T06:29:31.445Z</time></trkpt><trkpt lat="45.5597583" lon="9.12612"><ele>159.0</ele><time>2026-04-18T06:29:33.443Z</time></trkpt><trkpt lat="45.5598633" lon="9.1261233"><ele>159.2</ele><time>2026-04-18T06:29:35.445Z</time></trkpt><trkpt lat="45.559975" lon="9.1261283"><ele>159.4</ele><time>2026-04-18T06:29:37.445Z</time></trkpt><trkpt lat="45.5600933" lon="9.12613"><ele>159.6</ele><time>2026-04-18T06:29:39.443Z</time></trkpt><trkpt lat="45.560205" lon="9.1261233"><ele>159.8</ele><time>2026-04-18T06:29:41.444Z</time></trkpt><trkpt lat="45.5603117" lon="9.12611"><ele>160.0</ele><time>2026-04-18T06:29:43.444Z</time></trkpt><trkpt lat="45.5604183" lon="9.1261033"><ele>160.2</ele><time>2026-04-18T06:29:45.442Z</time></trkpt><trkpt lat="45.5605267" lon="9.1260967"><ele>160.4</ele><time>2026-04-18T06:29:47.443Z</time></trkpt><trkpt lat="45.560635" lon="9.12609"><ele>160.60000000000002</ele><time>2026-04-18T06:29:49.443Z</time></trkpt><trkpt lat="45.5607417" lon="9.1260833"><ele>160.8</ele><time>2026-04-18T06:29:51.444Z</time></trkpt><trkpt lat="45.5608483" lon="9.1260783"><ele>161.0</ele><time>2026-04-18T06:29:53.444Z</time></trkpt><trkpt lat="45.560955" lon="9.1260717"><ele>161.0</ele><time>2026-04-18T06:29:55.444Z</time></trkpt><trkpt lat="45.56106" lon="9.126065"><ele>161.0</ele><time>2026-04-18T06:29:57.443Z</time></trkpt><trkpt lat="45.56117" lon="9.1260533"><ele>161.0</ele><time>2026-04-18T06:29:59.442Z</time></trkpt><trkpt lat="45.5612717" lon="9.12605"><ele>161.0</ele><time>2026-04-18T06:30:01.444Z</time></trkpt><trkpt lat="45.5613833" lon="9.1260367"><ele>161.0</ele><time>2026-04-18T06:30:03.445Z</time></trkpt><trkpt lat="45.56149" lon="9.1260167"><ele>161.20000000000002</ele><time>2026-04-18T06:30:05.444Z</time></trkpt><trkpt lat="45.561595" lon="9.126"><ele>161.4</ele><time>2026-04-18T06:30:07.442Z</time></trkpt><trkpt lat="45.5617067" lon="9.1259433"><ele>161.6</ele><time>2026-04-18T06:30:09.443Z</time></trkpt><trkpt lat="45.5618117" lon="9.1259167"><ele>161.8</ele><time>2026-04-18T06:30:11.444Z</time></trkpt><trkpt lat="45.561895" lon="9.1258717"><ele>162.0</ele><time>2026-04-18T06:30:13.444Z</time></trkpt><trkpt lat="45.5619667" lon="9.1258533"><ele>161.5</ele><time>2026-04-18T06:30:15.443Z</time></trkpt><trkpt lat="45.5620417" lon="9.1258467"><ele>161.0</ele><time>2026-04-18T06:30:17.444Z</time></trkpt><trkpt lat="45.5621167" lon="9.1258383"><ele>160.5</ele><time>2026-04-18T06:30:19.444Z</time></trkpt><trkpt lat="45.5622" lon="9.1258283"><ele>160.0</ele><time>2026-04-18T06:30:21.443Z</time></trkpt><trkpt lat="45.5622883" lon="9.1258367"><ele>159.5</ele><time>2026-04-18T06:30:23.446Z</time></trkpt><trkpt lat="45.5623767" lon="9.1258367"><ele>159.0</ele><time>2026-04-18T06:30:25.443Z</time></trkpt><trkpt lat="45.5624583" lon="9.1258367"><ele>159.0</ele><time>2026-04-18T06:30:27.444Z</time></trkpt><trkpt lat="45.5625917" lon="9.1257867"><ele>159.0</ele><time>2026-04-18T06:30:29.443Z</time></trkpt><trkpt lat="45.5626583" lon="9.125765"><ele>159.0</ele><time>2026-04-18T06:30:30.443Z</time></trkpt><trkpt lat="45.5627717" lon="9.1257433"><ele>159.0</ele><time>2026-04-18T06:30:32.443Z</time></trkpt><trkpt lat="45.562875" lon="9.12573"><ele>159.0</ele><time>2026-04-18T06:30:34.444Z</time></trkpt><trkpt lat="45.56297" lon="9.125705"><ele>158.8</ele><time>2026-04-18T06:30:36.443Z</time></trkpt><trkpt lat="45.5630667" lon="9.1256667"><ele>158.60000000000002</ele><time>2026-04-18T06:30:38.444Z</time></trkpt><trkpt lat="45.563155" lon="9.12563"><ele>158.4</ele><time>2026-04-18T06:30:40.443Z</time></trkpt><trkpt lat="45.56324" lon="9.125585"><ele>158.20000000000002</ele><time>2026-04-18T06:30:42.443Z</time></trkpt><trkpt lat="45.5633283" lon="9.1255467"><ele>158.0</ele><time>2026-04-18T06:30:44.443Z</time></trkpt><trkpt lat="45.5634117" lon="9.1255417"><ele>158.0</ele><time>2026-04-18T06:30:46.444Z</time></trkpt><trkpt lat="45.563495" lon="9.125525"><ele>158.0</ele><time>2026-04-18T06:30:48.442Z</time></trkpt><trkpt lat="45.5635917" lon="9.1255033"><ele>158.0</ele><time>2026-04-18T06:30:50.444Z</time></trkpt><trkpt lat="45.5636817" lon="9.1254767"><ele>158.0</ele><time>2026-04-18T06:30:52.443Z</time></trkpt><trkpt lat="45.563775" lon="9.125445"><ele>158.0</ele><time>2026-04-18T06:30:54.443Z</time></trkpt><trkpt lat="45.563875" lon="9.1254133"><ele>158.0</ele><time>2026-04-18T06:30:56.443Z</time></trkpt><trkpt lat="45.5639733" lon="9.1253767"><ele>158.0</ele><time>2026-04-18T06:30:58.443Z</time></trkpt><trkpt lat="45.56407" lon="9.1253483"><ele>158.0</ele><time>2026-04-18T06:31:00.442Z</time></trkpt><trkpt lat="45.5641683" lon="9.12533"><ele>158.0</ele><time>2026-04-18T06:31:02.445Z</time></trkpt><trkpt lat="45.5642767" lon="9.1253267"><ele>158.0</ele><time>2026-04-18T06:31:04.443Z</time></trkpt><trkpt lat="45.5643883" lon="9.1253467"><ele>158.0</ele><time>2026-04-18T06:31:06.445Z</time></trkpt><trkpt lat="45.5644967" lon="9.1253333"><ele>158.0</ele><time>2026-04-18T06:31:08.444Z</time></trkpt><trkpt lat="45.5645967" lon="9.125325"><ele>158.0</ele><time>2026-04-18T06:31:10.444Z</time></trkpt><trkpt lat="45.5646983" lon="9.1253167"><ele>158.0</ele><time>2026-04-18T06:31:12.443Z</time></trkpt><trkpt lat="45.5647933" lon="9.1253133"><ele>158.0</ele><time>2026-04-18T06:31:14.445Z</time></trkpt><trkpt lat="45.5648817" lon="9.1253133"><ele>158.60000000000002</ele><time>2026-04-18T06:31:16.445Z</time></trkpt><trkpt lat="45.56496" lon="9.1253017"><ele>159.20000000000002</ele><time>2026-04-18T06:31:18.445Z</time></trkpt><trkpt lat="45.5650483" lon="9.12529"><ele>159.8</ele><time>2026-04-18T06:31:20.445Z</time></trkpt><trkpt lat="45.5651433" lon="9.125275"><ele>160.4</ele><time>2026-04-18T06:31:22.443Z</time></trkpt><trkpt lat="45.565245" lon="9.12526"><ele>161.0</ele><time>2026-04-18T06:31:24.444Z</time></trkpt><trkpt lat="45.5653417" lon="9.1252483"><ele>161.20000000000002</ele><time>2026-04-18T06:31:26.444Z</time></trkpt><trkpt lat="45.5654383" lon="9.1252433"><ele>161.4</ele><time>2026-04-18T06:31:28.444Z</time></trkpt><trkpt lat="45.565535" lon="9.1252333"><ele>161.6</ele><time>2026-04-18T06:31:30.444Z</time></trkpt><trkpt lat="45.5656333" lon="9.1252183"><ele>161.8</ele><time>2026-04-18T06:31:32.444Z</time></trkpt><trkpt lat="45.56573" lon="9.1252133"><ele>162.0</ele><time>2026-04-18T06:31:34.444Z</time></trkpt><trkpt lat="45.5658283" lon="9.1252033"><ele>162.0</ele><time>2026-04-18T06:31:36.444Z</time></trkpt><trkpt lat="45.5659233" lon="9.1252"><ele>162.0</ele><time>2026-04-18T06:31:38.444Z</time></trkpt><trkpt lat="45.566015" lon="9.1251917"><ele>162.0</ele><time>2026-04-18T06:31:40.444Z</time></trkpt><trkpt lat="45.5661133" lon="9.125205"><ele>162.0</ele><time>2026-04-18T06:31:42.445Z</time></trkpt><trkpt lat="45.5662033" lon="9.125205"><ele>162.0</ele><time>2026-04-18T06:31:44.445Z</time></trkpt><trkpt lat="45.5663133" lon="9.1252117"><ele>161.6</ele><time>2026-04-18T06:31:46.444Z</time></trkpt><trkpt lat="45.566405" lon="9.125205"><ele>161.2</ele><time>2026-04-18T06:31:48.444Z</time></trkpt><trkpt lat="45.5665283" lon="9.12522"><ele>160.8</ele><time>2026-04-18T06:31:50.444Z</time></trkpt><trkpt lat="45.5666317" lon="9.1252317"><ele>160.4</ele><time>2026-04-18T06:31:52.444Z</time></trkpt><trkpt lat="45.5667333" lon="9.1252467"><ele>160.0</ele><time>2026-04-18T06:31:54.444Z</time></trkpt><trkpt lat="45.5668417" lon="9.1252617"><ele>160.0</ele><time>2026-04-18T06:31:56.444Z</time></trkpt><trkpt lat="45.5669517" lon="9.1252717"><ele>160.0</ele><time>2026-04-18T06:31:58.444Z</time></trkpt><trkpt lat="45.567045" lon="9.1252733"><ele>160.0</ele><time>2026-04-18T06:32:00.443Z</time></trkpt><trkpt lat="45.5671217" lon="9.12527"><ele>160.0</ele><time>2026-04-18T06:32:02.444Z</time></trkpt><trkpt lat="45.5671983" lon="9.1252683"><ele>160.0</ele><time>2026-04-18T06:32:04.444Z</time></trkpt><trkpt lat="45.5672767" lon="9.1252633"><ele>160.0</ele><time>2026-04-18T06:32:06.444Z</time></trkpt><trkpt lat="45.56735" lon="9.1252617"><ele>160.16666666666669</ele><time>2026-04-18T06:32:08.443Z</time></trkpt><trkpt lat="45.5674233" lon="9.12526"><ele>160.33333333333334</ele><time>2026-04-18T06:32:10.444Z</time></trkpt><trkpt lat="45.567505" lon="9.1252567"><ele>160.5</ele><time>2026-04-18T06:32:12.443Z</time></trkpt><trkpt lat="45.5675867" lon="9.1252483"><ele>160.66666666666666</ele><time>2026-04-18T06:32:14.444Z</time></trkpt><trkpt lat="45.56767" lon="9.125255"><ele>160.83333333333331</ele><time>2026-04-18T06:32:16.443Z</time></trkpt><trkpt lat="45.5677483" lon="9.1252667"><ele>161.0</ele><time>2026-04-18T06:32:18.444Z</time></trkpt><trkpt lat="45.5678233" lon="9.1252767"><ele>161.33333333333331</ele><time>2026-04-18T06:32:20.446Z</time></trkpt><trkpt lat="45.5679" lon="9.1252883"><ele>161.66666666666666</ele><time>2026-04-18T06:32:22.443Z</time></trkpt><trkpt lat="45.5679833" lon="9.1252917"><ele>162.0</ele><time>2026-04-18T06:32:24.444Z</time></trkpt><trkpt lat="45.568075" lon="9.125285"><ele>162.33333333333334</ele><time>2026-04-18T06:32:26.445Z</time></trkpt><trkpt lat="45.5681633" lon="9.1252717"><ele>162.66666666666669</ele><time>2026-04-18T06:32:28.444Z</time></trkpt><trkpt lat="45.5682383" lon="9.12526"><ele>163.0</ele><time>2026-04-18T06:32:30.444Z</time></trkpt><trkpt lat="45.5683083" lon="9.1252783"><ele>163.0</ele><time>2026-04-18T06:32:32.445Z</time></trkpt><trkpt lat="45.5683783" lon="9.125335"><ele>163.0</ele><time>2026-04-18T06:32:34.444Z</time></trkpt><trkpt lat="45.5684533" lon="9.125405"><ele>163.0</ele><time>2026-04-18T06:32:36.444Z</time></trkpt><trkpt lat="45.5685367" lon="9.1254433"><ele>163.0</ele><time>2026-04-18T06:32:38.444Z</time></trkpt><trkpt lat="45.5686317" lon="9.1254433"><ele>163.0</ele><time>2026-04-18T06:32:40.444Z</time></trkpt><trkpt lat="45.5687117" lon="9.12539"><ele>163.0</ele><time>2026-04-18T06:32:42.444Z</time></trkpt><trkpt lat="45.5687867" lon="9.1253283"><ele>163.60000000000002</ele><time>2026-04-18T06:32:44.444Z</time></trkpt><trkpt lat="45.56887" lon="9.12529"><ele>164.20000000000002</ele><time>2026-04-18T06:32:46.445Z</time></trkpt><trkpt lat="45.568975" lon="9.1252767"><ele>164.8</ele><time>2026-04-18T06:32:48.443Z</time></trkpt><trkpt lat="45.5690417" lon="9.1252467"><ele>165.4</ele><time>2026-04-18T06:32:49.444Z</time></trkpt><trkpt lat="45.5691533" lon="9.12524"><ele>166.0</ele><time>2026-04-18T06:32:51.444Z</time></trkpt><trkpt lat="45.5692567" lon="9.12523"><ele>166.0</ele><time>2026-04-18T06:32:53.443Z</time></trkpt><trkpt lat="45.5693417" lon="9.12522"><ele>166.0</ele><time>2026-04-18T06:32:55.444Z</time></trkpt><trkpt lat="45.5694267" lon="9.12521"><ele>166.0</ele><time>2026-04-18T06:32:57.444Z</time></trkpt><trkpt lat="45.5695117" lon="9.1252033"><ele>166.0</ele><time>2026-04-18T06:32:59.443Z</time></trkpt><trkpt lat="45.5696117" lon="9.125195"><ele>166.0</ele><time>2026-04-18T06:33:01.444Z</time></trkpt><trkpt lat="45.5697017" lon="9.1251883"><ele>166.0</ele><time>2026-04-18T06:33:03.443Z</time></trkpt><trkpt lat="45.5698033" lon="9.1251833"><ele>166.20000000000002</ele><time>2026-04-18T06:33:05.445Z</time></trkpt><trkpt lat="45.569905" lon="9.1251867"><ele>166.4</ele><time>2026-04-18T06:33:07.443Z</time></trkpt><trkpt lat="45.57002" lon="9.125185"><ele>166.6</ele><time>2026-04-18T06:33:09.445Z</time></trkpt><trkpt lat="45.570135" lon="9.1251933"><ele>166.8</ele><time>2026-04-18T06:33:11.444Z</time></trkpt><trkpt lat="45.5702383" lon="9.1251833"><ele>167.0</ele><time>2026-04-18T06:33:13.444Z</time></trkpt><trkpt lat="45.5703483" lon="9.1251583"><ele>166.8</ele><time>2026-04-18T06:33:15.442Z</time></trkpt><trkpt lat="45.570445" lon="9.1251417"><ele>166.6</ele><time>2026-04-18T06:33:17.444Z</time></trkpt><trkpt lat="45.5705417" lon="9.12513"><ele>166.4</ele><time>2026-04-18T06:33:19.445Z</time></trkpt><trkpt lat="45.5706367" lon="9.125145"><ele>166.20000000000002</ele><time>2026-04-18T06:33:21.444Z</time></trkpt><trkpt lat="45.570745" lon="9.1251433"><ele>166.0</ele><time>2026-04-18T06:33:23.443Z</time></trkpt><trkpt lat="45.57081" lon="9.1251267"><ele>166.0</ele><time>2026-04-18T06:33:24.445Z</time></trkpt><trkpt lat="45.5709183" lon="9.125125"><ele>166.0</ele><time>2026-04-18T06:33:26.445Z</time></trkpt><trkpt lat="45.5710317" lon="9.12512"><ele>166.0</ele><time>2026-04-18T06:33:28.444Z</time></trkpt><trkpt lat="45.57112" lon="9.1251217"><ele>166.0</ele><time>2026-04-18T06:33:30.444Z</time></trkpt><trkpt lat="45.5712183" lon="9.1251183"><ele>166.0</ele><time>2026-04-18T06:33:32.445Z</time></trkpt><trkpt lat="45.5713167" lon="9.125115"><ele>166.0</ele><time>2026-04-18T06:33:34.445Z</time></trkpt><trkpt lat="45.5714133" lon="9.1251083"><ele>166.0</ele><time>2026-04-18T06:33:36.445Z</time></trkpt><trkpt lat="45.5715067" lon="9.1251083"><ele>166.0</ele><time>2026-04-18T06:33:38.445Z</time></trkpt><trkpt lat="45.5715983" lon="9.1251017"><ele>166.0</ele><time>2026-04-18T06:33:40.444Z</time></trkpt><trkpt lat="45.571695" lon="9.1250833"><ele>166.0</ele><time>2026-04-18T06:33:42.444Z</time></trkpt><trkpt lat="45.5717983" lon="9.1250717"><ele>166.0</ele><time>2026-04-18T06:33:44.444Z</time></trkpt><trkpt lat="45.5719" lon="9.1250667"><ele>166.0</ele><time>2026-04-18T06:33:46.444Z</time></trkpt><trkpt lat="45.5719683" lon="9.1250467"><ele>166.0</ele><time>2026-04-18T06:33:47.444Z</time></trkpt><trkpt lat="45.57208" lon="9.1250467"><ele>166.0</ele><time>2026-04-18T06:33:49.443Z</time></trkpt><trkpt lat="45.572145" lon="9.1250333"><ele>166.0</ele><time>2026-04-18T06:33:50.445Z</time></trkpt><trkpt lat="45.5722517" lon="9.1250167"><ele>166.4</ele><time>2026-04-18T06:33:52.444Z</time></trkpt><trkpt lat="45.57236" lon="9.1249967"><ele>166.8</ele><time>2026-04-18T06:33:54.443Z</time></trkpt><trkpt lat="45.5724683" lon="9.12498"><ele>167.20000000000002</ele><time>2026-04-18T06:33:56.444Z</time></trkpt><trkpt lat="45.5725733" lon="9.12498"><ele>167.60000000000002</ele><time>2026-04-18T06:33:58.445Z</time></trkpt><trkpt lat="45.572665" lon="9.1249933"><ele>168.0</ele><time>2026-04-18T06:34:00.444Z</time></trkpt><trkpt lat="45.57274" lon="9.12503"><ele>168.0</ele><time>2026-04-18T06:34:02.444Z</time></trkpt><trkpt lat="45.57279" lon="9.1250983"><ele>168.0</ele><time>2026-04-18T06:34:04.445Z</time></trkpt><trkpt lat="45.5728133" lon="9.125185"><ele>168.0</ele><time>2026-04-18T06:34:06.444Z</time></trkpt><trkpt lat="45.5728133" lon="9.1252817"><ele>168.0</ele><time>2026-04-18T06:34:08.445Z</time></trkpt><trkpt lat="45.5728117" lon="9.125385"><ele>168.0</ele><time>2026-04-18T06:34:10.445Z</time></trkpt><trkpt lat="45.572805" lon="9.12549"><ele>168.0</ele><time>2026-04-18T06:34:12.444Z</time></trkpt><trkpt lat="45.5728067" lon="9.1255883"><ele>168.0</ele><time>2026-04-18T06:34:14.445Z</time></trkpt><trkpt lat="45.5728083" lon="9.1257"><ele>168.16666666666666</ele><time>2026-04-18T06:34:16.444Z</time></trkpt><trkpt lat="45.5728183" lon="9.1257983"><ele>168.33333333333334</ele><time>2026-04-18T06:34:18.443Z</time></trkpt><trkpt lat="45.572825" lon="9.1259333"><ele>168.5</ele><time>2026-04-18T06:34:20.444Z</time></trkpt><trkpt lat="45.5728267" lon="9.1260733"><ele>168.66666666666669</ele><time>2026-04-18T06:34:22.443Z</time></trkpt><trkpt lat="45.5728367" lon="9.1262117"><ele>168.83333333333334</ele><time>2026-04-18T06:34:24.443Z</time></trkpt><trkpt lat="45.5728433" lon="9.1263367"><ele>169.0</ele><time>2026-04-18T06:34:26.444Z</time></trkpt><trkpt lat="45.572865" lon="9.12644"><ele>169.0</ele><time>2026-04-18T06:34:28.443Z</time></trkpt><trkpt lat="45.5729117" lon="9.1265033"><ele>169.0</ele><time>2026-04-18T06:34:30.444Z</time></trkpt><trkpt lat="45.5730033" lon="9.1265267"><ele>169.0</ele><time>2026-04-18T06:34:33.443Z</time></trkpt><trkpt lat="45.5730783" lon="9.1265117"><ele>169.0</ele><time>2026-04-18T06:34:36.445Z</time></trkpt><trkpt lat="45.5731483" lon="9.1264867"><ele>169.0</ele><time>2026-04-18T06:34:39.443Z</time></trkpt><trkpt lat="45.5732233" lon="9.12648"><ele>169.0</ele><time>2026-04-18T06:34:42.444Z</time></trkpt><trkpt lat="45.5733067" lon="9.1264567"><ele>169.0</ele><time>2026-04-18T06:34:45.444Z</time></trkpt><trkpt lat="45.57337" lon="9.1264317"><ele>169.0</ele><time>2026-04-18T06:34:47.444Z</time></trkpt><trkpt lat="45.5734333" lon="9.1264217"><ele>169.0</ele><time>2026-04-18T06:34:49.445Z</time></trkpt><trkpt lat="45.5735017" lon="9.1264083"><ele>169.0</ele><time>2026-04-18T06:34:51.443Z</time></trkpt><trkpt lat="45.573585" lon="9.1263933"><ele>169.0</ele><time>2026-04-18T06:34:53.445Z</time></trkpt><trkpt lat="45.57367" lon="9.126395"><ele>169.0</ele><time>2026-04-18T06:34:55.445Z</time></trkpt><trkpt lat="45.5737583" lon="9.1263983"><ele>169.0</ele><time>2026-04-18T06:34:57.445Z</time></trkpt><trkpt lat="45.57387" lon="9.1263933"><ele>169.0</ele><time>2026-04-18T06:34:59.445Z</time></trkpt><trkpt lat="45.5739633" lon="9.126385"><ele>169.0</ele><time>2026-04-18T06:35:01.445Z</time></trkpt><trkpt lat="45.57407" lon="9.126375"><ele>169.0</ele><time>2026-04-18T06:35:03.445Z</time></trkpt><trkpt lat="45.5741817" lon="9.1263617"><ele>169.0</ele><time>2026-04-18T06:35:05.445Z</time></trkpt><trkpt lat="45.5742717" lon="9.1263433"><ele>169.0</ele><time>2026-04-18T06:35:07.445Z</time></trkpt><trkpt lat="45.5743667" lon="9.1263333"><ele>169.0</ele><time>2026-04-18T06:35:09.445Z</time></trkpt><trkpt lat="45.5744583" lon="9.1263233"><ele>169.0</ele><time>2026-04-18T06:35:11.445Z</time></trkpt><trkpt lat="45.5745483" lon="9.126315"><ele>169.0</ele><time>2026-04-18T06:35:13.444Z</time></trkpt><trkpt lat="45.574635" lon="9.1263133"><ele>169.0</ele><time>2026-04-18T06:35:15.445Z</time></trkpt><trkpt lat="45.5747183" lon="9.1263083"><ele>169.0</ele><time>2026-04-18T06:35:17.444Z</time></trkpt><trkpt lat="45.5747833" lon="9.1262883"><ele>168.83333333333334</ele><time>2026-04-18T06:35:19.445Z</time></trkpt><trkpt lat="45.5748767" lon="9.12625"><ele>168.66666666666669</ele><time>2026-04-18T06:35:22.445Z</time></trkpt><trkpt lat="45.57495" lon="9.1262383"><ele>168.5</ele><time>2026-04-18T06:35:24.445Z</time></trkpt><trkpt lat="45.5750233" lon="9.1262033"><ele>168.33333333333334</ele><time>2026-04-18T06:35:26.445Z</time></trkpt><trkpt lat="45.5750517" lon="9.1261167"><ele>168.16666666666666</ele><time>2026-04-18T06:35:28.445Z</time></trkpt><trkpt lat="45.57502" lon="9.1260267"><ele>168.0</ele><time>2026-04-18T06:35:30.445Z</time></trkpt><trkpt lat="45.574975" lon="9.1259483"><ele>168.0</ele><time>2026-04-18T06:35:32.445Z</time></trkpt><trkpt lat="45.5749233" lon="9.1258667"><ele>168.0</ele><time>2026-04-18T06:35:34.444Z</time></trkpt><trkpt lat="45.57487" lon="9.1257483"><ele>168.0</ele><time>2026-04-18T06:35:36.443Z</time></trkpt><trkpt lat="45.57484" lon="9.12563"><ele>168.0</ele><time>2026-04-18T06:35:38.445Z</time></trkpt><trkpt lat="45.5748217" lon="9.1254983"><ele>168.0</ele><time>2026-04-18T06:35:40.443Z</time></trkpt><trkpt lat="45.5748133" lon="9.1253517"><ele>168.0</ele><time>2026-04-18T06:35:42.444Z</time></trkpt><trkpt lat="45.5748067" lon="9.12522"><ele>168.0</ele><time>2026-04-18T06:35:44.445Z</time></trkpt><trkpt lat="45.574805" lon="9.1250817"><ele>168.0</ele><time>2026-04-18T06:35:46.444Z</time></trkpt><trkpt lat="45.5748033" lon="9.12495"><ele>168.0</ele><time>2026-04-18T06:35:48.444Z</time></trkpt><trkpt lat="45.57479" lon="9.1248017"><ele>168.0</ele><time>2026-04-18T06:35:50.445Z</time></trkpt><trkpt lat="45.574785" lon="9.1246567"><ele>168.0</ele><time>2026-04-18T06:35:52.445Z</time></trkpt><trkpt lat="45.57478" lon="9.124515"><ele>168.0</ele><time>2026-04-18T06:35:54.445Z</time></trkpt><trkpt lat="45.57478" lon="9.1243583"><ele>168.0</ele><time>2026-04-18T06:35:56.447Z</time></trkpt><trkpt lat="45.574775" lon="9.1242183"><ele>168.0</ele><time>2026-04-18T06:35:58.445Z</time></trkpt><trkpt lat="45.5747683" lon="9.1240733"><ele>168.0</ele><time>2026-04-18T06:36:00.444Z</time></trkpt><trkpt lat="45.5747667" lon="9.1239417"><ele>168.16666666666666</ele><time>2026-04-18T06:36:02.445Z</time></trkpt><trkpt lat="45.574765" lon="9.1238417"><ele>168.33333333333334</ele><time>2026-04-18T06:36:04.444Z</time></trkpt><trkpt lat="45.5747583" lon="9.1237517"><ele>168.5</ele><time>2026-04-18T06:36:06.444Z</time></trkpt><trkpt lat="45.57475" lon="9.1236417"><ele>168.66666666666669</ele><time>2026-04-18T06:36:08.445Z</time></trkpt><trkpt lat="45.5747417" lon="9.1235217"><ele>168.83333333333334</ele><time>2026-04-18T06:36:10.444Z</time></trkpt><trkpt lat="45.5747367" lon="9.123395"><ele>169.0</ele><time>2026-04-18T06:36:12.444Z</time></trkpt><trkpt lat="45.57473" lon="9.123265"><ele>169.0</ele><time>2026-04-18T06:36:14.444Z</time></trkpt><trkpt lat="45.5747217" lon="9.12313"><ele>169.0</ele><time>2026-04-18T06:36:16.444Z</time></trkpt><trkpt lat="45.5747217" lon="9.1229883"><ele>169.0</ele><time>2026-04-18T06:36:18.443Z</time></trkpt><trkpt lat="45.5747217" lon="9.1228367"><ele>169.0</ele><time>2026-04-18T06:36:20.444Z</time></trkpt><trkpt lat="45.574725" lon="9.12269"><ele>169.0</ele><time>2026-04-18T06:36:22.444Z</time></trkpt><trkpt lat="45.5747417" lon="9.12254"><ele>169.0</ele><time>2026-04-18T06:36:24.442Z</time></trkpt><trkpt lat="45.5747583" lon="9.1223717"><ele>169.0</ele><time>2026-04-18T06:36:26.445Z</time></trkpt><trkpt lat="45.57478" lon="9.1222083"><ele>169.0</ele><time>2026-04-18T06:36:28.442Z</time></trkpt><trkpt lat="45.5747917" lon="9.122045"><ele>169.0</ele><time>2026-04-18T06:36:30.443Z</time></trkpt><trkpt lat="45.5748083" lon="9.1218833"><ele>169.0</ele><time>2026-04-18T06:36:32.443Z</time></trkpt><trkpt lat="45.5748217" lon="9.1217433"><ele>169.0</ele><time>2026-04-18T06:36:34.442Z</time></trkpt><trkpt lat="45.5748333" lon="9.1215917"><ele>169.0</ele><time>2026-04-18T06:36:36.442Z</time></trkpt><trkpt lat="45.574845" lon="9.121435"><ele>169.0</ele><time>2026-04-18T06:36:38.444Z</time></trkpt><trkpt lat="45.5748583" lon="9.12129"><ele>169.0</ele><time>2026-04-18T06:36:40.443Z</time></trkpt><trkpt lat="45.5748733" lon="9.121135"><ele>168.75</ele><time>2026-04-18T06:36:42.445Z</time></trkpt><trkpt lat="45.574885" lon="9.1209817"><ele>168.5</ele><time>2026-04-18T06:36:44.443Z</time></trkpt><trkpt lat="45.5748933" lon="9.1208233"><ele>168.25</ele><time>2026-04-18T06:36:46.444Z</time></trkpt><trkpt lat="45.5748983" lon="9.120665"><ele>168.0</ele><time>2026-04-18T06:36:48.442Z</time></trkpt><trkpt lat="45.5749" lon="9.1204933"><ele>168.0</ele><time>2026-04-18T06:36:50.442Z</time></trkpt><trkpt lat="45.574905" lon="9.1203267"><ele>168.0</ele><time>2026-04-18T06:36:52.444Z</time></trkpt><trkpt lat="45.57492" lon="9.1201717"><ele>168.0</ele><time>2026-04-18T06:36:54.442Z</time></trkpt><trkpt lat="45.5749317" lon="9.12001"><ele>168.0</ele><time>2026-04-18T06:36:56.443Z</time></trkpt><trkpt lat="45.5749417" lon="9.1198467"><ele>168.16666666666666</ele><time>2026-04-18T06:36:58.443Z</time></trkpt><trkpt lat="45.5749483" lon="9.119675"><ele>168.33333333333334</ele><time>2026-04-18T06:37:00.443Z</time></trkpt><trkpt lat="45.5749583" lon="9.1195033"><ele>168.5</ele><time>2026-04-18T06:37:02.443Z</time></trkpt><trkpt lat="45.5749667" lon="9.1194133"><ele>168.66666666666669</ele><time>2026-04-18T06:37:03.443Z</time></trkpt><trkpt lat="45.57497" lon="9.1193233"><ele>168.83333333333334</ele><time>2026-04-18T06:37:04.443Z</time></trkpt><trkpt lat="45.574975" lon="9.1192317"><ele>169.0</ele><time>2026-04-18T06:37:05.443Z</time></trkpt><trkpt lat="45.574985" lon="9.1190617"><ele>169.6</ele><time>2026-04-18T06:37:07.444Z</time></trkpt><trkpt lat="45.575" lon="9.1189083"><ele>170.2</ele><time>2026-04-18T06:37:09.443Z</time></trkpt><trkpt lat="45.575" lon="9.1187517"><ele>170.79999999999998</ele><time>2026-04-18T06:37:11.443Z</time></trkpt><trkpt lat="45.5749933" lon="9.118595"><ele>171.39999999999998</ele><time>2026-04-18T06:37:13.443Z</time></trkpt><trkpt lat="45.5749417" lon="9.1184583"><ele>172.0</ele><time>2026-04-18T06:37:15.443Z</time></trkpt><trkpt lat="45.57486" lon="9.1183567"><ele>172.0</ele><time>2026-04-18T06:37:17.443Z</time></trkpt><trkpt lat="45.5747983" lon="9.1182617"><ele>172.0</ele><time>2026-04-18T06:37:19.442Z</time></trkpt><trkpt lat="45.5747683" lon="9.11816"><ele>172.0</ele><time>2026-04-18T06:37:21.443Z</time></trkpt><trkpt lat="45.57475" lon="9.1180717"><ele>172.0</ele><time>2026-04-18T06:37:23.443Z</time></trkpt><trkpt lat="45.5746733" lon="9.1180083"><ele>172.0</ele><time>2026-04-18T06:37:24.443Z</time></trkpt><trkpt lat="45.574735" lon="9.1179417"><ele>172.0</ele><time>2026-04-18T06:37:29.443Z</time></trkpt><trkpt lat="45.5748083" lon="9.1178833"><ele>171.75</ele><time>2026-04-18T06:37:31.443Z</time></trkpt><trkpt lat="45.5749433" lon="9.1177667"><ele>171.5</ele><time>2026-04-18T06:37:34.443Z</time></trkpt><trkpt lat="45.5750517" lon="9.1176933"><ele>171.25</ele><time>2026-04-18T06:37:36.443Z</time></trkpt><trkpt lat="45.57512" lon="9.1176517"><ele>171.0</ele><time>2026-04-18T06:37:37.444Z</time></trkpt><trkpt lat="45.5752417" lon="9.117555"><ele>171.0</ele><time>2026-04-18T06:37:39.442Z</time></trkpt><trkpt lat="45.5753333" lon="9.1174867"><ele>171.0</ele><time>2026-04-18T06:37:41.442Z</time></trkpt><trkpt lat="45.5754317" lon="9.1173783"><ele>171.0</ele><time>2026-04-18T06:37:43.442Z</time></trkpt><trkpt lat="45.5754917" lon="9.1173083"><ele>171.0</ele><time>2026-04-18T06:37:44.443Z</time></trkpt><trkpt lat="45.5755483" lon="9.1172517"><ele>171.0</ele><time>2026-04-18T06:37:45.443Z</time></trkpt><trkpt lat="45.5756483" lon="9.117255"><ele>171.0</ele><time>2026-04-18T06:37:47.443Z</time></trkpt><trkpt lat="45.5757517" lon="9.117265"><ele>171.0</ele><time>2026-04-18T06:37:49.442Z</time></trkpt><trkpt lat="45.57587" lon="9.117315"><ele>171.0</ele><time>2026-04-18T06:37:51.442Z</time></trkpt><trkpt lat="45.5757917" lon="9.1176717"><ele>171.20000000000002</ele><time>2026-04-18T06:37:52.442Z</time></trkpt><trkpt lat="45.57581" lon="9.11776"><ele>171.4</ele><time>2026-04-18T06:37:53.442Z</time></trkpt><trkpt lat="45.5759" lon="9.1177933"><ele>171.6</ele><time>2026-04-18T06:37:55.442Z</time></trkpt><trkpt lat="45.5759917" lon="9.1178167"><ele>171.8</ele><time>2026-04-18T06:37:57.442Z</time></trkpt><trkpt lat="45.5761017" lon="9.1178433"><ele>172.0</ele><time>2026-04-18T06:37:59.444Z</time></trkpt><trkpt lat="45.5762017" lon="9.1178533"><ele>172.33333333333334</ele><time>2026-04-18T06:38:01.442Z</time></trkpt><trkpt lat="45.576285" lon="9.117885"><ele>172.66666666666669</ele><time>2026-04-18T06:38:03.443Z</time></trkpt><trkpt lat="45.5763533" lon="9.117875"><ele>173.0</ele><time>2026-04-18T06:38:05.443Z</time></trkpt><trkpt lat="45.5764317" lon="9.1179133"><ele>173.33333333333334</ele><time>2026-04-18T06:38:07.443Z</time></trkpt><trkpt lat="45.5765017" lon="9.1179417"><ele>173.66666666666666</ele><time>2026-04-18T06:38:09.442Z</time></trkpt><trkpt lat="45.576585" lon="9.1179417"><ele>174.0</ele><time>2026-04-18T06:38:12.442Z</time></trkpt><trkpt lat="45.57666" lon="9.1179117"><ele>174.0</ele><time>2026-04-18T06:38:14.443Z</time></trkpt><trkpt lat="45.576735" lon="9.1179583"><ele>174.0</ele><time>2026-04-18T06:38:16.443Z</time></trkpt><trkpt lat="45.5768133" lon="9.1180067"><ele>174.0</ele><time>2026-04-18T06:38:18.442Z</time></trkpt><trkpt lat="45.5770767" lon="9.118155"><ele>175.39999999999998</ele><time>2026-04-18T06:38:23.443Z</time></trkpt><trkpt lat="45.5770767" lon="9.1182683"><ele>176.8</ele><time>2026-04-18T06:38:24.442Z</time></trkpt><trkpt lat="45.5771383" lon="9.1183783"><ele>178.2</ele><time>2026-04-18T06:38:26.444Z</time></trkpt><trkpt lat="45.5772283" lon="9.11848"><ele>179.60000000000002</ele><time>2026-04-18T06:38:28.442Z</time></trkpt><trkpt lat="45.5773117" lon="9.1185517"><ele>181.0</ele><time>2026-04-18T06:38:30.443Z</time></trkpt><trkpt lat="45.57742" lon="9.1185967"><ele>181.0</ele><time>2026-04-18T06:38:32.444Z</time></trkpt><trkpt lat="45.5775167" lon="9.1186667"><ele>181.0</ele><time>2026-04-18T06:38:34.442Z</time></trkpt><trkpt lat="45.577605" lon="9.1187233"><ele>181.0</ele><time>2026-04-18T06:38:36.442Z</time></trkpt><trkpt lat="45.5776917" lon="9.1188133"><ele>181.0</ele><time>2026-04-18T06:38:38.443Z</time></trkpt><trkpt lat="45.5777083" lon="9.1189433"><ele>181.0</ele><time>2026-04-18T06:38:40.443Z</time></trkpt><trkpt lat="45.5777317" lon="9.1190683"><ele>179.60000000000002</ele><time>2026-04-18T06:38:42.443Z</time></trkpt><trkpt lat="45.5777467" lon="9.1191883"><ele>178.2</ele><time>2026-04-18T06:38:44.444Z</time></trkpt><trkpt lat="45.5777833" lon="9.119315"><ele>176.8</ele><time>2026-04-18T06:38:46.443Z</time></trkpt><trkpt lat="45.57785" lon="9.1194033"><ele>175.39999999999998</ele><time>2026-04-18T06:38:48.443Z</time></trkpt><trkpt lat="45.5778967" lon="9.1194667"><ele>174.0</ele><time>2026-04-18T06:38:50.444Z</time></trkpt><trkpt lat="45.57801" lon="9.119415"><ele>174.0</ele><time>2026-04-18T06:38:52.444Z</time></trkpt><trkpt lat="45.5780867" lon="9.11939"><ele>174.0</ele><time>2026-04-18T06:38:53.442Z</time></trkpt><trkpt lat="45.5781583" lon="9.1193517"><ele>174.0</ele><time>2026-04-18T06:38:54.442Z</time></trkpt><trkpt lat="45.5782567" lon="9.1193367"><ele>174.0</ele><time>2026-04-18T06:38:56.442Z</time></trkpt><trkpt lat="45.5783417" lon="9.1193267"><ele>174.0</ele><time>2026-04-18T06:38:58.444Z</time></trkpt><trkpt lat="45.5784833" lon="9.1192717"><ele>174.0</ele><time>2026-04-18T06:39:00.442Z</time></trkpt><trkpt lat="45.5785683" lon="9.119215"><ele>174.0</ele><time>2026-04-18T06:39:01.445Z</time></trkpt><trkpt lat="45.5786333" lon="9.1191683"><ele>174.0</ele><time>2026-04-18T06:39:02.444Z</time></trkpt><trkpt lat="45.578755" lon="9.1191067"><ele>174.0</ele><time>2026-04-18T06:39:04.443Z</time></trkpt><trkpt lat="45.5788567" lon="9.1190683"><ele>174.0</ele><time>2026-04-18T06:39:06.442Z</time></trkpt><trkpt lat="45.57895" lon="9.11905"><ele>174.5</ele><time>2026-04-18T06:39:08.444Z</time></trkpt><trkpt lat="45.579025" lon="9.1190617"><ele>175.0</ele><time>2026-04-18T06:39:10.443Z</time></trkpt><trkpt lat="45.5790983" lon="9.1190633"><ele>175.5</ele><time>2026-04-18T06:39:12.443Z</time></trkpt><trkpt lat="45.579195" lon="9.1190917"><ele>176.0</ele><time>2026-04-18T06:39:14.444Z</time></trkpt><trkpt lat="45.5792817" lon="9.1190833"><ele>176.5</ele><time>2026-04-18T06:39:16.444Z</time></trkpt><trkpt lat="45.5793583" lon="9.1191067"><ele>177.0</ele><time>2026-04-18T06:39:18.443Z</time></trkpt><trkpt lat="45.5794317" lon="9.1191"><ele>177.0</ele><time>2026-04-18T06:39:20.444Z</time></trkpt><trkpt lat="45.579495" lon="9.119085"><ele>177.0</ele><time>2026-04-18T06:39:24.443Z</time></trkpt><trkpt lat="45.5794933" lon="9.118975"><ele>177.0</ele><time>2026-04-18T06:39:27.443Z</time></trkpt><trkpt lat="45.5794883" lon="9.1188733"><ele>177.0</ele><time>2026-04-18T06:39:29.443Z</time></trkpt><trkpt lat="45.579495" lon="9.118765"><ele>177.0</ele><time>2026-04-18T06:39:31.443Z</time></trkpt><trkpt lat="45.5794483" lon="9.118685"><ele>177.0</ele><time>2026-04-18T06:39:34.444Z</time></trkpt><trkpt lat="45.5794633" lon="9.1185667"><ele>177.0</ele><time>2026-04-18T06:39:38.443Z</time></trkpt><trkpt lat="45.5795567" lon="9.1173167"><ele>178.39999999999998</ele><time>2026-04-18T06:39:56.443Z</time></trkpt><trkpt lat="45.5795233" lon="9.1171483"><ele>179.79999999999998</ele><time>2026-04-18T06:39:58.443Z</time></trkpt><trkpt lat="45.5795067" lon="9.1170467"><ele>181.2</ele><time>2026-04-18T06:40:00.444Z</time></trkpt><trkpt lat="45.5794467" lon="9.11697"><ele>182.6</ele><time>2026-04-18T06:40:02.444Z</time></trkpt><trkpt lat="45.5793833" lon="9.1168733"><ele>184.0</ele><time>2026-04-18T06:40:04.444Z</time></trkpt><trkpt lat="45.5793533" lon="9.1167583"><ele>184.16666666666669</ele><time>2026-04-18T06:40:06.444Z</time></trkpt><trkpt lat="45.5793417" lon="9.1166517"><ele>184.33333333333334</ele><time>2026-04-18T06:40:08.444Z</time></trkpt><trkpt lat="45.579375" lon="9.116555"><ele>184.5</ele><time>2026-04-18T06:40:09.444Z</time></trkpt><trkpt lat="45.579335" lon="9.11643"><ele>184.66666666666666</ele><time>2026-04-18T06:40:11.444Z</time></trkpt><trkpt lat="45.579385" lon="9.1162567"><ele>184.83333333333331</ele><time>2026-04-18T06:40:13.444Z</time></trkpt><trkpt lat="45.5794067" lon="9.1161717"><ele>185.0</ele><time>2026-04-18T06:40:14.445Z</time></trkpt><trkpt lat="45.57936" lon="9.1160217"><ele>183.2</ele><time>2026-04-18T06:40:16.444Z</time></trkpt><trkpt lat="45.5793117" lon="9.1159117"><ele>181.4</ele><time>2026-04-18T06:40:17.444Z</time></trkpt><trkpt lat="45.5793233" lon="9.1157583"><ele>179.60000000000002</ele><time>2026-04-18T06:40:19.444Z</time></trkpt><trkpt lat="45.57935" lon="9.1156083"><ele>177.8</ele><time>2026-04-18T06:40:21.444Z</time></trkpt><trkpt lat="45.5793367" lon="9.11546"><ele>176.0</ele><time>2026-04-18T06:40:23.443Z</time></trkpt><trkpt lat="45.5793467" lon="9.1153483"><ele>176.0</ele><time>2026-04-18T06:40:25.445Z</time></trkpt><trkpt lat="45.579365" lon="9.1152217"><ele>176.0</ele><time>2026-04-18T06:40:27.444Z</time></trkpt><trkpt lat="45.5794233" lon="9.1151117"><ele>176.0</ele><time>2026-04-18T06:40:29.444Z</time></trkpt><trkpt lat="45.5795167" lon="9.1150333"><ele>176.0</ele><time>2026-04-18T06:40:31.444Z</time></trkpt><trkpt lat="45.5796033" lon="9.1149633"><ele>176.0</ele><time>2026-04-18T06:40:33.444Z</time></trkpt><trkpt lat="45.5796817" lon="9.1149583"><ele>176.66666666666666</ele><time>2026-04-18T06:40:35.442Z</time></trkpt><trkpt lat="45.5797767" lon="9.1149767"><ele>177.33333333333331</ele><time>2026-04-18T06:40:37.442Z</time></trkpt><trkpt lat="45.5798533" lon="9.115"><ele>178.0</ele><time>2026-04-18T06:40:39.443Z</time></trkpt><trkpt lat="45.5799233" lon="9.1150267"><ele>178.66666666666666</ele><time>2026-04-18T06:40:41.442Z</time></trkpt><trkpt lat="45.5800217" lon="9.1149883"><ele>179.33333333333334</ele><time>2026-04-18T06:40:43.442Z</time></trkpt><trkpt lat="45.5800917" lon="9.1150067"><ele>180.0</ele><time>2026-04-18T06:40:45.443Z</time></trkpt><trkpt lat="45.58017" lon="9.114995"><ele>180.0</ele><time>2026-04-18T06:40:48.443Z</time></trkpt><trkpt lat="45.5802233" lon="9.11492"><ele>180.0</ele><time>2026-04-18T06:40:51.443Z</time></trkpt><trkpt lat="45.5802267" lon="9.1148283"><ele>180.0</ele><time>2026-04-18T06:40:53.443Z</time></trkpt><trkpt lat="45.58023" lon="9.1147183"><ele>180.0</ele><time>2026-04-18T06:40:55.444Z</time></trkpt><trkpt lat="45.5802367" lon="9.114605"><ele>180.0</ele><time>2026-04-18T06:40:58.444Z</time></trkpt><trkpt lat="45.5803117" lon="9.1145833"><ele>180.0</ele><time>2026-04-18T06:42:03.443Z</time></trkpt><trkpt lat="45.5804033" lon="9.1146"><ele>180.0</ele><time>2026-04-18T06:42:06.443Z</time></trkpt><trkpt lat="45.5804783" lon="9.1146067"><ele>180.0</ele><time>2026-04-18T06:42:08.444Z</time></trkpt><trkpt lat="45.5805667" lon="9.1146017"><ele>180.0</ele><time>2026-04-18T06:42:10.443Z</time></trkpt><trkpt lat="45.5806617" lon="9.11458"><ele>180.0</ele><time>2026-04-18T06:42:12.443Z</time></trkpt><trkpt lat="45.580765" lon="9.1145833"><ele>180.0</ele><time>2026-04-18T06:42:14.444Z</time></trkpt><trkpt lat="45.5808567" lon="9.11461"><ele>180.0</ele><time>2026-04-18T06:42:16.444Z</time></trkpt><trkpt lat="45.58094" lon="9.1146633"><ele>180.0</ele><time>2026-04-18T06:42:18.444Z</time></trkpt><trkpt lat="45.58101" lon="9.1147117"><ele>180.0</ele><time>2026-04-18T06:42:20.444Z</time></trkpt><trkpt lat="45.5810733" lon="9.114775"><ele>180.0</ele><time>2026-04-18T06:42:22.444Z</time></trkpt><trkpt lat="45.581135" lon="9.11484"><ele>180.0</ele><time>2026-04-18T06:42:24.444Z</time></trkpt><trkpt lat="45.58119" lon="9.114915"><ele>180.0</ele><time>2026-04-18T06:42:26.445Z</time></trkpt><trkpt lat="45.58125" lon="9.1149967"><ele>179.6</ele><time>2026-04-18T06:42:28.443Z</time></trkpt><trkpt lat="45.5813117" lon="9.1150917"><ele>179.2</ele><time>2026-04-18T06:42:30.444Z</time></trkpt><trkpt lat="45.5813767" lon="9.1152017"><ele>178.8</ele><time>2026-04-18T06:42:32.445Z</time></trkpt><trkpt lat="45.5814267" lon="9.1153267"><ele>178.4</ele><time>2026-04-18T06:42:34.444Z</time></trkpt><trkpt lat="45.5814767" lon="9.1154567"><ele>178.0</ele><time>2026-04-18T06:42:36.443Z</time></trkpt><trkpt lat="45.5815117" lon="9.1156067"><ele>179.0</ele><time>2026-04-18T06:42:38.444Z</time></trkpt><trkpt lat="45.5815483" lon="9.1157517"><ele>180.0</ele><time>2026-04-18T06:42:40.444Z</time></trkpt><trkpt lat="45.5815833" lon="9.115885"><ele>181.0</ele><time>2026-04-18T06:42:42.443Z</time></trkpt><trkpt lat="45.5816167" lon="9.1160267"><ele>182.0</ele><time>2026-04-18T06:42:44.443Z</time></trkpt><trkpt lat="45.5816567" lon="9.1161517"><ele>183.0</ele><time>2026-04-18T06:42:46.443Z</time></trkpt><trkpt lat="45.581685" lon="9.116285"><ele>183.0</ele><time>2026-04-18T06:42:48.444Z</time></trkpt><trkpt lat="45.5817083" lon="9.1164067"><ele>183.0</ele><time>2026-04-18T06:42:50.446Z</time></trkpt><trkpt lat="45.5817233" lon="9.1165217"><ele>183.0</ele><time>2026-04-18T06:42:52.443Z</time></trkpt><trkpt lat="45.5817633" lon="9.1166467"><ele>183.0</ele><time>2026-04-18T06:42:54.443Z</time></trkpt><trkpt lat="45.5818083" lon="9.11675"><ele>183.0</ele><time>2026-04-18T06:42:56.444Z</time></trkpt><trkpt lat="45.5818417" lon="9.1168683"><ele>183.0</ele><time>2026-04-18T06:42:58.443Z</time></trkpt><trkpt lat="45.5818717" lon="9.1170067"><ele>183.2</ele><time>2026-04-18T06:43:00.444Z</time></trkpt><trkpt lat="45.5818983" lon="9.117145"><ele>183.4</ele><time>2026-04-18T06:43:02.445Z</time></trkpt><trkpt lat="45.5819267" lon="9.11727"><ele>183.6</ele><time>2026-04-18T06:43:04.444Z</time></trkpt><trkpt lat="45.58195" lon="9.1173983"><ele>183.79999999999998</ele><time>2026-04-18T06:43:06.444Z</time></trkpt><trkpt lat="45.58197" lon="9.1175167"><ele>184.0</ele><time>2026-04-18T06:43:08.444Z</time></trkpt><trkpt lat="45.5819917" lon="9.117635"><ele>184.16666666666669</ele><time>2026-04-18T06:43:10.442Z</time></trkpt><trkpt lat="45.5820117" lon="9.117765"><ele>184.33333333333334</ele><time>2026-04-18T06:43:12.443Z</time></trkpt><trkpt lat="45.58205" lon="9.1178767"><ele>184.5</ele><time>2026-04-18T06:43:14.445Z</time></trkpt><trkpt lat="45.5820967" lon="9.1179717"><ele>184.66666666666666</ele><time>2026-04-18T06:43:16.444Z</time></trkpt><trkpt lat="45.5821417" lon="9.118065"><ele>184.83333333333331</ele><time>2026-04-18T06:43:18.444Z</time></trkpt><trkpt lat="45.582195" lon="9.1181617"><ele>185.0</ele><time>2026-04-18T06:43:20.444Z</time></trkpt><trkpt lat="45.58226" lon="9.1182417"><ele>185.0</ele><time>2026-04-18T06:43:22.444Z</time></trkpt><trkpt lat="45.5823217" lon="9.1182983"><ele>185.0</ele><time>2026-04-18T06:43:24.443Z</time></trkpt><trkpt lat="45.5824033" lon="9.1183317"><ele>185.0</ele><time>2026-04-18T06:43:27.443Z</time></trkpt><trkpt lat="45.58246" lon="9.11827"><ele>185.0</ele><time>2026-04-18T06:43:30.444Z</time></trkpt><trkpt lat="45.5824917" lon="9.118155"><ele>185.0</ele><time>2026-04-18T06:43:33.445Z</time></trkpt><trkpt lat="45.5825317" lon="9.1180733"><ele>185.0</ele><time>2026-04-18T06:43:36.444Z</time></trkpt><trkpt lat="45.5825133" lon="9.1181917"><ele>184.33333333333331</ele><time>2026-04-18T06:43:52.444Z</time></trkpt><trkpt lat="45.5824817" lon="9.1182833"><ele>183.66666666666666</ele><time>2026-04-18T06:43:54.444Z</time></trkpt><trkpt lat="45.58246" lon="9.1183783"><ele>183.0</ele><time>2026-04-18T06:43:56.445Z</time></trkpt><trkpt lat="45.5824433" lon="9.118485"><ele>182.33333333333334</ele><time>2026-04-18T06:43:58.444Z</time></trkpt><trkpt lat="45.5824183" lon="9.1185733"><ele>181.66666666666669</ele><time>2026-04-18T06:44:00.444Z</time></trkpt><trkpt lat="45.5824383" lon="9.1186933"><ele>181.0</ele><time>2026-04-18T06:44:03.444Z</time></trkpt><trkpt lat="45.582525" lon="9.118735"><ele>181.0</ele><time>2026-04-18T06:44:05.443Z</time></trkpt><trkpt lat="45.5826383" lon="9.11876"><ele>181.0</ele><time>2026-04-18T06:44:07.443Z</time></trkpt><trkpt lat="45.582735" lon="9.11881"><ele>181.0</ele><time>2026-04-18T06:44:09.443Z</time></trkpt><trkpt lat="45.5828367" lon="9.118845"><ele>181.0</ele><time>2026-04-18T06:44:11.443Z</time></trkpt><trkpt lat="45.58294" lon="9.1188683"><ele>181.0</ele><time>2026-04-18T06:44:13.444Z</time></trkpt><trkpt lat="45.583045" lon="9.1188717"><ele>181.20000000000002</ele><time>2026-04-18T06:44:15.443Z</time></trkpt><trkpt lat="45.5831467" lon="9.118875"><ele>181.4</ele><time>2026-04-18T06:44:17.443Z</time></trkpt><trkpt lat="45.583255" lon="9.1188683"><ele>181.6</ele><time>2026-04-18T06:44:19.444Z</time></trkpt><trkpt lat="45.5833617" lon="9.1188683"><ele>181.8</ele><time>2026-04-18T06:44:21.445Z</time></trkpt><trkpt lat="45.5834633" lon="9.1188717"><ele>182.0</ele><time>2026-04-18T06:44:23.443Z</time></trkpt><trkpt lat="45.5835633" lon="9.118865"><ele>182.0</ele><time>2026-04-18T06:44:25.445Z</time></trkpt><trkpt lat="45.5836567" lon="9.118875"><ele>182.0</ele><time>2026-04-18T06:44:27.444Z</time></trkpt><trkpt lat="45.583755" lon="9.1188833"><ele>182.0</ele><time>2026-04-18T06:44:29.444Z</time></trkpt><trkpt lat="45.583835" lon="9.1188983"><ele>182.0</ele><time>2026-04-18T06:44:31.443Z</time></trkpt><trkpt lat="45.58393" lon="9.1188883"><ele>182.0</ele><time>2026-04-18T06:44:33.443Z</time></trkpt><trkpt lat="45.5840283" lon="9.1188667"><ele>181.66666666666666</ele><time>2026-04-18T06:44:35.444Z</time></trkpt><trkpt lat="45.584125" lon="9.1188633"><ele>181.33333333333331</ele><time>2026-04-18T06:44:37.444Z</time></trkpt><trkpt lat="45.5842133" lon="9.1188617"><ele>181.0</ele><time>2026-04-18T06:44:39.444Z</time></trkpt><trkpt lat="45.58428" lon="9.1188633"><ele>180.66666666666666</ele><time>2026-04-18T06:44:41.444Z</time></trkpt><trkpt lat="45.5843667" lon="9.1188567"><ele>180.33333333333334</ele><time>2026-04-18T06:44:43.444Z</time></trkpt><trkpt lat="45.5844633" lon="9.11885"><ele>180.0</ele><time>2026-04-18T06:44:45.444Z</time></trkpt><trkpt lat="45.5845767" lon="9.11883"><ele>180.0</ele><time>2026-04-18T06:44:47.443Z</time></trkpt><trkpt lat="45.5846933" lon="9.118795"><ele>180.0</ele><time>2026-04-18T06:44:49.444Z</time></trkpt><trkpt lat="45.5848117" lon="9.118765"><ele>180.0</ele><time>2026-04-18T06:44:51.444Z</time></trkpt><trkpt lat="45.584935" lon="9.1187333"><ele>180.0</ele><time>2026-04-18T06:44:53.443Z</time></trkpt><trkpt lat="45.5850083" lon="9.11871"><ele>180.0</ele><time>2026-04-18T06:44:54.443Z</time></trkpt><trkpt lat="45.5850783" lon="9.1186917"><ele>180.0</ele><time>2026-04-18T06:44:55.443Z</time></trkpt><trkpt lat="45.5851417" lon="9.1186733"><ele>180.0</ele><time>2026-04-18T06:44:56.445Z</time></trkpt><trkpt lat="45.5852067" lon="9.11866"><ele>180.0</ele><time>2026-04-18T06:44:57.444Z</time></trkpt><trkpt lat="45.5853317" lon="9.118645"><ele>180.0</ele><time>2026-04-18T06:44:59.444Z</time></trkpt><trkpt lat="45.585445" lon="9.11864"><ele>180.0</ele><time>2026-04-18T06:45:01.445Z</time></trkpt><trkpt lat="45.5855567" lon="9.1186467"><ele>180.2</ele><time>2026-04-18T06:45:03.444Z</time></trkpt><trkpt lat="45.5856683" lon="9.1186717"><ele>180.4</ele><time>2026-04-18T06:45:05.444Z</time></trkpt><trkpt lat="45.5857783" lon="9.1187"><ele>180.60000000000002</ele><time>2026-04-18T06:45:07.443Z</time></trkpt><trkpt lat="45.5858817" lon="9.11873"><ele>180.8</ele><time>2026-04-18T06:45:09.444Z</time></trkpt><trkpt lat="45.5859967" lon="9.118755"><ele>181.0</ele><time>2026-04-18T06:45:11.444Z</time></trkpt><trkpt lat="45.5861133" lon="9.118795"><ele>180.8</ele><time>2026-04-18T06:45:13.443Z</time></trkpt><trkpt lat="45.586225" lon="9.1188333"><ele>180.60000000000002</ele><time>2026-04-18T06:45:15.443Z</time></trkpt><trkpt lat="45.58633" lon="9.1188667"><ele>180.4</ele><time>2026-04-18T06:45:17.444Z</time></trkpt><trkpt lat="45.586425" lon="9.11891"><ele>180.2</ele><time>2026-04-18T06:45:19.444Z</time></trkpt><trkpt lat="45.5865317" lon="9.1189567"><ele>180.0</ele><time>2026-04-18T06:45:21.443Z</time></trkpt><trkpt lat="45.5866333" lon="9.1189967"><ele>180.0</ele><time>2026-04-18T06:45:23.445Z</time></trkpt><trkpt lat="45.5867433" lon="9.119025"><ele>180.0</ele><time>2026-04-18T06:45:25.442Z</time></trkpt><trkpt lat="45.58686" lon="9.1190617"><ele>180.0</ele><time>2026-04-18T06:45:27.442Z</time></trkpt><trkpt lat="45.5869617" lon="9.1191017"><ele>180.0</ele><time>2026-04-18T06:45:29.443Z</time></trkpt><trkpt lat="45.587055" lon="9.1191667"><ele>180.0</ele><time>2026-04-18T06:45:31.443Z</time></trkpt><trkpt lat="45.5871467" lon="9.1192333"><ele>179.33333333333334</ele><time>2026-04-18T06:45:33.443Z</time></trkpt><trkpt lat="45.587225" lon="9.1192917"><ele>178.66666666666666</ele><time>2026-04-18T06:45:35.442Z</time></trkpt><trkpt lat="45.587305" lon="9.1193483"><ele>178.0</ele><time>2026-04-18T06:45:37.443Z</time></trkpt><trkpt lat="45.587375" lon="9.1194167"><ele>177.33333333333331</ele><time>2026-04-18T06:45:39.443Z</time></trkpt><trkpt lat="45.587445" lon="9.1194933"><ele>176.66666666666666</ele><time>2026-04-18T06:45:41.443Z</time></trkpt><trkpt lat="45.587515" lon="9.1195533"><ele>176.0</ele><time>2026-04-18T06:45:43.442Z</time></trkpt><trkpt lat="45.58759" lon="9.1195983"><ele>176.0</ele><time>2026-04-18T06:45:45.442Z</time></trkpt><trkpt lat="45.5876317" lon="9.1196717"><ele>176.0</ele><time>2026-04-18T06:45:47.443Z</time></trkpt><trkpt lat="45.5876667" lon="9.1197617"><ele>176.0</ele><time>2026-04-18T06:45:49.443Z</time></trkpt><trkpt lat="45.58774" lon="9.119725"><ele>176.0</ele><time>2026-04-18T06:45:53.444Z</time></trkpt><trkpt lat="45.58779" lon="9.11962"><ele>176.0</ele><time>2026-04-18T06:45:56.443Z</time></trkpt><trkpt lat="45.5878317" lon="9.119535"><ele>176.0</ele><time>2026-04-18T06:45:58.443Z</time></trkpt><trkpt lat="45.587895" lon="9.1194367"><ele>175.66666666666666</ele><time>2026-04-18T06:46:01.444Z</time></trkpt><trkpt lat="45.5879367" lon="9.11936"><ele>175.33333333333331</ele><time>2026-04-18T06:46:03.443Z</time></trkpt><trkpt lat="45.5879833" lon="9.1192817"><ele>175.0</ele><time>2026-04-18T06:46:07.442Z</time></trkpt><trkpt lat="45.588005" lon="9.1191883"><ele>174.66666666666666</ele><time>2026-04-18T06:46:44.445Z</time></trkpt><trkpt lat="45.5879567" lon="9.11909"><ele>174.33333333333334</ele><time>2026-04-18T06:46:48.443Z</time></trkpt><trkpt lat="45.5878883" lon="9.1190433"><ele>174.0</ele><time>2026-04-18T06:46:50.445Z</time></trkpt><trkpt lat="45.5878167" lon="9.1189667"><ele>175.0</ele><time>2026-04-18T06:46:52.443Z</time></trkpt><trkpt lat="45.5877567" lon="9.11888"><ele>176.0</ele><time>2026-04-18T06:46:54.443Z</time></trkpt><trkpt lat="45.587715" lon="9.1187733"><ele>177.0</ele><time>2026-04-18T06:46:56.442Z</time></trkpt><trkpt lat="45.587685" lon="9.1186567"><ele>178.0</ele><time>2026-04-18T06:46:58.444Z</time></trkpt><trkpt lat="45.5876783" lon="9.1185067"><ele>179.0</ele><time>2026-04-18T06:47:00.443Z</time></trkpt><trkpt lat="45.5876817" lon="9.1183583"><ele>180.39999999999998</ele><time>2026-04-18T06:47:02.443Z</time></trkpt><trkpt lat="45.5876883" lon="9.1182167"><ele>181.8</ele><time>2026-04-18T06:47:04.444Z</time></trkpt><trkpt lat="45.5877" lon="9.1180617"><ele>183.2</ele><time>2026-04-18T06:47:06.442Z</time></trkpt><trkpt lat="45.58771" lon="9.1179"><ele>184.60000000000002</ele><time>2026-04-18T06:47:08.445Z</time></trkpt><trkpt lat="45.5877117" lon="9.1177483"><ele>186.0</ele><time>2026-04-18T06:47:10.444Z</time></trkpt><trkpt lat="45.5877067" lon="9.1176117"><ele>186.0</ele><time>2026-04-18T06:47:12.443Z</time></trkpt><trkpt lat="45.587715" lon="9.1175083"><ele>186.0</ele><time>2026-04-18T06:47:14.443Z</time></trkpt><trkpt lat="45.5877367" lon="9.117395"><ele>186.0</ele><time>2026-04-18T06:47:16.442Z</time></trkpt><trkpt lat="45.5877433" lon="9.1172633"><ele>186.0</ele><time>2026-04-18T06:47:18.443Z</time></trkpt><trkpt lat="45.587725" lon="9.1171433"><ele>186.0</ele><time>2026-04-18T06:47:20.444Z</time></trkpt><trkpt lat="45.5877017" lon="9.1170317"><ele>186.0</ele><time>2026-04-18T06:47:22.445Z</time></trkpt><trkpt lat="45.5876583" lon="9.1169183"><ele>186.00000000000003</ele><time>2026-04-18T06:47:24.442Z</time></trkpt><trkpt lat="45.5876133" lon="9.1168167"><ele>186.0</ele><time>2026-04-18T06:47:26.444Z</time></trkpt><trkpt lat="45.5875767" lon="9.116725"><ele>186.0</ele><time>2026-04-18T06:47:28.443Z</time></trkpt><trkpt lat="45.58755" lon="9.1166433"><ele>186.0</ele><time>2026-04-18T06:47:30.442Z</time></trkpt><trkpt lat="45.58753" lon="9.116555"><ele>186.0</ele><time>2026-04-18T06:47:32.445Z</time></trkpt><trkpt lat="45.5875017" lon="9.1164717"><ele>186.00000000000003</ele><time>2026-04-18T06:47:34.444Z</time></trkpt><trkpt lat="45.5874667" lon="9.1163917"><ele>186.0</ele><time>2026-04-18T06:47:36.443Z</time></trkpt><trkpt lat="45.58744" lon="9.1162933"><ele>186.00000000000003</ele><time>2026-04-18T06:47:39.442Z</time></trkpt><trkpt lat="45.5874083" lon="9.1162067"><ele>186.0</ele><time>2026-04-18T06:47:41.444Z</time></trkpt><trkpt lat="45.587365" lon="9.11612"><ele>186.0</ele><time>2026-04-18T06:47:43.443Z</time></trkpt><trkpt lat="45.5873283" lon="9.1160383"><ele>186.0</ele><time>2026-04-18T06:47:45.442Z</time></trkpt><trkpt lat="45.58729" lon="9.1159217"><ele>186.0</ele><time>2026-04-18T06:47:48.443Z</time></trkpt><trkpt lat="45.5872767" lon="9.11583"><ele>186.00000000000003</ele><time>2026-04-18T06:47:50.444Z</time></trkpt><trkpt lat="45.587285" lon="9.1157317"><ele>186.0</ele><time>2026-04-18T06:47:52.444Z</time></trkpt><trkpt lat="45.587285" lon="9.1156133"><ele>185.60000000000002</ele><time>2026-04-18T06:47:54.443Z</time></trkpt><trkpt lat="45.5872983" lon="9.1155067"><ele>185.2</ele><time>2026-04-18T06:47:56.444Z</time></trkpt><trkpt lat="45.5872833" lon="9.1153533"><ele>184.8</ele><time>2026-04-18T06:47:58.444Z</time></trkpt><trkpt lat="45.5873167" lon="9.115185"><ele>184.39999999999998</ele><time>2026-04-18T06:48:00.443Z</time></trkpt><trkpt lat="45.58735" lon="9.1150533"><ele>184.0</ele><time>2026-04-18T06:48:01.443Z</time></trkpt><trkpt lat="45.58737" lon="9.1149483"><ele>183.5</ele><time>2026-04-18T06:48:02.443Z</time></trkpt><trkpt lat="45.587385" lon="9.1148483"><ele>183.0</ele><time>2026-04-18T06:48:03.443Z</time></trkpt><trkpt lat="45.5873883" lon="9.1147533"><ele>182.5</ele><time>2026-04-18T06:48:04.444Z</time></trkpt><trkpt lat="45.5873883" lon="9.11466"><ele>182.0</ele><time>2026-04-18T06:48:05.443Z</time></trkpt><trkpt lat="45.5873967" lon="9.1144983"><ele>181.5</ele><time>2026-04-18T06:48:07.443Z</time></trkpt><trkpt lat="45.5873833" lon="9.1143367"><ele>181.0</ele><time>2026-04-18T06:48:09.442Z</time></trkpt><trkpt lat="45.5873533" lon="9.1141833"><ele>181.0</ele><time>2026-04-18T06:48:11.444Z</time></trkpt><trkpt lat="45.5873233" lon="9.1141"><ele>181.0</ele><time>2026-04-18T06:48:12.442Z</time></trkpt><trkpt lat="45.5873017" lon="9.114015"><ele>181.0</ele><time>2026-04-18T06:48:13.443Z</time></trkpt><trkpt lat="45.58724" lon="9.1138667"><ele>181.0</ele><time>2026-04-18T06:48:15.443Z</time></trkpt><trkpt lat="45.587195" lon="9.1137883"><ele>181.0</ele><time>2026-04-18T06:48:16.444Z</time></trkpt><trkpt lat="45.58716" lon="9.1137117"><ele>181.0</ele><time>2026-04-18T06:48:17.443Z</time></trkpt><trkpt lat="45.58711" lon="9.1135533"><ele>181.8</ele><time>2026-04-18T06:48:19.442Z</time></trkpt><trkpt lat="45.587065" lon="9.1133983"><ele>182.60000000000002</ele><time>2026-04-18T06:48:21.443Z</time></trkpt><trkpt lat="45.5870683" lon="9.113245"><ele>183.4</ele><time>2026-04-18T06:48:23.444Z</time></trkpt><trkpt lat="45.587125" lon="9.1131217"><ele>184.2</ele><time>2026-04-18T06:48:25.442Z</time></trkpt><trkpt lat="45.5872183" lon="9.113045"><ele>185.0</ele><time>2026-04-18T06:48:27.442Z</time></trkpt><trkpt lat="45.5873083" lon="9.1129833"><ele>185.33333333333331</ele><time>2026-04-18T06:48:29.444Z</time></trkpt><trkpt lat="45.587385" lon="9.1129317"><ele>185.66666666666666</ele><time>2026-04-18T06:48:31.443Z</time></trkpt><trkpt lat="45.5874733" lon="9.1128767"><ele>186.0</ele><time>2026-04-18T06:48:33.443Z</time></trkpt><trkpt lat="45.5875383" lon="9.112805"><ele>186.33333333333334</ele><time>2026-04-18T06:48:35.443Z</time></trkpt><trkpt lat="45.5875967" lon="9.1127033"><ele>186.66666666666669</ele><time>2026-04-18T06:48:37.443Z</time></trkpt><trkpt lat="45.5876383" lon="9.1125867"><ele>187.0</ele><time>2026-04-18T06:48:39.443Z</time></trkpt><trkpt lat="45.5876633" lon="9.1124583"><ele>186.83333333333334</ele><time>2026-04-18T06:48:41.444Z</time></trkpt><trkpt lat="45.58769" lon="9.112345"><ele>186.66666666666669</ele><time>2026-04-18T06:48:43.444Z</time></trkpt><trkpt lat="45.58771" lon="9.1122233"><ele>186.5</ele><time>2026-04-18T06:48:45.443Z</time></trkpt><trkpt lat="45.5877333" lon="9.1121167"><ele>186.33333333333334</ele><time>2026-04-18T06:48:47.442Z</time></trkpt><trkpt lat="45.587755" lon="9.1120233"><ele>186.16666666666666</ele><time>2026-04-18T06:48:49.443Z</time></trkpt><trkpt lat="45.587775" lon="9.1119283"><ele>186.0</ele><time>2026-04-18T06:48:51.443Z</time></trkpt><trkpt lat="45.5877967" lon="9.1118333"><ele>186.0</ele><time>2026-04-18T06:48:53.443Z</time></trkpt><trkpt lat="45.587835" lon="9.1117033"><ele>186.0</ele><time>2026-04-18T06:48:56.444Z</time></trkpt><trkpt lat="45.5878617" lon="9.1116083"><ele>186.0</ele><time>2026-04-18T06:48:58.444Z</time></trkpt><trkpt lat="45.5878783" lon="9.1115067"><ele>186.0</ele><time>2026-04-18T06:49:00.444Z</time></trkpt><trkpt lat="45.58791" lon="9.111385"><ele>186.0</ele><time>2026-04-18T06:49:02.445Z</time></trkpt><trkpt lat="45.5879417" lon="9.1112767"><ele>186.0</ele><time>2026-04-18T06:49:04.444Z</time></trkpt><trkpt lat="45.5879617" lon="9.1111633"><ele>186.16666666666666</ele><time>2026-04-18T06:49:06.444Z</time></trkpt><trkpt lat="45.5879817" lon="9.111055"><ele>186.33333333333334</ele><time>2026-04-18T06:49:08.445Z</time></trkpt><trkpt lat="45.5880017" lon="9.1109367"><ele>186.5</ele><time>2026-04-18T06:49:10.443Z</time></trkpt><trkpt lat="45.5880267" lon="9.1108383"><ele>186.66666666666669</ele><time>2026-04-18T06:49:12.442Z</time></trkpt><trkpt lat="45.5880567" lon="9.110735"><ele>186.83333333333334</ele><time>2026-04-18T06:49:14.443Z</time></trkpt><trkpt lat="45.5880867" lon="9.1106183"><ele>187.0</ele><time>2026-04-18T06:49:16.443Z</time></trkpt><trkpt lat="45.58811" lon="9.1104967"><ele>186.6</ele><time>2026-04-18T06:49:18.443Z</time></trkpt><trkpt lat="45.5881367" lon="9.11037"><ele>186.2</ele><time>2026-04-18T06:49:20.444Z</time></trkpt><trkpt lat="45.58816" lon="9.1102417"><ele>185.8</ele><time>2026-04-18T06:49:22.444Z</time></trkpt><trkpt lat="45.5881867" lon="9.110095"><ele>185.4</ele><time>2026-04-18T06:49:24.444Z</time></trkpt><trkpt lat="45.5882133" lon="9.1099817"><ele>185.0</ele><time>2026-04-18T06:49:26.445Z</time></trkpt><trkpt lat="45.588235" lon="9.1098617"><ele>185.0</ele><time>2026-04-18T06:49:28.443Z</time></trkpt><trkpt lat="45.58826" lon="9.1097233"><ele>185.0</ele><time>2026-04-18T06:49:30.444Z</time></trkpt><trkpt lat="45.58829" lon="9.1096083"><ele>185.0</ele><time>2026-04-18T06:49:32.445Z</time></trkpt><trkpt lat="45.5882967" lon="9.10951"><ele>185.0</ele><time>2026-04-18T06:49:34.443Z</time></trkpt><trkpt lat="45.58828" lon="9.1094"><ele>185.0</ele><time>2026-04-18T06:49:37.444Z</time></trkpt><trkpt lat="45.58832" lon="9.1093133"><ele>185.0</ele><time>2026-04-18T06:49:40.444Z</time></trkpt><trkpt lat="45.5883783" lon="9.1092067"><ele>184.99999999999997</ele><time>2026-04-18T06:49:43.444Z</time></trkpt><trkpt lat="45.58841" lon="9.1091167"><ele>185.0</ele><time>2026-04-18T06:49:45.444Z</time></trkpt><trkpt lat="45.588445" lon="9.1090367"><ele>185.0</ele><time>2026-04-18T06:49:47.443Z</time></trkpt><trkpt lat="45.58849" lon="9.108955"><ele>185.0</ele><time>2026-04-18T06:49:49.445Z</time></trkpt><trkpt lat="45.5885367" lon="9.1088617"><ele>185.0</ele><time>2026-04-18T06:49:51.444Z</time></trkpt><trkpt lat="45.588585" lon="9.1087733"><ele>184.99999999999997</ele><time>2026-04-18T06:49:53.444Z</time></trkpt><trkpt lat="45.5886233" lon="9.108685"><ele>185.0</ele><time>2026-04-18T06:49:55.444Z</time></trkpt><trkpt lat="45.58866" lon="9.1086033"><ele>185.0</ele><time>2026-04-18T06:49:57.444Z</time></trkpt><trkpt lat="45.5887167" lon="9.1085017"><ele>185.0</ele><time>2026-04-18T06:50:00.444Z</time></trkpt><trkpt lat="45.5887483" lon="9.10842"><ele>185.0</ele><time>2026-04-18T06:50:02.445Z</time></trkpt><trkpt lat="45.5887917" lon="9.1083367"><ele>185.0</ele><time>2026-04-18T06:50:04.443Z</time></trkpt><trkpt lat="45.5888383" lon="9.1082433"><ele>185.0</ele><time>2026-04-18T06:50:06.445Z</time></trkpt><trkpt lat="45.5888817" lon="9.1081433"><ele>185.0</ele><time>2026-04-18T06:50:08.444Z</time></trkpt><trkpt lat="45.5889217" lon="9.10804"><ele>185.0</ele><time>2026-04-18T06:50:10.443Z</time></trkpt><trkpt lat="45.5889767" lon="9.1079383"><ele>185.0</ele><time>2026-04-18T06:50:12.444Z</time></trkpt><trkpt lat="45.5890417" lon="9.1078283"><ele>185.0</ele><time>2026-04-18T06:50:14.444Z</time></trkpt><trkpt lat="45.5890983" lon="9.1077133"><ele>185.0</ele><time>2026-04-18T06:50:16.444Z</time></trkpt><trkpt lat="45.5891483" lon="9.1076"><ele>185.0</ele><time>2026-04-18T06:50:18.445Z</time></trkpt><trkpt lat="45.5891933" lon="9.1074817"><ele>185.6</ele><time>2026-04-18T06:50:20.445Z</time></trkpt><trkpt lat="45.5892467" lon="9.107365"><ele>186.2</ele><time>2026-04-18T06:50:22.444Z</time></trkpt><trkpt lat="45.5892983" lon="9.1072433"><ele>186.8</ele><time>2026-04-18T06:50:24.444Z</time></trkpt><trkpt lat="45.5893583" lon="9.1071383"><ele>187.4</ele><time>2026-04-18T06:50:26.445Z</time></trkpt><trkpt lat="45.589415" lon="9.1070367"><ele>188.0</ele><time>2026-04-18T06:50:28.443Z</time></trkpt><trkpt lat="45.5894767" lon="9.106935"><ele>187.8</ele><time>2026-04-18T06:50:30.445Z</time></trkpt><trkpt lat="45.589535" lon="9.1068267"><ele>187.60000000000002</ele><time>2026-04-18T06:50:32.444Z</time></trkpt><trkpt lat="45.589595" lon="9.10671"><ele>187.39999999999998</ele><time>2026-04-18T06:50:34.445Z</time></trkpt><trkpt lat="45.5896367" lon="9.1065817"><ele>187.2</ele><time>2026-04-18T06:50:36.444Z</time></trkpt><trkpt lat="45.589695" lon="9.1064633"><ele>187.0</ele><time>2026-04-18T06:50:38.445Z</time></trkpt><trkpt lat="45.58976" lon="9.1063467"><ele>186.8</ele><time>2026-04-18T06:50:40.444Z</time></trkpt><trkpt lat="45.58982" lon="9.1062283"><ele>186.6</ele><time>2026-04-18T06:50:42.445Z</time></trkpt><trkpt lat="45.5898783" lon="9.10611"><ele>186.4</ele><time>2026-04-18T06:50:44.444Z</time></trkpt><trkpt lat="45.5899383" lon="9.1059867"><ele>186.20000000000002</ele><time>2026-04-18T06:50:46.444Z</time></trkpt><trkpt lat="45.5899967" lon="9.10588"><ele>186.0</ele><time>2026-04-18T06:50:48.444Z</time></trkpt><trkpt lat="45.590055" lon="9.105775"><ele>186.0</ele><time>2026-04-18T06:50:50.444Z</time></trkpt><trkpt lat="45.59011" lon="9.1056633"><ele>186.0</ele><time>2026-04-18T06:50:52.444Z</time></trkpt><trkpt lat="45.5901567" lon="9.1055417"><ele>186.0</ele><time>2026-04-18T06:50:54.444Z</time></trkpt><trkpt lat="45.5902" lon="9.1054217"><ele>186.0</ele><time>2026-04-18T06:50:56.444Z</time></trkpt><trkpt lat="45.5902433" lon="9.1053"><ele>186.0</ele><time>2026-04-18T06:50:58.444Z</time></trkpt><trkpt lat="45.5903033" lon="9.10519"><ele>186.0</ele><time>2026-04-18T06:51:00.443Z</time></trkpt><trkpt lat="45.59036" lon="9.1050733"><ele>186.0</ele><time>2026-04-18T06:51:02.444Z</time></trkpt><trkpt lat="45.5904133" lon="9.1049583"><ele>186.0</ele><time>2026-04-18T06:51:04.443Z</time></trkpt><trkpt lat="45.5904583" lon="9.1048333"><ele>186.0</ele><time>2026-04-18T06:51:06.444Z</time></trkpt><trkpt lat="45.5905067" lon="9.10472"><ele>186.0</ele><time>2026-04-18T06:51:08.445Z</time></trkpt><trkpt lat="45.590555" lon="9.1046133"><ele>186.20000000000002</ele><time>2026-04-18T06:51:10.445Z</time></trkpt><trkpt lat="45.5906067" lon="9.1044967"><ele>186.4</ele><time>2026-04-18T06:51:12.444Z</time></trkpt><trkpt lat="45.5906567" lon="9.10439"><ele>186.6</ele><time>2026-04-18T06:51:14.445Z</time></trkpt><trkpt lat="45.5907017" lon="9.1042867"><ele>186.8</ele><time>2026-04-18T06:51:16.443Z</time></trkpt><trkpt lat="45.5907483" lon="9.10418"><ele>187.0</ele><time>2026-04-18T06:51:18.444Z</time></trkpt><trkpt lat="45.590805" lon="9.1040733"><ele>187.16666666666669</ele><time>2026-04-18T06:51:20.445Z</time></trkpt><trkpt lat="45.59086" lon="9.10398"><ele>187.33333333333334</ele><time>2026-04-18T06:51:22.445Z</time></trkpt><trkpt lat="45.5909167" lon="9.10388"><ele>187.5</ele><time>2026-04-18T06:51:24.443Z</time></trkpt><trkpt lat="45.59097" lon="9.103775"><ele>187.66666666666666</ele><time>2026-04-18T06:51:26.445Z</time></trkpt><trkpt lat="45.591025" lon="9.1036767"><ele>187.83333333333331</ele><time>2026-04-18T06:51:28.444Z</time></trkpt><trkpt lat="45.5910783" lon="9.1035883"><ele>188.0</ele><time>2026-04-18T06:51:30.443Z</time></trkpt><trkpt lat="45.59113" lon="9.103495"><ele>188.0</ele><time>2026-04-18T06:51:32.444Z</time></trkpt><trkpt lat="45.5911733" lon="9.1033967"><ele>188.0</ele><time>2026-04-18T06:51:34.445Z</time></trkpt><trkpt lat="45.5912233" lon="9.1033033"><ele>188.0</ele><time>2026-04-18T06:51:36.443Z</time></trkpt><trkpt lat="45.5912817" lon="9.1032333"><ele>188.0</ele><time>2026-04-18T06:51:38.443Z</time></trkpt><trkpt lat="45.5913367" lon="9.1031667"><ele>188.0</ele><time>2026-04-18T06:51:40.444Z</time></trkpt><trkpt lat="45.59141" lon="9.10308"><ele>188.0</ele><time>2026-04-18T06:51:43.443Z</time></trkpt><trkpt lat="45.5914617" lon="9.1030117"><ele>187.83333333333331</ele><time>2026-04-18T06:51:45.444Z</time></trkpt><trkpt lat="45.5915483" lon="9.1029567"><ele>187.66666666666666</ele><time>2026-04-18T06:51:48.444Z</time></trkpt><trkpt lat="45.5916133" lon="9.10292"><ele>187.5</ele><time>2026-04-18T06:51:50.443Z</time></trkpt><trkpt lat="45.59168" lon="9.1029"><ele>187.33333333333334</ele><time>2026-04-18T06:51:52.444Z</time></trkpt><trkpt lat="45.591755" lon="9.1028933"><ele>187.16666666666669</ele><time>2026-04-18T06:51:54.443Z</time></trkpt><trkpt lat="45.5918217" lon="9.1028767"><ele>187.0</ele><time>2026-04-18T06:51:56.443Z</time></trkpt><trkpt lat="45.5919067" lon="9.1028733"><ele>187.0</ele><time>2026-04-18T06:51:59.445Z</time></trkpt><trkpt lat="45.591985" lon="9.102875"><ele>187.0</ele><time>2026-04-18T06:52:02.444Z</time></trkpt><trkpt lat="45.59205" lon="9.1028533"><ele>187.0</ele><time>2026-04-18T06:52:04.444Z</time></trkpt><trkpt lat="45.5921517" lon="9.1028333"><ele>187.0</ele><time>2026-04-18T06:52:07.444Z</time></trkpt><trkpt lat="45.5922367" lon="9.1028217"><ele>187.0</ele><time>2026-04-18T06:52:09.443Z</time></trkpt><trkpt lat="45.592325" lon="9.1027867"><ele>187.0</ele><time>2026-04-18T06:52:11.444Z</time></trkpt><trkpt lat="45.5924033" lon="9.1027633"><ele>187.33333333333334</ele><time>2026-04-18T06:52:13.445Z</time></trkpt><trkpt lat="45.5924767" lon="9.1027533"><ele>187.66666666666669</ele><time>2026-04-18T06:52:15.443Z</time></trkpt><trkpt lat="45.592555" lon="9.1027367"><ele>188.0</ele><time>2026-04-18T06:52:17.445Z</time></trkpt><trkpt lat="45.5926283" lon="9.1027267"><ele>188.33333333333334</ele><time>2026-04-18T06:52:19.444Z</time></trkpt><trkpt lat="45.5926983" lon="9.10271"><ele>188.66666666666666</ele><time>2026-04-18T06:52:21.443Z</time></trkpt><trkpt lat="45.592775" lon="9.1027"><ele>189.0</ele><time>2026-04-18T06:52:23.443Z</time></trkpt><trkpt lat="45.5928633" lon="9.1026817"><ele>189.2</ele><time>2026-04-18T06:52:25.444Z</time></trkpt><trkpt lat="45.592955" lon="9.1026633"><ele>189.39999999999998</ele><time>2026-04-18T06:52:27.443Z</time></trkpt><trkpt lat="45.5930533" lon="9.102655"><ele>189.6</ele><time>2026-04-18T06:52:29.445Z</time></trkpt><trkpt lat="45.5931467" lon="9.1026517"><ele>189.8</ele><time>2026-04-18T06:52:31.445Z</time></trkpt><trkpt lat="45.593235" lon="9.1026383"><ele>190.0</ele><time>2026-04-18T06:52:33.444Z</time></trkpt><trkpt lat="45.593315" lon="9.1026283"><ele>190.0</ele><time>2026-04-18T06:52:35.443Z</time></trkpt><trkpt lat="45.5934033" lon="9.1026217"><ele>190.0</ele><time>2026-04-18T06:52:37.444Z</time></trkpt><trkpt lat="45.5934867" lon="9.1026183"><ele>190.0</ele><time>2026-04-18T06:52:39.444Z</time></trkpt><trkpt lat="45.5935767" lon="9.1026167"><ele>190.0</ele><time>2026-04-18T06:52:41.443Z</time></trkpt><trkpt lat="45.59367" lon="9.1026067"><ele>190.0</ele><time>2026-04-18T06:52:43.445Z</time></trkpt><trkpt lat="45.5937617" lon="9.102605"><ele>190.0</ele><time>2026-04-18T06:52:45.444Z</time></trkpt><trkpt lat="45.59385" lon="9.1026133"><ele>189.83333333333334</ele><time>2026-04-18T06:52:47.444Z</time></trkpt><trkpt lat="45.593925" lon="9.1026083"><ele>189.66666666666669</ele><time>2026-04-18T06:52:49.444Z</time></trkpt><trkpt lat="45.5940183" lon="9.102595"><ele>189.5</ele><time>2026-04-18T06:52:51.444Z</time></trkpt><trkpt lat="45.5941167" lon="9.1025783"><ele>189.33333333333334</ele><time>2026-04-18T06:52:53.444Z</time></trkpt><trkpt lat="45.5941983" lon="9.1025967"><ele>189.16666666666666</ele><time>2026-04-18T06:52:55.444Z</time></trkpt><trkpt lat="45.5942867" lon="9.1026"><ele>189.0</ele><time>2026-04-18T06:52:57.444Z</time></trkpt><trkpt lat="45.594375" lon="9.1026283"><ele>189.0</ele><time>2026-04-18T06:52:59.444Z</time></trkpt><trkpt lat="45.5944617" lon="9.10267"><ele>189.0</ele><time>2026-04-18T06:53:01.443Z</time></trkpt><trkpt lat="45.5945383" lon="9.1027117"><ele>189.0</ele><time>2026-04-18T06:53:03.443Z</time></trkpt><trkpt lat="45.594615" lon="9.1027433"><ele>189.0</ele><time>2026-04-18T06:53:05.443Z</time></trkpt><trkpt lat="45.5946883" lon="9.1027783"><ele>189.0</ele><time>2026-04-18T06:53:07.443Z</time></trkpt><trkpt lat="45.5947517" lon="9.102815"><ele>189.0</ele><time>2026-04-18T06:53:09.443Z</time></trkpt><trkpt lat="45.59484" lon="9.1028267"><ele>189.33333333333334</ele><time>2026-04-18T06:53:11.444Z</time></trkpt><trkpt lat="45.59492" lon="9.1028333"><ele>189.66666666666666</ele><time>2026-04-18T06:53:13.443Z</time></trkpt><trkpt lat="45.595" lon="9.1028583"><ele>190.0</ele><time>2026-04-18T06:53:15.443Z</time></trkpt><trkpt lat="45.5950867" lon="9.10289"><ele>190.33333333333331</ele><time>2026-04-18T06:53:17.443Z</time></trkpt><trkpt lat="45.59518" lon="9.102935"><ele>190.66666666666666</ele><time>2026-04-18T06:53:19.445Z</time></trkpt><trkpt lat="45.5952617" lon="9.10297"><ele>191.0</ele><time>2026-04-18T06:53:21.444Z</time></trkpt><trkpt lat="45.5953483" lon="9.10302"><ele>191.4</ele><time>2026-04-18T06:53:23.443Z</time></trkpt><trkpt lat="45.59544" lon="9.1030483"><ele>191.8</ele><time>2026-04-18T06:53:25.446Z</time></trkpt><trkpt lat="45.595545" lon="9.1030783"><ele>192.20000000000002</ele><time>2026-04-18T06:53:27.443Z</time></trkpt><trkpt lat="45.5956333" lon="9.10311"><ele>192.60000000000002</ele><time>2026-04-18T06:53:29.443Z</time></trkpt><trkpt lat="45.5957317" lon="9.1031517"><ele>193.0</ele><time>2026-04-18T06:53:31.442Z</time></trkpt><trkpt lat="45.5958367" lon="9.103205"><ele>193.0</ele><time>2026-04-18T06:53:33.442Z</time></trkpt><trkpt lat="45.5959317" lon="9.1032117"><ele>193.0</ele><time>2026-04-18T06:53:35.443Z</time></trkpt><trkpt lat="45.59602" lon="9.10324"><ele>193.0</ele><time>2026-04-18T06:53:37.444Z</time></trkpt><trkpt lat="45.5961067" lon="9.1032867"><ele>193.0</ele><time>2026-04-18T06:53:39.441Z</time></trkpt><trkpt lat="45.5961883" lon="9.103305"><ele>193.0</ele><time>2026-04-18T06:53:41.443Z</time></trkpt><trkpt lat="45.5962833" lon="9.10332"><ele>193.49999999999997</ele><time>2026-04-18T06:53:43.444Z</time></trkpt><trkpt lat="45.5963767" lon="9.1033833"><ele>194.0</ele><time>2026-04-18T06:53:45.443Z</time></trkpt><trkpt lat="45.5964633" lon="9.1034383"><ele>194.5</ele><time>2026-04-18T06:53:47.443Z</time></trkpt><trkpt lat="45.5965283" lon="9.1034883"><ele>195.0</ele><time>2026-04-18T06:53:49.443Z</time></trkpt><trkpt lat="45.596605" lon="9.1035567"><ele>195.49999999999997</ele><time>2026-04-18T06:53:51.442Z</time></trkpt><trkpt lat="45.59667" lon="9.1035867"><ele>196.0</ele><time>2026-04-18T06:53:53.443Z</time></trkpt><trkpt lat="45.596755" lon="9.103615"><ele>195.99999999999997</ele><time>2026-04-18T06:53:55.443Z</time></trkpt><trkpt lat="45.5968233" lon="9.103675"><ele>196.0</ele><time>2026-04-18T06:53:58.442Z</time></trkpt><trkpt lat="45.5968283" lon="9.10377"><ele>196.0</ele><time>2026-04-18T06:54:02.443Z</time></trkpt><trkpt lat="45.5968917" lon="9.1038083"><ele>196.0</ele><time>2026-04-18T06:54:04.443Z</time></trkpt><trkpt lat="45.5969767" lon="9.1038317"><ele>195.99999999999997</ele><time>2026-04-18T06:54:07.443Z</time></trkpt><trkpt lat="45.597035" lon="9.1037867"><ele>196.0</ele><time>2026-04-18T06:54:12.443Z</time></trkpt><trkpt lat="45.5970833" lon="9.1036933"><ele>195.83333333333331</ele><time>2026-04-18T06:54:16.444Z</time></trkpt><trkpt lat="45.5971033" lon="9.1035983"><ele>195.66666666666666</ele><time>2026-04-18T06:54:19.444Z</time></trkpt><trkpt lat="45.59714" lon="9.103495"><ele>195.5</ele><time>2026-04-18T06:54:22.443Z</time></trkpt><trkpt lat="45.5971733" lon="9.10341"><ele>195.33333333333331</ele><time>2026-04-18T06:54:26.444Z</time></trkpt><trkpt lat="45.5972167" lon="9.1033017"><ele>195.16666666666666</ele><time>2026-04-18T06:54:30.443Z</time></trkpt><trkpt lat="45.5972417" lon="9.1031817"><ele>195.0</ele><time>2026-04-18T06:54:33.442Z</time></trkpt><trkpt lat="45.597175" lon="9.1031317"><ele>195.0</ele><time>2026-04-18T06:54:35.444Z</time></trkpt><trkpt lat="45.5971867" lon="9.1030233"><ele>195.0</ele><time>2026-04-18T06:54:39.443Z</time></trkpt><trkpt lat="45.597215" lon="9.102905"><ele>195.0</ele><time>2026-04-18T06:54:41.442Z</time></trkpt><trkpt lat="45.59726" lon="9.1027567"><ele>195.0</ele><time>2026-04-18T06:54:43.444Z</time></trkpt><trkpt lat="45.59731" lon="9.1026333"><ele>195.0</ele><time>2026-04-18T06:54:45.442Z</time></trkpt><trkpt lat="45.597355" lon="9.1025133"><ele>195.16666666666666</ele><time>2026-04-18T06:54:47.444Z</time></trkpt><trkpt lat="45.5973917" lon="9.102405"><ele>195.33333333333331</ele><time>2026-04-18T06:54:49.443Z</time></trkpt><trkpt lat="45.5974217" lon="9.1023183"><ele>195.5</ele><time>2026-04-18T06:54:51.443Z</time></trkpt><trkpt lat="45.5974333" lon="9.102215"><ele>195.66666666666666</ele><time>2026-04-18T06:54:54.443Z</time></trkpt><trkpt lat="45.5974733" lon="9.1020983"><ele>195.83333333333331</ele><time>2026-04-18T06:54:57.442Z</time></trkpt><trkpt lat="45.5975217" lon="9.1019883"><ele>196.0</ele><time>2026-04-18T06:55:00.443Z</time></trkpt><trkpt lat="45.5975817" lon="9.1019283"><ele>195.99999999999997</ele><time>2026-04-18T06:55:02.443Z</time></trkpt><trkpt lat="45.5976133" lon="9.1018083"><ele>196.0</ele><time>2026-04-18T06:55:05.444Z</time></trkpt><trkpt lat="45.5976133" lon="9.1016733"><ele>196.0</ele><time>2026-04-18T06:55:08.444Z</time></trkpt><trkpt lat="45.5976433" lon="9.1015717"><ele>196.0</ele><time>2026-04-18T06:55:10.442Z</time></trkpt><trkpt lat="45.5976917" lon="9.1014767"><ele>195.99999999999997</ele><time>2026-04-18T06:55:12.443Z</time></trkpt><trkpt lat="45.59772" lon="9.10136"><ele>196.0</ele><time>2026-04-18T06:55:14.444Z</time></trkpt><trkpt lat="45.5977383" lon="9.1012517"><ele>196.33333333333331</ele><time>2026-04-18T06:55:16.443Z</time></trkpt><trkpt lat="45.5977867" lon="9.10115"><ele>196.66666666666666</ele><time>2026-04-18T06:55:18.442Z</time></trkpt><trkpt lat="45.5978267" lon="9.10104"><ele>197.0</ele><time>2026-04-18T06:55:20.444Z</time></trkpt><trkpt lat="45.59788" lon="9.1009267"><ele>197.33333333333331</ele><time>2026-04-18T06:55:22.442Z</time></trkpt><trkpt lat="45.5979017" lon="9.1008017"><ele>197.66666666666666</ele><time>2026-04-18T06:55:24.443Z</time></trkpt><trkpt lat="45.59792" lon="9.1006833"><ele>198.0</ele><time>2026-04-18T06:55:26.444Z</time></trkpt><trkpt lat="45.5979533" lon="9.1005733"><ele>198.16666666666666</ele><time>2026-04-18T06:55:28.444Z</time></trkpt><trkpt lat="45.5979783" lon="9.1004717"><ele>198.33333333333331</ele><time>2026-04-18T06:55:30.443Z</time></trkpt><trkpt lat="45.598005" lon="9.1003633"><ele>198.5</ele><time>2026-04-18T06:55:32.444Z</time></trkpt><trkpt lat="45.5980333" lon="9.1002567"><ele>198.66666666666666</ele><time>2026-04-18T06:55:34.443Z</time></trkpt><trkpt lat="45.5980467" lon="9.1001267"><ele>198.83333333333331</ele><time>2026-04-18T06:55:36.443Z</time></trkpt><trkpt lat="45.5980617" lon="9.099995"><ele>199.0</ele><time>2026-04-18T06:55:38.444Z</time></trkpt><trkpt lat="45.59809" lon="9.099865"><ele>198.99999999999997</ele><time>2026-04-18T06:55:40.442Z</time></trkpt><trkpt lat="45.5981433" lon="9.0997567"><ele>199.0</ele><time>2026-04-18T06:55:42.443Z</time></trkpt><trkpt lat="45.5981617" lon="9.0996317"><ele>199.0</ele><time>2026-04-18T06:55:44.443Z</time></trkpt><trkpt lat="45.5981817" lon="9.0995367"><ele>199.0</ele><time>2026-04-18T06:55:46.443Z</time></trkpt><trkpt lat="45.5982017" lon="9.0994433"><ele>198.99999999999997</ele><time>2026-04-18T06:55:48.442Z</time></trkpt><trkpt lat="45.5982217" lon="9.0993367"><ele>199.0</ele><time>2026-04-18T06:55:50.443Z</time></trkpt><trkpt lat="45.5982633" lon="9.0992317"><ele>198.99999999999997</ele><time>2026-04-18T06:55:52.442Z</time></trkpt><trkpt lat="45.598295" lon="9.099125"><ele>199.0</ele><time>2026-04-18T06:55:54.443Z</time></trkpt><trkpt lat="45.5983233" lon="9.0990067"><ele>199.0</ele><time>2026-04-18T06:55:56.444Z</time></trkpt><trkpt lat="45.598355" lon="9.098885"><ele>199.0</ele><time>2026-04-18T06:55:58.443Z</time></trkpt><trkpt lat="45.5983767" lon="9.0987767"><ele>198.99999999999997</ele><time>2026-04-18T06:56:00.443Z</time></trkpt><trkpt lat="45.59839" lon="9.09868"><ele>199.0</ele><time>2026-04-18T06:56:02.443Z</time></trkpt><trkpt lat="45.5984133" lon="9.09857"><ele>198.99999999999997</ele><time>2026-04-18T06:56:04.443Z</time></trkpt><trkpt lat="45.5984233" lon="9.09846"><ele>199.0</ele><time>2026-04-18T06:56:06.443Z</time></trkpt><trkpt lat="45.5984133" lon="9.0983667"><ele>199.0</ele><time>2026-04-18T06:56:08.444Z</time></trkpt><trkpt lat="45.5984" lon="9.09824"><ele>199.0</ele><time>2026-04-18T06:56:11.443Z</time></trkpt><trkpt lat="45.5984983" lon="9.098245"><ele>198.99999999999997</ele><time>2026-04-18T06:56:15.442Z</time></trkpt><trkpt lat="45.5985783" lon="9.0982717"><ele>199.0</ele><time>2026-04-18T06:56:17.443Z</time></trkpt><trkpt lat="45.5986417" lon="9.0982817"><ele>198.83333333333331</ele><time>2026-04-18T06:56:19.444Z</time></trkpt><trkpt lat="45.598715" lon="9.0982967"><ele>198.66666666666666</ele><time>2026-04-18T06:56:22.442Z</time></trkpt><trkpt lat="45.5987933" lon="9.0982283"><ele>198.5</ele><time>2026-04-18T06:56:25.444Z</time></trkpt><trkpt lat="45.598845" lon="9.09813"><ele>198.33333333333331</ele><time>2026-04-18T06:56:28.444Z</time></trkpt><trkpt lat="45.5988733" lon="9.09804"><ele>198.16666666666666</ele><time>2026-04-18T06:56:30.442Z</time></trkpt><trkpt lat="45.5989283" lon="9.0979583"><ele>198.0</ele><time>2026-04-18T06:56:32.444Z</time></trkpt><trkpt lat="45.5989783" lon="9.097885"><ele>198.0</ele><time>2026-04-18T06:56:34.442Z</time></trkpt><trkpt lat="45.599015" lon="9.09781"><ele>198.0</ele><time>2026-04-18T06:56:36.442Z</time></trkpt><trkpt lat="45.5990067" lon="9.097685"><ele>198.0</ele><time>2026-04-18T06:56:39.442Z</time></trkpt><trkpt lat="45.5990167" lon="9.09757"><ele>198.0</ele><time>2026-04-18T06:56:42.443Z</time></trkpt><trkpt lat="45.5990817" lon="9.0975483"><ele>198.0</ele><time>2026-04-18T06:56:45.444Z</time></trkpt><trkpt lat="45.5991667" lon="9.0975467"><ele>198.0</ele><time>2026-04-18T06:56:50.444Z</time></trkpt><trkpt lat="45.599275" lon="9.0974983"><ele>198.0</ele><time>2026-04-18T06:56:53.444Z</time></trkpt><trkpt lat="45.5993417" lon="9.0974783"><ele>198.0</ele><time>2026-04-18T06:56:55.444Z</time></trkpt><trkpt lat="45.5994467" lon="9.0974483"><ele>198.0</ele><time>2026-04-18T06:56:57.443Z</time></trkpt><trkpt lat="45.59955" lon="9.0973517"><ele>198.0</ele><time>2026-04-18T06:56:59.444Z</time></trkpt><trkpt lat="45.5996483" lon="9.0972767"><ele>198.0</ele><time>2026-04-18T06:57:01.444Z</time></trkpt><trkpt lat="45.59971" lon="9.0972417"><ele>198.16666666666666</ele><time>2026-04-18T06:57:02.444Z</time></trkpt><trkpt lat="45.59981" lon="9.097185"><ele>198.33333333333331</ele><time>2026-04-18T06:57:04.443Z</time></trkpt><trkpt lat="45.5998867" lon="9.0971067"><ele>198.5</ele><time>2026-04-18T06:57:06.444Z</time></trkpt><trkpt lat="45.599975" lon="9.0971133"><ele>198.66666666666666</ele><time>2026-04-18T06:57:11.444Z</time></trkpt><trkpt lat="45.60004" lon="9.097095"><ele>198.83333333333331</ele><time>2026-04-18T06:57:13.443Z</time></trkpt><trkpt lat="45.60011" lon="9.0970783"><ele>199.0</ele><time>2026-04-18T06:57:15.443Z</time></trkpt><trkpt lat="45.600165" lon="9.0970333"><ele>199.0</ele><time>2026-04-18T06:57:17.444Z</time></trkpt><trkpt lat="45.6002167" lon="9.09698"><ele>199.0</ele><time>2026-04-18T06:57:19.444Z</time></trkpt><trkpt lat="45.6002683" lon="9.09692"><ele>199.0</ele><time>2026-04-18T06:57:21.443Z</time></trkpt><trkpt lat="45.6003633" lon="9.096845"><ele>199.0</ele><time>2026-04-18T06:57:24.442Z</time></trkpt><trkpt lat="45.6004783" lon="9.096795"><ele>199.0</ele><time>2026-04-18T06:57:26.443Z</time></trkpt><trkpt lat="45.6005767" lon="9.09673"><ele>199.2</ele><time>2026-04-18T06:57:28.442Z</time></trkpt><trkpt lat="45.60065" lon="9.0967"><ele>199.39999999999998</ele><time>2026-04-18T06:57:29.444Z</time></trkpt><trkpt lat="45.6007167" lon="9.0966567"><ele>199.6</ele><time>2026-04-18T06:57:30.443Z</time></trkpt><trkpt lat="45.6008533" lon="9.0965483"><ele>199.8</ele><time>2026-04-18T06:57:32.443Z</time></trkpt><trkpt lat="45.600935" lon="9.096485"><ele>200.0</ele><time>2026-04-18T06:57:33.443Z</time></trkpt><trkpt lat="45.6010317" lon="9.0964317"><ele>200.0</ele><time>2026-04-18T06:57:35.444Z</time></trkpt><trkpt lat="45.6011533" lon="9.0963567"><ele>200.0</ele><time>2026-04-18T06:57:37.444Z</time></trkpt><trkpt lat="45.6012683" lon="9.0963283"><ele>200.0</ele><time>2026-04-18T06:57:39.443Z</time></trkpt><trkpt lat="45.6013633" lon="9.096285"><ele>200.0</ele><time>2026-04-18T06:57:41.444Z</time></trkpt><trkpt lat="45.601465" lon="9.0962167"><ele>200.33333333333334</ele><time>2026-04-18T06:57:43.445Z</time></trkpt><trkpt lat="45.6015183" lon="9.0961633"><ele>200.66666666666669</ele><time>2026-04-18T06:57:44.444Z</time></trkpt><trkpt lat="45.6016117" lon="9.096115"><ele>201.0</ele><time>2026-04-18T06:57:46.444Z</time></trkpt><trkpt lat="45.6016867" lon="9.0960833"><ele>201.33333333333331</ele><time>2026-04-18T06:57:48.445Z</time></trkpt><trkpt lat="45.6017783" lon="9.09607"><ele>201.66666666666666</ele><time>2026-04-18T06:57:51.444Z</time></trkpt><trkpt lat="45.6018517" lon="9.0960517"><ele>202.0</ele><time>2026-04-18T06:57:53.445Z</time></trkpt><trkpt lat="45.6019433" lon="9.0960417"><ele>201.99999999999997</ele><time>2026-04-18T06:57:55.443Z</time></trkpt><trkpt lat="45.6020333" lon="9.0960367"><ele>202.0</ele><time>2026-04-18T06:57:57.445Z</time></trkpt><trkpt lat="45.6021167" lon="9.0959583"><ele>202.0</ele><time>2026-04-18T06:57:59.444Z</time></trkpt><trkpt lat="45.6021883" lon="9.0959233"><ele>202.0</ele><time>2026-04-18T06:58:01.445Z</time></trkpt><trkpt lat="45.602265" lon="9.09595"><ele>201.99999999999997</ele><time>2026-04-18T06:58:03.445Z</time></trkpt><trkpt lat="45.602335" lon="9.0959933"><ele>202.0</ele><time>2026-04-18T06:58:05.444Z</time></trkpt><trkpt lat="45.6024033" lon="9.0959983"><ele>201.99999999999997</ele><time>2026-04-18T06:58:07.444Z</time></trkpt><trkpt lat="45.60247" lon="9.095995"><ele>202.0</ele><time>2026-04-18T06:58:10.443Z</time></trkpt><trkpt lat="45.602575" lon="9.0959883"><ele>202.0</ele><time>2026-04-18T06:58:19.443Z</time></trkpt><trkpt lat="45.6026167" lon="9.0959183"><ele>202.0</ele><time>2026-04-18T06:58:22.443Z</time></trkpt><trkpt lat="45.6027167" lon="9.09584"><ele>201.99999999999997</ele><time>2026-04-18T06:58:24.443Z</time></trkpt><trkpt lat="45.602775" lon="9.0957533"><ele>202.0</ele><time>2026-04-18T06:58:26.443Z</time></trkpt><trkpt lat="45.6028433" lon="9.0957483"><ele>202.66666666666666</ele><time>2026-04-18T06:58:30.444Z</time></trkpt><trkpt lat="45.60292" lon="9.09574"><ele>203.33333333333331</ele><time>2026-04-18T06:58:34.444Z</time></trkpt><trkpt lat="45.6030033" lon="9.0957083"><ele>204.0</ele><time>2026-04-18T06:58:37.443Z</time></trkpt><trkpt lat="45.603085" lon="9.0956917"><ele>204.66666666666669</ele><time>2026-04-18T06:58:39.443Z</time></trkpt><trkpt lat="45.603165" lon="9.0956467"><ele>205.33333333333334</ele><time>2026-04-18T06:58:41.444Z</time></trkpt><trkpt lat="45.60326" lon="9.09561"><ele>206.0</ele><time>2026-04-18T06:58:43.443Z</time></trkpt><trkpt lat="45.60334" lon="9.0956133"><ele>206.0</ele><time>2026-04-18T06:58:45.442Z</time></trkpt><trkpt lat="45.6034267" lon="9.0955967"><ele>206.0</ele><time>2026-04-18T06:58:48.444Z</time></trkpt><trkpt lat="45.6035167" lon="9.095555"><ele>206.0</ele><time>2026-04-18T06:58:50.444Z</time></trkpt><trkpt lat="45.6036133" lon="9.0955133"><ele>206.0</ele><time>2026-04-18T06:58:52.443Z</time></trkpt><trkpt lat="45.6036967" lon="9.0954633"><ele>206.0</ele><time>2026-04-18T06:58:56.444Z</time></trkpt><trkpt lat="45.6037717" lon="9.09537"><ele>206.00000000000003</ele><time>2026-04-18T06:58:58.443Z</time></trkpt><trkpt lat="45.603835" lon="9.0953383"><ele>206.0</ele><time>2026-04-18T06:59:00.443Z</time></trkpt><trkpt lat="45.6039133" lon="9.0952917"><ele>206.0</ele><time>2026-04-18T06:59:02.444Z</time></trkpt><trkpt lat="45.603985" lon="9.0952783"><ele>206.0</ele><time>2026-04-18T06:59:04.443Z</time></trkpt><trkpt lat="45.6040717" lon="9.09529"><ele>206.00000000000003</ele><time>2026-04-18T06:59:06.442Z</time></trkpt><trkpt lat="45.60419" lon="9.095305"><ele>206.0</ele><time>2026-04-18T06:59:08.443Z</time></trkpt><trkpt lat="45.6042933" lon="9.0952733"><ele>206.0</ele><time>2026-04-18T06:59:10.445Z</time></trkpt><trkpt lat="45.6043667" lon="9.0952417"><ele>206.0</ele><time>2026-04-18T06:59:12.443Z</time></trkpt><trkpt lat="45.604445" lon="9.0952983"><ele>206.0</ele><time>2026-04-18T06:59:18.444Z</time></trkpt><trkpt lat="45.60451" lon="9.0953817"><ele>206.0</ele><time>2026-04-18T06:59:21.443Z</time></trkpt><trkpt lat="45.6046633" lon="9.0952367"><ele>206.0</ele><time>2026-04-18T06:59:23.444Z</time></trkpt><trkpt lat="45.6047433" lon="9.0951983"><ele>205.4</ele><time>2026-04-18T06:59:24.443Z</time></trkpt><trkpt lat="45.6048483" lon="9.0951383"><ele>204.8</ele><time>2026-04-18T06:59:27.443Z</time></trkpt><trkpt lat="45.60494" lon="9.0951117"><ele>204.20000000000002</ele><time>2026-04-18T06:59:29.445Z</time></trkpt><trkpt lat="45.605035" lon="9.09505"><ele>203.60000000000002</ele><time>2026-04-18T06:59:31.445Z</time></trkpt><trkpt lat="45.6051217" lon="9.0950283"><ele>203.0</ele><time>2026-04-18T06:59:33.444Z</time></trkpt><trkpt lat="45.6052033" lon="9.0950083"><ele>203.0</ele><time>2026-04-18T06:59:35.443Z</time></trkpt><trkpt lat="45.6052867" lon="9.0949833"><ele>203.0</ele><time>2026-04-18T06:59:37.443Z</time></trkpt><trkpt lat="45.605355" lon="9.0949867"><ele>203.0</ele><time>2026-04-18T06:59:39.444Z</time></trkpt><trkpt lat="45.6054167" lon="9.0949367"><ele>203.0</ele><time>2026-04-18T06:59:41.444Z</time></trkpt><trkpt lat="45.6054517" lon="9.0948333"><ele>203.0</ele><time>2026-04-18T06:59:42.444Z</time></trkpt><trkpt lat="45.6055033" lon="9.0947617"><ele>203.0</ele><time>2026-04-18T06:59:44.443Z</time></trkpt><trkpt lat="45.605555" lon="9.0947033"><ele>203.0</ele><time>2026-04-18T06:59:48.444Z</time></trkpt><trkpt lat="45.6056583" lon="9.094675"><ele>203.42857142857142</ele><time>2026-04-18T06:59:51.444Z</time></trkpt><trkpt lat="45.605725" lon="9.0946667"><ele>203.85714285714286</ele><time>2026-04-18T06:59:53.445Z</time></trkpt><trkpt lat="45.60579" lon="9.09468"><ele>204.28571428571428</ele><time>2026-04-18T06:59:56.444Z</time></trkpt><trkpt lat="45.6058583" lon="9.0946933"><ele>204.71428571428572</ele><time>2026-04-18T06:59:59.445Z</time></trkpt><trkpt lat="45.60591" lon="9.094785"><ele>205.14285714285714</ele><time>2026-04-18T07:00:03.443Z</time></trkpt><trkpt lat="45.6059583" lon="9.094845"><ele>205.57142857142856</ele><time>2026-04-18T07:00:06.444Z</time></trkpt><trkpt lat="45.6060383" lon="9.09486"><ele>206.0</ele><time>2026-04-18T07:00:09.445Z</time></trkpt><trkpt lat="45.60611" lon="9.0949117"><ele>206.14285714285714</ele><time>2026-04-18T07:00:12.443Z</time></trkpt><trkpt lat="45.6061717" lon="9.0949583"><ele>206.28571428571428</ele><time>2026-04-18T07:00:15.445Z</time></trkpt><trkpt lat="45.60623" lon="9.09503"><ele>206.42857142857144</ele><time>2026-04-18T07:00:18.443Z</time></trkpt><trkpt lat="45.60629" lon="9.0950967"><ele>206.57142857142856</ele><time>2026-04-18T07:00:21.442Z</time></trkpt><trkpt lat="45.6063667" lon="9.095145"><ele>206.71428571428572</ele><time>2026-04-18T07:00:24.444Z</time></trkpt><trkpt lat="45.6064233" lon="9.0952167"><ele>206.85714285714286</ele><time>2026-04-18T07:00:27.444Z</time></trkpt><trkpt lat="45.6064783" lon="9.0952683"><ele>207.0</ele><time>2026-04-18T07:00:30.442Z</time></trkpt><trkpt lat="45.6065317" lon="9.0953283"><ele>207.00000000000003</ele><time>2026-04-18T07:00:32.444Z</time></trkpt><trkpt lat="45.606595" lon="9.0953833"><ele>207.0</ele><time>2026-04-18T07:00:34.442Z</time></trkpt><trkpt lat="45.6066533" lon="9.0954433"><ele>207.0</ele><time>2026-04-18T07:00:36.444Z</time></trkpt><trkpt lat="45.6067033" lon="9.095505"><ele>207.0</ele><time>2026-04-18T07:00:38.443Z</time></trkpt><trkpt lat="45.6067583" lon="9.09557"><ele>207.0</ele><time>2026-04-18T07:00:40.443Z</time></trkpt><trkpt lat="45.6068133" lon="9.0956267"><ele>207.00000000000003</ele><time>2026-04-18T07:00:42.442Z</time></trkpt><trkpt lat="45.6068817" lon="9.0956983"><ele>207.0</ele><time>2026-04-18T07:00:44.443Z</time></trkpt><trkpt lat="45.60694" lon="9.095765"><ele>206.85714285714286</ele><time>2026-04-18T07:00:46.443Z</time></trkpt><trkpt lat="45.6069983" lon="9.0958333"><ele>206.71428571428572</ele><time>2026-04-18T07:00:48.443Z</time></trkpt><trkpt lat="45.6070567" lon="9.0959067"><ele>206.57142857142856</ele><time>2026-04-18T07:00:50.443Z</time></trkpt><trkpt lat="45.6071167" lon="9.0959683"><ele>206.42857142857144</ele><time>2026-04-18T07:00:52.442Z</time></trkpt><trkpt lat="45.60718" lon="9.0960167"><ele>206.28571428571428</ele><time>2026-04-18T07:00:54.444Z</time></trkpt><trkpt lat="45.6072417" lon="9.0960567"><ele>206.14285714285714</ele><time>2026-04-18T07:00:56.443Z</time></trkpt><trkpt lat="45.6073167" lon="9.0960933"><ele>206.0</ele><time>2026-04-18T07:00:58.443Z</time></trkpt><trkpt lat="45.6073983" lon="9.0961533"><ele>206.00000000000003</ele><time>2026-04-18T07:01:00.442Z</time></trkpt><trkpt lat="45.6074633" lon="9.0962167"><ele>206.0</ele><time>2026-04-18T07:01:02.444Z</time></trkpt><trkpt lat="45.6075417" lon="9.096275"><ele>206.0</ele><time>2026-04-18T07:01:04.443Z</time></trkpt><trkpt lat="45.6076167" lon="9.0963283"><ele>206.0</ele><time>2026-04-18T07:01:06.443Z</time></trkpt><trkpt lat="45.6076967" lon="9.096385"><ele>206.00000000000003</ele><time>2026-04-18T07:01:08.442Z</time></trkpt><trkpt lat="45.6077667" lon="9.0964567"><ele>206.0</ele><time>2026-04-18T07:01:10.443Z</time></trkpt><trkpt lat="45.6078483" lon="9.09654"><ele>206.4</ele><time>2026-04-18T07:01:12.443Z</time></trkpt><trkpt lat="45.60794" lon="9.0966133"><ele>206.8</ele><time>2026-04-18T07:01:14.444Z</time></trkpt><trkpt lat="45.6080217" lon="9.0966683"><ele>207.20000000000002</ele><time>2026-04-18T07:01:16.444Z</time></trkpt><trkpt lat="45.6081067" lon="9.0967067"><ele>207.60000000000002</ele><time>2026-04-18T07:01:18.443Z</time></trkpt><trkpt lat="45.60819" lon="9.09676"><ele>208.0</ele><time>2026-04-18T07:01:20.444Z</time></trkpt><trkpt lat="45.6082583" lon="9.09683"><ele>207.99999999999997</ele><time>2026-04-18T07:01:22.442Z</time></trkpt><trkpt lat="45.6083383" lon="9.0969183"><ele>208.0</ele><time>2026-04-18T07:01:24.444Z</time></trkpt><trkpt lat="45.6084" lon="9.0969917"><ele>208.0</ele><time>2026-04-18T07:01:26.444Z</time></trkpt><trkpt lat="45.608455" lon="9.0970767"><ele>208.0</ele><time>2026-04-18T07:01:28.443Z</time></trkpt><trkpt lat="45.60845" lon="9.097175"><ele>207.99999999999997</ele><time>2026-04-18T07:01:29.444Z</time></trkpt><trkpt lat="45.6084917" lon="9.0972817"><ele>208.0</ele><time>2026-04-18T07:01:31.444Z</time></trkpt><trkpt lat="45.6085717" lon="9.0973417"><ele>208.16666666666666</ele><time>2026-04-18T07:01:33.444Z</time></trkpt><trkpt lat="45.6086567" lon="9.0974233"><ele>208.33333333333331</ele><time>2026-04-18T07:01:35.443Z</time></trkpt><trkpt lat="45.6087617" lon="9.0974217"><ele>208.5</ele><time>2026-04-18T07:01:37.444Z</time></trkpt><trkpt lat="45.6088683" lon="9.0974683"><ele>208.66666666666669</ele><time>2026-04-18T07:01:39.444Z</time></trkpt><trkpt lat="45.6089283" lon="9.0974967"><ele>208.83333333333334</ele><time>2026-04-18T07:01:40.443Z</time></trkpt><trkpt lat="45.6089867" lon="9.0975383"><ele>209.0</ele><time>2026-04-18T07:01:41.444Z</time></trkpt><trkpt lat="45.6090917" lon="9.097615"><ele>208.6</ele><time>2026-04-18T07:01:43.444Z</time></trkpt><trkpt lat="45.60919" lon="9.0976733"><ele>208.2</ele><time>2026-04-18T07:01:45.444Z</time></trkpt><trkpt lat="45.60928" lon="9.0977467"><ele>207.79999999999998</ele><time>2026-04-18T07:01:47.444Z</time></trkpt><trkpt lat="45.6093533" lon="9.0978217"><ele>207.39999999999998</ele><time>2026-04-18T07:01:49.444Z</time></trkpt><trkpt lat="45.60942" lon="9.097895"><ele>207.0</ele><time>2026-04-18T07:01:51.444Z</time></trkpt><trkpt lat="45.6094933" lon="9.097955"><ele>207.0</ele><time>2026-04-18T07:01:53.443Z</time></trkpt><trkpt lat="45.6095583" lon="9.0980117"><ele>207.0</ele><time>2026-04-18T07:01:55.444Z</time></trkpt><trkpt lat="45.6096367" lon="9.09808"><ele>207.0</ele><time>2026-04-18T07:01:57.443Z</time></trkpt><trkpt lat="45.6097283" lon="9.09817"><ele>207.0</ele><time>2026-04-18T07:01:59.443Z</time></trkpt><trkpt lat="45.6098217" lon="9.0982433"><ele>207.0</ele><time>2026-04-18T07:02:01.443Z</time></trkpt><trkpt lat="45.60991" lon="9.0983167"><ele>207.2</ele><time>2026-04-18T07:02:03.443Z</time></trkpt><trkpt lat="45.6099967" lon="9.098395"><ele>207.39999999999998</ele><time>2026-04-18T07:02:05.444Z</time></trkpt><trkpt lat="45.61007" lon="9.098475"><ele>207.60000000000002</ele><time>2026-04-18T07:02:07.444Z</time></trkpt><trkpt lat="45.6101517" lon="9.0985433"><ele>207.8</ele><time>2026-04-18T07:02:09.444Z</time></trkpt><trkpt lat="45.6102283" lon="9.0986133"><ele>208.0</ele><time>2026-04-18T07:02:11.443Z</time></trkpt><trkpt lat="45.6103117" lon="9.0986667"><ele>208.66666666666666</ele><time>2026-04-18T07:02:13.444Z</time></trkpt><trkpt lat="45.61039" lon="9.0987083"><ele>209.33333333333331</ele><time>2026-04-18T07:02:15.443Z</time></trkpt><trkpt lat="45.6104733" lon="9.098695"><ele>210.0</ele><time>2026-04-18T07:02:18.443Z</time></trkpt><trkpt lat="45.6105333" lon="9.0986117"><ele>210.66666666666669</ele><time>2026-04-18T07:02:20.443Z</time></trkpt><trkpt lat="45.6106233" lon="9.0985533"><ele>211.33333333333334</ele><time>2026-04-18T07:02:23.444Z</time></trkpt><trkpt lat="45.61069" lon="9.0985483"><ele>212.0</ele><time>2026-04-18T07:02:25.443Z</time></trkpt><trkpt lat="45.6107817" lon="9.0985633"><ele>212.00000000000003</ele><time>2026-04-18T07:02:27.444Z</time></trkpt><trkpt lat="45.6108567" lon="9.0985717"><ele>212.0</ele><time>2026-04-18T07:02:29.444Z</time></trkpt><trkpt lat="45.6109367" lon="9.0985867"><ele>212.0</ele><time>2026-04-18T07:02:32.444Z</time></trkpt><trkpt lat="45.6110067" lon="9.0986433"><ele>212.0</ele><time>2026-04-18T07:02:35.444Z</time></trkpt><trkpt lat="45.61109" lon="9.09869"><ele>212.00000000000003</ele><time>2026-04-18T07:02:38.444Z</time></trkpt><trkpt lat="45.61118" lon="9.098705"><ele>212.0</ele><time>2026-04-18T07:02:41.444Z</time></trkpt><trkpt lat="45.6112533" lon="9.0987333"><ele>211.57142857142858</ele><time>2026-04-18T07:02:44.445Z</time></trkpt><trkpt lat="45.6113133" lon="9.098765"><ele>211.14285714285714</ele><time>2026-04-18T07:02:47.444Z</time></trkpt><trkpt lat="45.6113783" lon="9.0987883"><ele>210.71428571428572</ele><time>2026-04-18T07:02:49.443Z</time></trkpt><trkpt lat="45.6114433" lon="9.09881"><ele>210.28571428571428</ele><time>2026-04-18T07:03:28.443Z</time></trkpt><trkpt lat="45.611515" lon="9.0987767"><ele>209.85714285714283</ele><time>2026-04-18T07:03:33.444Z</time></trkpt><trkpt lat="45.6115767" lon="9.0987117"><ele>209.42857142857142</ele><time>2026-04-18T07:03:36.444Z</time></trkpt><trkpt lat="45.6116367" lon="9.0986767"><ele>209.0</ele><time>2026-04-18T07:03:39.443Z</time></trkpt><trkpt lat="45.6116783" lon="9.09859"><ele>209.00000000000003</ele><time>2026-04-18T07:03:42.445Z</time></trkpt><trkpt lat="45.6117217" lon="9.0985067"><ele>209.0</ele><time>2026-04-18T07:03:45.444Z</time></trkpt><trkpt lat="45.61179" lon="9.0984217"><ele>209.0</ele><time>2026-04-18T07:03:48.445Z</time></trkpt><trkpt lat="45.611855" lon="9.0983367"><ele>209.0</ele><time>2026-04-18T07:03:51.443Z</time></trkpt><trkpt lat="45.61191" lon="9.0982683"><ele>209.00000000000003</ele><time>2026-04-18T07:03:53.443Z</time></trkpt><trkpt lat="45.6120033" lon="9.0982367"><ele>209.0</ele><time>2026-04-18T07:03:56.444Z</time></trkpt><trkpt lat="45.6120783" lon="9.0982083"><ele>209.5</ele><time>2026-04-18T07:03:58.444Z</time></trkpt><trkpt lat="45.61216" lon="9.0981317"><ele>210.0</ele><time>2026-04-18T07:04:00.444Z</time></trkpt><trkpt lat="45.6122433" lon="9.0980667"><ele>210.5</ele><time>2026-04-18T07:04:02.445Z</time></trkpt><trkpt lat="45.6123567" lon="9.0978833"><ele>211.0</ele><time>2026-04-18T07:04:03.443Z</time></trkpt><trkpt lat="45.612435" lon="9.0977567"><ele>211.0</ele><time>2026-04-18T07:04:04.444Z</time></trkpt><trkpt lat="45.6124867" lon="9.0976833"><ele>211.0</ele><time>2026-04-18T07:04:05.443Z</time></trkpt><trkpt lat="45.61254" lon="9.0976317"><ele>211.0</ele><time>2026-04-18T07:04:06.445Z</time></trkpt><trkpt lat="45.6126067" lon="9.097555"><ele>211.0</ele><time>2026-04-18T07:04:08.444Z</time></trkpt><trkpt lat="45.6126633" lon="9.0974883"><ele>211.0</ele><time>2026-04-18T07:04:10.444Z</time></trkpt><trkpt lat="45.6127167" lon="9.09743"><ele>211.0</ele><time>2026-04-18T07:04:13.444Z</time></trkpt><trkpt lat="45.6127833" lon="9.09738"><ele>211.0</ele><time>2026-04-18T07:04:15.444Z</time></trkpt><trkpt lat="45.6128933" lon="9.0973567"><ele>210.66666666666666</ele><time>2026-04-18T07:04:17.444Z</time></trkpt><trkpt lat="45.61297" lon="9.097325"><ele>210.33333333333331</ele><time>2026-04-18T07:04:18.444Z</time></trkpt><trkpt lat="45.6130767" lon="9.0973167"><ele>210.0</ele><time>2026-04-18T07:04:20.445Z</time></trkpt><trkpt lat="45.61314" lon="9.0972933"><ele>209.66666666666669</ele><time>2026-04-18T07:04:21.443Z</time></trkpt><trkpt lat="45.61324" lon="9.0973233"><ele>209.33333333333334</ele><time>2026-04-18T07:04:23.443Z</time></trkpt><trkpt lat="45.6133183" lon="9.09731"><ele>209.0</ele><time>2026-04-18T07:04:25.443Z</time></trkpt><trkpt lat="45.6134117" lon="9.0972633"><ele>209.0</ele><time>2026-04-18T07:04:27.444Z</time></trkpt><trkpt lat="45.6135117" lon="9.09719"><ele>209.0</ele><time>2026-04-18T07:04:29.444Z</time></trkpt><trkpt lat="45.6135933" lon="9.0971467"><ele>209.0</ele><time>2026-04-18T07:04:31.444Z</time></trkpt><trkpt lat="45.613665" lon="9.09709"><ele>209.0</ele><time>2026-04-18T07:04:33.445Z</time></trkpt><trkpt lat="45.6137317" lon="9.097035"><ele>209.0</ele><time>2026-04-18T07:04:35.443Z</time></trkpt><trkpt lat="45.6138167" lon="9.0969483"><ele>209.33333333333334</ele><time>2026-04-18T07:04:37.444Z</time></trkpt><trkpt lat="45.6139167" lon="9.0968983"><ele>209.66666666666669</ele><time>2026-04-18T07:04:39.444Z</time></trkpt><trkpt lat="45.614025" lon="9.0968333"><ele>210.0</ele><time>2026-04-18T07:04:41.443Z</time></trkpt><trkpt lat="45.6140833" lon="9.096785"><ele>210.33333333333331</ele><time>2026-04-18T07:04:42.444Z</time></trkpt><trkpt lat="45.614135" lon="9.0967317"><ele>210.66666666666666</ele><time>2026-04-18T07:04:43.444Z</time></trkpt><trkpt lat="45.6142033" lon="9.0967233"><ele>211.0</ele><time>2026-04-18T07:04:45.444Z</time></trkpt><trkpt lat="45.61428" lon="9.0966817"><ele>210.99999999999997</ele><time>2026-04-18T07:04:48.443Z</time></trkpt><trkpt lat="45.6143567" lon="9.0966383"><ele>211.0</ele><time>2026-04-18T07:04:50.444Z</time></trkpt><trkpt lat="45.6144617" lon="9.096555"><ele>211.0</ele><time>2026-04-18T07:04:52.443Z</time></trkpt><trkpt lat="45.614525" lon="9.0965133"><ele>211.0</ele><time>2026-04-18T07:04:53.444Z</time></trkpt><trkpt lat="45.6145817" lon="9.0964733"><ele>210.99999999999997</ele><time>2026-04-18T07:04:54.444Z</time></trkpt><trkpt lat="45.61464" lon="9.0964317"><ele>211.0</ele><time>2026-04-18T07:04:55.445Z</time></trkpt><trkpt lat="45.6147" lon="9.0963967"><ele>211.60000000000002</ele><time>2026-04-18T07:04:56.444Z</time></trkpt><trkpt lat="45.6147867" lon="9.0963183"><ele>212.2</ele><time>2026-04-18T07:04:58.444Z</time></trkpt><trkpt lat="45.6148467" lon="9.096245"><ele>212.79999999999998</ele><time>2026-04-18T07:05:00.443Z</time></trkpt><trkpt lat="45.614925" lon="9.0961617"><ele>213.39999999999998</ele><time>2026-04-18T07:05:02.443Z</time></trkpt><trkpt lat="45.6149933" lon="9.0961183"><ele>214.0</ele><time>2026-04-18T07:05:03.445Z</time></trkpt><trkpt lat="45.6151" lon="9.0960683"><ele>213.99999999999997</ele><time>2026-04-18T07:05:05.444Z</time></trkpt><trkpt lat="45.6151967" lon="9.0959883"><ele>214.0</ele><time>2026-04-18T07:05:07.443Z</time></trkpt><trkpt lat="45.6152717" lon="9.0959383"><ele>214.0</ele><time>2026-04-18T07:05:09.445Z</time></trkpt><trkpt lat="45.6153217" lon="9.0958667"><ele>214.0</ele><time>2026-04-18T07:05:11.443Z</time></trkpt><trkpt lat="45.61537" lon="9.0957367"><ele>213.99999999999997</ele><time>2026-04-18T07:05:14.443Z</time></trkpt><trkpt lat="45.6153767" lon="9.0956433"><ele>214.0</ele><time>2026-04-18T07:05:16.443Z</time></trkpt><trkpt lat="45.6154483" lon="9.0956"><ele>213.42857142857144</ele><time>2026-04-18T07:05:19.445Z</time></trkpt><trkpt lat="45.6155133" lon="9.095575"><ele>212.85714285714286</ele><time>2026-04-18T07:05:21.445Z</time></trkpt><trkpt lat="45.615585" lon="9.09555"><ele>212.28571428571428</ele><time>2026-04-18T07:05:23.443Z</time></trkpt><trkpt lat="45.6156583" lon="9.0955317"><ele>211.71428571428572</ele><time>2026-04-18T07:05:25.444Z</time></trkpt><trkpt lat="45.6157467" lon="9.0955033"><ele>211.14285714285714</ele><time>2026-04-18T07:05:27.444Z</time></trkpt><trkpt lat="45.6158167" lon="9.0954733"><ele>210.57142857142858</ele><time>2026-04-18T07:05:29.443Z</time></trkpt><trkpt lat="45.6158683" lon="9.0954183"><ele>210.0</ele><time>2026-04-18T07:05:31.444Z</time></trkpt><trkpt lat="45.6159267" lon="9.0953067"><ele>210.0</ele><time>2026-04-18T07:05:33.445Z</time></trkpt><trkpt lat="45.61597" lon="9.0952117"><ele>210.0</ele><time>2026-04-18T07:05:35.443Z</time></trkpt><trkpt lat="45.616" lon="9.0951017"><ele>210.0</ele><time>2026-04-18T07:05:37.444Z</time></trkpt><trkpt lat="45.61603" lon="9.0949817"><ele>210.0</ele><time>2026-04-18T07:05:39.444Z</time></trkpt><trkpt lat="45.6161017" lon="9.0948583"><ele>210.0</ele><time>2026-04-18T07:05:41.444Z</time></trkpt><trkpt lat="45.6161783" lon="9.0947717"><ele>210.4</ele><time>2026-04-18T07:05:43.444Z</time></trkpt><trkpt lat="45.61625" lon="9.0946617"><ele>210.8</ele><time>2026-04-18T07:05:45.445Z</time></trkpt><trkpt lat="45.61629" lon="9.0945717"><ele>211.2</ele><time>2026-04-18T07:05:46.444Z</time></trkpt><trkpt lat="45.6163417" lon="9.0944417"><ele>211.6</ele><time>2026-04-18T07:05:48.444Z</time></trkpt><trkpt lat="45.6163983" lon="9.0943367"><ele>212.0</ele><time>2026-04-18T07:05:50.443Z</time></trkpt><trkpt lat="45.6164583" lon="9.0942467"><ele>212.0</ele><time>2026-04-18T07:05:52.445Z</time></trkpt><trkpt lat="45.6165033" lon="9.09418"><ele>212.0</ele><time>2026-04-18T07:05:54.444Z</time></trkpt><trkpt lat="45.616625" lon="9.0940083"><ele>212.0</ele><time>2026-04-18T07:05:57.444Z</time></trkpt><trkpt lat="45.6166383" lon="9.0938867"><ele>212.0</ele><time>2026-04-18T07:05:59.444Z</time></trkpt><trkpt lat="45.6166833" lon="9.0938017"><ele>212.0</ele><time>2026-04-18T07:06:01.445Z</time></trkpt><trkpt lat="45.6167417" lon="9.093685"><ele>212.39999999999998</ele><time>2026-04-18T07:06:03.445Z</time></trkpt><trkpt lat="45.6168067" lon="9.0936033"><ele>212.79999999999998</ele><time>2026-04-18T07:06:05.445Z</time></trkpt><trkpt lat="45.616865" lon="9.0935167"><ele>213.2</ele><time>2026-04-18T07:06:07.444Z</time></trkpt><trkpt lat="45.6169517" lon="9.09352"><ele>213.6</ele><time>2026-04-18T07:06:09.444Z</time></trkpt><trkpt lat="45.6170917" lon="9.0935583"><ele>214.0</ele><time>2026-04-18T07:06:10.443Z</time></trkpt><trkpt lat="45.6171433" lon="9.0935"><ele>213.99999999999997</ele><time>2026-04-18T07:06:12.443Z</time></trkpt><trkpt lat="45.6172167" lon="9.0934683"><ele>214.0</ele><time>2026-04-18T07:06:14.444Z</time></trkpt><trkpt lat="45.6172917" lon="9.0934283"><ele>214.0</ele><time>2026-04-18T07:06:16.443Z</time></trkpt><trkpt lat="45.6173583" lon="9.09338"><ele>214.0</ele><time>2026-04-18T07:06:18.443Z</time></trkpt><trkpt lat="45.6174117" lon="9.0932817"><ele>213.99999999999997</ele><time>2026-04-18T07:06:20.444Z</time></trkpt><trkpt lat="45.6174983" lon="9.0932017"><ele>214.0</ele><time>2026-04-18T07:06:22.444Z</time></trkpt><trkpt lat="45.6175633" lon="9.0931417"><ele>213.99999999999997</ele><time>2026-04-18T07:06:24.446Z</time></trkpt><trkpt lat="45.6176283" lon="9.0930567"><ele>214.0</ele><time>2026-04-18T07:06:26.444Z</time></trkpt><trkpt lat="45.61767" lon="9.0929533"><ele>214.0</ele><time>2026-04-18T07:06:29.444Z</time></trkpt><trkpt lat="45.6177367" lon="9.09292"><ele>214.0</ele><time>2026-04-18T07:06:31.445Z</time></trkpt><trkpt lat="45.6178383" lon="9.0928833"><ele>213.99999999999997</ele><time>2026-04-18T07:06:33.443Z</time></trkpt><trkpt lat="45.617925" lon="9.0928867"><ele>214.0</ele><time>2026-04-18T07:06:35.444Z</time></trkpt><trkpt lat="45.618" lon="9.0928933"><ele>213.99999999999997</ele><time>2026-04-18T07:06:37.444Z</time></trkpt><trkpt lat="45.6180733" lon="9.0929067"><ele>214.0</ele><time>2026-04-18T07:06:39.444Z</time></trkpt><trkpt lat="45.6181467" lon="9.0928817"><ele>214.0</ele><time>2026-04-18T07:06:41.444Z</time></trkpt><trkpt lat="45.6182467" lon="9.092825"><ele>214.0</ele><time>2026-04-18T07:06:43.444Z</time></trkpt><trkpt lat="45.618325" lon="9.0928083"><ele>213.99999999999997</ele><time>2026-04-18T07:06:45.443Z</time></trkpt><trkpt lat="45.6183983" lon="9.092775"><ele>214.0</ele><time>2026-04-18T07:06:47.445Z</time></trkpt><trkpt lat="45.61848" lon="9.0927667"><ele>213.99999999999997</ele><time>2026-04-18T07:06:49.443Z</time></trkpt><trkpt lat="45.6185583" lon="9.092765"><ele>214.0</ele><time>2026-04-18T07:06:51.444Z</time></trkpt><trkpt lat="45.6186267" lon="9.0927633"><ele>214.0</ele><time>2026-04-18T07:06:53.444Z</time></trkpt><trkpt lat="45.6186983" lon="9.0927683"><ele>214.0</ele><time>2026-04-18T07:06:55.443Z</time></trkpt><trkpt lat="45.618785" lon="9.0928083"><ele>213.99999999999997</ele><time>2026-04-18T07:06:58.443Z</time></trkpt><trkpt lat="45.61886" lon="9.0928017"><ele>214.0</ele><time>2026-04-18T07:07:01.444Z</time></trkpt><trkpt lat="45.618925" lon="9.0926783"><ele>213.71428571428572</ele><time>2026-04-18T07:07:04.443Z</time></trkpt><trkpt lat="45.61895" lon="9.0925833"><ele>213.42857142857144</ele><time>2026-04-18T07:07:05.442Z</time></trkpt><trkpt lat="45.618995" lon="9.0924967"><ele>213.14285714285717</ele><time>2026-04-18T07:07:07.444Z</time></trkpt><trkpt lat="45.6190267" lon="9.0924183"><ele>212.85714285714286</ele><time>2026-04-18T07:07:10.442Z</time></trkpt><trkpt lat="45.6190667" lon="9.0925033"><ele>212.57142857142856</ele><time>2026-04-18T07:07:14.442Z</time></trkpt><trkpt lat="45.619105" lon="9.0926167"><ele>212.2857142857143</ele><time>2026-04-18T07:07:16.444Z</time></trkpt><trkpt lat="45.6191433" lon="9.0926933"><ele>212.0</ele><time>2026-04-18T07:07:18.445Z</time></trkpt><trkpt lat="45.6192067" lon="9.0927717"><ele>213.0</ele><time>2026-04-18T07:07:20.443Z</time></trkpt><trkpt lat="45.6192767" lon="9.0928967"><ele>214.0</ele><time>2026-04-18T07:07:22.444Z</time></trkpt><trkpt lat="45.6193133" lon="9.0930067"><ele>215.0</ele><time>2026-04-18T07:07:24.443Z</time></trkpt><trkpt lat="45.6193883" lon="9.0931317"><ele>216.0</ele><time>2026-04-18T07:07:26.443Z</time></trkpt><trkpt lat="45.619435" lon="9.0932283"><ele>217.0</ele><time>2026-04-18T07:07:28.442Z</time></trkpt><trkpt lat="45.6194567" lon="9.0933433"><ele>217.49999999999997</ele><time>2026-04-18T07:07:30.442Z</time></trkpt><trkpt lat="45.61951" lon="9.093425"><ele>218.0</ele><time>2026-04-18T07:07:32.443Z</time></trkpt><trkpt lat="45.6195617" lon="9.09351"><ele>218.5</ele><time>2026-04-18T07:07:35.444Z</time></trkpt><trkpt lat="45.619625" lon="9.09348"><ele>219.0</ele><time>2026-04-18T07:07:39.444Z</time></trkpt><trkpt lat="45.61969" lon="9.0934117"><ele>219.49999999999997</ele><time>2026-04-18T07:07:42.443Z</time></trkpt><trkpt lat="45.6197567" lon="9.0933617"><ele>220.0</ele><time>2026-04-18T07:07:45.442Z</time></trkpt><trkpt lat="45.6198317" lon="9.09339"><ele>219.99999999999997</ele><time>2026-04-18T07:07:51.443Z</time></trkpt><trkpt lat="45.619915" lon="9.0933967"><ele>220.0</ele><time>2026-04-18T07:07:55.443Z</time></trkpt><trkpt lat="45.6199783" lon="9.0933167"><ele>220.0</ele><time>2026-04-18T07:08:00.442Z</time></trkpt><trkpt lat="45.620035" lon="9.0932633"><ele>220.0</ele><time>2026-04-18T07:08:03.443Z</time></trkpt><trkpt lat="45.6200983" lon="9.0932017"><ele>219.99999999999997</ele><time>2026-04-18T07:08:06.444Z</time></trkpt><trkpt lat="45.6201733" lon="9.093145"><ele>220.0</ele><time>2026-04-18T07:08:10.443Z</time></trkpt><trkpt lat="45.6202433" lon="9.0931367"><ele>219.99999999999997</ele><time>2026-04-18T07:08:14.443Z</time></trkpt><trkpt lat="45.6203133" lon="9.0930817"><ele>220.0</ele><time>2026-04-18T07:08:16.443Z</time></trkpt><trkpt lat="45.6203833" lon="9.0930617"><ele>220.0</ele><time>2026-04-18T07:08:19.444Z</time></trkpt><trkpt lat="45.6204517" lon="9.0930733"><ele>220.0</ele><time>2026-04-18T07:08:21.444Z</time></trkpt><trkpt lat="45.62053" lon="9.093"><ele>219.99999999999997</ele><time>2026-04-18T07:08:23.444Z</time></trkpt><trkpt lat="45.6206333" lon="9.0929733"><ele>220.0</ele><time>2026-04-18T07:08:26.443Z</time></trkpt><trkpt lat="45.6207083" lon="9.09292"><ele>219.99999999999997</ele><time>2026-04-18T07:08:27.443Z</time></trkpt><trkpt lat="45.62078" lon="9.0928717"><ele>220.0</ele><time>2026-04-18T07:08:28.442Z</time></trkpt><trkpt lat="45.6208617" lon="9.09285"><ele>220.0</ele><time>2026-04-18T07:08:30.444Z</time></trkpt><trkpt lat="45.62091" lon="9.0927883"><ele>220.0</ele><time>2026-04-18T07:08:33.444Z</time></trkpt><trkpt lat="45.6209167" lon="9.092695"><ele>220.0</ele><time>2026-04-18T07:08:36.443Z</time></trkpt><trkpt lat="45.6209267" lon="9.0925867"><ele>219.99999999999997</ele><time>2026-04-18T07:08:38.443Z</time></trkpt><trkpt lat="45.62094" lon="9.0924933"><ele>220.0</ele><time>2026-04-18T07:08:40.443Z</time></trkpt><trkpt lat="45.620965" lon="9.09239"><ele>219.99999999999997</ele><time>2026-04-18T07:08:42.444Z</time></trkpt><trkpt lat="45.6210083" lon="9.0922783"><ele>220.0</ele><time>2026-04-18T07:08:45.443Z</time></trkpt><trkpt lat="45.621085" lon="9.0922233"><ele>220.0</ele><time>2026-04-18T07:08:49.443Z</time></trkpt><trkpt lat="45.6211433" lon="9.09226"><ele>220.0</ele><time>2026-04-18T07:08:53.443Z</time></trkpt><trkpt lat="45.621195" lon="9.0923317"><ele>220.0</ele><time>2026-04-18T07:08:56.442Z</time></trkpt><trkpt lat="45.6212467" lon="9.092395"><ele>219.99999999999997</ele><time>2026-04-18T07:08:58.443Z</time></trkpt><trkpt lat="45.621285" lon="9.0924667"><ele>220.0</ele><time>2026-04-18T07:09:00.442Z</time></trkpt><trkpt lat="45.621385" lon="9.0925033"><ele>220.0</ele><time>2026-04-18T07:09:03.444Z</time></trkpt><trkpt lat="45.621475" lon="9.09255"><ele>220.0</ele><time>2026-04-18T07:09:05.445Z</time></trkpt><trkpt lat="45.6215817" lon="9.0925667"><ele>220.0</ele><time>2026-04-18T07:09:07.443Z</time></trkpt><trkpt lat="45.6217167" lon="9.09254"><ele>220.0</ele><time>2026-04-18T07:09:09.443Z</time></trkpt><trkpt lat="45.6218083" lon="9.0925583"><ele>220.0</ele><time>2026-04-18T07:09:11.443Z</time></trkpt><trkpt lat="45.6218867" lon="9.0926183"><ele>220.0</ele><time>2026-04-18T07:09:13.444Z</time></trkpt><trkpt lat="45.6218033" lon="9.0928217"><ele>220.0</ele><time>2026-04-18T07:09:14.444Z</time></trkpt><trkpt lat="45.6219133" lon="9.0928383"><ele>220.0</ele><time>2026-04-18T07:09:17.444Z</time></trkpt><trkpt lat="45.6219867" lon="9.0927833"><ele>220.0</ele><time>2026-04-18T07:09:18.443Z</time></trkpt><trkpt lat="45.6220783" lon="9.0927317"><ele>219.99999999999997</ele><time>2026-04-18T07:09:20.443Z</time></trkpt><trkpt lat="45.62217" lon="9.0926067"><ele>220.0</ele><time>2026-04-18T07:09:21.444Z</time></trkpt><trkpt lat="45.6222267" lon="9.09252"><ele>220.0</ele><time>2026-04-18T07:09:22.443Z</time></trkpt><trkpt lat="45.6222667" lon="9.092435"><ele>220.0</ele><time>2026-04-18T07:09:24.444Z</time></trkpt><trkpt lat="45.6223283" lon="9.0923233"><ele>219.99999999999997</ele><time>2026-04-18T07:09:27.443Z</time></trkpt><trkpt lat="45.62236" lon="9.0922433"><ele>220.0</ele><time>2026-04-18T07:09:29.445Z</time></trkpt><trkpt lat="45.62235" lon="9.0920983"><ele>220.0</ele><time>2026-04-18T07:09:32.445Z</time></trkpt><trkpt lat="45.62227" lon="9.0919867"><ele>220.0</ele><time>2026-04-18T07:09:34.445Z</time></trkpt><trkpt lat="45.6222033" lon="9.0918917"><ele>220.0</ele><time>2026-04-18T07:09:36.444Z</time></trkpt><trkpt lat="45.6222333" lon="9.09177"><ele>220.0</ele><time>2026-04-18T07:09:39.445Z</time></trkpt><trkpt lat="45.6223117" lon="9.0916983"><ele>220.0</ele><time>2026-04-18T07:09:42.445Z</time></trkpt><trkpt lat="45.6223617" lon="9.0916217"><ele>220.66666666666666</ele><time>2026-04-18T07:09:45.445Z</time></trkpt><trkpt lat="45.6224033" lon="9.091535"><ele>221.33333333333331</ele><time>2026-04-18T07:09:47.444Z</time></trkpt><trkpt lat="45.622465" lon="9.0914583"><ele>222.0</ele><time>2026-04-18T07:09:49.444Z</time></trkpt><trkpt lat="45.6224783" lon="9.0913467"><ele>222.66666666666669</ele><time>2026-04-18T07:09:52.444Z</time></trkpt><trkpt lat="45.6225317" lon="9.0912933"><ele>223.33333333333334</ele><time>2026-04-18T07:09:54.449Z</time></trkpt><trkpt lat="45.6225167" lon="9.0911733"><ele>224.0</ele><time>2026-04-18T07:09:57.444Z</time></trkpt><trkpt lat="45.622595" lon="9.0910967"><ele>224.00000000000003</ele><time>2026-04-18T07:09:59.443Z</time></trkpt><trkpt lat="45.622645" lon="9.09104"><ele>224.0</ele><time>2026-04-18T07:10:01.444Z</time></trkpt><trkpt lat="45.6226767" lon="9.09095"><ele>224.0</ele><time>2026-04-18T07:10:04.443Z</time></trkpt><trkpt lat="45.622715" lon="9.0908333"><ele>224.0</ele><time>2026-04-18T07:10:07.443Z</time></trkpt><trkpt lat="45.6227383" lon="9.0907483"><ele>224.00000000000003</ele><time>2026-04-18T07:10:09.443Z</time></trkpt><trkpt lat="45.6227967" lon="9.09069"><ele>224.0</ele><time>2026-04-18T07:10:11.444Z</time></trkpt><trkpt lat="45.6228817" lon="9.0906433"><ele>224.0</ele><time>2026-04-18T07:10:13.444Z</time></trkpt><trkpt lat="45.6229417" lon="9.09059"><ele>223.99999999999997</ele><time>2026-04-18T07:10:15.444Z</time></trkpt><trkpt lat="45.6230067" lon="9.09056"><ele>223.99999999999997</ele><time>2026-04-18T07:10:17.445Z</time></trkpt><trkpt lat="45.623085" lon="9.0905433"><ele>224.0</ele><time>2026-04-18T07:10:19.444Z</time></trkpt><trkpt lat="45.6232417" lon="9.090635"><ele>224.0</ele><time>2026-04-18T07:10:20.443Z</time></trkpt><trkpt lat="45.6233183" lon="9.0906267"><ele>224.0</ele><time>2026-04-18T07:10:21.444Z</time></trkpt><trkpt lat="45.623395" lon="9.0905433"><ele>223.99999999999997</ele><time>2026-04-18T07:10:24.443Z</time></trkpt><trkpt lat="45.6234233" lon="9.090435"><ele>223.99999999999997</ele><time>2026-04-18T07:10:26.443Z</time></trkpt><trkpt lat="45.6234183" lon="9.0902867"><ele>224.0</ele><time>2026-04-18T07:10:29.444Z</time></trkpt><trkpt lat="45.6234383" lon="9.090185"><ele>224.0</ele><time>2026-04-18T07:10:31.444Z</time></trkpt><trkpt lat="45.6235333" lon="9.0900317"><ele>224.00000000000003</ele><time>2026-04-18T07:10:34.443Z</time></trkpt><trkpt lat="45.623555" lon="9.0899417"><ele>224.0</ele><time>2026-04-18T07:10:35.444Z</time></trkpt><trkpt lat="45.6236267" lon="9.0898083"><ele>224.0</ele><time>2026-04-18T07:10:37.444Z</time></trkpt><trkpt lat="45.623675" lon="9.0896833"><ele>224.0</ele><time>2026-04-18T07:10:39.443Z</time></trkpt><trkpt lat="45.6237183" lon="9.0896033"><ele>224.00000000000003</ele><time>2026-04-18T07:10:40.442Z</time></trkpt><trkpt lat="45.6237633" lon="9.0895283"><ele>224.0</ele><time>2026-04-18T07:10:41.444Z</time></trkpt><trkpt lat="45.623805" lon="9.089455"><ele>224.2</ele><time>2026-04-18T07:10:42.442Z</time></trkpt><trkpt lat="45.6238617" lon="9.0893667"><ele>224.39999999999998</ele><time>2026-04-18T07:10:43.444Z</time></trkpt><trkpt lat="45.623915" lon="9.0892567"><ele>224.6</ele><time>2026-04-18T07:10:45.444Z</time></trkpt><trkpt lat="45.6239533" lon="9.0891183"><ele>224.8</ele><time>2026-04-18T07:10:47.443Z</time></trkpt><trkpt lat="45.6239983" lon="9.08899"><ele>225.0</ele><time>2026-04-18T07:10:49.444Z</time></trkpt><trkpt lat="45.62404" lon="9.0888617"><ele>225.0</ele><time>2026-04-18T07:10:51.443Z</time></trkpt><trkpt lat="45.6240883" lon="9.0887417"><ele>225.0</ele><time>2026-04-18T07:10:53.443Z</time></trkpt><trkpt lat="45.6241517" lon="9.0886817"><ele>225.0</ele><time>2026-04-18T07:10:55.444Z</time></trkpt><trkpt lat="45.6242433" lon="9.0886483"><ele>225.0</ele><time>2026-04-18T07:10:57.444Z</time></trkpt><trkpt lat="45.62433" lon="9.0886267"><ele>225.0</ele><time>2026-04-18T07:10:59.443Z</time></trkpt><trkpt lat="45.6244467" lon="9.088615"><ele>225.16666666666666</ele><time>2026-04-18T07:11:01.443Z</time></trkpt><trkpt lat="45.6245483" lon="9.0886317"><ele>225.33333333333331</ele><time>2026-04-18T07:11:03.445Z</time></trkpt><trkpt lat="45.62462" lon="9.0886217"><ele>225.5</ele><time>2026-04-18T07:11:05.444Z</time></trkpt><trkpt lat="45.624725" lon="9.0886383"><ele>225.66666666666666</ele><time>2026-04-18T07:11:07.444Z</time></trkpt><trkpt lat="45.6248017" lon="9.0886283"><ele>225.83333333333331</ele><time>2026-04-18T07:11:09.444Z</time></trkpt><trkpt lat="45.6248767" lon="9.088595"><ele>226.0</ele><time>2026-04-18T07:11:11.443Z</time></trkpt><trkpt lat="45.6249367" lon="9.0885533"><ele>226.0</ele><time>2026-04-18T07:11:14.444Z</time></trkpt><trkpt lat="45.6250833" lon="9.0883967"><ele>226.0</ele><time>2026-04-18T07:11:18.444Z</time></trkpt><trkpt lat="45.6251417" lon="9.0883067"><ele>226.0</ele><time>2026-04-18T07:11:19.443Z</time></trkpt><trkpt lat="45.6252233" lon="9.0881883"><ele>226.0</ele><time>2026-04-18T07:11:21.444Z</time></trkpt><trkpt lat="45.625285" lon="9.0881167"><ele>225.99999999999997</ele><time>2026-04-18T07:11:23.444Z</time></trkpt><trkpt lat="45.62534" lon="9.0880667"><ele>226.0</ele><time>2026-04-18T07:11:27.444Z</time></trkpt><trkpt lat="45.6254017" lon="9.088005"><ele>226.0</ele><time>2026-04-18T07:11:30.444Z</time></trkpt><trkpt lat="45.6254633" lon="9.08794"><ele>226.0</ele><time>2026-04-18T07:11:32.444Z</time></trkpt><trkpt lat="45.625515" lon="9.0878483"><ele>225.99999999999997</ele><time>2026-04-18T07:11:34.444Z</time></trkpt><trkpt lat="45.6255783" lon="9.0877667"><ele>226.0</ele><time>2026-04-18T07:11:37.443Z</time></trkpt><trkpt lat="45.6256017" lon="9.0878617"><ele>226.0</ele><time>2026-04-18T07:11:44.444Z</time></trkpt><trkpt lat="45.6256367" lon="9.0879633"><ele>226.0</ele><time>2026-04-18T07:11:48.445Z</time></trkpt><trkpt lat="45.6256867" lon="9.08802"><ele>226.0</ele><time>2026-04-18T07:11:50.445Z</time></trkpt><trkpt lat="45.6257367" lon="9.0880933"><ele>226.0</ele><time>2026-04-18T07:11:55.446Z</time></trkpt><trkpt lat="45.6257633" lon="9.08818"><ele>226.0</ele><time>2026-04-18T07:11:58.444Z</time></trkpt><trkpt lat="45.6258033" lon="9.0882933"><ele>226.0</ele><time>2026-04-18T07:12:02.445Z</time></trkpt><trkpt lat="45.6258017" lon="9.0884067"><ele>226.0</ele><time>2026-04-18T07:12:05.444Z</time></trkpt><trkpt lat="45.625815" lon="9.088515"><ele>225.83333333333331</ele><time>2026-04-18T07:12:07.444Z</time></trkpt><trkpt lat="45.6258217" lon="9.0886267"><ele>225.66666666666666</ele><time>2026-04-18T07:12:09.443Z</time></trkpt><trkpt lat="45.6258233" lon="9.0887583"><ele>225.5</ele><time>2026-04-18T07:12:11.444Z</time></trkpt><trkpt lat="45.6258333" lon="9.0888683"><ele>225.33333333333331</ele><time>2026-04-18T07:12:13.445Z</time></trkpt><trkpt lat="45.6258383" lon="9.0889867"><ele>225.16666666666666</ele><time>2026-04-18T07:12:16.444Z</time></trkpt><trkpt lat="45.6258767" lon="9.08908"><ele>225.0</ele><time>2026-04-18T07:12:20.443Z</time></trkpt><trkpt lat="45.6259333" lon="9.089135"><ele>225.0</ele><time>2026-04-18T07:12:26.444Z</time></trkpt><trkpt lat="45.625905" lon="9.0892217"><ele>225.0</ele><time>2026-04-18T07:12:29.444Z</time></trkpt><trkpt lat="45.625905" lon="9.08933"><ele>225.0</ele><time>2026-04-18T07:12:32.444Z</time></trkpt><trkpt lat="45.6259383" lon="9.089465"><ele>225.0</ele><time>2026-04-18T07:12:34.443Z</time></trkpt><trkpt lat="45.6259667" lon="9.0895767"><ele>225.0</ele><time>2026-04-18T07:12:37.444Z</time></trkpt><trkpt lat="45.6260417" lon="9.0896483"><ele>225.0</ele><time>2026-04-18T07:12:39.443Z</time></trkpt><trkpt lat="45.6261433" lon="9.0896083"><ele>224.83333333333334</ele><time>2026-04-18T07:12:47.442Z</time></trkpt><trkpt lat="45.62621" lon="9.0895867"><ele>224.66666666666669</ele><time>2026-04-18T07:12:52.442Z</time></trkpt><trkpt lat="45.626285" lon="9.0895867"><ele>224.5</ele><time>2026-04-18T07:12:58.443Z</time></trkpt><trkpt lat="45.6263633" lon="9.0895717"><ele>224.33333333333334</ele><time>2026-04-18T07:13:01.443Z</time></trkpt><trkpt lat="45.6264317" lon="9.0895717"><ele>224.16666666666669</ele><time>2026-04-18T07:13:03.442Z</time></trkpt><trkpt lat="45.62652" lon="9.0895583"><ele>224.0</ele><time>2026-04-18T07:13:06.443Z</time></trkpt><trkpt lat="45.62663" lon="9.0895217"><ele>224.00000000000003</ele><time>2026-04-18T07:13:08.444Z</time></trkpt><trkpt lat="45.6267217" lon="9.0894917"><ele>224.0</ele><time>2026-04-18T07:13:10.443Z</time></trkpt><trkpt lat="45.626805" lon="9.089455"><ele>224.0</ele><time>2026-04-18T07:13:13.443Z</time></trkpt><trkpt lat="45.626895" lon="9.089475"><ele>224.0</ele><time>2026-04-18T07:13:16.442Z</time></trkpt><trkpt lat="45.6269683" lon="9.0895"><ele>224.00000000000003</ele><time>2026-04-18T07:13:18.444Z</time></trkpt><trkpt lat="45.6270367" lon="9.0895033"><ele>224.0</ele><time>2026-04-18T07:13:20.444Z</time></trkpt><trkpt lat="45.6271367" lon="9.0895033"><ele>225.16666666666669</ele><time>2026-04-18T07:13:23.444Z</time></trkpt><trkpt lat="45.6272133" lon="9.0894817"><ele>226.33333333333334</ele><time>2026-04-18T07:13:26.443Z</time></trkpt><trkpt lat="45.6272733" lon="9.0895233"><ele>227.5</ele><time>2026-04-18T07:13:29.444Z</time></trkpt><trkpt lat="45.627355" lon="9.08959"><ele>228.66666666666669</ele><time>2026-04-18T07:13:32.443Z</time></trkpt><trkpt lat="45.6274417" lon="9.089565"><ele>229.83333333333334</ele><time>2026-04-18T07:13:34.444Z</time></trkpt><trkpt lat="45.6275083" lon="9.0895617"><ele>231.0</ele><time>2026-04-18T07:13:36.444Z</time></trkpt><trkpt lat="45.6275633" lon="9.0894983"><ele>231.0</ele><time>2026-04-18T07:13:39.443Z</time></trkpt><trkpt lat="45.62763" lon="9.0894"><ele>231.0</ele><time>2026-04-18T07:13:42.443Z</time></trkpt><trkpt lat="45.6276633" lon="9.0893033"><ele>231.0</ele><time>2026-04-18T07:13:45.443Z</time></trkpt><trkpt lat="45.6277017" lon="9.089185"><ele>231.0</ele><time>2026-04-18T07:13:48.443Z</time></trkpt><trkpt lat="45.6277817" lon="9.0891067"><ele>231.0</ele><time>2026-04-18T07:13:50.444Z</time></trkpt><trkpt lat="45.6278317" lon="9.0890183"><ele>231.0</ele><time>2026-04-18T07:13:52.443Z</time></trkpt><trkpt lat="45.627875" lon="9.0889283"><ele>230.0</ele><time>2026-04-18T07:13:54.443Z</time></trkpt><trkpt lat="45.62797" lon="9.0888467"><ele>229.0</ele><time>2026-04-18T07:13:56.442Z</time></trkpt><trkpt lat="45.6280683" lon="9.0888"><ele>228.0</ele><time>2026-04-18T07:13:58.443Z</time></trkpt><trkpt lat="45.62815" lon="9.0887483"><ele>227.0</ele><time>2026-04-18T07:14:00.443Z</time></trkpt><trkpt lat="45.6282183" lon="9.0887233"><ele>226.0</ele><time>2026-04-18T07:14:02.443Z</time></trkpt><trkpt lat="45.628285" lon="9.0886983"><ele>225.0</ele><time>2026-04-18T07:14:04.443Z</time></trkpt><trkpt lat="45.6283683" lon="9.08866"><ele>225.0</ele><time>2026-04-18T07:14:07.443Z</time></trkpt><trkpt lat="45.6284317" lon="9.0886167"><ele>225.0</ele><time>2026-04-18T07:14:10.443Z</time></trkpt><trkpt lat="45.6284717" lon="9.0887033"><ele>225.0</ele><time>2026-04-18T07:14:13.444Z</time></trkpt><trkpt lat="45.6285483" lon="9.088715"><ele>225.0</ele><time>2026-04-18T07:14:16.443Z</time></trkpt><trkpt lat="45.6286467" lon="9.0886917"><ele>225.0</ele><time>2026-04-18T07:14:19.444Z</time></trkpt><trkpt lat="45.6287367" lon="9.0886867"><ele>225.0</ele><time>2026-04-18T07:14:21.443Z</time></trkpt><trkpt lat="45.6288" lon="9.088675"><ele>224.5</ele><time>2026-04-18T07:14:23.443Z</time></trkpt><trkpt lat="45.6288433" lon="9.0885767"><ele>224.0</ele><time>2026-04-18T07:14:24.443Z</time></trkpt><trkpt lat="45.6288917" lon="9.088515"><ele>223.5</ele><time>2026-04-18T07:14:25.443Z</time></trkpt><trkpt lat="45.6289417" lon="9.08846"><ele>223.0</ele><time>2026-04-18T07:14:26.443Z</time></trkpt><trkpt lat="45.6290283" lon="9.08838"><ele>222.5</ele><time>2026-04-18T07:14:28.442Z</time></trkpt><trkpt lat="45.629115" lon="9.0883383"><ele>222.0</ele><time>2026-04-18T07:14:30.443Z</time></trkpt><trkpt lat="45.62918" lon="9.0883467"><ele>222.0</ele><time>2026-04-18T07:14:32.444Z</time></trkpt><trkpt lat="45.6292317" lon="9.0885167"><ele>222.0</ele><time>2026-04-18T07:14:35.443Z</time></trkpt><trkpt lat="45.6292483" lon="9.0886383"><ele>222.0</ele><time>2026-04-18T07:14:36.444Z</time></trkpt><trkpt lat="45.6292867" lon="9.0887667"><ele>222.0</ele><time>2026-04-18T07:14:38.443Z</time></trkpt><trkpt lat="45.6293933" lon="9.088835"><ele>222.0</ele><time>2026-04-18T07:14:51.443Z</time></trkpt><trkpt lat="45.6293983" lon="9.0887417"><ele>222.0</ele><time>2026-04-18T07:14:54.445Z</time></trkpt><trkpt lat="45.629405" lon="9.08865"><ele>222.0</ele><time>2026-04-18T07:14:56.444Z</time></trkpt><trkpt lat="45.629415" lon="9.0885583"><ele>222.0</ele><time>2026-04-18T07:14:58.443Z</time></trkpt><trkpt lat="45.6294217" lon="9.0884517"><ele>222.0</ele><time>2026-04-18T07:15:01.443Z</time></trkpt><trkpt lat="45.629425" lon="9.08836"><ele>222.0</ele><time>2026-04-18T07:15:04.445Z</time></trkpt><trkpt lat="45.629515" lon="9.0883383"><ele>222.0</ele><time>2026-04-18T07:15:08.444Z</time></trkpt><trkpt lat="45.6295867" lon="9.08835"><ele>222.0</ele><time>2026-04-18T07:15:10.443Z</time></trkpt><trkpt lat="45.62967" lon="9.0883567"><ele>222.5</ele><time>2026-04-18T07:15:13.444Z</time></trkpt><trkpt lat="45.6297333" lon="9.0883567"><ele>223.0</ele><time>2026-04-18T07:15:15.444Z</time></trkpt><trkpt lat="45.6298" lon="9.0883433"><ele>223.5</ele><time>2026-04-18T07:15:17.444Z</time></trkpt><trkpt lat="45.6298733" lon="9.0883283"><ele>224.0</ele><time>2026-04-18T07:15:19.444Z</time></trkpt><trkpt lat="45.6302595" lon="9.0893216"><ele>227.0</ele><time>2026-04-18T07:15:40.413Z</time></trkpt><trkpt lat="45.6301717" lon="9.088105"><ele>228.25</ele><time>2026-04-18T07:15:42.797Z</time></trkpt><trkpt lat="45.6303483" lon="9.088085"><ele>229.5</ele><time>2026-04-18T07:15:45.442Z</time></trkpt><trkpt lat="45.6304483" lon="9.0880933"><ele>230.75</ele><time>2026-04-18T07:15:47.443Z</time></trkpt><trkpt lat="45.6305433" lon="9.088065"><ele>232.0</ele><time>2026-04-18T07:15:49.443Z</time></trkpt><trkpt lat="45.63065" lon="9.088035"><ele>231.99999999999997</ele><time>2026-04-18T07:15:51.444Z</time></trkpt><trkpt lat="45.6307233" lon="9.0879983"><ele>232.0</ele><time>2026-04-18T07:15:53.443Z</time></trkpt><trkpt lat="45.6308217" lon="9.0879967"><ele>232.0</ele><time>2026-04-18T07:15:55.447Z</time></trkpt><trkpt lat="45.6308983" lon="9.0879783"><ele>232.0</ele><time>2026-04-18T07:15:57.443Z</time></trkpt><trkpt lat="45.631" lon="9.0879817"><ele>231.99999999999997</ele><time>2026-04-18T07:15:59.443Z</time></trkpt><trkpt lat="45.6310833" lon="9.0879767"><ele>232.0</ele><time>2026-04-18T07:16:01.445Z</time></trkpt><trkpt lat="45.6311683" lon="9.0879633"><ele>232.2</ele><time>2026-04-18T07:16:03.443Z</time></trkpt><trkpt lat="45.6312883" lon="9.0879633"><ele>232.39999999999998</ele><time>2026-04-18T07:16:05.444Z</time></trkpt><trkpt lat="45.63137" lon="9.0879167"><ele>232.60000000000002</ele><time>2026-04-18T07:16:07.444Z</time></trkpt><trkpt lat="45.63145" lon="9.0878667"><ele>232.8</ele><time>2026-04-18T07:16:09.444Z</time></trkpt><trkpt lat="45.63153" lon="9.0878033"><ele>233.0</ele><time>2026-04-18T07:16:11.445Z</time></trkpt><trkpt lat="45.631605" lon="9.0877383"><ele>233.00000000000003</ele><time>2026-04-18T07:16:13.445Z</time></trkpt><trkpt lat="45.6316717" lon="9.0876833"><ele>233.0</ele><time>2026-04-18T07:16:15.444Z</time></trkpt><trkpt lat="45.6317517" lon="9.0876383"><ele>233.0</ele><time>2026-04-18T07:16:17.444Z</time></trkpt><trkpt lat="45.631825" lon="9.0875767"><ele>233.0</ele><time>2026-04-18T07:16:19.444Z</time></trkpt><trkpt lat="45.6318917" lon="9.0875467"><ele>233.00000000000003</ele><time>2026-04-18T07:16:21.444Z</time></trkpt><trkpt lat="45.6319533" lon="9.0875067"><ele>233.0</ele><time>2026-04-18T07:16:23.444Z</time></trkpt><trkpt lat="45.6320383" lon="9.0874433"><ele>234.14285714285717</ele><time>2026-04-18T07:16:26.445Z</time></trkpt><trkpt lat="45.6321" lon="9.0873917"><ele>235.28571428571428</ele><time>2026-04-18T07:16:28.444Z</time></trkpt><trkpt lat="45.632155" lon="9.087345"><ele>236.42857142857144</ele><time>2026-04-18T07:16:30.444Z</time></trkpt><trkpt lat="45.6322167" lon="9.0872967"><ele>237.57142857142858</ele><time>2026-04-18T07:16:32.444Z</time></trkpt><trkpt lat="45.63228" lon="9.0872433"><ele>238.71428571428572</ele><time>2026-04-18T07:16:34.444Z</time></trkpt><trkpt lat="45.6323583" lon="9.0872133"><ele>239.85714285714286</ele><time>2026-04-18T07:16:36.443Z</time></trkpt><trkpt lat="45.632425" lon="9.08719"><ele>241.0</ele><time>2026-04-18T07:16:38.444Z</time></trkpt><trkpt lat="45.632495" lon="9.087185"><ele>240.99999999999997</ele><time>2026-04-18T07:16:40.443Z</time></trkpt><trkpt lat="45.63256" lon="9.0872167"><ele>241.0</ele><time>2026-04-18T07:16:42.443Z</time></trkpt><trkpt lat="45.6326383" lon="9.0872533"><ele>241.0</ele><time>2026-04-18T07:16:44.444Z</time></trkpt><trkpt lat="45.6327017" lon="9.087295"><ele>241.0</ele><time>2026-04-18T07:16:46.445Z</time></trkpt><trkpt lat="45.6327833" lon="9.0873333"><ele>240.99999999999997</ele><time>2026-04-18T07:16:49.443Z</time></trkpt><trkpt lat="45.632875" lon="9.0873683"><ele>241.0</ele><time>2026-04-18T07:16:52.444Z</time></trkpt><trkpt lat="45.63294" lon="9.0873617"><ele>240.99999999999997</ele><time>2026-04-18T07:16:54.444Z</time></trkpt><trkpt lat="45.6330217" lon="9.0873283"><ele>241.0</ele><time>2026-04-18T07:16:57.444Z</time></trkpt><trkpt lat="45.6331" lon="9.0873217"><ele>241.0</ele><time>2026-04-18T07:17:00.444Z</time></trkpt><trkpt lat="45.6331683" lon="9.087355"><ele>241.0</ele><time>2026-04-18T07:17:03.444Z</time></trkpt><trkpt lat="45.6332383" lon="9.087425"><ele>240.99999999999997</ele><time>2026-04-18T07:17:06.443Z</time></trkpt><trkpt lat="45.6332883" lon="9.0874833"><ele>241.0</ele><time>2026-04-18T07:17:08.443Z</time></trkpt><trkpt lat="45.6333433" lon="9.087535"><ele>240.99999999999997</ele><time>2026-04-18T07:17:10.445Z</time></trkpt><trkpt lat="45.6334117" lon="9.0875533"><ele>241.0</ele><time>2026-04-18T07:17:12.445Z</time></trkpt><trkpt lat="45.633505" lon="9.0875883"><ele>241.0</ele><time>2026-04-18T07:17:15.444Z</time></trkpt><trkpt lat="45.6335667" lon="9.08762"><ele>241.0</ele><time>2026-04-18T07:17:17.444Z</time></trkpt><trkpt lat="45.63364" lon="9.08768"><ele>240.99999999999997</ele><time>2026-04-18T07:17:20.446Z</time></trkpt><trkpt lat="45.633705" lon="9.0877617"><ele>241.0</ele><time>2026-04-18T07:17:23.444Z</time></trkpt><trkpt lat="45.63375" lon="9.0878317"><ele>240.83333333333331</ele><time>2026-04-18T07:17:25.444Z</time></trkpt><trkpt lat="45.6337917" lon="9.0879033"><ele>240.66666666666666</ele><time>2026-04-18T07:17:27.444Z</time></trkpt><trkpt lat="45.63384" lon="9.0879933"><ele>240.5</ele><time>2026-04-18T07:17:30.443Z</time></trkpt><trkpt lat="45.6339" lon="9.0879617"><ele>240.33333333333331</ele><time>2026-04-18T07:17:31.444Z</time></trkpt><trkpt lat="45.633955" lon="9.08803"><ele>240.16666666666666</ele><time>2026-04-18T07:17:33.444Z</time></trkpt><trkpt lat="45.6339933" lon="9.0881417"><ele>240.0</ele><time>2026-04-18T07:17:36.445Z</time></trkpt><trkpt lat="45.6340667" lon="9.0882183"><ele>239.66666666666666</ele><time>2026-04-18T07:17:39.443Z</time></trkpt><trkpt lat="45.6341233" lon="9.088315"><ele>239.33333333333331</ele><time>2026-04-18T07:17:42.445Z</time></trkpt><trkpt lat="45.6341567" lon="9.0884"><ele>239.0</ele><time>2026-04-18T07:17:44.445Z</time></trkpt><trkpt lat="45.6342083" lon="9.0885017"><ele>238.66666666666666</ele><time>2026-04-18T07:17:47.444Z</time></trkpt><trkpt lat="45.634275" lon="9.0885783"><ele>238.33333333333331</ele><time>2026-04-18T07:17:49.446Z</time></trkpt><trkpt lat="45.6343433" lon="9.08865"><ele>238.0</ele><time>2026-04-18T07:17:51.444Z</time></trkpt><trkpt lat="45.634415" lon="9.0887067"><ele>238.42857142857144</ele><time>2026-04-18T07:17:53.443Z</time></trkpt><trkpt lat="45.6344867" lon="9.0887717"><ele>238.85714285714286</ele><time>2026-04-18T07:17:55.444Z</time></trkpt><trkpt lat="45.6345533" lon="9.0888183"><ele>239.28571428571428</ele><time>2026-04-18T07:17:57.443Z</time></trkpt><trkpt lat="45.634615" lon="9.0888483"><ele>239.71428571428572</ele><time>2026-04-18T07:17:59.444Z</time></trkpt><trkpt lat="45.6346817" lon="9.088875"><ele>240.14285714285717</ele><time>2026-04-18T07:18:01.443Z</time></trkpt><trkpt lat="45.6347483" lon="9.0889083"><ele>240.57142857142858</ele><time>2026-04-18T07:18:04.444Z</time></trkpt><trkpt lat="45.6348167" lon="9.0889467"><ele>241.0</ele><time>2026-04-18T07:18:07.444Z</time></trkpt><trkpt lat="45.6348883" lon="9.0889783"><ele>241.0</ele><time>2026-04-18T07:18:09.444Z</time></trkpt><trkpt lat="45.63497" lon="9.0890233"><ele>241.00000000000003</ele><time>2026-04-18T07:18:11.443Z</time></trkpt><trkpt lat="45.6350883" lon="9.0891017"><ele>241.00000000000003</ele><time>2026-04-18T07:18:13.443Z</time></trkpt><trkpt lat="45.6351483" lon="9.089145"><ele>241.0</ele><time>2026-04-18T07:18:14.444Z</time></trkpt><trkpt lat="45.6352533" lon="9.08921"><ele>241.0</ele><time>2026-04-18T07:18:16.443Z</time></trkpt><trkpt lat="45.63535" lon="9.08927"><ele>240.83333333333331</ele><time>2026-04-18T07:18:18.444Z</time></trkpt><trkpt lat="45.6354533" lon="9.0893233"><ele>240.66666666666666</ele><time>2026-04-18T07:18:20.445Z</time></trkpt><trkpt lat="45.6355283" lon="9.0893533"><ele>240.5</ele><time>2026-04-18T07:18:22.444Z</time></trkpt><trkpt lat="45.6355933" lon="9.0894017"><ele>240.33333333333331</ele><time>2026-04-18T07:18:24.445Z</time></trkpt><trkpt lat="45.635655" lon="9.0894283"><ele>240.16666666666666</ele><time>2026-04-18T07:18:26.444Z</time></trkpt><trkpt lat="45.6357233" lon="9.08945"><ele>240.0</ele><time>2026-04-18T07:18:28.444Z</time></trkpt><trkpt lat="45.6358067" lon="9.089465"><ele>240.0</ele><time>2026-04-18T07:18:30.443Z</time></trkpt><trkpt lat="45.6358733" lon="9.08949"><ele>240.0</ele><time>2026-04-18T07:18:32.444Z</time></trkpt><trkpt lat="45.6359483" lon="9.0895"><ele>240.0</ele><time>2026-04-18T07:18:35.444Z</time></trkpt><trkpt lat="45.6360067" lon="9.089565"><ele>240.0</ele><time>2026-04-18T07:18:39.444Z</time></trkpt><trkpt lat="45.6360483" lon="9.0896717"><ele>240.0</ele><time>2026-04-18T07:18:42.443Z</time></trkpt><trkpt lat="45.6361" lon="9.0897367"><ele>240.0</ele><time>2026-04-18T07:18:44.444Z</time></trkpt><trkpt lat="45.63616" lon="9.0897883"><ele>240.0</ele><time>2026-04-18T07:18:46.445Z</time></trkpt><trkpt lat="45.6362317" lon="9.0898333"><ele>239.83333333333334</ele><time>2026-04-18T07:18:48.444Z</time></trkpt><trkpt lat="45.6363233" lon="9.0899067"><ele>239.66666666666669</ele><time>2026-04-18T07:18:51.445Z</time></trkpt><trkpt lat="45.6364133" lon="9.0899667"><ele>239.5</ele><time>2026-04-18T07:18:54.444Z</time></trkpt><trkpt lat="45.6364817" lon="9.0900033"><ele>239.33333333333334</ele><time>2026-04-18T07:18:56.444Z</time></trkpt><trkpt lat="45.63655" lon="9.090055"><ele>239.16666666666669</ele><time>2026-04-18T07:18:58.444Z</time></trkpt><trkpt lat="45.6366217" lon="9.090105"><ele>239.0</ele><time>2026-04-18T07:19:00.444Z</time></trkpt><trkpt lat="45.6366833" lon="9.09016"><ele>239.00000000000003</ele><time>2026-04-18T07:19:02.445Z</time></trkpt><trkpt lat="45.6367317" lon="9.09023"><ele>239.0</ele><time>2026-04-18T07:19:04.443Z</time></trkpt><trkpt lat="45.6367883" lon="9.09032"><ele>239.0</ele><time>2026-04-18T07:19:07.446Z</time></trkpt><trkpt lat="45.63683" lon="9.0904117"><ele>239.0</ele><time>2026-04-18T07:19:10.445Z</time></trkpt><trkpt lat="45.6368817" lon="9.0905067"><ele>239.00000000000003</ele><time>2026-04-18T07:19:14.445Z</time></trkpt><trkpt lat="45.6368983" lon="9.0906"><ele>239.0</ele><time>2026-04-18T07:19:17.443Z</time></trkpt><trkpt lat="45.6369183" lon="9.09071"><ele>239.39999999999998</ele><time>2026-04-18T07:19:20.443Z</time></trkpt><trkpt lat="45.6369283" lon="9.0909083"><ele>239.79999999999998</ele><time>2026-04-18T07:19:27.444Z</time></trkpt><trkpt lat="45.636925" lon="9.0910183"><ele>240.20000000000002</ele><time>2026-04-18T07:19:29.443Z</time></trkpt><trkpt lat="45.63693" lon="9.091135"><ele>240.60000000000002</ele><time>2026-04-18T07:19:31.444Z</time></trkpt><trkpt lat="45.6369233" lon="9.091275"><ele>241.0</ele><time>2026-04-18T07:19:33.445Z</time></trkpt><trkpt lat="45.6369067" lon="9.09143"><ele>241.0</ele><time>2026-04-18T07:19:35.445Z</time></trkpt><trkpt lat="45.636895" lon="9.0915933"><ele>241.00000000000003</ele><time>2026-04-18T07:19:37.444Z</time></trkpt><trkpt lat="45.6368983" lon="9.0917617"><ele>241.00000000000003</ele><time>2026-04-18T07:19:39.445Z</time></trkpt><trkpt lat="45.6369117" lon="9.0919083"><ele>241.0</ele><time>2026-04-18T07:19:41.445Z</time></trkpt><trkpt lat="45.6369417" lon="9.0920167"><ele>241.0</ele><time>2026-04-18T07:19:43.445Z</time></trkpt><trkpt lat="45.637015" lon="9.0921217"><ele>240.99999999999997</ele><time>2026-04-18T07:19:45.444Z</time></trkpt><trkpt lat="45.6371083" lon="9.0922333"><ele>241.0</ele><time>2026-04-18T07:19:47.445Z</time></trkpt><trkpt lat="45.63717" lon="9.092265"><ele>241.0</ele><time>2026-04-18T07:19:50.445Z</time></trkpt><trkpt lat="45.6372333" lon="9.0922567"><ele>241.0</ele><time>2026-04-18T07:19:53.445Z</time></trkpt><trkpt lat="45.6373133" lon="9.0922533"><ele>240.99999999999997</ele><time>2026-04-18T07:19:56.444Z</time></trkpt><trkpt lat="45.6373883" lon="9.0922517"><ele>241.0</ele><time>2026-04-18T07:19:58.445Z</time></trkpt><trkpt lat="45.637475" lon="9.09226"><ele>240.99999999999997</ele><time>2026-04-18T07:20:00.444Z</time></trkpt><trkpt lat="45.63755" lon="9.09227"><ele>241.0</ele><time>2026-04-18T07:20:02.444Z</time></trkpt><trkpt lat="45.6376183" lon="9.0922717"><ele>241.0</ele><time>2026-04-18T07:20:04.444Z</time></trkpt><trkpt lat="45.63769" lon="9.0922467"><ele>241.0</ele><time>2026-04-18T07:20:06.443Z</time></trkpt><trkpt lat="45.637775" lon="9.09221"><ele>240.99999999999997</ele><time>2026-04-18T07:20:08.445Z</time></trkpt><trkpt lat="45.63784" lon="9.0921767"><ele>241.0</ele><time>2026-04-18T07:20:10.444Z</time></trkpt><trkpt lat="45.6379183" lon="9.09215"><ele>240.66666666666666</ele><time>2026-04-18T07:20:13.445Z</time></trkpt><trkpt lat="45.63801" lon="9.092155"><ele>240.33333333333331</ele><time>2026-04-18T07:20:16.444Z</time></trkpt><trkpt lat="45.6381083" lon="9.0921483"><ele>240.0</ele><time>2026-04-18T07:20:19.444Z</time></trkpt><trkpt lat="45.6382" lon="9.0921383"><ele>239.66666666666669</ele><time>2026-04-18T07:20:22.445Z</time></trkpt><trkpt lat="45.63828" lon="9.0921183"><ele>239.33333333333334</ele><time>2026-04-18T07:20:24.444Z</time></trkpt><trkpt lat="45.6383367" lon="9.09207"><ele>239.0</ele><time>2026-04-18T07:20:25.445Z</time></trkpt><trkpt lat="45.6384367" lon="9.092005"><ele>239.0</ele><time>2026-04-18T07:20:27.445Z</time></trkpt><trkpt lat="45.6385333" lon="9.0919383"><ele>238.99999999999997</ele><time>2026-04-18T07:20:29.444Z</time></trkpt><trkpt lat="45.6386533" lon="9.0918817"><ele>238.99999999999997</ele><time>2026-04-18T07:20:31.445Z</time></trkpt><trkpt lat="45.638715" lon="9.091855"><ele>239.0</ele><time>2026-04-18T07:20:32.444Z</time></trkpt><trkpt lat="45.6388033" lon="9.091825"><ele>239.0</ele><time>2026-04-18T07:20:34.444Z</time></trkpt><trkpt lat="45.6388933" lon="9.0917783"><ele>239.16666666666669</ele><time>2026-04-18T07:20:36.444Z</time></trkpt><trkpt lat="45.63898" lon="9.0917467"><ele>239.33333333333334</ele><time>2026-04-18T07:20:38.445Z</time></trkpt><trkpt lat="45.63907" lon="9.0916983"><ele>239.5</ele><time>2026-04-18T07:20:40.445Z</time></trkpt><trkpt lat="45.6391367" lon="9.09167"><ele>239.66666666666669</ele><time>2026-04-18T07:20:42.444Z</time></trkpt><trkpt lat="45.6391967" lon="9.091625"><ele>239.83333333333334</ele><time>2026-04-18T07:20:44.445Z</time></trkpt><trkpt lat="45.6392583" lon="9.0915967"><ele>240.0</ele><time>2026-04-18T07:20:46.445Z</time></trkpt><trkpt lat="45.639325" lon="9.0916233"><ele>240.0</ele><time>2026-04-18T07:20:48.445Z</time></trkpt><trkpt lat="45.6393933" lon="9.0916167"><ele>240.0</ele><time>2026-04-18T07:20:50.445Z</time></trkpt><trkpt lat="45.639475" lon="9.0916117"><ele>240.0</ele><time>2026-04-18T07:20:52.444Z</time></trkpt><trkpt lat="45.63958" lon="9.09156"><ele>240.0</ele><time>2026-04-18T07:20:54.445Z</time></trkpt><trkpt lat="45.6396617" lon="9.0915367"><ele>240.0</ele><time>2026-04-18T07:20:56.445Z</time></trkpt><trkpt lat="45.6397383" lon="9.0915283"><ele>240.0</ele><time>2026-04-18T07:20:58.445Z</time></trkpt><trkpt lat="45.6398217" lon="9.0915083"><ele>239.5</ele><time>2026-04-18T07:21:00.445Z</time></trkpt><trkpt lat="45.6398983" lon="9.0914733"><ele>239.0</ele><time>2026-04-18T07:21:02.446Z</time></trkpt><trkpt lat="45.63998" lon="9.091435"><ele>238.5</ele><time>2026-04-18T07:21:04.445Z</time></trkpt><trkpt lat="45.6400617" lon="9.0913717"><ele>238.0</ele><time>2026-04-18T07:21:06.446Z</time></trkpt><trkpt lat="45.64015" lon="9.0913167"><ele>237.5</ele><time>2026-04-18T07:21:09.445Z</time></trkpt><trkpt lat="45.6402283" lon="9.09127"><ele>237.0</ele><time>2026-04-18T07:21:12.444Z</time></trkpt><trkpt lat="45.640315" lon="9.09125"><ele>236.83333333333334</ele><time>2026-04-18T07:21:15.444Z</time></trkpt><trkpt lat="45.6403883" lon="9.0912483"><ele>236.66666666666669</ele><time>2026-04-18T07:21:17.444Z</time></trkpt><trkpt lat="45.6404867" lon="9.091255"><ele>236.5</ele><time>2026-04-18T07:21:20.443Z</time></trkpt><trkpt lat="45.6405667" lon="9.0912517"><ele>236.33333333333334</ele><time>2026-04-18T07:21:23.444Z</time></trkpt><trkpt lat="45.64063" lon="9.0912933"><ele>236.16666666666669</ele><time>2026-04-18T07:21:27.443Z</time></trkpt><trkpt lat="45.6406433" lon="9.0913917"><ele>236.0</ele><time>2026-04-18T07:21:31.444Z</time></trkpt><trkpt lat="45.6406117" lon="9.0915183"><ele>236.16666666666669</ele><time>2026-04-18T07:21:34.445Z</time></trkpt><trkpt lat="45.6405917" lon="9.0916167"><ele>236.33333333333334</ele><time>2026-04-18T07:21:36.443Z</time></trkpt><trkpt lat="45.6405767" lon="9.09171"><ele>236.5</ele><time>2026-04-18T07:21:38.445Z</time></trkpt><trkpt lat="45.640565" lon="9.0918333"><ele>236.66666666666669</ele><time>2026-04-18T07:21:41.443Z</time></trkpt><trkpt lat="45.6405567" lon="9.091935"><ele>236.83333333333334</ele><time>2026-04-18T07:21:43.443Z</time></trkpt><trkpt lat="45.6405533" lon="9.0920317"><ele>237.0</ele><time>2026-04-18T07:21:45.443Z</time></trkpt><trkpt lat="45.6405733" lon="9.0921583"><ele>237.0</ele><time>2026-04-18T07:21:48.444Z</time></trkpt><trkpt lat="45.640605" lon="9.0922483"><ele>237.0</ele><time>2026-04-18T07:21:50.444Z</time></trkpt><trkpt lat="45.6406367" lon="9.0923683"><ele>237.0</ele><time>2026-04-18T07:21:53.444Z</time></trkpt><trkpt lat="45.6406483" lon="9.092465"><ele>237.0</ele><time>2026-04-18T07:21:55.446Z</time></trkpt><trkpt lat="45.64065" lon="9.09258"><ele>237.0</ele><time>2026-04-18T07:21:57.444Z</time></trkpt><trkpt lat="45.6406583" lon="9.0927017"><ele>237.0</ele><time>2026-04-18T07:21:59.444Z</time></trkpt><trkpt lat="45.6406667" lon="9.0928317"><ele>236.8</ele><time>2026-04-18T07:22:01.443Z</time></trkpt><trkpt lat="45.6407" lon="9.09298"><ele>236.6</ele><time>2026-04-18T07:22:03.444Z</time></trkpt><trkpt lat="45.64074" lon="9.0931283"><ele>236.40000000000003</ele><time>2026-04-18T07:22:05.444Z</time></trkpt><trkpt lat="45.64074" lon="9.0932933"><ele>236.20000000000002</ele><time>2026-04-18T07:22:07.443Z</time></trkpt><trkpt lat="45.6407683" lon="9.0934183"><ele>236.0</ele><time>2026-04-18T07:22:09.444Z</time></trkpt><trkpt lat="45.6407917" lon="9.093535"><ele>236.00000000000003</ele><time>2026-04-18T07:22:11.444Z</time></trkpt><trkpt lat="45.6408183" lon="9.0936583"><ele>236.0</ele><time>2026-04-18T07:22:13.445Z</time></trkpt><trkpt lat="45.6408383" lon="9.0937733"><ele>236.0</ele><time>2026-04-18T07:22:15.444Z</time></trkpt><trkpt lat="45.6408517" lon="9.0938833"><ele>236.0</ele><time>2026-04-18T07:22:17.445Z</time></trkpt><trkpt lat="45.64087" lon="9.0939817"><ele>236.00000000000003</ele><time>2026-04-18T07:22:19.445Z</time></trkpt><trkpt lat="45.6409017" lon="9.0940733"><ele>236.0</ele><time>2026-04-18T07:22:21.444Z</time></trkpt><trkpt lat="45.64093" lon="9.0941717"><ele>237.00000000000003</ele><time>2026-04-18T07:22:23.443Z</time></trkpt><trkpt lat="45.6409717" lon="9.09429"><ele>238.0</ele><time>2026-04-18T07:22:26.445Z</time></trkpt><trkpt lat="45.6410017" lon="9.09437"><ele>239.0</ele><time>2026-04-18T07:22:28.444Z</time></trkpt><trkpt lat="45.6410433" lon="9.09449"><ele>240.0</ele><time>2026-04-18T07:22:31.443Z</time></trkpt><trkpt lat="45.6410633" lon="9.0946"><ele>241.00000000000003</ele><time>2026-04-18T07:22:34.445Z</time></trkpt><trkpt lat="45.641025" lon="9.0946833"><ele>242.0</ele><time>2026-04-18T07:22:38.444Z</time></trkpt><trkpt lat="45.6410283" lon="9.0947883"><ele>242.50000000000003</ele><time>2026-04-18T07:22:43.445Z</time></trkpt><trkpt lat="45.6409967" lon="9.0949483"><ele>243.0</ele><time>2026-04-18T07:22:47.444Z</time></trkpt><trkpt lat="45.6409733" lon="9.0950433"><ele>243.5</ele><time>2026-04-18T07:22:50.444Z</time></trkpt><trkpt lat="45.6409767" lon="9.095185"><ele>244.0</ele><time>2026-04-18T07:22:53.445Z</time></trkpt><trkpt lat="45.6409983" lon="9.0952933"><ele>244.50000000000003</ele><time>2026-04-18T07:22:55.444Z</time></trkpt><trkpt lat="45.6410317" lon="9.09539"><ele>245.0</ele><time>2026-04-18T07:22:57.444Z</time></trkpt><trkpt lat="45.6410583" lon="9.0954883"><ele>245.00000000000003</ele><time>2026-04-18T07:22:59.444Z</time></trkpt><trkpt lat="45.6410733" lon="9.0955933"><ele>245.0</ele><time>2026-04-18T07:23:02.443Z</time></trkpt><trkpt lat="45.6410767" lon="9.0957"><ele>245.0</ele><time>2026-04-18T07:23:06.444Z</time></trkpt><trkpt lat="45.641045" lon="9.09578"><ele>245.0</ele><time>2026-04-18T07:23:09.445Z</time></trkpt><trkpt lat="45.640985" lon="9.0958683"><ele>245.00000000000003</ele><time>2026-04-18T07:23:12.444Z</time></trkpt><trkpt lat="45.6409267" lon="9.0959733"><ele>245.0</ele><time>2026-04-18T07:23:14.444Z</time></trkpt><trkpt lat="45.6408633" lon="9.09607"><ele>245.00000000000003</ele><time>2026-04-18T07:23:16.444Z</time></trkpt><trkpt lat="45.640805" lon="9.0961717"><ele>245.0</ele><time>2026-04-18T07:23:19.444Z</time></trkpt><trkpt lat="45.6407567" lon="9.0962483"><ele>245.0</ele><time>2026-04-18T07:23:21.444Z</time></trkpt><trkpt lat="45.6407133" lon="9.0963333"><ele>245.0</ele><time>2026-04-18T07:23:23.444Z</time></trkpt><trkpt lat="45.6406783" lon="9.0964167"><ele>245.00000000000003</ele><time>2026-04-18T07:23:25.443Z</time></trkpt><trkpt lat="45.640645" lon="9.0965267"><ele>245.0</ele><time>2026-04-18T07:23:28.444Z</time></trkpt><trkpt lat="45.6406183" lon="9.0966167"><ele>245.00000000000003</ele><time>2026-04-18T07:23:31.443Z</time></trkpt><trkpt lat="45.6405683" lon="9.0966917"><ele>245.0</ele><time>2026-04-18T07:23:34.445Z</time></trkpt><trkpt lat="45.64053" lon="9.096805"><ele>245.0</ele><time>2026-04-18T07:23:37.445Z</time></trkpt><trkpt lat="45.640525" lon="9.09694"><ele>245.0</ele><time>2026-04-18T07:23:39.445Z</time></trkpt><trkpt lat="45.6405017" lon="9.0970417"><ele>245.00000000000003</ele><time>2026-04-18T07:23:41.444Z</time></trkpt><trkpt lat="45.6404717" lon="9.0971283"><ele>245.0</ele><time>2026-04-18T07:23:43.445Z</time></trkpt><trkpt lat="45.6404617" lon="9.09722"><ele>245.0</ele><time>2026-04-18T07:23:44.444Z</time></trkpt><trkpt lat="45.640455" lon="9.0973133"><ele>245.0</ele><time>2026-04-18T07:23:45.445Z</time></trkpt><trkpt lat="45.6404317" lon="9.0974833"><ele>245.0</ele><time>2026-04-18T07:23:47.445Z</time></trkpt><trkpt lat="45.64041" lon="9.0976383"><ele>245.0</ele><time>2026-04-18T07:23:49.446Z</time></trkpt><trkpt lat="45.6404033" lon="9.097795"><ele>245.0</ele><time>2026-04-18T07:23:51.444Z</time></trkpt><trkpt lat="45.6403883" lon="9.097935"><ele>244.83333333333334</ele><time>2026-04-18T07:23:53.444Z</time></trkpt><trkpt lat="45.6403833" lon="9.0980533"><ele>244.66666666666669</ele><time>2026-04-18T07:23:55.444Z</time></trkpt><trkpt lat="45.6403733" lon="9.0981767"><ele>244.5</ele><time>2026-04-18T07:23:57.446Z</time></trkpt><trkpt lat="45.6403483" lon="9.0982967"><ele>244.33333333333331</ele><time>2026-04-18T07:23:59.445Z</time></trkpt><trkpt lat="45.6403133" lon="9.0983933"><ele>244.16666666666666</ele><time>2026-04-18T07:24:01.445Z</time></trkpt><trkpt lat="45.640265" lon="9.0985133"><ele>244.0</ele><time>2026-04-18T07:24:04.444Z</time></trkpt><trkpt lat="45.6402117" lon="9.0986817"><ele>243.99999999999997</ele><time>2026-04-18T07:24:07.445Z</time></trkpt><trkpt lat="45.640195" lon="9.0987833"><ele>244.0</ele><time>2026-04-18T07:24:08.446Z</time></trkpt><trkpt lat="45.6401767" lon="9.0988833"><ele>244.0</ele><time>2026-04-18T07:24:09.444Z</time></trkpt><trkpt lat="45.6401433" lon="9.0990333"><ele>244.0</ele><time>2026-04-18T07:24:11.445Z</time></trkpt><trkpt lat="45.6401133" lon="9.0991683"><ele>243.99999999999997</ele><time>2026-04-18T07:24:13.445Z</time></trkpt><trkpt lat="45.6400983" lon="9.0992833"><ele>244.0</ele><time>2026-04-18T07:24:15.445Z</time></trkpt><trkpt lat="45.6400767" lon="9.0994"><ele>243.16666666666666</ele><time>2026-04-18T07:24:17.444Z</time></trkpt><trkpt lat="45.640045" lon="9.0995"><ele>242.33333333333331</ele><time>2026-04-18T07:24:19.445Z</time></trkpt><trkpt lat="45.6400083" lon="9.09959"><ele>241.5</ele><time>2026-04-18T07:24:21.445Z</time></trkpt><trkpt lat="45.63997" lon="9.0996767"><ele>240.66666666666669</ele><time>2026-04-18T07:24:23.445Z</time></trkpt><trkpt lat="45.639915" lon="9.099775"><ele>239.83333333333334</ele><time>2026-04-18T07:24:25.444Z</time></trkpt><trkpt lat="45.639855" lon="9.0998417"><ele>239.0</ele><time>2026-04-18T07:24:27.444Z</time></trkpt><trkpt lat="45.6397717" lon="9.0999367"><ele>239.0</ele><time>2026-04-18T07:24:29.444Z</time></trkpt><trkpt lat="45.639705" lon="9.1000083"><ele>238.99999999999997</ele><time>2026-04-18T07:24:31.442Z</time></trkpt><trkpt lat="45.6395933" lon="9.1001183"><ele>238.99999999999997</ele><time>2026-04-18T07:24:33.444Z</time></trkpt><trkpt lat="45.6395333" lon="9.1001833"><ele>239.0</ele><time>2026-04-18T07:24:34.443Z</time></trkpt><trkpt lat="45.6394733" lon="9.1002617"><ele>239.0</ele><time>2026-04-18T07:24:36.444Z</time></trkpt><trkpt lat="45.63942" lon="9.1003417"><ele>239.00000000000003</ele><time>2026-04-18T07:24:38.443Z</time></trkpt><trkpt lat="45.6393617" lon="9.1004317"><ele>239.0</ele><time>2026-04-18T07:24:40.443Z</time></trkpt><trkpt lat="45.639315" lon="9.1005317"><ele>239.0</ele><time>2026-04-18T07:24:42.442Z</time></trkpt><trkpt lat="45.6392483" lon="9.100635"><ele>239.0</ele><time>2026-04-18T07:24:44.442Z</time></trkpt><trkpt lat="45.6391883" lon="9.10072"><ele>239.00000000000003</ele><time>2026-04-18T07:24:46.443Z</time></trkpt><trkpt lat="45.639135" lon="9.1007983"><ele>239.0</ele><time>2026-04-18T07:24:48.444Z</time></trkpt><trkpt lat="45.639085" lon="9.1009"><ele>239.00000000000003</ele><time>2026-04-18T07:24:50.443Z</time></trkpt><trkpt lat="45.6390533" lon="9.1009983"><ele>239.0</ele><time>2026-04-18T07:24:52.442Z</time></trkpt><trkpt lat="45.6390417" lon="9.101105"><ele>239.0</ele><time>2026-04-18T07:24:54.443Z</time></trkpt><trkpt lat="45.6390383" lon="9.1012583"><ele>239.0</ele><time>2026-04-18T07:24:56.443Z</time></trkpt><trkpt lat="45.63906" lon="9.101395"><ele>239.00000000000003</ele><time>2026-04-18T07:24:58.443Z</time></trkpt><trkpt lat="45.6390867" lon="9.1015183"><ele>239.0</ele><time>2026-04-18T07:25:00.442Z</time></trkpt><trkpt lat="45.6391083" lon="9.101635"><ele>239.00000000000003</ele><time>2026-04-18T07:25:02.443Z</time></trkpt><trkpt lat="45.6391283" lon="9.101755"><ele>239.0</ele><time>2026-04-18T07:25:04.442Z</time></trkpt><trkpt lat="45.6391517" lon="9.10187"><ele>239.0</ele><time>2026-04-18T07:25:06.443Z</time></trkpt><trkpt lat="45.6391933" lon="9.1019833"><ele>239.0</ele><time>2026-04-18T07:25:08.443Z</time></trkpt><trkpt lat="45.6392283" lon="9.1021033"><ele>239.00000000000003</ele><time>2026-04-18T07:25:10.443Z</time></trkpt><trkpt lat="45.6392417" lon="9.102215"><ele>239.0</ele><time>2026-04-18T07:25:12.443Z</time></trkpt><trkpt lat="45.6392317" lon="9.1023383"><ele>239.0</ele><time>2026-04-18T07:25:15.444Z</time></trkpt><trkpt lat="45.63916" lon="9.10239"><ele>238.99999999999997</ele><time>2026-04-18T07:25:18.443Z</time></trkpt><trkpt lat="45.6390667" lon="9.1024083"><ele>238.99999999999997</ele><time>2026-04-18T07:25:20.443Z</time></trkpt><trkpt lat="45.6389083" lon="9.102415"><ele>239.0</ele><time>2026-04-18T07:25:24.445Z</time></trkpt><trkpt lat="45.63882" lon="9.1023967"><ele>239.0</ele><time>2026-04-18T07:25:26.443Z</time></trkpt><trkpt lat="45.6387383" lon="9.1023967"><ele>239.0</ele><time>2026-04-18T07:25:28.444Z</time></trkpt><trkpt lat="45.6386717" lon="9.1023767"><ele>238.99999999999997</ele><time>2026-04-18T07:25:30.444Z</time></trkpt><trkpt lat="45.638585" lon="9.1024283"><ele>238.99999999999997</ele><time>2026-04-18T07:25:33.442Z</time></trkpt><trkpt lat="45.6385283" lon="9.102495"><ele>239.0</ele><time>2026-04-18T07:25:35.443Z</time></trkpt><trkpt lat="45.6384467" lon="9.10263"><ele>239.0</ele><time>2026-04-18T07:25:37.443Z</time></trkpt><trkpt lat="45.6383817" lon="9.102785"><ele>238.71428571428575</ele><time>2026-04-18T07:25:39.442Z</time></trkpt><trkpt lat="45.6383433" lon="9.1028567"><ele>238.42857142857144</ele><time>2026-04-18T07:25:40.443Z</time></trkpt><trkpt lat="45.6383067" lon="9.1029317"><ele>238.14285714285714</ele><time>2026-04-18T07:25:41.443Z</time></trkpt><trkpt lat="45.6382583" lon="9.1030233"><ele>237.85714285714286</ele><time>2026-04-18T07:25:42.444Z</time></trkpt><trkpt lat="45.6382167" lon="9.1031017"><ele>237.57142857142856</ele><time>2026-04-18T07:25:43.444Z</time></trkpt><trkpt lat="45.63818" lon="9.1031783"><ele>237.28571428571425</ele><time>2026-04-18T07:25:44.446Z</time></trkpt><trkpt lat="45.6381417" lon="9.1032533"><ele>236.99999999999997</ele><time>2026-04-18T07:25:45.445Z</time></trkpt><trkpt lat="45.6381083" lon="9.103395"><ele>237.0</ele><time>2026-04-18T07:25:47.444Z</time></trkpt><trkpt lat="45.6381183" lon="9.1036167"><ele>237.0</ele><time>2026-04-18T07:25:49.445Z</time></trkpt><trkpt lat="45.638135" lon="9.1037283"><ele>237.0</ele><time>2026-04-18T07:25:51.443Z</time></trkpt><trkpt lat="45.6381717" lon="9.1038383"><ele>237.0</ele><time>2026-04-18T07:25:53.445Z</time></trkpt><trkpt lat="45.6381983" lon="9.103935"><ele>237.0</ele><time>2026-04-18T07:25:55.444Z</time></trkpt><trkpt lat="45.6382283" lon="9.1040483"><ele>236.66666666666666</ele><time>2026-04-18T07:25:57.444Z</time></trkpt><trkpt lat="45.6382517" lon="9.1041617"><ele>236.33333333333331</ele><time>2026-04-18T07:25:59.445Z</time></trkpt><trkpt lat="45.6382683" lon="9.1042733"><ele>236.0</ele><time>2026-04-18T07:26:01.444Z</time></trkpt><trkpt lat="45.63829" lon="9.1043917"><ele>235.66666666666666</ele><time>2026-04-18T07:26:03.443Z</time></trkpt><trkpt lat="45.638305" lon="9.10451"><ele>235.33333333333331</ele><time>2026-04-18T07:26:05.443Z</time></trkpt><trkpt lat="45.6383117" lon="9.104605"><ele>235.0</ele><time>2026-04-18T07:26:07.443Z</time></trkpt><trkpt lat="45.638335" lon="9.1047"><ele>235.0</ele><time>2026-04-18T07:26:09.442Z</time></trkpt><trkpt lat="45.638355" lon="9.1048133"><ele>234.99999999999997</ele><time>2026-04-18T07:26:12.444Z</time></trkpt><trkpt lat="45.6383833" lon="9.1048967"><ele>235.0</ele><time>2026-04-18T07:26:14.443Z</time></trkpt><trkpt lat="45.638385" lon="9.1049967"><ele>235.0</ele><time>2026-04-18T07:26:19.444Z</time></trkpt><trkpt lat="45.6384083" lon="9.1050867"><ele>234.99999999999997</ele><time>2026-04-18T07:26:22.444Z</time></trkpt><trkpt lat="45.638435" lon="9.1051867"><ele>235.0</ele><time>2026-04-18T07:26:24.443Z</time></trkpt><trkpt lat="45.6384517" lon="9.1052767"><ele>235.0</ele><time>2026-04-18T07:26:26.443Z</time></trkpt><trkpt lat="45.6384833" lon="9.1054017"><ele>234.99999999999997</ele><time>2026-04-18T07:26:28.444Z</time></trkpt><trkpt lat="45.6385067" lon="9.1055067"><ele>235.0</ele><time>2026-04-18T07:26:30.443Z</time></trkpt><trkpt lat="45.6385367" lon="9.1056317"><ele>235.0</ele><time>2026-04-18T07:26:33.443Z</time></trkpt><trkpt lat="45.6385567" lon="9.1057267"><ele>235.0</ele><time>2026-04-18T07:26:35.444Z</time></trkpt><trkpt lat="45.6385917" lon="9.105815"><ele>234.99999999999997</ele><time>2026-04-18T07:26:37.443Z</time></trkpt><trkpt lat="45.63862" lon="9.1059067"><ele>235.0</ele><time>2026-04-18T07:26:39.445Z</time></trkpt><trkpt lat="45.638665" lon="9.1060183"><ele>234.99999999999997</ele><time>2026-04-18T07:26:41.444Z</time></trkpt><trkpt lat="45.63872" lon="9.1060667"><ele>235.0</ele><time>2026-04-18T07:26:44.445Z</time></trkpt><trkpt lat="45.638785" lon="9.10607"><ele>235.0</ele><time>2026-04-18T07:26:48.444Z</time></trkpt><trkpt lat="45.6388633" lon="9.10608"><ele>235.0</ele><time>2026-04-18T07:26:51.442Z</time></trkpt><trkpt lat="45.6389267" lon="9.1061067"><ele>234.99999999999997</ele><time>2026-04-18T07:26:53.444Z</time></trkpt><trkpt lat="45.6390117" lon="9.10608"><ele>235.0</ele><time>2026-04-18T07:26:57.442Z</time></trkpt><trkpt lat="45.639105" lon="9.1059433"><ele>235.0</ele><time>2026-04-18T07:26:58.444Z</time></trkpt><trkpt lat="45.6391733" lon="9.10592"><ele>234.99999999999997</ele><time>2026-04-18T07:27:02.443Z</time></trkpt><trkpt lat="45.6392167" lon="9.1058517"><ele>235.0</ele><time>2026-04-18T07:27:41.443Z</time></trkpt><trkpt lat="45.639155" lon="9.105815"><ele>235.0</ele><time>2026-04-18T07:28:19.444Z</time></trkpt><trkpt lat="45.639215" lon="9.1057483"><ele>234.99999999999997</ele><time>2026-04-18T07:29:42.445Z</time></trkpt><trkpt lat="45.6391533" lon="9.1057767"><ele>235.0</ele><time>2026-04-18T07:29:45.445Z</time></trkpt><trkpt lat="45.6390717" lon="9.1058433"><ele>235.0</ele><time>2026-04-18T07:29:48.445Z</time></trkpt><trkpt lat="45.6389283" lon="9.1059733"><ele>235.0</ele><time>2026-04-18T07:29:53.444Z</time></trkpt><trkpt lat="45.6388533" lon="9.10599"><ele>235.0</ele><time>2026-04-18T07:29:55.442Z</time></trkpt><trkpt lat="45.639205" lon="9.1021867"><ele>235.16666666666666</ele><time>2026-04-18T07:31:21.442Z</time></trkpt><trkpt lat="45.63924" lon="9.1020867"><ele>235.33333333333331</ele><time>2026-04-18T07:31:22.444Z</time></trkpt><trkpt lat="45.63928" lon="9.1019733"><ele>235.5</ele><time>2026-04-18T07:31:23.443Z</time></trkpt><trkpt lat="45.6393067" lon="9.1018817"><ele>235.66666666666669</ele><time>2026-04-18T07:31:24.443Z</time></trkpt><trkpt lat="45.6393217" lon="9.101785"><ele>235.83333333333334</ele><time>2026-04-18T07:31:25.442Z</time></trkpt><trkpt lat="45.639265" lon="9.10164"><ele>236.0</ele><time>2026-04-18T07:31:27.443Z</time></trkpt><trkpt lat="45.63922" lon="9.101575"><ele>236.0</ele><time>2026-04-18T07:31:28.443Z</time></trkpt><trkpt lat="45.63917" lon="9.1014417"><ele>236.00000000000003</ele><time>2026-04-18T07:31:30.443Z</time></trkpt><trkpt lat="45.6391617" lon="9.10128"><ele>236.00000000000003</ele><time>2026-04-18T07:31:32.443Z</time></trkpt><trkpt lat="45.639135" lon="9.1011"><ele>236.0</ele><time>2026-04-18T07:31:34.444Z</time></trkpt><trkpt lat="45.6391183" lon="9.1009583"><ele>236.0</ele><time>2026-04-18T07:31:36.443Z</time></trkpt><trkpt lat="45.6391133" lon="9.1008083"><ele>236.60000000000002</ele><time>2026-04-18T07:31:38.444Z</time></trkpt><trkpt lat="45.6391283" lon="9.100675"><ele>237.20000000000002</ele><time>2026-04-18T07:31:40.443Z</time></trkpt><trkpt lat="45.6391733" lon="9.1005433"><ele>237.79999999999998</ele><time>2026-04-18T07:31:42.443Z</time></trkpt><trkpt lat="45.6392233" lon="9.10041"><ele>238.39999999999998</ele><time>2026-04-18T07:31:44.443Z</time></trkpt><trkpt lat="45.6392917" lon="9.1002817"><ele>239.0</ele><time>2026-04-18T07:31:46.444Z</time></trkpt><trkpt lat="45.6394067" lon="9.1001067"><ele>239.0</ele><time>2026-04-18T07:31:49.443Z</time></trkpt><trkpt lat="45.6394867" lon="9.1"><ele>238.99999999999997</ele><time>2026-04-18T07:31:51.443Z</time></trkpt><trkpt lat="45.639565" lon="9.0999083"><ele>238.99999999999997</ele><time>2026-04-18T07:31:53.442Z</time></trkpt><trkpt lat="45.6396417" lon="9.09983"><ele>239.0</ele><time>2026-04-18T07:31:55.444Z</time></trkpt><trkpt lat="45.6397283" lon="9.09975"><ele>239.0</ele><time>2026-04-18T07:31:57.444Z</time></trkpt><trkpt lat="45.63982" lon="9.0996583"><ele>239.0</ele><time>2026-04-18T07:31:59.443Z</time></trkpt><trkpt lat="45.639905" lon="9.099555"><ele>238.99999999999997</ele><time>2026-04-18T07:32:01.443Z</time></trkpt><trkpt lat="45.639975" lon="9.0994183"><ele>238.99999999999997</ele><time>2026-04-18T07:32:03.444Z</time></trkpt><trkpt lat="45.6400317" lon="9.0992717"><ele>239.0</ele><time>2026-04-18T07:32:05.443Z</time></trkpt><trkpt lat="45.6400783" lon="9.0991533"><ele>239.0</ele><time>2026-04-18T07:32:07.443Z</time></trkpt><trkpt lat="45.6401167" lon="9.099045"><ele>240.0</ele><time>2026-04-18T07:32:09.442Z</time></trkpt><trkpt lat="45.6401467" lon="9.0989167"><ele>240.99999999999997</ele><time>2026-04-18T07:32:11.443Z</time></trkpt><trkpt lat="45.6401767" lon="9.0987833"><ele>241.99999999999997</ele><time>2026-04-18T07:32:13.443Z</time></trkpt><trkpt lat="45.6402017" lon="9.09865"><ele>243.0</ele><time>2026-04-18T07:32:15.443Z</time></trkpt><trkpt lat="45.6402317" lon="9.0985283"><ele>244.0</ele><time>2026-04-18T07:32:17.444Z</time></trkpt><trkpt lat="45.6402783" lon="9.0983833"><ele>244.0</ele><time>2026-04-18T07:32:19.445Z</time></trkpt><trkpt lat="45.6403167" lon="9.0982517"><ele>243.99999999999997</ele><time>2026-04-18T07:32:21.444Z</time></trkpt><trkpt lat="45.6403417" lon="9.09813"><ele>243.99999999999997</ele><time>2026-04-18T07:32:23.446Z</time></trkpt><trkpt lat="45.6403633" lon="9.0979783"><ele>244.0</ele><time>2026-04-18T07:32:25.446Z</time></trkpt><trkpt lat="45.64038" lon="9.0978217"><ele>244.0</ele><time>2026-04-18T07:32:27.445Z</time></trkpt><trkpt lat="45.6403883" lon="9.0976683"><ele>244.0</ele><time>2026-04-18T07:32:29.445Z</time></trkpt><trkpt lat="45.6403933" lon="9.0975183"><ele>243.99999999999997</ele><time>2026-04-18T07:32:31.445Z</time></trkpt><trkpt lat="45.6404083" lon="9.097365"><ele>243.99999999999997</ele><time>2026-04-18T07:32:33.444Z</time></trkpt><trkpt lat="45.6404383" lon="9.0971983"><ele>244.0</ele><time>2026-04-18T07:32:35.444Z</time></trkpt><trkpt lat="45.64047" lon="9.0970533"><ele>244.0</ele><time>2026-04-18T07:32:37.445Z</time></trkpt><trkpt lat="45.6405167" lon="9.0969383"><ele>244.0</ele><time>2026-04-18T07:32:39.445Z</time></trkpt><trkpt lat="45.6405533" lon="9.096805"><ele>243.99999999999997</ele><time>2026-04-18T07:32:41.445Z</time></trkpt><trkpt lat="45.6406067" lon="9.0967133"><ele>243.99999999999997</ele><time>2026-04-18T07:32:43.445Z</time></trkpt><trkpt lat="45.6406483" lon="9.0965883"><ele>244.0</ele><time>2026-04-18T07:32:45.445Z</time></trkpt><trkpt lat="45.64069" lon="9.0964783"><ele>244.0</ele><time>2026-04-18T07:32:47.444Z</time></trkpt><trkpt lat="45.6407483" lon="9.0963783"><ele>243.99999999999997</ele><time>2026-04-18T07:32:49.443Z</time></trkpt><trkpt lat="45.64082" lon="9.0962817"><ele>244.0</ele><time>2026-04-18T07:32:51.445Z</time></trkpt><trkpt lat="45.6408917" lon="9.096195"><ele>244.0</ele><time>2026-04-18T07:32:53.445Z</time></trkpt><trkpt lat="45.64095" lon="9.0961133"><ele>244.0</ele><time>2026-04-18T07:32:55.445Z</time></trkpt><trkpt lat="45.6409983" lon="9.0960317"><ele>243.99999999999997</ele><time>2026-04-18T07:32:57.444Z</time></trkpt><trkpt lat="45.6410317" lon="9.09595"><ele>244.0</ele><time>2026-04-18T07:32:59.445Z</time></trkpt><trkpt lat="45.6410817" lon="9.0958667"><ele>243.99999999999997</ele><time>2026-04-18T07:33:01.444Z</time></trkpt><trkpt lat="45.6411217" lon="9.095775"><ele>244.0</ele><time>2026-04-18T07:33:03.445Z</time></trkpt><trkpt lat="45.6411317" lon="9.0956683"><ele>244.0</ele><time>2026-04-18T07:33:05.446Z</time></trkpt><trkpt lat="45.6411417" lon="9.0955417"><ele>244.0</ele><time>2026-04-18T07:33:07.444Z</time></trkpt><trkpt lat="45.6411667" lon="9.095415"><ele>243.99999999999997</ele><time>2026-04-18T07:33:09.445Z</time></trkpt><trkpt lat="45.64118" lon="9.0953083"><ele>244.0</ele><time>2026-04-18T07:33:11.445Z</time></trkpt><trkpt lat="45.6411883" lon="9.0951983"><ele>243.6</ele><time>2026-04-18T07:33:13.443Z</time></trkpt><trkpt lat="45.64118" lon="9.0950733"><ele>243.2</ele><time>2026-04-18T07:33:15.442Z</time></trkpt><trkpt lat="45.6411617" lon="9.0949417"><ele>242.79999999999998</ele><time>2026-04-18T07:33:17.443Z</time></trkpt><trkpt lat="45.6411217" lon="9.0948133"><ele>242.39999999999998</ele><time>2026-04-18T07:33:19.443Z</time></trkpt><trkpt lat="45.6410917" lon="9.0947033"><ele>242.0</ele><time>2026-04-18T07:33:21.442Z</time></trkpt><trkpt lat="45.6410517" lon="9.09459"><ele>242.0</ele><time>2026-04-18T07:33:23.443Z</time></trkpt><trkpt lat="45.64101" lon="9.0944733"><ele>242.0</ele><time>2026-04-18T07:33:25.442Z</time></trkpt><trkpt lat="45.6409733" lon="9.0943567"><ele>242.0</ele><time>2026-04-18T07:33:27.446Z</time></trkpt><trkpt lat="45.640945" lon="9.0942433"><ele>242.0</ele><time>2026-04-18T07:33:29.442Z</time></trkpt><trkpt lat="45.6409117" lon="9.0941033"><ele>242.0</ele><time>2026-04-18T07:33:31.443Z</time></trkpt><trkpt lat="45.6408783" lon="9.0939583"><ele>240.8</ele><time>2026-04-18T07:33:33.443Z</time></trkpt><trkpt lat="45.6408467" lon="9.0938117"><ele>239.6</ele><time>2026-04-18T07:33:35.443Z</time></trkpt><trkpt lat="45.6408233" lon="9.0936717"><ele>238.40000000000003</ele><time>2026-04-18T07:33:37.442Z</time></trkpt><trkpt lat="45.6408067" lon="9.0935433"><ele>237.20000000000002</ele><time>2026-04-18T07:33:39.444Z</time></trkpt><trkpt lat="45.6407917" lon="9.0934167"><ele>236.0</ele><time>2026-04-18T07:33:41.442Z</time></trkpt><trkpt lat="45.640775" lon="9.0932983"><ele>236.0</ele><time>2026-04-18T07:33:43.442Z</time></trkpt><trkpt lat="45.6407583" lon="9.093145"><ele>236.00000000000003</ele><time>2026-04-18T07:33:45.443Z</time></trkpt><trkpt lat="45.6407517" lon="9.09299"><ele>236.00000000000003</ele><time>2026-04-18T07:33:47.442Z</time></trkpt><trkpt lat="45.6407467" lon="9.0928967"><ele>236.0</ele><time>2026-04-18T07:33:48.444Z</time></trkpt><trkpt lat="45.6407383" lon="9.0927383"><ele>236.0</ele><time>2026-04-18T07:33:50.444Z</time></trkpt><trkpt lat="45.6407233" lon="9.092575"><ele>236.20000000000002</ele><time>2026-04-18T07:33:52.444Z</time></trkpt><trkpt lat="45.6407033" lon="9.0924217"><ele>236.40000000000003</ele><time>2026-04-18T07:33:54.443Z</time></trkpt><trkpt lat="45.6406683" lon="9.0922917"><ele>236.6</ele><time>2026-04-18T07:33:56.443Z</time></trkpt><trkpt lat="45.6406417" lon="9.0921717"><ele>236.8</ele><time>2026-04-18T07:33:58.444Z</time></trkpt><trkpt lat="45.6406217" lon="9.0920483"><ele>237.0</ele><time>2026-04-18T07:34:00.443Z</time></trkpt><trkpt lat="45.6406083" lon="9.0919267"><ele>237.0</ele><time>2026-04-18T07:34:02.443Z</time></trkpt><trkpt lat="45.6406" lon="9.09176"><ele>237.0</ele><time>2026-04-18T07:34:04.444Z</time></trkpt><trkpt lat="45.6405783" lon="9.0916683"><ele>237.0</ele><time>2026-04-18T07:34:05.442Z</time></trkpt><trkpt lat="45.6405683" lon="9.091505"><ele>237.0</ele><time>2026-04-18T07:34:07.443Z</time></trkpt><trkpt lat="45.6405633" lon="9.0913617"><ele>237.0</ele><time>2026-04-18T07:34:09.443Z</time></trkpt><trkpt lat="45.6405467" lon="9.0912367"><ele>237.0</ele><time>2026-04-18T07:34:11.444Z</time></trkpt><trkpt lat="45.6405183" lon="9.0911433"><ele>237.0</ele><time>2026-04-18T07:34:13.443Z</time></trkpt><trkpt lat="45.640465" lon="9.0910933"><ele>237.0</ele><time>2026-04-18T07:34:15.443Z</time></trkpt><trkpt lat="45.6403733" lon="9.091125"><ele>237.0</ele><time>2026-04-18T07:34:17.443Z</time></trkpt><trkpt lat="45.640285" lon="9.0911533"><ele>237.0</ele><time>2026-04-18T07:34:19.444Z</time></trkpt><trkpt lat="45.6401883" lon="9.091195"><ele>237.0</ele><time>2026-04-18T07:34:21.443Z</time></trkpt><trkpt lat="45.6400883" lon="9.0912433"><ele>237.0</ele><time>2026-04-18T07:34:23.442Z</time></trkpt><trkpt lat="45.63999" lon="9.09128"><ele>237.0</ele><time>2026-04-18T07:34:25.443Z</time></trkpt><trkpt lat="45.6398967" lon="9.0913083"><ele>237.0</ele><time>2026-04-18T07:34:27.444Z</time></trkpt><trkpt lat="45.6397983" lon="9.09135"><ele>237.0</ele><time>2026-04-18T07:34:29.444Z</time></trkpt><trkpt lat="45.639705" lon="9.0913867"><ele>237.0</ele><time>2026-04-18T07:34:31.444Z</time></trkpt><trkpt lat="45.6396067" lon="9.091425"><ele>237.0</ele><time>2026-04-18T07:34:33.444Z</time></trkpt><trkpt lat="45.6395033" lon="9.0914717"><ele>237.0</ele><time>2026-04-18T07:34:35.443Z</time></trkpt><trkpt lat="45.6393917" lon="9.0915017"><ele>237.0</ele><time>2026-04-18T07:34:37.444Z</time></trkpt><trkpt lat="45.63928" lon="9.0915417"><ele>237.0</ele><time>2026-04-18T07:34:39.445Z</time></trkpt><trkpt lat="45.6391633" lon="9.0915733"><ele>237.5</ele><time>2026-04-18T07:34:41.445Z</time></trkpt><trkpt lat="45.63904" lon="9.0916017"><ele>238.0</ele><time>2026-04-18T07:34:43.444Z</time></trkpt><trkpt lat="45.638915" lon="9.091635"><ele>238.5</ele><time>2026-04-18T07:34:45.444Z</time></trkpt><trkpt lat="45.6388517" lon="9.091655"><ele>239.0</ele><time>2026-04-18T07:34:46.443Z</time></trkpt><trkpt lat="45.6387883" lon="9.0916767"><ele>239.5</ele><time>2026-04-18T07:34:47.445Z</time></trkpt><trkpt lat="45.6387233" lon="9.0916983"><ele>240.0</ele><time>2026-04-18T07:34:48.445Z</time></trkpt><trkpt lat="45.6386417" lon="9.0917217"><ele>239.8</ele><time>2026-04-18T07:34:49.444Z</time></trkpt><trkpt lat="45.63856" lon="9.091745"><ele>239.6</ele><time>2026-04-18T07:34:50.445Z</time></trkpt><trkpt lat="45.63843" lon="9.09182"><ele>239.39999999999998</ele><time>2026-04-18T07:34:52.444Z</time></trkpt><trkpt lat="45.6383683" lon="9.0918383"><ele>239.2</ele><time>2026-04-18T07:34:53.444Z</time></trkpt><trkpt lat="45.63825" lon="9.0918883"><ele>239.0</ele><time>2026-04-18T07:34:55.443Z</time></trkpt><trkpt lat="45.638135" lon="9.0919367"><ele>239.0</ele><time>2026-04-18T07:34:57.444Z</time></trkpt><trkpt lat="45.6380267" lon="9.0919683"><ele>238.99999999999997</ele><time>2026-04-18T07:34:59.444Z</time></trkpt><trkpt lat="45.6378967" lon="9.0919633"><ele>238.99999999999997</ele><time>2026-04-18T07:35:01.445Z</time></trkpt><trkpt lat="45.637805" lon="9.09201"><ele>239.0</ele><time>2026-04-18T07:35:03.443Z</time></trkpt><trkpt lat="45.6377017" lon="9.0920533"><ele>239.0</ele><time>2026-04-18T07:35:05.444Z</time></trkpt><trkpt lat="45.6376017" lon="9.0921033"><ele>239.33333333333334</ele><time>2026-04-18T07:35:07.443Z</time></trkpt><trkpt lat="45.6375317" lon="9.0921883"><ele>239.66666666666669</ele><time>2026-04-18T07:35:09.444Z</time></trkpt><trkpt lat="45.6374783" lon="9.09224"><ele>240.0</ele><time>2026-04-18T07:35:10.442Z</time></trkpt><trkpt lat="45.6373767" lon="9.09228"><ele>240.33333333333331</ele><time>2026-04-18T07:35:12.444Z</time></trkpt><trkpt lat="45.63731" lon="9.09226"><ele>240.66666666666666</ele><time>2026-04-18T07:35:14.443Z</time></trkpt><trkpt lat="45.63725" lon="9.0922"><ele>241.0</ele><time>2026-04-18T07:35:16.445Z</time></trkpt><trkpt lat="45.63722" lon="9.09212"><ele>240.99999999999997</ele><time>2026-04-18T07:35:18.444Z</time></trkpt><trkpt lat="45.6372117" lon="9.092"><ele>241.0</ele><time>2026-04-18T07:35:20.443Z</time></trkpt><trkpt lat="45.6371983" lon="9.0918717"><ele>241.0</ele><time>2026-04-18T07:35:22.443Z</time></trkpt><trkpt lat="45.6371883" lon="9.09176"><ele>241.0</ele><time>2026-04-18T07:35:24.443Z</time></trkpt><trkpt lat="45.6371417" lon="9.09166"><ele>240.99999999999997</ele><time>2026-04-18T07:35:25.444Z</time></trkpt><trkpt lat="45.6371217" lon="9.0915133"><ele>241.0</ele><time>2026-04-18T07:35:27.444Z</time></trkpt><trkpt lat="45.6370867" lon="9.0913483"><ele>241.20000000000002</ele><time>2026-04-18T07:35:29.444Z</time></trkpt><trkpt lat="45.6370633" lon="9.0912617"><ele>241.40000000000003</ele><time>2026-04-18T07:35:30.443Z</time></trkpt><trkpt lat="45.637055" lon="9.0910883"><ele>241.6</ele><time>2026-04-18T07:35:32.443Z</time></trkpt><trkpt lat="45.6370367" lon="9.0909283"><ele>241.8</ele><time>2026-04-18T07:35:34.444Z</time></trkpt><trkpt lat="45.6370183" lon="9.090775"><ele>242.0</ele><time>2026-04-18T07:35:36.443Z</time></trkpt><trkpt lat="45.6370067" lon="9.09062"><ele>242.0</ele><time>2026-04-18T07:35:38.444Z</time></trkpt><trkpt lat="45.6369933" lon="9.0905317"><ele>242.0</ele><time>2026-04-18T07:35:39.444Z</time></trkpt><trkpt lat="45.6369867" lon="9.090385"><ele>242.0</ele><time>2026-04-18T07:35:41.444Z</time></trkpt><trkpt lat="45.636975" lon="9.0902567"><ele>242.0</ele><time>2026-04-18T07:35:43.443Z</time></trkpt><trkpt lat="45.63691" lon="9.0901617"><ele>242.0</ele><time>2026-04-18T07:35:45.444Z</time></trkpt><trkpt lat="45.6368083" lon="9.09008"><ele>241.39999999999998</ele><time>2026-04-18T07:35:47.443Z</time></trkpt><trkpt lat="45.6367167" lon="9.0899583"><ele>240.79999999999998</ele><time>2026-04-18T07:35:49.444Z</time></trkpt><trkpt lat="45.6366583" lon="9.0899033"><ele>240.2</ele><time>2026-04-18T07:35:50.443Z</time></trkpt><trkpt lat="45.6365733" lon="9.089845"><ele>239.6</ele><time>2026-04-18T07:35:52.445Z</time></trkpt><trkpt lat="45.63646" lon="9.08982"><ele>239.0</ele><time>2026-04-18T07:35:54.443Z</time></trkpt><trkpt lat="45.6363867" lon="9.08975"><ele>239.16666666666669</ele><time>2026-04-18T07:35:56.444Z</time></trkpt><trkpt lat="45.6363467" lon="9.08965"><ele>239.33333333333334</ele><time>2026-04-18T07:35:58.445Z</time></trkpt><trkpt lat="45.6363033" lon="9.0895367"><ele>239.5</ele><time>2026-04-18T07:36:00.445Z</time></trkpt><trkpt lat="45.6362733" lon="9.0894367"><ele>239.66666666666669</ele><time>2026-04-18T07:36:02.444Z</time></trkpt><trkpt lat="45.6362033" lon="9.0893567"><ele>239.83333333333334</ele><time>2026-04-18T07:36:04.444Z</time></trkpt><trkpt lat="45.6361483" lon="9.0892983"><ele>240.0</ele><time>2026-04-18T07:36:06.443Z</time></trkpt><trkpt lat="45.63608" lon="9.0892083"><ele>240.0</ele><time>2026-04-18T07:36:09.443Z</time></trkpt><trkpt lat="45.635995" lon="9.0891683"><ele>240.0</ele><time>2026-04-18T07:36:12.443Z</time></trkpt><trkpt lat="45.6359083" lon="9.089175"><ele>240.0</ele><time>2026-04-18T07:36:14.444Z</time></trkpt><trkpt lat="45.6357867" lon="9.0891467"><ele>240.0</ele><time>2026-04-18T07:36:17.444Z</time></trkpt><trkpt lat="45.6357167" lon="9.089135"><ele>240.0</ele><time>2026-04-18T07:36:18.444Z</time></trkpt><trkpt lat="45.6356217" lon="9.0890917"><ele>240.0</ele><time>2026-04-18T07:36:20.444Z</time></trkpt><trkpt lat="45.6355367" lon="9.089035"><ele>240.0</ele><time>2026-04-18T07:36:22.445Z</time></trkpt><trkpt lat="45.63547" lon="9.0889983"><ele>240.0</ele><time>2026-04-18T07:36:23.444Z</time></trkpt><trkpt lat="45.63537" lon="9.0889333"><ele>240.0</ele><time>2026-04-18T07:36:25.444Z</time></trkpt><trkpt lat="45.6352583" lon="9.0889017"><ele>240.0</ele><time>2026-04-18T07:36:27.442Z</time></trkpt><trkpt lat="45.6351883" lon="9.08887"><ele>240.2</ele><time>2026-04-18T07:36:28.444Z</time></trkpt><trkpt lat="45.6351133" lon="9.0888367"><ele>240.4</ele><time>2026-04-18T07:36:29.444Z</time></trkpt><trkpt lat="45.6350483" lon="9.0887967"><ele>240.60000000000002</ele><time>2026-04-18T07:36:30.444Z</time></trkpt><trkpt lat="45.6349683" lon="9.0887583"><ele>240.8</ele><time>2026-04-18T07:36:31.444Z</time></trkpt><trkpt lat="45.634835" lon="9.08866"><ele>241.0</ele><time>2026-04-18T07:36:33.444Z</time></trkpt><trkpt lat="45.634785" lon="9.0885983"><ele>241.0</ele><time>2026-04-18T07:36:34.445Z</time></trkpt><trkpt lat="45.634705" lon="9.0885317"><ele>241.00000000000003</ele><time>2026-04-18T07:36:35.444Z</time></trkpt><trkpt lat="45.6345967" lon="9.0884617"><ele>241.00000000000003</ele><time>2026-04-18T07:36:36.444Z</time></trkpt><trkpt lat="45.6345417" lon="9.0884067"><ele>241.0</ele><time>2026-04-18T07:36:37.443Z</time></trkpt><trkpt lat="45.6344267" lon="9.0882717"><ele>241.0</ele><time>2026-04-18T07:36:39.443Z</time></trkpt><trkpt lat="45.63435" lon="9.0881967"><ele>240.83333333333331</ele><time>2026-04-18T07:36:40.443Z</time></trkpt><trkpt lat="45.63429" lon="9.08808"><ele>240.66666666666666</ele><time>2026-04-18T07:36:42.444Z</time></trkpt><trkpt lat="45.6342333" lon="9.0880317"><ele>240.5</ele><time>2026-04-18T07:36:43.445Z</time></trkpt><trkpt lat="45.63415" lon="9.0879217"><ele>240.33333333333331</ele><time>2026-04-18T07:36:45.445Z</time></trkpt><trkpt lat="45.6340983" lon="9.0878517"><ele>240.16666666666666</ele><time>2026-04-18T07:36:46.445Z</time></trkpt><trkpt lat="45.634055" lon="9.0877767"><ele>240.0</ele><time>2026-04-18T07:36:47.444Z</time></trkpt><trkpt lat="45.6339783" lon="9.087645"><ele>240.0</ele><time>2026-04-18T07:36:49.444Z</time></trkpt><trkpt lat="45.63392" lon="9.0875233"><ele>240.0</ele><time>2026-04-18T07:36:51.444Z</time></trkpt><trkpt lat="45.6338483" lon="9.0874117"><ele>240.0</ele><time>2026-04-18T07:36:53.444Z</time></trkpt><trkpt lat="45.63379" lon="9.08732"><ele>240.0</ele><time>2026-04-18T07:36:55.444Z</time></trkpt><trkpt lat="45.633705" lon="9.0872767"><ele>240.0</ele><time>2026-04-18T07:36:57.444Z</time></trkpt><trkpt lat="45.6335633" lon="9.0873"><ele>240.16666666666666</ele><time>2026-04-18T07:36:59.445Z</time></trkpt><trkpt lat="45.6334733" lon="9.0873317"><ele>240.33333333333331</ele><time>2026-04-18T07:37:00.445Z</time></trkpt><trkpt lat="45.6333567" lon="9.0873933"><ele>240.5</ele><time>2026-04-18T07:37:02.444Z</time></trkpt><trkpt lat="45.6332917" lon="9.0874217"><ele>240.66666666666666</ele><time>2026-04-18T07:37:03.444Z</time></trkpt><trkpt lat="45.6332267" lon="9.0874533"><ele>240.83333333333331</ele><time>2026-04-18T07:37:04.445Z</time></trkpt><trkpt lat="45.6331383" lon="9.0874933"><ele>241.0</ele><time>2026-04-18T07:37:06.443Z</time></trkpt><trkpt lat="45.6330733" lon="9.0875117"><ele>241.0</ele><time>2026-04-18T07:37:08.444Z</time></trkpt><trkpt lat="45.6329683" lon="9.08743"><ele>241.00000000000003</ele><time>2026-04-18T07:37:11.444Z</time></trkpt><trkpt lat="45.63287" lon="9.0873633"><ele>241.00000000000003</ele><time>2026-04-18T07:37:13.444Z</time></trkpt><trkpt lat="45.6327817" lon="9.0873517"><ele>241.0</ele><time>2026-04-18T07:37:14.445Z</time></trkpt><trkpt lat="45.632675" lon="9.0873367"><ele>241.0</ele><time>2026-04-18T07:37:16.444Z</time></trkpt><trkpt lat="45.63261" lon="9.08739"><ele>241.0</ele><time>2026-04-18T07:37:18.443Z</time></trkpt><trkpt lat="45.6324983" lon="9.0874183"><ele>241.00000000000003</ele><time>2026-04-18T07:37:20.444Z</time></trkpt><trkpt lat="45.632405" lon="9.0874333"><ele>241.00000000000003</ele><time>2026-04-18T07:37:21.442Z</time></trkpt><trkpt lat="45.63233" lon="9.0874617"><ele>241.0</ele><time>2026-04-18T07:37:22.444Z</time></trkpt><trkpt lat="45.6322217" lon="9.087485"><ele>241.0</ele><time>2026-04-18T07:37:24.443Z</time></trkpt><trkpt lat="45.6321583" lon="9.0875167"><ele>240.20000000000002</ele><time>2026-04-18T07:37:25.444Z</time></trkpt><trkpt lat="45.6320617" lon="9.0875633"><ele>239.40000000000003</ele><time>2026-04-18T07:37:27.443Z</time></trkpt><trkpt lat="45.6319517" lon="9.0876367"><ele>238.6</ele><time>2026-04-18T07:37:29.443Z</time></trkpt><trkpt lat="45.6318883" lon="9.0876783"><ele>237.8</ele><time>2026-04-18T07:37:30.443Z</time></trkpt><trkpt lat="45.6317783" lon="9.0877383"><ele>237.0</ele><time>2026-04-18T07:37:32.444Z</time></trkpt><trkpt lat="45.63171" lon="9.08778"><ele>236.2</ele><time>2026-04-18T07:37:33.443Z</time></trkpt><trkpt lat="45.6316467" lon="9.0878117"><ele>235.39999999999998</ele><time>2026-04-18T07:37:34.443Z</time></trkpt><trkpt lat="45.6315433" lon="9.0878517"><ele>234.60000000000002</ele><time>2026-04-18T07:37:36.443Z</time></trkpt><trkpt lat="45.6314233" lon="9.087855"><ele>233.8</ele><time>2026-04-18T07:37:38.442Z</time></trkpt><trkpt lat="45.6313267" lon="9.0878583"><ele>233.0</ele><time>2026-04-18T07:37:40.443Z</time></trkpt><trkpt lat="45.6312367" lon="9.0878767"><ele>233.00000000000003</ele><time>2026-04-18T07:37:42.445Z</time></trkpt><trkpt lat="45.6311567" lon="9.0878917"><ele>233.0</ele><time>2026-04-18T07:37:44.443Z</time></trkpt><trkpt lat="45.6310583" lon="9.0878767"><ele>233.0</ele><time>2026-04-18T07:37:45.443Z</time></trkpt><trkpt lat="45.6309767" lon="9.0878783"><ele>233.0</ele><time>2026-04-18T07:37:47.443Z</time></trkpt><trkpt lat="45.6309033" lon="9.08788"><ele>233.00000000000003</ele><time>2026-04-18T07:37:49.444Z</time></trkpt><trkpt lat="45.6308267" lon="9.08788"><ele>233.0</ele><time>2026-04-18T07:37:51.443Z</time></trkpt><trkpt lat="45.630755" lon="9.0879117"><ele>232.8</ele><time>2026-04-18T07:37:52.444Z</time></trkpt><trkpt lat="45.6306583" lon="9.0879617"><ele>232.60000000000002</ele><time>2026-04-18T07:37:54.444Z</time></trkpt><trkpt lat="45.630545" lon="9.0880383"><ele>232.39999999999998</ele><time>2026-04-18T07:37:56.444Z</time></trkpt><trkpt lat="45.63047" lon="9.08808"><ele>232.2</ele><time>2026-04-18T07:37:57.442Z</time></trkpt><trkpt lat="45.6304" lon="9.0880983"><ele>232.0</ele><time>2026-04-18T07:37:58.443Z</time></trkpt><trkpt lat="45.6303167" lon="9.08812"><ele>231.16666666666666</ele><time>2026-04-18T07:37:59.443Z</time></trkpt><trkpt lat="45.6302317" lon="9.088155"><ele>230.33333333333331</ele><time>2026-04-18T07:38:00.443Z</time></trkpt><trkpt lat="45.6301367" lon="9.08816"><ele>229.5</ele><time>2026-04-18T07:38:01.443Z</time></trkpt><trkpt lat="45.6300667" lon="9.0881583"><ele>228.66666666666669</ele><time>2026-04-18T07:38:02.443Z</time></trkpt><trkpt lat="45.6299967" lon="9.0881567"><ele>227.83333333333334</ele><time>2026-04-18T07:38:03.443Z</time></trkpt><trkpt lat="45.6299033" lon="9.088225"><ele>227.0</ele><time>2026-04-18T07:38:04.444Z</time></trkpt><trkpt lat="45.6298233" lon="9.08826"><ele>227.0</ele><time>2026-04-18T07:38:05.443Z</time></trkpt><trkpt lat="45.6297083" lon="9.08831"><ele>227.0</ele><time>2026-04-18T07:38:07.447Z</time></trkpt><trkpt lat="45.629615" lon="9.088295"><ele>227.0</ele><time>2026-04-18T07:38:09.445Z</time></trkpt><trkpt lat="45.62956" lon="9.0882433"><ele>227.0</ele><time>2026-04-18T07:38:11.445Z</time></trkpt><trkpt lat="45.6295433" lon="9.0881117"><ele>227.0</ele><time>2026-04-18T07:38:14.445Z</time></trkpt><trkpt lat="45.6295517" lon="9.0879967"><ele>227.00000000000003</ele><time>2026-04-18T07:38:16.444Z</time></trkpt><trkpt lat="45.6295467" lon="9.0878683"><ele>227.0</ele><time>2026-04-18T07:38:18.444Z</time></trkpt><trkpt lat="45.629565" lon="9.0877517"><ele>227.0</ele><time>2026-04-18T07:38:20.443Z</time></trkpt><trkpt lat="45.6295767" lon="9.0876417"><ele>227.0</ele><time>2026-04-18T07:38:22.444Z</time></trkpt><trkpt lat="45.6296033" lon="9.0875383"><ele>227.00000000000003</ele><time>2026-04-18T07:38:24.443Z</time></trkpt><trkpt lat="45.6296183" lon="9.087405"><ele>227.0</ele><time>2026-04-18T07:38:26.444Z</time></trkpt><trkpt lat="45.6296217" lon="9.0872717"><ele>226.8</ele><time>2026-04-18T07:38:28.443Z</time></trkpt><trkpt lat="45.6295917" lon="9.0871367"><ele>226.6</ele><time>2026-04-18T07:38:30.444Z</time></trkpt><trkpt lat="45.6295467" lon="9.08706"><ele>226.40000000000003</ele><time>2026-04-18T07:38:31.444Z</time></trkpt><trkpt lat="45.629495" lon="9.0869417"><ele>226.20000000000002</ele><time>2026-04-18T07:38:33.443Z</time></trkpt><trkpt lat="45.6294383" lon="9.0867933"><ele>226.0</ele><time>2026-04-18T07:38:35.443Z</time></trkpt><trkpt lat="45.6294117" lon="9.0866633"><ele>225.83333333333331</ele><time>2026-04-18T07:38:37.443Z</time></trkpt><trkpt lat="45.629375" lon="9.0865217"><ele>225.66666666666666</ele><time>2026-04-18T07:38:39.443Z</time></trkpt><trkpt lat="45.6293583" lon="9.0863967"><ele>225.5</ele><time>2026-04-18T07:38:41.444Z</time></trkpt><trkpt lat="45.6293517" lon="9.0862417"><ele>225.33333333333331</ele><time>2026-04-18T07:38:43.443Z</time></trkpt><trkpt lat="45.629335" lon="9.0861483"><ele>225.16666666666666</ele><time>2026-04-18T07:38:44.447Z</time></trkpt><trkpt lat="45.6293217" lon="9.0860533"><ele>225.0</ele><time>2026-04-18T07:38:45.442Z</time></trkpt><trkpt lat="45.629295" lon="9.0858917"><ele>225.0</ele><time>2026-04-18T07:38:47.444Z</time></trkpt><trkpt lat="45.629265" lon="9.0857317"><ele>225.0</ele><time>2026-04-18T07:38:49.444Z</time></trkpt><trkpt lat="45.6292533" lon="9.0856017"><ele>225.0</ele><time>2026-04-18T07:38:51.442Z</time></trkpt><trkpt lat="45.6292583" lon="9.0854783"><ele>225.0</ele><time>2026-04-18T07:38:53.444Z</time></trkpt><trkpt lat="45.6292533" lon="9.0853517"><ele>225.0</ele><time>2026-04-18T07:38:55.444Z</time></trkpt><trkpt lat="45.6292717" lon="9.0852617"><ele>225.0</ele><time>2026-04-18T07:38:57.443Z</time></trkpt><trkpt lat="45.629225" lon="9.085195"><ele>225.0</ele><time>2026-04-18T07:39:01.443Z</time></trkpt><trkpt lat="45.6291183" lon="9.0852183"><ele>225.0</ele><time>2026-04-18T07:39:02.445Z</time></trkpt><trkpt lat="45.6290483" lon="9.0852333"><ele>225.0</ele><time>2026-04-18T07:39:03.444Z</time></trkpt><trkpt lat="45.6289633" lon="9.085285"><ele>225.0</ele><time>2026-04-18T07:39:05.443Z</time></trkpt><trkpt lat="45.62885" lon="9.0853583"><ele>225.0</ele><time>2026-04-18T07:39:07.444Z</time></trkpt><trkpt lat="45.628775" lon="9.0854083"><ele>225.0</ele><time>2026-04-18T07:39:08.445Z</time></trkpt><trkpt lat="45.6287167" lon="9.0854583"><ele>225.0</ele><time>2026-04-18T07:39:09.442Z</time></trkpt><trkpt lat="45.6286233" lon="9.0855583"><ele>225.0</ele><time>2026-04-18T07:39:11.444Z</time></trkpt><trkpt lat="45.6285567" lon="9.0856233"><ele>225.0</ele><time>2026-04-18T07:39:13.444Z</time></trkpt><trkpt lat="45.6284733" lon="9.0856833"><ele>225.0</ele><time>2026-04-18T07:39:15.444Z</time></trkpt><trkpt lat="45.6283817" lon="9.0857217"><ele>224.6</ele><time>2026-04-18T07:39:17.445Z</time></trkpt><trkpt lat="45.6282833" lon="9.0857633"><ele>224.2</ele><time>2026-04-18T07:39:19.445Z</time></trkpt><trkpt lat="45.62819" lon="9.0857933"><ele>223.8</ele><time>2026-04-18T07:39:21.444Z</time></trkpt><trkpt lat="45.628085" lon="9.08583"><ele>223.4</ele><time>2026-04-18T07:39:23.444Z</time></trkpt><trkpt lat="45.6279983" lon="9.0858817"><ele>223.0</ele><time>2026-04-18T07:39:25.445Z</time></trkpt><trkpt lat="45.6278933" lon="9.0859217"><ele>222.60000000000002</ele><time>2026-04-18T07:39:27.444Z</time></trkpt><trkpt lat="45.6277867" lon="9.0859383"><ele>222.20000000000002</ele><time>2026-04-18T07:39:29.444Z</time></trkpt><trkpt lat="45.62769" lon="9.08596"><ele>221.8</ele><time>2026-04-18T07:39:31.445Z</time></trkpt><trkpt lat="45.627595" lon="9.0859933"><ele>221.4</ele><time>2026-04-18T07:39:33.444Z</time></trkpt><trkpt lat="45.6274867" lon="9.0860317"><ele>221.0</ele><time>2026-04-18T07:39:35.444Z</time></trkpt><trkpt lat="45.62739" lon="9.0860683"><ele>221.0</ele><time>2026-04-18T07:39:37.444Z</time></trkpt><trkpt lat="45.6273017" lon="9.0860683"><ele>221.00000000000003</ele><time>2026-04-18T07:39:39.443Z</time></trkpt><trkpt lat="45.6272233" lon="9.08605"><ele>221.00000000000003</ele><time>2026-04-18T07:39:41.444Z</time></trkpt><trkpt lat="45.6271367" lon="9.0860517"><ele>221.0</ele><time>2026-04-18T07:39:43.444Z</time></trkpt><trkpt lat="45.627045" lon="9.0860617"><ele>221.0</ele><time>2026-04-18T07:39:45.443Z</time></trkpt><trkpt lat="45.62694" lon="9.0860917"><ele>221.4</ele><time>2026-04-18T07:39:47.444Z</time></trkpt><trkpt lat="45.6268283" lon="9.086115"><ele>221.8</ele><time>2026-04-18T07:39:49.444Z</time></trkpt><trkpt lat="45.6267233" lon="9.0861333"><ele>222.20000000000002</ele><time>2026-04-18T07:39:51.444Z</time></trkpt><trkpt lat="45.6266433" lon="9.086115"><ele>222.60000000000002</ele><time>2026-04-18T07:39:53.444Z</time></trkpt><trkpt lat="45.6265533" lon="9.0860783"><ele>223.0</ele><time>2026-04-18T07:39:55.443Z</time></trkpt><trkpt lat="45.62646" lon="9.0860167"><ele>223.0</ele><time>2026-04-18T07:39:57.443Z</time></trkpt><trkpt lat="45.6263817" lon="9.0859133"><ele>223.0</ele><time>2026-04-18T07:39:59.445Z</time></trkpt><trkpt lat="45.6263083" lon="9.0857917"><ele>223.0</ele><time>2026-04-18T07:40:01.444Z</time></trkpt><trkpt lat="45.62625" lon="9.0856517"><ele>223.0</ele><time>2026-04-18T07:40:03.443Z</time></trkpt><trkpt lat="45.626205" lon="9.08551"><ele>223.0</ele><time>2026-04-18T07:40:05.445Z</time></trkpt><trkpt lat="45.62618" lon="9.085355"><ele>222.8</ele><time>2026-04-18T07:40:07.444Z</time></trkpt><trkpt lat="45.6261833" lon="9.08521"><ele>222.60000000000002</ele><time>2026-04-18T07:40:09.443Z</time></trkpt><trkpt lat="45.6262133" lon="9.0850483"><ele>222.39999999999998</ele><time>2026-04-18T07:40:11.444Z</time></trkpt><trkpt lat="45.6262467" lon="9.0848867"><ele>222.2</ele><time>2026-04-18T07:40:13.444Z</time></trkpt><trkpt lat="45.6262567" lon="9.0847967"><ele>222.0</ele><time>2026-04-18T07:40:14.445Z</time></trkpt><trkpt lat="45.6262933" lon="9.0846283"><ele>222.0</ele><time>2026-04-18T07:40:16.444Z</time></trkpt><trkpt lat="45.6263067" lon="9.08454"><ele>222.0</ele><time>2026-04-18T07:40:17.446Z</time></trkpt><trkpt lat="45.6263183" lon="9.0844483"><ele>222.0</ele><time>2026-04-18T07:40:18.443Z</time></trkpt><trkpt lat="45.6263333" lon="9.0843567"><ele>222.0</ele><time>2026-04-18T07:40:19.444Z</time></trkpt><trkpt lat="45.62636" lon="9.084275"><ele>222.0</ele><time>2026-04-18T07:40:20.444Z</time></trkpt><trkpt lat="45.6263733" lon="9.0841733"><ele>222.0</ele><time>2026-04-18T07:40:21.444Z</time></trkpt><trkpt lat="45.62638" lon="9.0840667"><ele>222.0</ele><time>2026-04-18T07:40:22.444Z</time></trkpt><trkpt lat="45.626385" lon="9.0839567"><ele>221.85714285714286</ele><time>2026-04-18T07:40:23.446Z</time></trkpt><trkpt lat="45.6263817" lon="9.08384"><ele>221.71428571428572</ele><time>2026-04-18T07:40:24.443Z</time></trkpt><trkpt lat="45.62639" lon="9.083745"><ele>221.57142857142858</ele><time>2026-04-18T07:40:25.445Z</time></trkpt><trkpt lat="45.6263917" lon="9.0836533"><ele>221.42857142857144</ele><time>2026-04-18T07:40:26.444Z</time></trkpt><trkpt lat="45.6263833" lon="9.0835617"><ele>221.28571428571428</ele><time>2026-04-18T07:40:27.443Z</time></trkpt><trkpt lat="45.6263733" lon="9.0834667"><ele>221.14285714285717</ele><time>2026-04-18T07:40:28.444Z</time></trkpt><trkpt lat="45.6263683" lon="9.083375"><ele>221.0</ele><time>2026-04-18T07:40:29.444Z</time></trkpt><trkpt lat="45.626365" lon="9.0832733"><ele>220.57142857142858</ele><time>2026-04-18T07:40:30.444Z</time></trkpt><trkpt lat="45.6263567" lon="9.0831733"><ele>220.14285714285714</ele><time>2026-04-18T07:40:31.445Z</time></trkpt><trkpt lat="45.62635" lon="9.0830733"><ele>219.71428571428572</ele><time>2026-04-18T07:40:32.443Z</time></trkpt><trkpt lat="45.6263483" lon="9.0829733"><ele>219.28571428571428</ele><time>2026-04-18T07:40:33.443Z</time></trkpt><trkpt lat="45.6263467" lon="9.08287"><ele>218.85714285714286</ele><time>2026-04-18T07:40:34.444Z</time></trkpt><trkpt lat="45.6263417" lon="9.0827733"><ele>218.42857142857144</ele><time>2026-04-18T07:40:35.445Z</time></trkpt><trkpt lat="45.6263317" lon="9.0826833"><ele>218.0</ele><time>2026-04-18T07:40:36.443Z</time></trkpt><trkpt lat="45.6263233" lon="9.0825933"><ele>218.0</ele><time>2026-04-18T07:40:37.445Z</time></trkpt><trkpt lat="45.62632" lon="9.082495"><ele>218.0</ele><time>2026-04-18T07:40:38.444Z</time></trkpt><trkpt lat="45.6263217" lon="9.0823917"><ele>218.0</ele><time>2026-04-18T07:40:39.444Z</time></trkpt><trkpt lat="45.6263233" lon="9.0822917"><ele>218.0</ele><time>2026-04-18T07:40:40.443Z</time></trkpt><trkpt lat="45.626325" lon="9.0821933"><ele>218.0</ele><time>2026-04-18T07:40:41.445Z</time></trkpt><trkpt lat="45.6263183" lon="9.0820933"><ele>218.0</ele><time>2026-04-18T07:40:42.444Z</time></trkpt><trkpt lat="45.6263183" lon="9.0819967"><ele>218.0</ele><time>2026-04-18T07:40:43.443Z</time></trkpt><trkpt lat="45.6263267" lon="9.0819"><ele>217.57142857142858</ele><time>2026-04-18T07:40:44.445Z</time></trkpt><trkpt lat="45.62632" lon="9.0817983"><ele>217.14285714285717</ele><time>2026-04-18T07:40:45.443Z</time></trkpt><trkpt lat="45.626315" lon="9.0816983"><ele>216.71428571428572</ele><time>2026-04-18T07:40:46.443Z</time></trkpt><trkpt lat="45.626305" lon="9.081595"><ele>216.28571428571428</ele><time>2026-04-18T07:40:47.445Z</time></trkpt><trkpt lat="45.6263117" lon="9.0815017"><ele>215.85714285714286</ele><time>2026-04-18T07:40:48.443Z</time></trkpt><trkpt lat="45.6263217" lon="9.0814033"><ele>215.42857142857142</ele><time>2026-04-18T07:40:49.444Z</time></trkpt><trkpt lat="45.6263283" lon="9.081305"><ele>215.0</ele><time>2026-04-18T07:40:50.444Z</time></trkpt><trkpt lat="45.6263267" lon="9.0811983"><ele>215.0</ele><time>2026-04-18T07:40:51.443Z</time></trkpt><trkpt lat="45.6263317" lon="9.0810983"><ele>215.0</ele><time>2026-04-18T07:40:52.443Z</time></trkpt><trkpt lat="45.6263333" lon="9.0809967"><ele>215.0</ele><time>2026-04-18T07:40:53.444Z</time></trkpt><trkpt lat="45.6263167" lon="9.0809"><ele>215.0</ele><time>2026-04-18T07:40:54.444Z</time></trkpt><trkpt lat="45.6263117" lon="9.0807967"><ele>215.0</ele><time>2026-04-18T07:40:55.443Z</time></trkpt><trkpt lat="45.6263117" lon="9.0806933"><ele>215.0</ele><time>2026-04-18T07:40:56.444Z</time></trkpt><trkpt lat="45.626305" lon="9.080595"><ele>215.0</ele><time>2026-04-18T07:40:57.444Z</time></trkpt><trkpt lat="45.6262983" lon="9.0804967"><ele>215.2</ele><time>2026-04-18T07:40:58.444Z</time></trkpt><trkpt lat="45.6262883" lon="9.0803983"><ele>215.4</ele><time>2026-04-18T07:40:59.445Z</time></trkpt><trkpt lat="45.62626" lon="9.08022"><ele>215.60000000000002</ele><time>2026-04-18T07:41:01.444Z</time></trkpt><trkpt lat="45.6262533" lon="9.080045"><ele>215.8</ele><time>2026-04-18T07:41:03.444Z</time></trkpt><trkpt lat="45.62626" lon="9.07987"><ele>216.0</ele><time>2026-04-18T07:41:05.445Z</time></trkpt><trkpt lat="45.6262583" lon="9.0797067"><ele>216.0</ele><time>2026-04-18T07:41:07.444Z</time></trkpt><trkpt lat="45.6262467" lon="9.0796167"><ele>216.0</ele><time>2026-04-18T07:41:08.445Z</time></trkpt><trkpt lat="45.626245" lon="9.07944"><ele>216.0</ele><time>2026-04-18T07:41:10.443Z</time></trkpt><trkpt lat="45.6262467" lon="9.0793317"><ele>216.0</ele><time>2026-04-18T07:41:11.445Z</time></trkpt><trkpt lat="45.6262417" lon="9.0792133"><ele>216.0</ele><time>2026-04-18T07:41:12.444Z</time></trkpt><trkpt lat="45.6262333" lon="9.079095"><ele>216.0</ele><time>2026-04-18T07:41:13.444Z</time></trkpt><trkpt lat="45.62623" lon="9.07898"><ele>215.66666666666666</ele><time>2026-04-18T07:41:14.444Z</time></trkpt><trkpt lat="45.6262267" lon="9.078875"><ele>215.33333333333331</ele><time>2026-04-18T07:41:15.444Z</time></trkpt><trkpt lat="45.6262233" lon="9.0787633"><ele>215.0</ele><time>2026-04-18T07:41:16.445Z</time></trkpt><trkpt lat="45.6262133" lon="9.078655"><ele>214.66666666666666</ele><time>2026-04-18T07:41:17.444Z</time></trkpt><trkpt lat="45.6262183" lon="9.0785467"><ele>214.33333333333331</ele><time>2026-04-18T07:41:18.444Z</time></trkpt><trkpt lat="45.626205" lon="9.078435"><ele>214.0</ele><time>2026-04-18T07:41:19.444Z</time></trkpt><trkpt lat="45.626205" lon="9.078325"><ele>214.00000000000003</ele><time>2026-04-18T07:41:20.443Z</time></trkpt><trkpt lat="45.6262017" lon="9.0782167"><ele>214.0</ele><time>2026-04-18T07:41:21.444Z</time></trkpt><trkpt lat="45.6262033" lon="9.078115"><ele>214.0</ele><time>2026-04-18T07:41:22.443Z</time></trkpt><trkpt lat="45.6262067" lon="9.0780133"><ele>214.0</ele><time>2026-04-18T07:41:23.446Z</time></trkpt><trkpt lat="45.6262133" lon="9.077915"><ele>214.0</ele><time>2026-04-18T07:41:24.443Z</time></trkpt><trkpt lat="45.6262233" lon="9.0778167"><ele>214.00000000000003</ele><time>2026-04-18T07:41:25.443Z</time></trkpt><trkpt lat="45.62623" lon="9.0777233"><ele>214.0</ele><time>2026-04-18T07:41:26.444Z</time></trkpt><trkpt lat="45.6262433" lon="9.0776317"><ele>214.00000000000003</ele><time>2026-04-18T07:41:27.444Z</time></trkpt><trkpt lat="45.626255" lon="9.077535"><ele>214.0</ele><time>2026-04-18T07:41:28.443Z</time></trkpt><trkpt lat="45.626265" lon="9.077445"><ele>214.0</ele><time>2026-04-18T07:41:29.444Z</time></trkpt><trkpt lat="45.6262717" lon="9.0773517"><ele>214.0</ele><time>2026-04-18T07:41:30.444Z</time></trkpt><trkpt lat="45.6262783" lon="9.0772583"><ele>214.0</ele><time>2026-04-18T07:41:31.445Z</time></trkpt><trkpt lat="45.6262817" lon="9.0771667"><ele>214.00000000000003</ele><time>2026-04-18T07:41:32.444Z</time></trkpt><trkpt lat="45.626285" lon="9.0770767"><ele>214.0</ele><time>2026-04-18T07:41:33.443Z</time></trkpt><trkpt lat="45.6262833" lon="9.076975"><ele>214.39999999999998</ele><time>2026-04-18T07:41:34.444Z</time></trkpt><trkpt lat="45.6262933" lon="9.0768817"><ele>214.79999999999998</ele><time>2026-04-18T07:41:35.443Z</time></trkpt><trkpt lat="45.6263117" lon="9.0767283"><ele>215.20000000000002</ele><time>2026-04-18T07:41:37.444Z</time></trkpt><trkpt lat="45.6263267" lon="9.0765767"><ele>215.60000000000002</ele><time>2026-04-18T07:41:39.443Z</time></trkpt><trkpt lat="45.6263283" lon="9.0764133"><ele>216.0</ele><time>2026-04-18T07:41:41.445Z</time></trkpt><trkpt lat="45.6263333" lon="9.0763233"><ele>216.16666666666666</ele><time>2026-04-18T07:41:42.444Z</time></trkpt><trkpt lat="45.626345" lon="9.0762167"><ele>216.33333333333331</ele><time>2026-04-18T07:41:43.445Z</time></trkpt><trkpt lat="45.62635" lon="9.0761267"><ele>216.5</ele><time>2026-04-18T07:41:44.445Z</time></trkpt><trkpt lat="45.626355" lon="9.075975"><ele>216.66666666666666</ele><time>2026-04-18T07:41:46.444Z</time></trkpt><trkpt lat="45.6263733" lon="9.0758883"><ele>216.83333333333331</ele><time>2026-04-18T07:41:47.445Z</time></trkpt><trkpt lat="45.6264017" lon="9.0757183"><ele>217.0</ele><time>2026-04-18T07:41:49.446Z</time></trkpt><trkpt lat="45.62641" lon="9.0755567"><ele>216.99999999999997</ele><time>2026-04-18T07:41:51.446Z</time></trkpt><trkpt lat="45.626405" lon="9.0754067"><ele>217.0</ele><time>2026-04-18T07:41:53.444Z</time></trkpt><trkpt lat="45.6264067" lon="9.0752883"><ele>217.0</ele><time>2026-04-18T07:41:55.444Z</time></trkpt><trkpt lat="45.6263917" lon="9.0751933"><ele>217.0</ele><time>2026-04-18T07:41:57.444Z</time></trkpt><trkpt lat="45.626385" lon="9.0750933"><ele>216.99999999999997</ele><time>2026-04-18T07:41:59.445Z</time></trkpt><trkpt lat="45.6263633" lon="9.0749617"><ele>217.0</ele><time>2026-04-18T07:42:02.444Z</time></trkpt><trkpt lat="45.6263417" lon="9.0748383"><ele>217.2</ele><time>2026-04-18T07:42:05.444Z</time></trkpt><trkpt lat="45.6263717" lon="9.0747283"><ele>217.39999999999998</ele><time>2026-04-18T07:42:07.446Z</time></trkpt><trkpt lat="45.6263883" lon="9.07459"><ele>217.60000000000002</ele><time>2026-04-18T07:42:09.444Z</time></trkpt><trkpt lat="45.626385" lon="9.0744617"><ele>217.8</ele><time>2026-04-18T07:42:11.444Z</time></trkpt><trkpt lat="45.6263867" lon="9.0743317"><ele>218.0</ele><time>2026-04-18T07:42:13.444Z</time></trkpt><trkpt lat="45.6264067" lon="9.0742083"><ele>217.8</ele><time>2026-04-18T07:42:15.443Z</time></trkpt><trkpt lat="45.626405" lon="9.0740717"><ele>217.60000000000002</ele><time>2026-04-18T07:42:17.443Z</time></trkpt><trkpt lat="45.6264367" lon="9.073935"><ele>217.39999999999998</ele><time>2026-04-18T07:42:19.445Z</time></trkpt><trkpt lat="45.6264233" lon="9.07381"><ele>217.2</ele><time>2026-04-18T07:42:21.444Z</time></trkpt><trkpt lat="45.6263633" lon="9.0736833"><ele>217.0</ele><time>2026-04-18T07:42:23.445Z</time></trkpt><trkpt lat="45.6263317" lon="9.073595"><ele>217.0</ele><time>2026-04-18T07:42:24.444Z</time></trkpt><trkpt lat="45.626315" lon="9.0734567"><ele>217.0</ele><time>2026-04-18T07:42:26.445Z</time></trkpt><trkpt lat="45.6263233" lon="9.0732933"><ele>217.0</ele><time>2026-04-18T07:42:28.446Z</time></trkpt><trkpt lat="45.626345" lon="9.0731633"><ele>217.0</ele><time>2026-04-18T07:42:30.443Z</time></trkpt><trkpt lat="45.6263383" lon="9.0730317"><ele>217.0</ele><time>2026-04-18T07:42:32.445Z</time></trkpt><trkpt lat="45.6263367" lon="9.072895"><ele>218.0</ele><time>2026-04-18T07:42:34.444Z</time></trkpt><trkpt lat="45.6263333" lon="9.07275"><ele>218.0</ele><time>2026-04-18T07:42:36.444Z</time></trkpt><trkpt lat="45.626335" lon="9.0726167"><ele>218.0</ele><time>2026-04-18T07:42:38.446Z</time></trkpt><trkpt lat="45.6263883" lon="9.0725533"><ele>218.0</ele><time>2026-04-18T07:42:39.444Z</time></trkpt><trkpt lat="45.62642" lon="9.072405"><ele>218.0</ele><time>2026-04-18T07:42:41.444Z</time></trkpt></trkseg><trkseg><trkpt lat="45.620945" lon="9.0489533"><ele>255.0</ele><time>2026-04-18T07:54:38.442Z</time></trkpt></trkseg></trk></gpx>